<?xml version="1.0" encoding="UTF-8" standalone="no" ?>
<gpx xmlns="http://www.topografix.com/GPX/1/1" xmlns:xsi="http://www.w3.org/2001/XMLSchema-instance" xsi:schemaLocation="http://www.topografix.com/GPX/1/1 http://www.topografix.com/GPX/1/1/gpx.xsd" version="1.1" creator="VisuGPX - https://www.visugpx.com">
  <metadata>
    <name>MB. Sortie du 08/08/2019</name>
    <desc><![CDATA[Sortie VTT du jeudi 08 août 2019]]></desc>
  </metadata>
  <trk>
    <name><![CDATA[Pornichet Cyclisme]]></name>
    <trkseg>
      <trkpt lat="47.26348" lon="-2.31516">
        <ele>4.5999999046326</ele>
        <time>2019-08-08T07:28:33.000Z</time>
      </trkpt>
      <trkpt lat="47.26339" lon="-2.31535">
        <ele>4.5999999046326</ele>
        <time>2019-08-08T07:28:36.000Z</time>
      </trkpt>
      <trkpt lat="47.26339" lon="-2.3154">
        <ele>4</ele>
        <time>2019-08-08T07:28:37.000Z</time>
      </trkpt>
      <trkpt lat="47.26339" lon="-2.31546">
        <ele>3.5999999046326</ele>
        <time>2019-08-08T07:28:38.000Z</time>
      </trkpt>
      <trkpt lat="47.26338" lon="-2.31552">
        <ele>3.2000000476837</ele>
        <time>2019-08-08T07:28:39.000Z</time>
      </trkpt>
      <trkpt lat="47.26338" lon="-2.31558">
        <ele>2.7999999523163</ele>
        <time>2019-08-08T07:28:40.000Z</time>
      </trkpt>
      <trkpt lat="47.26338" lon="-2.3159">
        <ele>2.7999999523163</ele>
        <time>2019-08-08T07:28:45.000Z</time>
      </trkpt>
      <trkpt lat="47.26339" lon="-2.3162">
        <ele>2.7999999523163</ele>
        <time>2019-08-08T07:28:50.000Z</time>
      </trkpt>
      <trkpt lat="47.26337" lon="-2.31624">
        <ele>2.7999999523163</ele>
        <time>2019-08-08T07:28:51.000Z</time>
      </trkpt>
      <trkpt lat="47.2633" lon="-2.31626">
        <ele>2.7999999523163</ele>
        <time>2019-08-08T07:28:53.000Z</time>
      </trkpt>
      <trkpt lat="47.26313" lon="-2.31636">
        <ele>2.7999999523163</ele>
        <time>2019-08-08T07:28:57.000Z</time>
      </trkpt>
      <trkpt lat="47.26309" lon="-2.31638">
        <ele>2.7999999523163</ele>
        <time>2019-08-08T07:28:58.000Z</time>
      </trkpt>
      <trkpt lat="47.26281" lon="-2.31655">
        <ele>2.7999999523163</ele>
        <time>2019-08-08T07:29:04.000Z</time>
      </trkpt>
      <trkpt lat="47.26265" lon="-2.31663">
        <ele>2.7999999523163</ele>
        <time>2019-08-08T07:29:07.000Z</time>
      </trkpt>
      <trkpt lat="47.26254" lon="-2.31669">
        <ele>2.5999999046326</ele>
        <time>2019-08-08T07:29:09.000Z</time>
      </trkpt>
      <trkpt lat="47.26249" lon="-2.31672">
        <ele>2.5999999046326</ele>
        <time>2019-08-08T07:29:10.000Z</time>
      </trkpt>
      <trkpt lat="47.26244" lon="-2.31674">
        <ele>2.4000000953674</ele>
        <time>2019-08-08T07:29:11.000Z</time>
      </trkpt>
      <trkpt lat="47.26239" lon="-2.31675">
        <ele>2.4000000953674</ele>
        <time>2019-08-08T07:29:12.000Z</time>
      </trkpt>
      <trkpt lat="47.26233" lon="-2.31671">
        <ele>2.4000000953674</ele>
        <time>2019-08-08T07:29:14.000Z</time>
      </trkpt>
      <trkpt lat="47.2623" lon="-2.31668">
        <ele>2</ele>
        <time>2019-08-08T07:29:15.000Z</time>
      </trkpt>
      <trkpt lat="47.26227" lon="-2.31663">
        <ele>1.6000000238419</ele>
        <time>2019-08-08T07:29:16.000Z</time>
      </trkpt>
      <trkpt lat="47.26224" lon="-2.31658">
        <ele>1.2000000476837</ele>
        <time>2019-08-08T07:29:17.000Z</time>
      </trkpt>
      <trkpt lat="47.26221" lon="-2.31653">
        <ele>0.80000001192093</ele>
        <time>2019-08-08T07:29:18.000Z</time>
      </trkpt>
      <trkpt lat="47.26219" lon="-2.31648">
        <ele>0.40000000596046</ele>
        <time>2019-08-08T07:29:19.000Z</time>
      </trkpt>
      <trkpt lat="47.26208" lon="-2.31627">
        <ele>0.40000000596046</ele>
        <time>2019-08-08T07:29:23.000Z</time>
      </trkpt>
      <trkpt lat="47.26192" lon="-2.31593">
        <ele>0.40000000596046</ele>
        <time>2019-08-08T07:29:30.000Z</time>
      </trkpt>
      <trkpt lat="47.26182" lon="-2.3158">
        <ele>0.40000000596046</ele>
        <time>2019-08-08T07:29:33.000Z</time>
      </trkpt>
      <trkpt lat="47.26179" lon="-2.31576">
        <ele>0.40000000596046</ele>
        <time>2019-08-08T07:29:34.000Z</time>
      </trkpt>
      <trkpt lat="47.26175" lon="-2.31573">
        <ele>0.40000000596046</ele>
        <time>2019-08-08T07:29:35.000Z</time>
      </trkpt>
      <trkpt lat="47.26162" lon="-2.31564">
        <ele>0.40000000596046</ele>
        <time>2019-08-08T07:29:39.000Z</time>
      </trkpt>
      <trkpt lat="47.26149" lon="-2.31562">
        <ele>0.40000000596046</ele>
        <time>2019-08-08T07:29:42.000Z</time>
      </trkpt>
      <trkpt lat="47.2614" lon="-2.31563">
        <ele>0.40000000596046</ele>
        <time>2019-08-08T07:29:44.000Z</time>
      </trkpt>
      <trkpt lat="47.26115" lon="-2.31571">
        <ele>0.40000000596046</ele>
        <time>2019-08-08T07:29:50.000Z</time>
      </trkpt>
      <trkpt lat="47.26076" lon="-2.31585">
        <ele>0.40000000596046</ele>
        <time>2019-08-08T07:30:00.000Z</time>
      </trkpt>
      <trkpt lat="47.26051" lon="-2.31585">
        <ele>0.40000000596046</ele>
        <time>2019-08-08T07:30:07.000Z</time>
      </trkpt>
      <trkpt lat="47.26039" lon="-2.31565">
        <ele>0.40000000596046</ele>
        <time>2019-08-08T07:30:12.000Z</time>
      </trkpt>
      <trkpt lat="47.26031" lon="-2.31557">
        <ele>0.40000000596046</ele>
        <time>2019-08-08T07:30:16.000Z</time>
      </trkpt>
      <trkpt lat="47.26021" lon="-2.3154">
        <ele>0.40000000596046</ele>
        <time>2019-08-08T07:30:21.000Z</time>
      </trkpt>
      <trkpt lat="47.26019" lon="-2.31535">
        <ele>0.40000000596046</ele>
        <time>2019-08-08T07:30:22.000Z</time>
      </trkpt>
      <trkpt lat="47.26008" lon="-2.31513">
        <ele>0.40000000596046</ele>
        <time>2019-08-08T07:30:27.000Z</time>
      </trkpt>
      <trkpt lat="47.25993" lon="-2.31494">
        <ele>0.40000000596046</ele>
        <time>2019-08-08T07:30:33.000Z</time>
      </trkpt>
      <trkpt lat="47.25986" lon="-2.31505">
        <ele>0.40000000596046</ele>
        <time>2019-08-08T07:30:37.000Z</time>
      </trkpt>
      <trkpt lat="47.25983" lon="-2.31514">
        <ele>0.40000000596046</ele>
        <time>2019-08-08T07:30:39.000Z</time>
      </trkpt>
      <trkpt lat="47.25978" lon="-2.31529">
        <ele>0.40000000596046</ele>
        <time>2019-08-08T07:30:42.000Z</time>
      </trkpt>
      <trkpt lat="47.25975" lon="-2.31534">
        <ele>0.40000000596046</ele>
        <time>2019-08-08T07:30:43.000Z</time>
      </trkpt>
      <trkpt lat="47.2597" lon="-2.31541">
        <ele>0.40000000596046</ele>
        <time>2019-08-08T07:30:45.000Z</time>
      </trkpt>
      <trkpt lat="47.25964" lon="-2.3154">
        <ele>0.80000001192093</ele>
        <time>2019-08-08T07:30:47.000Z</time>
      </trkpt>
      <trkpt lat="47.25961" lon="-2.31536">
        <ele>1.2000000476837</ele>
        <time>2019-08-08T07:30:48.000Z</time>
      </trkpt>
      <trkpt lat="47.25959" lon="-2.31532">
        <ele>1.6000000238419</ele>
        <time>2019-08-08T07:30:49.000Z</time>
      </trkpt>
      <trkpt lat="47.25956" lon="-2.31528">
        <ele>2.4000000953674</ele>
        <time>2019-08-08T07:30:50.000Z</time>
      </trkpt>
      <trkpt lat="47.25954" lon="-2.31525">
        <ele>2.4000000953674</ele>
        <time>2019-08-08T07:30:51.000Z</time>
      </trkpt>
      <trkpt lat="47.25951" lon="-2.3152">
        <ele>2.4000000953674</ele>
        <time>2019-08-08T07:30:52.000Z</time>
      </trkpt>
      <trkpt lat="47.25946" lon="-2.31511">
        <ele>2.4000000953674</ele>
        <time>2019-08-08T07:30:54.000Z</time>
      </trkpt>
      <trkpt lat="47.25936" lon="-2.31491">
        <ele>2.4000000953674</ele>
        <time>2019-08-08T07:30:58.000Z</time>
      </trkpt>
      <trkpt lat="47.25934" lon="-2.31485">
        <ele>2.4000000953674</ele>
        <time>2019-08-08T07:30:59.000Z</time>
      </trkpt>
      <trkpt lat="47.25925" lon="-2.31464">
        <ele>2.4000000953674</ele>
        <time>2019-08-08T07:31:03.000Z</time>
      </trkpt>
      <trkpt lat="47.25939" lon="-2.31459">
        <ele>2.4000000953674</ele>
        <time>2019-08-08T07:31:06.000Z</time>
      </trkpt>
      <trkpt lat="47.25935" lon="-2.31454">
        <ele>2.4000000953674</ele>
        <time>2019-08-08T07:31:08.000Z</time>
      </trkpt>
      <trkpt lat="47.25917" lon="-2.31449">
        <ele>2.4000000953674</ele>
        <time>2019-08-08T07:31:14.000Z</time>
      </trkpt>
      <trkpt lat="47.25912" lon="-2.31454">
        <ele>2.4000000953674</ele>
        <time>2019-08-08T07:31:16.000Z</time>
      </trkpt>
      <trkpt lat="47.25908" lon="-2.31463">
        <ele>2.4000000953674</ele>
        <time>2019-08-08T07:31:18.000Z</time>
      </trkpt>
      <trkpt lat="47.25903" lon="-2.31498">
        <ele>2.4000000953674</ele>
        <time>2019-08-08T07:31:25.000Z</time>
      </trkpt>
      <trkpt lat="47.25903" lon="-2.315">
        <ele>2.4000000953674</ele>
        <time>2019-08-08T07:31:26.000Z</time>
      </trkpt>
      <trkpt lat="47.25905" lon="-2.31504">
        <ele>2.4000000953674</ele>
        <time>2019-08-08T07:31:28.000Z</time>
      </trkpt>
      <trkpt lat="47.25906" lon="-2.31509">
        <ele>2.4000000953674</ele>
        <time>2019-08-08T07:31:30.000Z</time>
      </trkpt>
      <trkpt lat="47.25903" lon="-2.31514">
        <ele>2.4000000953674</ele>
        <time>2019-08-08T07:31:32.000Z</time>
      </trkpt>
      <trkpt lat="47.25899" lon="-2.31523">
        <ele>2.4000000953674</ele>
        <time>2019-08-08T07:31:34.000Z</time>
      </trkpt>
      <trkpt lat="47.25897" lon="-2.31535">
        <ele>2.4000000953674</ele>
        <time>2019-08-08T07:31:36.000Z</time>
      </trkpt>
      <trkpt lat="47.25892" lon="-2.31552">
        <ele>2.7999999523163</ele>
        <time>2019-08-08T07:31:39.000Z</time>
      </trkpt>
      <trkpt lat="47.25891" lon="-2.31556">
        <ele>3.2000000476837</ele>
        <time>2019-08-08T07:31:40.000Z</time>
      </trkpt>
      <trkpt lat="47.25889" lon="-2.31561">
        <ele>3.5999999046326</ele>
        <time>2019-08-08T07:31:41.000Z</time>
      </trkpt>
      <trkpt lat="47.25887" lon="-2.31566">
        <ele>4</ele>
        <time>2019-08-08T07:31:42.000Z</time>
      </trkpt>
      <trkpt lat="47.25884" lon="-2.31571">
        <ele>4.4000000953674</ele>
        <time>2019-08-08T07:31:43.000Z</time>
      </trkpt>
      <trkpt lat="47.25867" lon="-2.31591">
        <ele>4.4000000953674</ele>
        <time>2019-08-08T07:31:49.000Z</time>
      </trkpt>
      <trkpt lat="47.25859" lon="-2.31601">
        <ele>4.8000001907349</ele>
        <time>2019-08-08T07:31:52.000Z</time>
      </trkpt>
      <trkpt lat="47.25856" lon="-2.31604">
        <ele>5.1999998092651</ele>
        <time>2019-08-08T07:31:53.000Z</time>
      </trkpt>
      <trkpt lat="47.25853" lon="-2.31607">
        <ele>5.5999999046326</ele>
        <time>2019-08-08T07:31:54.000Z</time>
      </trkpt>
      <trkpt lat="47.2585" lon="-2.3161">
        <ele>6</ele>
        <time>2019-08-08T07:31:55.000Z</time>
      </trkpt>
      <trkpt lat="47.25847" lon="-2.31612">
        <ele>6.4000000953674</ele>
        <time>2019-08-08T07:31:56.000Z</time>
      </trkpt>
      <trkpt lat="47.25826" lon="-2.31631">
        <ele>6.4000000953674</ele>
        <time>2019-08-08T07:32:03.000Z</time>
      </trkpt>
      <trkpt lat="47.25801" lon="-2.3165">
        <ele>6.4000000953674</ele>
        <time>2019-08-08T07:32:10.000Z</time>
      </trkpt>
      <trkpt lat="47.25779" lon="-2.31668">
        <ele>6.4000000953674</ele>
        <time>2019-08-08T07:32:16.000Z</time>
      </trkpt>
      <trkpt lat="47.25775" lon="-2.31672">
        <ele>6.4000000953674</ele>
        <time>2019-08-08T07:32:17.000Z</time>
      </trkpt>
      <trkpt lat="47.25744" lon="-2.31695">
        <ele>6.4000000953674</ele>
        <time>2019-08-08T07:32:24.000Z</time>
      </trkpt>
      <trkpt lat="47.25732" lon="-2.31704">
        <ele>6.4000000953674</ele>
        <time>2019-08-08T07:32:27.000Z</time>
      </trkpt>
      <trkpt lat="47.25723" lon="-2.31704">
        <ele>6.4000000953674</ele>
        <time>2019-08-08T07:32:29.000Z</time>
      </trkpt>
      <trkpt lat="47.25711" lon="-2.31696">
        <ele>6.4000000953674</ele>
        <time>2019-08-08T07:32:32.000Z</time>
      </trkpt>
      <trkpt lat="47.25707" lon="-2.31694">
        <ele>6.4000000953674</ele>
        <time>2019-08-08T07:32:33.000Z</time>
      </trkpt>
      <trkpt lat="47.25703" lon="-2.31692">
        <ele>6.4000000953674</ele>
        <time>2019-08-08T07:32:34.000Z</time>
      </trkpt>
      <trkpt lat="47.25687" lon="-2.31684">
        <ele>6.4000000953674</ele>
        <time>2019-08-08T07:32:38.000Z</time>
      </trkpt>
      <trkpt lat="47.2568" lon="-2.31681">
        <ele>6.4000000953674</ele>
        <time>2019-08-08T07:32:40.000Z</time>
      </trkpt>
      <trkpt lat="47.25667" lon="-2.31687">
        <ele>6.8000001907349</ele>
        <time>2019-08-08T07:32:44.000Z</time>
      </trkpt>
      <trkpt lat="47.25663" lon="-2.31689">
        <ele>7.1999998092651</ele>
        <time>2019-08-08T07:32:45.000Z</time>
      </trkpt>
      <trkpt lat="47.25659" lon="-2.31691">
        <ele>7.5999999046326</ele>
        <time>2019-08-08T07:32:46.000Z</time>
      </trkpt>
      <trkpt lat="47.25656" lon="-2.31694">
        <ele>8</ele>
        <time>2019-08-08T07:32:47.000Z</time>
      </trkpt>
      <trkpt lat="47.25653" lon="-2.31697">
        <ele>8.3999996185303</ele>
        <time>2019-08-08T07:32:48.000Z</time>
      </trkpt>
      <trkpt lat="47.2565" lon="-2.31701">
        <ele>8.3999996185303</ele>
        <time>2019-08-08T07:32:49.000Z</time>
      </trkpt>
      <trkpt lat="47.25635" lon="-2.31718">
        <ele>8.8000001907349</ele>
        <time>2019-08-08T07:32:54.000Z</time>
      </trkpt>
      <trkpt lat="47.25632" lon="-2.31722">
        <ele>9.1999998092651</ele>
        <time>2019-08-08T07:32:55.000Z</time>
      </trkpt>
      <trkpt lat="47.2563" lon="-2.31727">
        <ele>9.6000003814697</ele>
        <time>2019-08-08T07:32:56.000Z</time>
      </trkpt>
      <trkpt lat="47.25629" lon="-2.31732">
        <ele>10</ele>
        <time>2019-08-08T07:32:57.000Z</time>
      </trkpt>
      <trkpt lat="47.25628" lon="-2.31738">
        <ele>10.39999961853</ele>
        <time>2019-08-08T07:32:58.000Z</time>
      </trkpt>
      <trkpt lat="47.25627" lon="-2.31744">
        <ele>10.39999961853</ele>
        <time>2019-08-08T07:32:59.000Z</time>
      </trkpt>
      <trkpt lat="47.25623" lon="-2.31755">
        <ele>10.39999961853</ele>
        <time>2019-08-08T07:33:01.000Z</time>
      </trkpt>
      <trkpt lat="47.25614" lon="-2.31766">
        <ele>10.39999961853</ele>
        <time>2019-08-08T07:33:04.000Z</time>
      </trkpt>
      <trkpt lat="47.25597" lon="-2.31768">
        <ele>10.39999961853</ele>
        <time>2019-08-08T07:33:08.000Z</time>
      </trkpt>
      <trkpt lat="47.25592" lon="-2.31769">
        <ele>10.39999961853</ele>
        <time>2019-08-08T07:33:09.000Z</time>
      </trkpt>
      <trkpt lat="47.2558" lon="-2.31774">
        <ele>10.800000190735</ele>
        <time>2019-08-08T07:33:12.000Z</time>
      </trkpt>
      <trkpt lat="47.25577" lon="-2.31776">
        <ele>11.199999809265</ele>
        <time>2019-08-08T07:33:13.000Z</time>
      </trkpt>
      <trkpt lat="47.25573" lon="-2.31779">
        <ele>11.800000190735</ele>
        <time>2019-08-08T07:33:14.000Z</time>
      </trkpt>
      <trkpt lat="47.2557" lon="-2.31782">
        <ele>12.199999809265</ele>
        <time>2019-08-08T07:33:15.000Z</time>
      </trkpt>
      <trkpt lat="47.25568" lon="-2.31786">
        <ele>12.60000038147</ele>
        <time>2019-08-08T07:33:16.000Z</time>
      </trkpt>
      <trkpt lat="47.25566" lon="-2.31791">
        <ele>12.60000038147</ele>
        <time>2019-08-08T07:33:17.000Z</time>
      </trkpt>
      <trkpt lat="47.25556" lon="-2.31805">
        <ele>12.60000038147</ele>
        <time>2019-08-08T07:33:21.000Z</time>
      </trkpt>
      <trkpt lat="47.25552" lon="-2.31806">
        <ele>13</ele>
        <time>2019-08-08T07:33:22.000Z</time>
      </trkpt>
      <trkpt lat="47.25549" lon="-2.31807">
        <ele>13.39999961853</ele>
        <time>2019-08-08T07:33:23.000Z</time>
      </trkpt>
      <trkpt lat="47.25545" lon="-2.31808">
        <ele>13.800000190735</ele>
        <time>2019-08-08T07:33:24.000Z</time>
      </trkpt>
      <trkpt lat="47.25542" lon="-2.3181">
        <ele>14.199999809265</ele>
        <time>2019-08-08T07:33:25.000Z</time>
      </trkpt>
      <trkpt lat="47.25539" lon="-2.31811">
        <ele>14.60000038147</ele>
        <time>2019-08-08T07:33:26.000Z</time>
      </trkpt>
      <trkpt lat="47.25524" lon="-2.3182">
        <ele>14.60000038147</ele>
        <time>2019-08-08T07:33:32.000Z</time>
      </trkpt>
      <trkpt lat="47.25522" lon="-2.31826">
        <ele>14.60000038147</ele>
        <time>2019-08-08T07:33:36.000Z</time>
      </trkpt>
      <trkpt lat="47.25522" lon="-2.31826">
        <ele>14.60000038147</ele>
        <time>2019-08-08T07:33:37.000Z</time>
      </trkpt>
      <trkpt lat="47.25521" lon="-2.31827">
        <ele>20.60000038147</ele>
        <time>2019-08-08T07:39:33.000Z</time>
      </trkpt>
      <trkpt lat="47.2552" lon="-2.31822">
        <ele>20.60000038147</ele>
        <time>2019-08-08T07:39:35.000Z</time>
      </trkpt>
      <trkpt lat="47.25521" lon="-2.31819">
        <ele>20.60000038147</ele>
        <time>2019-08-08T07:39:38.000Z</time>
      </trkpt>
      <trkpt lat="47.25521" lon="-2.31816">
        <ele>20.60000038147</ele>
        <time>2019-08-08T07:39:44.000Z</time>
      </trkpt>
      <trkpt lat="47.25523" lon="-2.31812">
        <ele>20.60000038147</ele>
        <time>2019-08-08T07:39:49.000Z</time>
      </trkpt>
      <trkpt lat="47.25524" lon="-2.3181">
        <ele>20.60000038147</ele>
        <time>2019-08-08T07:39:55.000Z</time>
      </trkpt>
      <trkpt lat="47.25526" lon="-2.31809">
        <ele>20.60000038147</ele>
        <time>2019-08-08T07:39:57.000Z</time>
      </trkpt>
      <trkpt lat="47.25528" lon="-2.3181">
        <ele>20.60000038147</ele>
        <time>2019-08-08T07:40:24.000Z</time>
      </trkpt>
      <trkpt lat="47.25533" lon="-2.31809">
        <ele>20.60000038147</ele>
        <time>2019-08-08T07:40:26.000Z</time>
      </trkpt>
      <trkpt lat="47.25555" lon="-2.31802">
        <ele>20.60000038147</ele>
        <time>2019-08-08T07:40:32.000Z</time>
      </trkpt>
      <trkpt lat="47.25566" lon="-2.31789">
        <ele>20.60000038147</ele>
        <time>2019-08-08T07:40:36.000Z</time>
      </trkpt>
      <trkpt lat="47.25573" lon="-2.31774">
        <ele>20.60000038147</ele>
        <time>2019-08-08T07:40:39.000Z</time>
      </trkpt>
      <trkpt lat="47.2558" lon="-2.31767">
        <ele>20.60000038147</ele>
        <time>2019-08-08T07:40:41.000Z</time>
      </trkpt>
      <trkpt lat="47.25587" lon="-2.3176">
        <ele>20.60000038147</ele>
        <time>2019-08-08T07:40:43.000Z</time>
      </trkpt>
      <trkpt lat="47.25593" lon="-2.31742">
        <ele>20.60000038147</ele>
        <time>2019-08-08T07:40:46.000Z</time>
      </trkpt>
      <trkpt lat="47.25604" lon="-2.31716">
        <ele>20.60000038147</ele>
        <time>2019-08-08T07:40:51.000Z</time>
      </trkpt>
      <trkpt lat="47.25617" lon="-2.31714">
        <ele>20.60000038147</ele>
        <time>2019-08-08T07:40:54.000Z</time>
      </trkpt>
      <trkpt lat="47.25628" lon="-2.3173">
        <ele>20.60000038147</ele>
        <time>2019-08-08T07:40:57.000Z</time>
      </trkpt>
      <trkpt lat="47.25629" lon="-2.31753">
        <ele>20.60000038147</ele>
        <time>2019-08-08T07:41:00.000Z</time>
      </trkpt>
      <trkpt lat="47.25635" lon="-2.3178">
        <ele>20.60000038147</ele>
        <time>2019-08-08T07:41:04.000Z</time>
      </trkpt>
      <trkpt lat="47.25641" lon="-2.31793">
        <ele>20.60000038147</ele>
        <time>2019-08-08T07:41:06.000Z</time>
      </trkpt>
      <trkpt lat="47.25649" lon="-2.31814">
        <ele>20.60000038147</ele>
        <time>2019-08-08T07:41:09.000Z</time>
      </trkpt>
      <trkpt lat="47.25665" lon="-2.31867">
        <ele>20.60000038147</ele>
        <time>2019-08-08T07:41:16.000Z</time>
      </trkpt>
      <trkpt lat="47.25681" lon="-2.31927">
        <ele>20.60000038147</ele>
        <time>2019-08-08T07:41:23.000Z</time>
      </trkpt>
      <trkpt lat="47.25698" lon="-2.31998">
        <ele>20.60000038147</ele>
        <time>2019-08-08T07:41:31.000Z</time>
      </trkpt>
      <trkpt lat="47.25699" lon="-2.32006">
        <ele>20.60000038147</ele>
        <time>2019-08-08T07:41:32.000Z</time>
      </trkpt>
      <trkpt lat="47.25714" lon="-2.32065">
        <ele>20.60000038147</ele>
        <time>2019-08-08T07:41:39.000Z</time>
      </trkpt>
      <trkpt lat="47.25732" lon="-2.32144">
        <ele>20.60000038147</ele>
        <time>2019-08-08T07:41:48.000Z</time>
      </trkpt>
      <trkpt lat="47.25743" lon="-2.32204">
        <ele>20.60000038147</ele>
        <time>2019-08-08T07:41:54.000Z</time>
      </trkpt>
      <trkpt lat="47.25759" lon="-2.32281">
        <ele>20.200000762939</ele>
        <time>2019-08-08T07:42:01.000Z</time>
      </trkpt>
      <trkpt lat="47.25762" lon="-2.32292">
        <ele>19.799999237061</ele>
        <time>2019-08-08T07:42:02.000Z</time>
      </trkpt>
      <trkpt lat="47.25764" lon="-2.32304">
        <ele>19.39999961853</ele>
        <time>2019-08-08T07:42:03.000Z</time>
      </trkpt>
      <trkpt lat="47.25766" lon="-2.32316">
        <ele>19</ele>
        <time>2019-08-08T07:42:04.000Z</time>
      </trkpt>
      <trkpt lat="47.25768" lon="-2.32329">
        <ele>18.60000038147</ele>
        <time>2019-08-08T07:42:05.000Z</time>
      </trkpt>
      <trkpt lat="47.25775" lon="-2.32366">
        <ele>18.60000038147</ele>
        <time>2019-08-08T07:42:08.000Z</time>
      </trkpt>
      <trkpt lat="47.25781" lon="-2.32392">
        <ele>18</ele>
        <time>2019-08-08T07:42:10.000Z</time>
      </trkpt>
      <trkpt lat="47.25783" lon="-2.32403">
        <ele>17.60000038147</ele>
        <time>2019-08-08T07:42:11.000Z</time>
      </trkpt>
      <trkpt lat="47.25785" lon="-2.32414">
        <ele>17.200000762939</ele>
        <time>2019-08-08T07:42:12.000Z</time>
      </trkpt>
      <trkpt lat="47.25788" lon="-2.32424">
        <ele>16.60000038147</ele>
        <time>2019-08-08T07:42:13.000Z</time>
      </trkpt>
      <trkpt lat="47.25792" lon="-2.32432">
        <ele>16</ele>
        <time>2019-08-08T07:42:14.000Z</time>
      </trkpt>
      <trkpt lat="47.25796" lon="-2.32441">
        <ele>15.60000038147</ele>
        <time>2019-08-08T07:42:15.000Z</time>
      </trkpt>
      <trkpt lat="47.258" lon="-2.32448">
        <ele>15</ele>
        <time>2019-08-08T07:42:16.000Z</time>
      </trkpt>
      <trkpt lat="47.25804" lon="-2.32453">
        <ele>14.39999961853</ele>
        <time>2019-08-08T07:42:17.000Z</time>
      </trkpt>
      <trkpt lat="47.25808" lon="-2.32457">
        <ele>14</ele>
        <time>2019-08-08T07:42:18.000Z</time>
      </trkpt>
      <trkpt lat="47.2581" lon="-2.32459">
        <ele>13.39999961853</ele>
        <time>2019-08-08T07:42:19.000Z</time>
      </trkpt>
      <trkpt lat="47.25811" lon="-2.32463">
        <ele>13</ele>
        <time>2019-08-08T07:42:20.000Z</time>
      </trkpt>
      <trkpt lat="47.25812" lon="-2.32468">
        <ele>11.800000190735</ele>
        <time>2019-08-08T07:42:21.000Z</time>
      </trkpt>
      <trkpt lat="47.25818" lon="-2.32487">
        <ele>11.800000190735</ele>
        <time>2019-08-08T07:42:25.000Z</time>
      </trkpt>
      <trkpt lat="47.25821" lon="-2.32492">
        <ele>11.800000190735</ele>
        <time>2019-08-08T07:42:26.000Z</time>
      </trkpt>
      <trkpt lat="47.25835" lon="-2.32512">
        <ele>11.800000190735</ele>
        <time>2019-08-08T07:42:30.000Z</time>
      </trkpt>
      <trkpt lat="47.25867" lon="-2.32557">
        <ele>11.800000190735</ele>
        <time>2019-08-08T07:42:38.000Z</time>
      </trkpt>
      <trkpt lat="47.25889" lon="-2.32584">
        <ele>11.800000190735</ele>
        <time>2019-08-08T07:42:43.000Z</time>
      </trkpt>
      <trkpt lat="47.25895" lon="-2.32587">
        <ele>11.800000190735</ele>
        <time>2019-08-08T07:42:44.000Z</time>
      </trkpt>
      <trkpt lat="47.25905" lon="-2.32596">
        <ele>11.800000190735</ele>
        <time>2019-08-08T07:42:46.000Z</time>
      </trkpt>
      <trkpt lat="47.25913" lon="-2.32608">
        <ele>11.800000190735</ele>
        <time>2019-08-08T07:42:48.000Z</time>
      </trkpt>
      <trkpt lat="47.2595" lon="-2.32653">
        <ele>11.800000190735</ele>
        <time>2019-08-08T07:42:56.000Z</time>
      </trkpt>
      <trkpt lat="47.25955" lon="-2.32657">
        <ele>11.800000190735</ele>
        <time>2019-08-08T07:42:57.000Z</time>
      </trkpt>
      <trkpt lat="47.25967" lon="-2.32658">
        <ele>11.800000190735</ele>
        <time>2019-08-08T07:42:59.000Z</time>
      </trkpt>
      <trkpt lat="47.25979" lon="-2.32657">
        <ele>11.800000190735</ele>
        <time>2019-08-08T07:43:01.000Z</time>
      </trkpt>
      <trkpt lat="47.25985" lon="-2.32658">
        <ele>11.800000190735</ele>
        <time>2019-08-08T07:43:02.000Z</time>
      </trkpt>
      <trkpt lat="47.25997" lon="-2.32658">
        <ele>11.800000190735</ele>
        <time>2019-08-08T07:43:04.000Z</time>
      </trkpt>
      <trkpt lat="47.26037" lon="-2.32651">
        <ele>11.800000190735</ele>
        <time>2019-08-08T07:43:11.000Z</time>
      </trkpt>
      <trkpt lat="47.26085" lon="-2.32642">
        <ele>11.800000190735</ele>
        <time>2019-08-08T07:43:20.000Z</time>
      </trkpt>
      <trkpt lat="47.26117" lon="-2.32639">
        <ele>11.800000190735</ele>
        <time>2019-08-08T07:43:26.000Z</time>
      </trkpt>
      <trkpt lat="47.26122" lon="-2.32639">
        <ele>11.800000190735</ele>
        <time>2019-08-08T07:43:27.000Z</time>
      </trkpt>
      <trkpt lat="47.2616" lon="-2.32648">
        <ele>11.800000190735</ele>
        <time>2019-08-08T07:43:34.000Z</time>
      </trkpt>
      <trkpt lat="47.2617" lon="-2.32654">
        <ele>12.39999961853</ele>
        <time>2019-08-08T07:43:36.000Z</time>
      </trkpt>
      <trkpt lat="47.26175" lon="-2.32657">
        <ele>12.800000190735</ele>
        <time>2019-08-08T07:43:37.000Z</time>
      </trkpt>
      <trkpt lat="47.2618" lon="-2.3266">
        <ele>13.199999809265</ele>
        <time>2019-08-08T07:43:38.000Z</time>
      </trkpt>
      <trkpt lat="47.26185" lon="-2.32664">
        <ele>13.60000038147</ele>
        <time>2019-08-08T07:43:39.000Z</time>
      </trkpt>
      <trkpt lat="47.26189" lon="-2.32669">
        <ele>14</ele>
        <time>2019-08-08T07:43:40.000Z</time>
      </trkpt>
      <trkpt lat="47.26221" lon="-2.32705">
        <ele>14</ele>
        <time>2019-08-08T07:43:47.000Z</time>
      </trkpt>
      <trkpt lat="47.26249" lon="-2.32744">
        <ele>14</ele>
        <time>2019-08-08T07:43:53.000Z</time>
      </trkpt>
      <trkpt lat="47.26276" lon="-2.32793">
        <ele>14</ele>
        <time>2019-08-08T07:43:59.000Z</time>
      </trkpt>
      <trkpt lat="47.26283" lon="-2.32811">
        <ele>13.199999809265</ele>
        <time>2019-08-08T07:44:01.000Z</time>
      </trkpt>
      <trkpt lat="47.26285" lon="-2.32821">
        <ele>12.60000038147</ele>
        <time>2019-08-08T07:44:02.000Z</time>
      </trkpt>
      <trkpt lat="47.26286" lon="-2.32831">
        <ele>12.199999809265</ele>
        <time>2019-08-08T07:44:03.000Z</time>
      </trkpt>
      <trkpt lat="47.26287" lon="-2.32842">
        <ele>11.800000190735</ele>
        <time>2019-08-08T07:44:04.000Z</time>
      </trkpt>
      <trkpt lat="47.263" lon="-2.32863">
        <ele>11.800000190735</ele>
        <time>2019-08-08T07:44:07.000Z</time>
      </trkpt>
      <trkpt lat="47.26318" lon="-2.32874">
        <ele>11.800000190735</ele>
        <time>2019-08-08T07:44:10.000Z</time>
      </trkpt>
      <trkpt lat="47.26327" lon="-2.32899">
        <ele>11.800000190735</ele>
        <time>2019-08-08T07:44:13.000Z</time>
      </trkpt>
      <trkpt lat="47.26329" lon="-2.32908">
        <ele>11.800000190735</ele>
        <time>2019-08-08T07:44:14.000Z</time>
      </trkpt>
      <trkpt lat="47.26346" lon="-2.32959">
        <ele>11.800000190735</ele>
        <time>2019-08-08T07:44:20.000Z</time>
      </trkpt>
      <trkpt lat="47.26353" lon="-2.32974">
        <ele>11.800000190735</ele>
        <time>2019-08-08T07:44:22.000Z</time>
      </trkpt>
      <trkpt lat="47.26363" lon="-2.32986">
        <ele>11.800000190735</ele>
        <time>2019-08-08T07:44:24.000Z</time>
      </trkpt>
      <trkpt lat="47.26365" lon="-2.32994">
        <ele>11.800000190735</ele>
        <time>2019-08-08T07:44:25.000Z</time>
      </trkpt>
      <trkpt lat="47.26367" lon="-2.33012">
        <ele>11.800000190735</ele>
        <time>2019-08-08T07:44:27.000Z</time>
      </trkpt>
      <trkpt lat="47.26367" lon="-2.3303">
        <ele>11.800000190735</ele>
        <time>2019-08-08T07:44:29.000Z</time>
      </trkpt>
      <trkpt lat="47.2637" lon="-2.33074">
        <ele>11.800000190735</ele>
        <time>2019-08-08T07:44:34.000Z</time>
      </trkpt>
      <trkpt lat="47.26374" lon="-2.33152">
        <ele>11.800000190735</ele>
        <time>2019-08-08T07:44:43.000Z</time>
      </trkpt>
      <trkpt lat="47.2638" lon="-2.33239">
        <ele>11.800000190735</ele>
        <time>2019-08-08T07:44:53.000Z</time>
      </trkpt>
      <trkpt lat="47.26383" lon="-2.33256">
        <ele>11.800000190735</ele>
        <time>2019-08-08T07:44:55.000Z</time>
      </trkpt>
      <trkpt lat="47.26393" lon="-2.33266">
        <ele>11.800000190735</ele>
        <time>2019-08-08T07:44:57.000Z</time>
      </trkpt>
      <trkpt lat="47.26411" lon="-2.33268">
        <ele>11.800000190735</ele>
        <time>2019-08-08T07:45:00.000Z</time>
      </trkpt>
      <trkpt lat="47.26468" lon="-2.33275">
        <ele>11.800000190735</ele>
        <time>2019-08-08T07:45:10.000Z</time>
      </trkpt>
      <trkpt lat="47.26479" lon="-2.33274">
        <ele>11.800000190735</ele>
        <time>2019-08-08T07:45:12.000Z</time>
      </trkpt>
      <trkpt lat="47.26489" lon="-2.33264">
        <ele>11.800000190735</ele>
        <time>2019-08-08T07:45:14.000Z</time>
      </trkpt>
      <trkpt lat="47.26498" lon="-2.33247">
        <ele>11.800000190735</ele>
        <time>2019-08-08T07:45:17.000Z</time>
      </trkpt>
      <trkpt lat="47.26501" lon="-2.33242">
        <ele>11.800000190735</ele>
        <time>2019-08-08T07:45:18.000Z</time>
      </trkpt>
      <trkpt lat="47.26506" lon="-2.33238">
        <ele>11.800000190735</ele>
        <time>2019-08-08T07:45:19.000Z</time>
      </trkpt>
      <trkpt lat="47.26519" lon="-2.33229">
        <ele>11.800000190735</ele>
        <time>2019-08-08T07:45:22.000Z</time>
      </trkpt>
      <trkpt lat="47.26549" lon="-2.33209">
        <ele>11.800000190735</ele>
        <time>2019-08-08T07:45:28.000Z</time>
      </trkpt>
      <trkpt lat="47.26581" lon="-2.33188">
        <ele>11.800000190735</ele>
        <time>2019-08-08T07:45:34.000Z</time>
      </trkpt>
      <trkpt lat="47.26585" lon="-2.33183">
        <ele>11.800000190735</ele>
        <time>2019-08-08T07:45:35.000Z</time>
      </trkpt>
      <trkpt lat="47.26592" lon="-2.33162">
        <ele>11.800000190735</ele>
        <time>2019-08-08T07:45:38.000Z</time>
      </trkpt>
      <trkpt lat="47.26606" lon="-2.33145">
        <ele>11.800000190735</ele>
        <time>2019-08-08T07:45:42.000Z</time>
      </trkpt>
      <trkpt lat="47.26622" lon="-2.33148">
        <ele>11.800000190735</ele>
        <time>2019-08-08T07:45:45.000Z</time>
      </trkpt>
      <trkpt lat="47.26627" lon="-2.33149">
        <ele>11.800000190735</ele>
        <time>2019-08-08T07:45:46.000Z</time>
      </trkpt>
      <trkpt lat="47.26638" lon="-2.33147">
        <ele>11.800000190735</ele>
        <time>2019-08-08T07:45:48.000Z</time>
      </trkpt>
      <trkpt lat="47.26649" lon="-2.33141">
        <ele>11.800000190735</ele>
        <time>2019-08-08T07:45:50.000Z</time>
      </trkpt>
      <trkpt lat="47.26659" lon="-2.33133">
        <ele>11.800000190735</ele>
        <time>2019-08-08T07:45:52.000Z</time>
      </trkpt>
      <trkpt lat="47.26683" lon="-2.33111">
        <ele>11.800000190735</ele>
        <time>2019-08-08T07:45:57.000Z</time>
      </trkpt>
      <trkpt lat="47.2671" lon="-2.33085">
        <ele>11.800000190735</ele>
        <time>2019-08-08T07:46:03.000Z</time>
      </trkpt>
      <trkpt lat="47.26719" lon="-2.33074">
        <ele>11.800000190735</ele>
        <time>2019-08-08T07:46:05.000Z</time>
      </trkpt>
      <trkpt lat="47.26731" lon="-2.33048">
        <ele>11.800000190735</ele>
        <time>2019-08-08T07:46:09.000Z</time>
      </trkpt>
      <trkpt lat="47.26735" lon="-2.33036">
        <ele>11.800000190735</ele>
        <time>2019-08-08T07:46:11.000Z</time>
      </trkpt>
      <trkpt lat="47.26735" lon="-2.33018">
        <ele>11.800000190735</ele>
        <time>2019-08-08T07:46:14.000Z</time>
      </trkpt>
      <trkpt lat="47.26735" lon="-2.33005">
        <ele>11.800000190735</ele>
        <time>2019-08-08T07:46:16.000Z</time>
      </trkpt>
      <trkpt lat="47.26736" lon="-2.32998">
        <ele>11.800000190735</ele>
        <time>2019-08-08T07:46:17.000Z</time>
      </trkpt>
      <trkpt lat="47.26738" lon="-2.3299">
        <ele>12.199999809265</ele>
        <time>2019-08-08T07:46:18.000Z</time>
      </trkpt>
      <trkpt lat="47.2674" lon="-2.32983">
        <ele>12.800000190735</ele>
        <time>2019-08-08T07:46:19.000Z</time>
      </trkpt>
      <trkpt lat="47.26743" lon="-2.32977">
        <ele>13.199999809265</ele>
        <time>2019-08-08T07:46:20.000Z</time>
      </trkpt>
      <trkpt lat="47.26747" lon="-2.32971">
        <ele>13.60000038147</ele>
        <time>2019-08-08T07:46:21.000Z</time>
      </trkpt>
      <trkpt lat="47.26751" lon="-2.32966">
        <ele>14</ele>
        <time>2019-08-08T07:46:22.000Z</time>
      </trkpt>
      <trkpt lat="47.2676" lon="-2.32957">
        <ele>14</ele>
        <time>2019-08-08T07:46:24.000Z</time>
      </trkpt>
      <trkpt lat="47.26778" lon="-2.32936">
        <ele>14</ele>
        <time>2019-08-08T07:46:28.000Z</time>
      </trkpt>
      <trkpt lat="47.26788" lon="-2.32926">
        <ele>14</ele>
        <time>2019-08-08T07:46:30.000Z</time>
      </trkpt>
      <trkpt lat="47.26803" lon="-2.32916">
        <ele>14</ele>
        <time>2019-08-08T07:46:33.000Z</time>
      </trkpt>
      <trkpt lat="47.26817" lon="-2.32903">
        <ele>14</ele>
        <time>2019-08-08T07:46:36.000Z</time>
      </trkpt>
      <trkpt lat="47.26825" lon="-2.32892">
        <ele>14</ele>
        <time>2019-08-08T07:46:38.000Z</time>
      </trkpt>
      <trkpt lat="47.26829" lon="-2.32888">
        <ele>14</ele>
        <time>2019-08-08T07:46:39.000Z</time>
      </trkpt>
      <trkpt lat="47.26845" lon="-2.3288">
        <ele>14</ele>
        <time>2019-08-08T07:46:42.000Z</time>
      </trkpt>
      <trkpt lat="47.26861" lon="-2.32872">
        <ele>14</ele>
        <time>2019-08-08T07:46:45.000Z</time>
      </trkpt>
      <trkpt lat="47.26863" lon="-2.32866">
        <ele>14</ele>
        <time>2019-08-08T07:46:46.000Z</time>
      </trkpt>
      <trkpt lat="47.26861" lon="-2.32854">
        <ele>14</ele>
        <time>2019-08-08T07:46:48.000Z</time>
      </trkpt>
      <trkpt lat="47.26855" lon="-2.32844">
        <ele>14</ele>
        <time>2019-08-08T07:46:50.000Z</time>
      </trkpt>
      <trkpt lat="47.26854" lon="-2.32839">
        <ele>14.39999961853</ele>
        <time>2019-08-08T07:46:51.000Z</time>
      </trkpt>
      <trkpt lat="47.26852" lon="-2.32834">
        <ele>15</ele>
        <time>2019-08-08T07:46:52.000Z</time>
      </trkpt>
      <trkpt lat="47.26851" lon="-2.3283">
        <ele>15.39999961853</ele>
        <time>2019-08-08T07:46:53.000Z</time>
      </trkpt>
      <trkpt lat="47.26849" lon="-2.32825">
        <ele>15.800000190735</ele>
        <time>2019-08-08T07:46:54.000Z</time>
      </trkpt>
      <trkpt lat="47.26848" lon="-2.3282">
        <ele>16.60000038147</ele>
        <time>2019-08-08T07:46:55.000Z</time>
      </trkpt>
      <trkpt lat="47.26847" lon="-2.32817">
        <ele>17</ele>
        <time>2019-08-08T07:46:56.000Z</time>
      </trkpt>
      <trkpt lat="47.26845" lon="-2.32812">
        <ele>17.60000038147</ele>
        <time>2019-08-08T07:46:57.000Z</time>
      </trkpt>
      <trkpt lat="47.26844" lon="-2.32808">
        <ele>18</ele>
        <time>2019-08-08T07:46:58.000Z</time>
      </trkpt>
      <trkpt lat="47.26844" lon="-2.32803">
        <ele>18.39999961853</ele>
        <time>2019-08-08T07:46:59.000Z</time>
      </trkpt>
      <trkpt lat="47.26843" lon="-2.32798">
        <ele>18.799999237061</ele>
        <time>2019-08-08T07:47:00.000Z</time>
      </trkpt>
      <trkpt lat="47.26842" lon="-2.32793">
        <ele>19.200000762939</ele>
        <time>2019-08-08T07:47:01.000Z</time>
      </trkpt>
      <trkpt lat="47.2684" lon="-2.32788">
        <ele>19.60000038147</ele>
        <time>2019-08-08T07:47:02.000Z</time>
      </trkpt>
      <trkpt lat="47.26839" lon="-2.32784">
        <ele>20</ele>
        <time>2019-08-08T07:47:03.000Z</time>
      </trkpt>
      <trkpt lat="47.26839" lon="-2.32779">
        <ele>20.39999961853</ele>
        <time>2019-08-08T07:47:04.000Z</time>
      </trkpt>
      <trkpt lat="47.26838" lon="-2.32774">
        <ele>20.799999237061</ele>
        <time>2019-08-08T07:47:05.000Z</time>
      </trkpt>
      <trkpt lat="47.26837" lon="-2.32769">
        <ele>21.200000762939</ele>
        <time>2019-08-08T07:47:06.000Z</time>
      </trkpt>
      <trkpt lat="47.26836" lon="-2.32765">
        <ele>21.60000038147</ele>
        <time>2019-08-08T07:47:07.000Z</time>
      </trkpt>
      <trkpt lat="47.26834" lon="-2.3276">
        <ele>22.200000762939</ele>
        <time>2019-08-08T07:47:08.000Z</time>
      </trkpt>
      <trkpt lat="47.26833" lon="-2.32756">
        <ele>22.60000038147</ele>
        <time>2019-08-08T07:47:09.000Z</time>
      </trkpt>
      <trkpt lat="47.26827" lon="-2.32743">
        <ele>23</ele>
        <time>2019-08-08T07:47:12.000Z</time>
      </trkpt>
      <trkpt lat="47.26825" lon="-2.32739">
        <ele>23.39999961853</ele>
        <time>2019-08-08T07:47:13.000Z</time>
      </trkpt>
      <trkpt lat="47.26823" lon="-2.32734">
        <ele>23.799999237061</ele>
        <time>2019-08-08T07:47:14.000Z</time>
      </trkpt>
      <trkpt lat="47.26821" lon="-2.3273">
        <ele>24.39999961853</ele>
        <time>2019-08-08T07:47:15.000Z</time>
      </trkpt>
      <trkpt lat="47.26819" lon="-2.32725">
        <ele>24.799999237061</ele>
        <time>2019-08-08T07:47:16.000Z</time>
      </trkpt>
      <trkpt lat="47.26817" lon="-2.32721">
        <ele>24.799999237061</ele>
        <time>2019-08-08T07:47:17.000Z</time>
      </trkpt>
      <trkpt lat="47.26815" lon="-2.32716">
        <ele>25.200000762939</ele>
        <time>2019-08-08T07:47:18.000Z</time>
      </trkpt>
      <trkpt lat="47.26813" lon="-2.32711">
        <ele>25.60000038147</ele>
        <time>2019-08-08T07:47:19.000Z</time>
      </trkpt>
      <trkpt lat="47.26811" lon="-2.32706">
        <ele>26.39999961853</ele>
        <time>2019-08-08T07:47:20.000Z</time>
      </trkpt>
      <trkpt lat="47.26809" lon="-2.32702">
        <ele>26.799999237061</ele>
        <time>2019-08-08T07:47:21.000Z</time>
      </trkpt>
      <trkpt lat="47.26803" lon="-2.32688">
        <ele>26.799999237061</ele>
        <time>2019-08-08T07:47:24.000Z</time>
      </trkpt>
      <trkpt lat="47.26805" lon="-2.32672">
        <ele>26.799999237061</ele>
        <time>2019-08-08T07:47:27.000Z</time>
      </trkpt>
      <trkpt lat="47.26812" lon="-2.32655">
        <ele>26.799999237061</ele>
        <time>2019-08-08T07:47:30.000Z</time>
      </trkpt>
      <trkpt lat="47.26812" lon="-2.32641">
        <ele>26.799999237061</ele>
        <time>2019-08-08T07:47:32.000Z</time>
      </trkpt>
      <trkpt lat="47.26809" lon="-2.32627">
        <ele>26.799999237061</ele>
        <time>2019-08-08T07:47:34.000Z</time>
      </trkpt>
      <trkpt lat="47.26805" lon="-2.32604">
        <ele>26.799999237061</ele>
        <time>2019-08-08T07:47:37.000Z</time>
      </trkpt>
      <trkpt lat="47.26798" lon="-2.32541">
        <ele>26.799999237061</ele>
        <time>2019-08-08T07:47:45.000Z</time>
      </trkpt>
      <trkpt lat="47.26796" lon="-2.32519">
        <ele>27.200000762939</ele>
        <time>2019-08-08T07:47:48.000Z</time>
      </trkpt>
      <trkpt lat="47.26796" lon="-2.32511">
        <ele>27.799999237061</ele>
        <time>2019-08-08T07:47:49.000Z</time>
      </trkpt>
      <trkpt lat="47.26795" lon="-2.32503">
        <ele>28.200000762939</ele>
        <time>2019-08-08T07:47:50.000Z</time>
      </trkpt>
      <trkpt lat="47.26794" lon="-2.32496">
        <ele>28.60000038147</ele>
        <time>2019-08-08T07:47:51.000Z</time>
      </trkpt>
      <trkpt lat="47.26793" lon="-2.32489">
        <ele>29</ele>
        <time>2019-08-08T07:47:52.000Z</time>
      </trkpt>
      <trkpt lat="47.26787" lon="-2.32438">
        <ele>29</ele>
        <time>2019-08-08T07:47:59.000Z</time>
      </trkpt>
      <trkpt lat="47.2678" lon="-2.32399">
        <ele>29</ele>
        <time>2019-08-08T07:48:05.000Z</time>
      </trkpt>
      <trkpt lat="47.26778" lon="-2.32372">
        <ele>29</ele>
        <time>2019-08-08T07:48:10.000Z</time>
      </trkpt>
      <trkpt lat="47.2678" lon="-2.32368">
        <ele>29</ele>
        <time>2019-08-08T07:48:11.000Z</time>
      </trkpt>
      <trkpt lat="47.26787" lon="-2.32364">
        <ele>29</ele>
        <time>2019-08-08T07:48:13.000Z</time>
      </trkpt>
      <trkpt lat="47.26799" lon="-2.3236">
        <ele>29</ele>
        <time>2019-08-08T07:48:16.000Z</time>
      </trkpt>
      <trkpt lat="47.26808" lon="-2.32357">
        <ele>29</ele>
        <time>2019-08-08T07:48:18.000Z</time>
      </trkpt>
      <trkpt lat="47.26834" lon="-2.32351">
        <ele>28.60000038147</ele>
        <time>2019-08-08T07:48:23.000Z</time>
      </trkpt>
      <trkpt lat="47.2684" lon="-2.32349">
        <ele>28.200000762939</ele>
        <time>2019-08-08T07:48:24.000Z</time>
      </trkpt>
      <trkpt lat="47.26847" lon="-2.32347">
        <ele>27.60000038147</ele>
        <time>2019-08-08T07:48:25.000Z</time>
      </trkpt>
      <trkpt lat="47.26855" lon="-2.32346">
        <ele>27.200000762939</ele>
        <time>2019-08-08T07:48:26.000Z</time>
      </trkpt>
      <trkpt lat="47.26862" lon="-2.32344">
        <ele>26.799999237061</ele>
        <time>2019-08-08T07:48:27.000Z</time>
      </trkpt>
      <trkpt lat="47.26875" lon="-2.3234">
        <ele>26.39999961853</ele>
        <time>2019-08-08T07:48:29.000Z</time>
      </trkpt>
      <trkpt lat="47.26882" lon="-2.3234">
        <ele>26</ele>
        <time>2019-08-08T07:48:30.000Z</time>
      </trkpt>
      <trkpt lat="47.26888" lon="-2.32339">
        <ele>25.39999961853</ele>
        <time>2019-08-08T07:48:31.000Z</time>
      </trkpt>
      <trkpt lat="47.26894" lon="-2.32338">
        <ele>25</ele>
        <time>2019-08-08T07:48:32.000Z</time>
      </trkpt>
      <trkpt lat="47.26899" lon="-2.32337">
        <ele>24.39999961853</ele>
        <time>2019-08-08T07:48:33.000Z</time>
      </trkpt>
      <trkpt lat="47.26903" lon="-2.32336">
        <ele>23.39999961853</ele>
        <time>2019-08-08T07:48:34.000Z</time>
      </trkpt>
      <trkpt lat="47.26907" lon="-2.32335">
        <ele>23</ele>
        <time>2019-08-08T07:48:35.000Z</time>
      </trkpt>
      <trkpt lat="47.2691" lon="-2.32334">
        <ele>22.39999961853</ele>
        <time>2019-08-08T07:48:36.000Z</time>
      </trkpt>
      <trkpt lat="47.26916" lon="-2.32326">
        <ele>22.39999961853</ele>
        <time>2019-08-08T07:48:38.000Z</time>
      </trkpt>
      <trkpt lat="47.26917" lon="-2.3232">
        <ele>22.39999961853</ele>
        <time>2019-08-08T07:48:39.000Z</time>
      </trkpt>
      <trkpt lat="47.26916" lon="-2.32308">
        <ele>22</ele>
        <time>2019-08-08T07:48:41.000Z</time>
      </trkpt>
      <trkpt lat="47.26914" lon="-2.32302">
        <ele>21.60000038147</ele>
        <time>2019-08-08T07:48:42.000Z</time>
      </trkpt>
      <trkpt lat="47.26913" lon="-2.32296">
        <ele>21.200000762939</ele>
        <time>2019-08-08T07:48:43.000Z</time>
      </trkpt>
      <trkpt lat="47.26911" lon="-2.32291">
        <ele>20.799999237061</ele>
        <time>2019-08-08T07:48:44.000Z</time>
      </trkpt>
      <trkpt lat="47.26909" lon="-2.32286">
        <ele>20.39999961853</ele>
        <time>2019-08-08T07:48:45.000Z</time>
      </trkpt>
      <trkpt lat="47.26904" lon="-2.32277">
        <ele>20.39999961853</ele>
        <time>2019-08-08T07:48:47.000Z</time>
      </trkpt>
      <trkpt lat="47.26899" lon="-2.32266">
        <ele>20.39999961853</ele>
        <time>2019-08-08T07:48:49.000Z</time>
      </trkpt>
      <trkpt lat="47.26892" lon="-2.32251">
        <ele>20.39999961853</ele>
        <time>2019-08-08T07:48:52.000Z</time>
      </trkpt>
      <trkpt lat="47.26889" lon="-2.32246">
        <ele>20.799999237061</ele>
        <time>2019-08-08T07:48:53.000Z</time>
      </trkpt>
      <trkpt lat="47.26887" lon="-2.32241">
        <ele>21.200000762939</ele>
        <time>2019-08-08T07:48:54.000Z</time>
      </trkpt>
      <trkpt lat="47.26884" lon="-2.32237">
        <ele>21.60000038147</ele>
        <time>2019-08-08T07:48:55.000Z</time>
      </trkpt>
      <trkpt lat="47.26882" lon="-2.32232">
        <ele>22</ele>
        <time>2019-08-08T07:48:56.000Z</time>
      </trkpt>
      <trkpt lat="47.26879" lon="-2.32228">
        <ele>22.39999961853</ele>
        <time>2019-08-08T07:48:57.000Z</time>
      </trkpt>
      <trkpt lat="47.26876" lon="-2.32222">
        <ele>22.39999961853</ele>
        <time>2019-08-08T07:48:58.000Z</time>
      </trkpt>
      <trkpt lat="47.26861" lon="-2.32193">
        <ele>23</ele>
        <time>2019-08-08T07:49:03.000Z</time>
      </trkpt>
      <trkpt lat="47.26858" lon="-2.32188">
        <ele>23.39999961853</ele>
        <time>2019-08-08T07:49:04.000Z</time>
      </trkpt>
      <trkpt lat="47.26855" lon="-2.32182">
        <ele>23.799999237061</ele>
        <time>2019-08-08T07:49:05.000Z</time>
      </trkpt>
      <trkpt lat="47.26853" lon="-2.32175">
        <ele>24.200000762939</ele>
        <time>2019-08-08T07:49:06.000Z</time>
      </trkpt>
      <trkpt lat="47.2685" lon="-2.3217">
        <ele>24.60000038147</ele>
        <time>2019-08-08T07:49:07.000Z</time>
      </trkpt>
      <trkpt lat="47.26844" lon="-2.3215">
        <ele>24.60000038147</ele>
        <time>2019-08-08T07:49:10.000Z</time>
      </trkpt>
      <trkpt lat="47.26842" lon="-2.32143">
        <ele>24.60000038147</ele>
        <time>2019-08-08T07:49:11.000Z</time>
      </trkpt>
      <trkpt lat="47.26838" lon="-2.32129">
        <ele>25.200000762939</ele>
        <time>2019-08-08T07:49:13.000Z</time>
      </trkpt>
      <trkpt lat="47.26836" lon="-2.32122">
        <ele>25.60000038147</ele>
        <time>2019-08-08T07:49:14.000Z</time>
      </trkpt>
      <trkpt lat="47.26834" lon="-2.32116">
        <ele>26</ele>
        <time>2019-08-08T07:49:15.000Z</time>
      </trkpt>
      <trkpt lat="47.26832" lon="-2.32109">
        <ele>26.39999961853</ele>
        <time>2019-08-08T07:49:16.000Z</time>
      </trkpt>
      <trkpt lat="47.2683" lon="-2.32102">
        <ele>26.799999237061</ele>
        <time>2019-08-08T07:49:17.000Z</time>
      </trkpt>
      <trkpt lat="47.26827" lon="-2.3209">
        <ele>26.799999237061</ele>
        <time>2019-08-08T07:49:19.000Z</time>
      </trkpt>
      <trkpt lat="47.26818" lon="-2.32054">
        <ele>26.799999237061</ele>
        <time>2019-08-08T07:49:24.000Z</time>
      </trkpt>
      <trkpt lat="47.26803" lon="-2.3201">
        <ele>26.799999237061</ele>
        <time>2019-08-08T07:49:31.000Z</time>
      </trkpt>
      <trkpt lat="47.26791" lon="-2.31989">
        <ele>27.200000762939</ele>
        <time>2019-08-08T07:49:35.000Z</time>
      </trkpt>
      <trkpt lat="47.26788" lon="-2.31983">
        <ele>27.60000038147</ele>
        <time>2019-08-08T07:49:36.000Z</time>
      </trkpt>
      <trkpt lat="47.26785" lon="-2.31978">
        <ele>28</ele>
        <time>2019-08-08T07:49:37.000Z</time>
      </trkpt>
      <trkpt lat="47.26782" lon="-2.31973">
        <ele>28.39999961853</ele>
        <time>2019-08-08T07:49:38.000Z</time>
      </trkpt>
      <trkpt lat="47.26779" lon="-2.31968">
        <ele>28.799999237061</ele>
        <time>2019-08-08T07:49:39.000Z</time>
      </trkpt>
      <trkpt lat="47.26774" lon="-2.3196">
        <ele>29.200000762939</ele>
        <time>2019-08-08T07:49:41.000Z</time>
      </trkpt>
      <trkpt lat="47.26772" lon="-2.31956">
        <ele>29.60000038147</ele>
        <time>2019-08-08T07:49:42.000Z</time>
      </trkpt>
      <trkpt lat="47.2677" lon="-2.31952">
        <ele>30</ele>
        <time>2019-08-08T07:49:43.000Z</time>
      </trkpt>
      <trkpt lat="47.26767" lon="-2.31949">
        <ele>30.39999961853</ele>
        <time>2019-08-08T07:49:44.000Z</time>
      </trkpt>
      <trkpt lat="47.26765" lon="-2.31946">
        <ele>30.799999237061</ele>
        <time>2019-08-08T07:49:45.000Z</time>
      </trkpt>
      <trkpt lat="47.26762" lon="-2.31946">
        <ele>30.799999237061</ele>
        <time>2019-08-08T07:49:46.000Z</time>
      </trkpt>
      <trkpt lat="47.26759" lon="-2.31949">
        <ele>30.799999237061</ele>
        <time>2019-08-08T07:49:47.000Z</time>
      </trkpt>
      <trkpt lat="47.26753" lon="-2.31962">
        <ele>30.799999237061</ele>
        <time>2019-08-08T07:49:50.000Z</time>
      </trkpt>
      <trkpt lat="47.26751" lon="-2.31966">
        <ele>30.799999237061</ele>
        <time>2019-08-08T07:49:51.000Z</time>
      </trkpt>
      <trkpt lat="47.26737" lon="-2.31982">
        <ele>30.799999237061</ele>
        <time>2019-08-08T07:49:56.000Z</time>
      </trkpt>
      <trkpt lat="47.26724" lon="-2.31992">
        <ele>31.200000762939</ele>
        <time>2019-08-08T07:50:00.000Z</time>
      </trkpt>
      <trkpt lat="47.2672" lon="-2.31994">
        <ele>31.60000038147</ele>
        <time>2019-08-08T07:50:01.000Z</time>
      </trkpt>
      <trkpt lat="47.26717" lon="-2.31997">
        <ele>32.200000762939</ele>
        <time>2019-08-08T07:50:02.000Z</time>
      </trkpt>
      <trkpt lat="47.26714" lon="-2.31998">
        <ele>32.599998474121</ele>
        <time>2019-08-08T07:50:03.000Z</time>
      </trkpt>
      <trkpt lat="47.26711" lon="-2.32">
        <ele>33</ele>
        <time>2019-08-08T07:50:04.000Z</time>
      </trkpt>
      <trkpt lat="47.26699" lon="-2.32013">
        <ele>33</ele>
        <time>2019-08-08T07:50:08.000Z</time>
      </trkpt>
      <trkpt lat="47.26695" lon="-2.3202">
        <ele>33.400001525879</ele>
        <time>2019-08-08T07:50:10.000Z</time>
      </trkpt>
      <trkpt lat="47.26693" lon="-2.32024">
        <ele>33.799999237061</ele>
        <time>2019-08-08T07:50:11.000Z</time>
      </trkpt>
      <trkpt lat="47.26691" lon="-2.32029">
        <ele>34.200000762939</ele>
        <time>2019-08-08T07:50:12.000Z</time>
      </trkpt>
      <trkpt lat="47.2669" lon="-2.32033">
        <ele>35</ele>
        <time>2019-08-08T07:50:13.000Z</time>
      </trkpt>
      <trkpt lat="47.26687" lon="-2.32038">
        <ele>35</ele>
        <time>2019-08-08T07:50:14.000Z</time>
      </trkpt>
      <trkpt lat="47.26685" lon="-2.32059">
        <ele>35</ele>
        <time>2019-08-08T07:50:18.000Z</time>
      </trkpt>
      <trkpt lat="47.26684" lon="-2.321">
        <ele>35</ele>
        <time>2019-08-08T07:50:25.000Z</time>
      </trkpt>
      <trkpt lat="47.26681" lon="-2.32125">
        <ele>35</ele>
        <time>2019-08-08T07:50:31.000Z</time>
      </trkpt>
      <trkpt lat="47.26679" lon="-2.32126">
        <ele>35</ele>
        <time>2019-08-08T07:50:32.000Z</time>
      </trkpt>
      <trkpt lat="47.26679" lon="-2.32126">
        <ele>35</ele>
        <time>2019-08-08T07:50:34.000Z</time>
      </trkpt>
      <trkpt lat="47.26677" lon="-2.32127">
        <ele>35</ele>
        <time>2019-08-08T07:50:43.000Z</time>
      </trkpt>
      <trkpt lat="47.26673" lon="-2.32124">
        <ele>35</ele>
        <time>2019-08-08T07:50:45.000Z</time>
      </trkpt>
      <trkpt lat="47.26671" lon="-2.3212">
        <ele>35</ele>
        <time>2019-08-08T07:50:46.000Z</time>
      </trkpt>
      <trkpt lat="47.26669" lon="-2.3211">
        <ele>35</ele>
        <time>2019-08-08T07:50:48.000Z</time>
      </trkpt>
      <trkpt lat="47.26666" lon="-2.32097">
        <ele>35</ele>
        <time>2019-08-08T07:50:50.000Z</time>
      </trkpt>
      <trkpt lat="47.2666" lon="-2.32072">
        <ele>35</ele>
        <time>2019-08-08T07:50:54.000Z</time>
      </trkpt>
      <trkpt lat="47.26651" lon="-2.32032">
        <ele>35.400001525879</ele>
        <time>2019-08-08T07:51:00.000Z</time>
      </trkpt>
      <trkpt lat="47.26649" lon="-2.32026">
        <ele>35.799999237061</ele>
        <time>2019-08-08T07:51:01.000Z</time>
      </trkpt>
      <trkpt lat="47.26648" lon="-2.32021">
        <ele>36.599998474121</ele>
        <time>2019-08-08T07:51:02.000Z</time>
      </trkpt>
      <trkpt lat="47.26647" lon="-2.32015">
        <ele>37</ele>
        <time>2019-08-08T07:51:03.000Z</time>
      </trkpt>
      <trkpt lat="47.26642" lon="-2.32003">
        <ele>37</ele>
        <time>2019-08-08T07:51:06.000Z</time>
      </trkpt>
      <trkpt lat="47.26639" lon="-2.32002">
        <ele>37</ele>
        <time>2019-08-08T07:51:07.000Z</time>
      </trkpt>
      <trkpt lat="47.2663" lon="-2.32006">
        <ele>37</ele>
        <time>2019-08-08T07:51:10.000Z</time>
      </trkpt>
      <trkpt lat="47.26626" lon="-2.32009">
        <ele>37</ele>
        <time>2019-08-08T07:51:11.000Z</time>
      </trkpt>
      <trkpt lat="47.26606" lon="-2.32018">
        <ele>37</ele>
        <time>2019-08-08T07:51:16.000Z</time>
      </trkpt>
      <trkpt lat="47.26578" lon="-2.32027">
        <ele>37</ele>
        <time>2019-08-08T07:51:21.000Z</time>
      </trkpt>
      <trkpt lat="47.26549" lon="-2.32038">
        <ele>36</ele>
        <time>2019-08-08T07:51:27.000Z</time>
      </trkpt>
      <trkpt lat="47.26547" lon="-2.32039">
        <ele>35.599998474121</ele>
        <time>2019-08-08T07:51:28.000Z</time>
      </trkpt>
      <trkpt lat="47.26545" lon="-2.32039">
        <ele>35</ele>
        <time>2019-08-08T07:51:29.000Z</time>
      </trkpt>
      <trkpt lat="47.26544" lon="-2.32036">
        <ele>34.599998474121</ele>
        <time>2019-08-08T07:51:30.000Z</time>
      </trkpt>
      <trkpt lat="47.26543" lon="-2.32034">
        <ele>34.599998474121</ele>
        <time>2019-08-08T07:51:31.000Z</time>
      </trkpt>
      <trkpt lat="47.2654" lon="-2.3202">
        <ele>34.599998474121</ele>
        <time>2019-08-08T07:51:35.000Z</time>
      </trkpt>
      <trkpt lat="47.26533" lon="-2.32008">
        <ele>34.599998474121</ele>
        <time>2019-08-08T07:51:39.000Z</time>
      </trkpt>
      <trkpt lat="47.2653" lon="-2.32005">
        <ele>34.200000762939</ele>
        <time>2019-08-08T07:51:40.000Z</time>
      </trkpt>
      <trkpt lat="47.26527" lon="-2.32002">
        <ele>33.599998474121</ele>
        <time>2019-08-08T07:51:41.000Z</time>
      </trkpt>
      <trkpt lat="47.26523" lon="-2.32">
        <ele>33.200000762939</ele>
        <time>2019-08-08T07:51:42.000Z</time>
      </trkpt>
      <trkpt lat="47.2652" lon="-2.31998">
        <ele>32.799999237061</ele>
        <time>2019-08-08T07:51:43.000Z</time>
      </trkpt>
      <trkpt lat="47.26518" lon="-2.31998">
        <ele>32.400001525879</ele>
        <time>2019-08-08T07:51:44.000Z</time>
      </trkpt>
      <trkpt lat="47.26515" lon="-2.31999">
        <ele>32.400001525879</ele>
        <time>2019-08-08T07:51:45.000Z</time>
      </trkpt>
      <trkpt lat="47.26506" lon="-2.32002">
        <ele>32</ele>
        <time>2019-08-08T07:51:47.000Z</time>
      </trkpt>
      <trkpt lat="47.265" lon="-2.32002">
        <ele>31.60000038147</ele>
        <time>2019-08-08T07:51:48.000Z</time>
      </trkpt>
      <trkpt lat="47.26494" lon="-2.32002">
        <ele>31.200000762939</ele>
        <time>2019-08-08T07:51:49.000Z</time>
      </trkpt>
      <trkpt lat="47.26488" lon="-2.32002">
        <ele>30.60000038147</ele>
        <time>2019-08-08T07:51:50.000Z</time>
      </trkpt>
      <trkpt lat="47.26482" lon="-2.32003">
        <ele>30.200000762939</ele>
        <time>2019-08-08T07:51:51.000Z</time>
      </trkpt>
      <trkpt lat="47.26459" lon="-2.32003">
        <ele>29.799999237061</ele>
        <time>2019-08-08T07:51:55.000Z</time>
      </trkpt>
      <trkpt lat="47.26452" lon="-2.32002">
        <ele>29.39999961853</ele>
        <time>2019-08-08T07:51:56.000Z</time>
      </trkpt>
      <trkpt lat="47.26445" lon="-2.32002">
        <ele>29</ele>
        <time>2019-08-08T07:51:57.000Z</time>
      </trkpt>
      <trkpt lat="47.26438" lon="-2.32002">
        <ele>28.60000038147</ele>
        <time>2019-08-08T07:51:58.000Z</time>
      </trkpt>
      <trkpt lat="47.26432" lon="-2.32002">
        <ele>28</ele>
        <time>2019-08-08T07:51:59.000Z</time>
      </trkpt>
      <trkpt lat="47.26425" lon="-2.32001">
        <ele>28</ele>
        <time>2019-08-08T07:52:00.000Z</time>
      </trkpt>
      <trkpt lat="47.26418" lon="-2.32">
        <ele>27.60000038147</ele>
        <time>2019-08-08T07:52:01.000Z</time>
      </trkpt>
      <trkpt lat="47.26411" lon="-2.31998">
        <ele>27.200000762939</ele>
        <time>2019-08-08T07:52:02.000Z</time>
      </trkpt>
      <trkpt lat="47.26404" lon="-2.31997">
        <ele>26.799999237061</ele>
        <time>2019-08-08T07:52:03.000Z</time>
      </trkpt>
      <trkpt lat="47.26396" lon="-2.31996">
        <ele>26.39999961853</ele>
        <time>2019-08-08T07:52:04.000Z</time>
      </trkpt>
      <trkpt lat="47.26389" lon="-2.31995">
        <ele>26</ele>
        <time>2019-08-08T07:52:05.000Z</time>
      </trkpt>
      <trkpt lat="47.26382" lon="-2.31994">
        <ele>25.39999961853</ele>
        <time>2019-08-08T07:52:06.000Z</time>
      </trkpt>
      <trkpt lat="47.26376" lon="-2.31993">
        <ele>25</ele>
        <time>2019-08-08T07:52:07.000Z</time>
      </trkpt>
      <trkpt lat="47.2637" lon="-2.31991">
        <ele>24.60000038147</ele>
        <time>2019-08-08T07:52:08.000Z</time>
      </trkpt>
      <trkpt lat="47.26365" lon="-2.31988">
        <ele>24.200000762939</ele>
        <time>2019-08-08T07:52:09.000Z</time>
      </trkpt>
      <trkpt lat="47.26359" lon="-2.31984">
        <ele>23.60000038147</ele>
        <time>2019-08-08T07:52:10.000Z</time>
      </trkpt>
      <trkpt lat="47.26349" lon="-2.31974">
        <ele>23.200000762939</ele>
        <time>2019-08-08T07:52:12.000Z</time>
      </trkpt>
      <trkpt lat="47.26346" lon="-2.31967">
        <ele>22.799999237061</ele>
        <time>2019-08-08T07:52:13.000Z</time>
      </trkpt>
      <trkpt lat="47.26342" lon="-2.31959">
        <ele>22.200000762939</ele>
        <time>2019-08-08T07:52:14.000Z</time>
      </trkpt>
      <trkpt lat="47.26338" lon="-2.31951">
        <ele>21.799999237061</ele>
        <time>2019-08-08T07:52:15.000Z</time>
      </trkpt>
      <trkpt lat="47.26335" lon="-2.31947">
        <ele>21.39999961853</ele>
        <time>2019-08-08T07:52:16.000Z</time>
      </trkpt>
      <trkpt lat="47.26327" lon="-2.31943">
        <ele>21.39999961853</ele>
        <time>2019-08-08T07:52:18.000Z</time>
      </trkpt>
      <trkpt lat="47.26322" lon="-2.31942">
        <ele>21.39999961853</ele>
        <time>2019-08-08T07:52:19.000Z</time>
      </trkpt>
      <trkpt lat="47.26307" lon="-2.31931">
        <ele>21.39999961853</ele>
        <time>2019-08-08T07:52:23.000Z</time>
      </trkpt>
      <trkpt lat="47.26305" lon="-2.3191">
        <ele>21.39999961853</ele>
        <time>2019-08-08T07:52:26.000Z</time>
      </trkpt>
      <trkpt lat="47.26305" lon="-2.31872">
        <ele>21.39999961853</ele>
        <time>2019-08-08T07:52:31.000Z</time>
      </trkpt>
      <trkpt lat="47.26305" lon="-2.31864">
        <ele>21.39999961853</ele>
        <time>2019-08-08T07:52:32.000Z</time>
      </trkpt>
      <trkpt lat="47.26305" lon="-2.31841">
        <ele>21.39999961853</ele>
        <time>2019-08-08T07:52:35.000Z</time>
      </trkpt>
      <trkpt lat="47.26305" lon="-2.31834">
        <ele>21.39999961853</ele>
        <time>2019-08-08T07:52:36.000Z</time>
      </trkpt>
      <trkpt lat="47.26308" lon="-2.31795">
        <ele>21.39999961853</ele>
        <time>2019-08-08T07:52:41.000Z</time>
      </trkpt>
      <trkpt lat="47.26306" lon="-2.31787">
        <ele>21.39999961853</ele>
        <time>2019-08-08T07:52:42.000Z</time>
      </trkpt>
      <trkpt lat="47.26306" lon="-2.3178">
        <ele>21.39999961853</ele>
        <time>2019-08-08T07:52:43.000Z</time>
      </trkpt>
      <trkpt lat="47.26305" lon="-2.31764">
        <ele>21.39999961853</ele>
        <time>2019-08-08T07:52:45.000Z</time>
      </trkpt>
      <trkpt lat="47.26302" lon="-2.31732">
        <ele>21.39999961853</ele>
        <time>2019-08-08T07:52:49.000Z</time>
      </trkpt>
      <trkpt lat="47.26304" lon="-2.31724">
        <ele>21.39999961853</ele>
        <time>2019-08-08T07:52:50.000Z</time>
      </trkpt>
      <trkpt lat="47.26316" lon="-2.31716">
        <ele>21.39999961853</ele>
        <time>2019-08-08T07:52:53.000Z</time>
      </trkpt>
      <trkpt lat="47.26324" lon="-2.31711">
        <ele>21.39999961853</ele>
        <time>2019-08-08T07:52:55.000Z</time>
      </trkpt>
      <trkpt lat="47.26339" lon="-2.31701">
        <ele>21.39999961853</ele>
        <time>2019-08-08T07:52:58.000Z</time>
      </trkpt>
      <trkpt lat="47.26342" lon="-2.317">
        <ele>21.39999961853</ele>
        <time>2019-08-08T07:52:59.000Z</time>
      </trkpt>
      <trkpt lat="47.26364" lon="-2.31685">
        <ele>21.39999961853</ele>
        <time>2019-08-08T07:53:04.000Z</time>
      </trkpt>
      <trkpt lat="47.26382" lon="-2.31674">
        <ele>21.799999237061</ele>
        <time>2019-08-08T07:53:08.000Z</time>
      </trkpt>
      <trkpt lat="47.26387" lon="-2.31671">
        <ele>22.200000762939</ele>
        <time>2019-08-08T07:53:09.000Z</time>
      </trkpt>
      <trkpt lat="47.26391" lon="-2.31668">
        <ele>22.60000038147</ele>
        <time>2019-08-08T07:53:10.000Z</time>
      </trkpt>
      <trkpt lat="47.26396" lon="-2.31665">
        <ele>23</ele>
        <time>2019-08-08T07:53:11.000Z</time>
      </trkpt>
      <trkpt lat="47.264" lon="-2.31663">
        <ele>23.39999961853</ele>
        <time>2019-08-08T07:53:12.000Z</time>
      </trkpt>
      <trkpt lat="47.26417" lon="-2.31655">
        <ele>23.39999961853</ele>
        <time>2019-08-08T07:53:16.000Z</time>
      </trkpt>
      <trkpt lat="47.26422" lon="-2.31654">
        <ele>23.39999961853</ele>
        <time>2019-08-08T07:53:17.000Z</time>
      </trkpt>
      <trkpt lat="47.26427" lon="-2.31651">
        <ele>23.39999961853</ele>
        <time>2019-08-08T07:53:18.000Z</time>
      </trkpt>
      <trkpt lat="47.26442" lon="-2.3165">
        <ele>23.799999237061</ele>
        <time>2019-08-08T07:53:21.000Z</time>
      </trkpt>
      <trkpt lat="47.26447" lon="-2.31648">
        <ele>24.200000762939</ele>
        <time>2019-08-08T07:53:22.000Z</time>
      </trkpt>
      <trkpt lat="47.26451" lon="-2.31648">
        <ele>24.799999237061</ele>
        <time>2019-08-08T07:53:23.000Z</time>
      </trkpt>
      <trkpt lat="47.26457" lon="-2.31647">
        <ele>25.200000762939</ele>
        <time>2019-08-08T07:53:24.000Z</time>
      </trkpt>
      <trkpt lat="47.26462" lon="-2.31646">
        <ele>25.60000038147</ele>
        <time>2019-08-08T07:53:25.000Z</time>
      </trkpt>
      <trkpt lat="47.26476" lon="-2.31644">
        <ele>25.60000038147</ele>
        <time>2019-08-08T07:53:28.000Z</time>
      </trkpt>
      <trkpt lat="47.26496" lon="-2.3164">
        <ele>26</ele>
        <time>2019-08-08T07:53:32.000Z</time>
      </trkpt>
      <trkpt lat="47.26501" lon="-2.3164">
        <ele>26.60000038147</ele>
        <time>2019-08-08T07:53:33.000Z</time>
      </trkpt>
      <trkpt lat="47.26506" lon="-2.31637">
        <ele>27</ele>
        <time>2019-08-08T07:53:34.000Z</time>
      </trkpt>
      <trkpt lat="47.26511" lon="-2.31635">
        <ele>27.39999961853</ele>
        <time>2019-08-08T07:53:35.000Z</time>
      </trkpt>
      <trkpt lat="47.26516" lon="-2.31632">
        <ele>27.799999237061</ele>
        <time>2019-08-08T07:53:36.000Z</time>
      </trkpt>
      <trkpt lat="47.26534" lon="-2.3162">
        <ele>28.200000762939</ele>
        <time>2019-08-08T07:53:40.000Z</time>
      </trkpt>
      <trkpt lat="47.26538" lon="-2.31619">
        <ele>28.799999237061</ele>
        <time>2019-08-08T07:53:41.000Z</time>
      </trkpt>
      <trkpt lat="47.26543" lon="-2.31616">
        <ele>29.200000762939</ele>
        <time>2019-08-08T07:53:42.000Z</time>
      </trkpt>
      <trkpt lat="47.26547" lon="-2.31614">
        <ele>29.60000038147</ele>
        <time>2019-08-08T07:53:43.000Z</time>
      </trkpt>
      <trkpt lat="47.26551" lon="-2.31612">
        <ele>30</ele>
        <time>2019-08-08T07:53:44.000Z</time>
      </trkpt>
      <trkpt lat="47.26563" lon="-2.31603">
        <ele>30.39999961853</ele>
        <time>2019-08-08T07:53:47.000Z</time>
      </trkpt>
      <trkpt lat="47.26567" lon="-2.31601">
        <ele>30.799999237061</ele>
        <time>2019-08-08T07:53:48.000Z</time>
      </trkpt>
      <trkpt lat="47.26571" lon="-2.31599">
        <ele>31.39999961853</ele>
        <time>2019-08-08T07:53:49.000Z</time>
      </trkpt>
      <trkpt lat="47.26576" lon="-2.31595">
        <ele>31.799999237061</ele>
        <time>2019-08-08T07:53:50.000Z</time>
      </trkpt>
      <trkpt lat="47.2658" lon="-2.31591">
        <ele>32.200000762939</ele>
        <time>2019-08-08T07:53:51.000Z</time>
      </trkpt>
      <trkpt lat="47.26583" lon="-2.31589">
        <ele>32.200000762939</ele>
        <time>2019-08-08T07:53:52.000Z</time>
      </trkpt>
      <trkpt lat="47.26591" lon="-2.31585">
        <ele>32.599998474121</ele>
        <time>2019-08-08T07:53:54.000Z</time>
      </trkpt>
      <trkpt lat="47.26595" lon="-2.31582">
        <ele>33.599998474121</ele>
        <time>2019-08-08T07:53:55.000Z</time>
      </trkpt>
      <trkpt lat="47.26598" lon="-2.31579">
        <ele>34</ele>
        <time>2019-08-08T07:53:56.000Z</time>
      </trkpt>
      <trkpt lat="47.26602" lon="-2.31577">
        <ele>34.599998474121</ele>
        <time>2019-08-08T07:53:57.000Z</time>
      </trkpt>
      <trkpt lat="47.26606" lon="-2.31574">
        <ele>34.599998474121</ele>
        <time>2019-08-08T07:53:58.000Z</time>
      </trkpt>
      <trkpt lat="47.26613" lon="-2.31571">
        <ele>35</ele>
        <time>2019-08-08T07:54:00.000Z</time>
      </trkpt>
      <trkpt lat="47.26617" lon="-2.31568">
        <ele>35.400001525879</ele>
        <time>2019-08-08T07:54:01.000Z</time>
      </trkpt>
      <trkpt lat="47.2662" lon="-2.31564">
        <ele>35.799999237061</ele>
        <time>2019-08-08T07:54:02.000Z</time>
      </trkpt>
      <trkpt lat="47.26623" lon="-2.31562">
        <ele>36.200000762939</ele>
        <time>2019-08-08T07:54:03.000Z</time>
      </trkpt>
      <trkpt lat="47.26626" lon="-2.31559">
        <ele>36.599998474121</ele>
        <time>2019-08-08T07:54:04.000Z</time>
      </trkpt>
      <trkpt lat="47.26629" lon="-2.31556">
        <ele>36.599998474121</ele>
        <time>2019-08-08T07:54:05.000Z</time>
      </trkpt>
      <trkpt lat="47.26631" lon="-2.31548">
        <ele>36.599998474121</ele>
        <time>2019-08-08T07:54:07.000Z</time>
      </trkpt>
      <trkpt lat="47.26631" lon="-2.31543">
        <ele>37</ele>
        <time>2019-08-08T07:54:08.000Z</time>
      </trkpt>
      <trkpt lat="47.26629" lon="-2.31539">
        <ele>37.400001525879</ele>
        <time>2019-08-08T07:54:09.000Z</time>
      </trkpt>
      <trkpt lat="47.26626" lon="-2.31535">
        <ele>37.799999237061</ele>
        <time>2019-08-08T07:54:10.000Z</time>
      </trkpt>
      <trkpt lat="47.26625" lon="-2.31531">
        <ele>38.400001525879</ele>
        <time>2019-08-08T07:54:11.000Z</time>
      </trkpt>
      <trkpt lat="47.26623" lon="-2.31527">
        <ele>38.799999237061</ele>
        <time>2019-08-08T07:54:12.000Z</time>
      </trkpt>
      <trkpt lat="47.26611" lon="-2.31498">
        <ele>38.799999237061</ele>
        <time>2019-08-08T07:54:18.000Z</time>
      </trkpt>
      <trkpt lat="47.2661" lon="-2.31484">
        <ele>38.799999237061</ele>
        <time>2019-08-08T07:54:21.000Z</time>
      </trkpt>
      <trkpt lat="47.26612" lon="-2.3148">
        <ele>38.799999237061</ele>
        <time>2019-08-08T07:54:22.000Z</time>
      </trkpt>
      <trkpt lat="47.2662" lon="-2.3147">
        <ele>39.200000762939</ele>
        <time>2019-08-08T07:54:25.000Z</time>
      </trkpt>
      <trkpt lat="47.26623" lon="-2.31466">
        <ele>39.599998474121</ele>
        <time>2019-08-08T07:54:26.000Z</time>
      </trkpt>
      <trkpt lat="47.26626" lon="-2.31462">
        <ele>40</ele>
        <time>2019-08-08T07:54:27.000Z</time>
      </trkpt>
      <trkpt lat="47.26629" lon="-2.3146">
        <ele>40.400001525879</ele>
        <time>2019-08-08T07:54:28.000Z</time>
      </trkpt>
      <trkpt lat="47.26632" lon="-2.31458">
        <ele>40.799999237061</ele>
        <time>2019-08-08T07:54:29.000Z</time>
      </trkpt>
      <trkpt lat="47.26645" lon="-2.31446">
        <ele>40.799999237061</ele>
        <time>2019-08-08T07:54:33.000Z</time>
      </trkpt>
      <trkpt lat="47.26657" lon="-2.31437">
        <ele>41.200000762939</ele>
        <time>2019-08-08T07:54:36.000Z</time>
      </trkpt>
      <trkpt lat="47.26661" lon="-2.31435">
        <ele>41.599998474121</ele>
        <time>2019-08-08T07:54:37.000Z</time>
      </trkpt>
      <trkpt lat="47.26666" lon="-2.31432">
        <ele>42</ele>
        <time>2019-08-08T07:54:38.000Z</time>
      </trkpt>
      <trkpt lat="47.2667" lon="-2.3143">
        <ele>42.400001525879</ele>
        <time>2019-08-08T07:54:39.000Z</time>
      </trkpt>
      <trkpt lat="47.26674" lon="-2.31427">
        <ele>42.799999237061</ele>
        <time>2019-08-08T07:54:40.000Z</time>
      </trkpt>
      <trkpt lat="47.26709" lon="-2.31407">
        <ele>42.799999237061</ele>
        <time>2019-08-08T07:54:48.000Z</time>
      </trkpt>
      <trkpt lat="47.26721" lon="-2.31401">
        <ele>43.200000762939</ele>
        <time>2019-08-08T07:54:51.000Z</time>
      </trkpt>
      <trkpt lat="47.26725" lon="-2.31399">
        <ele>43.799999237061</ele>
        <time>2019-08-08T07:54:52.000Z</time>
      </trkpt>
      <trkpt lat="47.26729" lon="-2.31397">
        <ele>44.200000762939</ele>
        <time>2019-08-08T07:54:53.000Z</time>
      </trkpt>
      <trkpt lat="47.26732" lon="-2.31395">
        <ele>44.599998474121</ele>
        <time>2019-08-08T07:54:54.000Z</time>
      </trkpt>
      <trkpt lat="47.26736" lon="-2.31392">
        <ele>45</ele>
        <time>2019-08-08T07:54:55.000Z</time>
      </trkpt>
      <trkpt lat="47.2674" lon="-2.3139">
        <ele>45</ele>
        <time>2019-08-08T07:54:56.000Z</time>
      </trkpt>
      <trkpt lat="47.26756" lon="-2.31382">
        <ele>45</ele>
        <time>2019-08-08T07:55:00.000Z</time>
      </trkpt>
      <trkpt lat="47.26782" lon="-2.31367">
        <ele>45</ele>
        <time>2019-08-08T07:55:07.000Z</time>
      </trkpt>
      <trkpt lat="47.26803" lon="-2.31352">
        <ele>45.400001525879</ele>
        <time>2019-08-08T07:55:13.000Z</time>
      </trkpt>
      <trkpt lat="47.26806" lon="-2.31349">
        <ele>45.799999237061</ele>
        <time>2019-08-08T07:55:14.000Z</time>
      </trkpt>
      <trkpt lat="47.2681" lon="-2.31347">
        <ele>46.200000762939</ele>
        <time>2019-08-08T07:55:15.000Z</time>
      </trkpt>
      <trkpt lat="47.26813" lon="-2.31344">
        <ele>46.599998474121</ele>
        <time>2019-08-08T07:55:16.000Z</time>
      </trkpt>
      <trkpt lat="47.26815" lon="-2.31341">
        <ele>47</ele>
        <time>2019-08-08T07:55:17.000Z</time>
      </trkpt>
      <trkpt lat="47.2682" lon="-2.31336">
        <ele>47</ele>
        <time>2019-08-08T07:55:19.000Z</time>
      </trkpt>
      <trkpt lat="47.26828" lon="-2.31332">
        <ele>47</ele>
        <time>2019-08-08T07:55:22.000Z</time>
      </trkpt>
      <trkpt lat="47.26832" lon="-2.31326">
        <ele>47</ele>
        <time>2019-08-08T07:55:24.000Z</time>
      </trkpt>
      <trkpt lat="47.26839" lon="-2.31301">
        <ele>47</ele>
        <time>2019-08-08T07:55:29.000Z</time>
      </trkpt>
      <trkpt lat="47.26845" lon="-2.31268">
        <ele>47.400001525879</ele>
        <time>2019-08-08T07:55:34.000Z</time>
      </trkpt>
      <trkpt lat="47.26846" lon="-2.3126">
        <ele>48</ele>
        <time>2019-08-08T07:55:35.000Z</time>
      </trkpt>
      <trkpt lat="47.26846" lon="-2.31253">
        <ele>48.400001525879</ele>
        <time>2019-08-08T07:55:36.000Z</time>
      </trkpt>
      <trkpt lat="47.26847" lon="-2.31246">
        <ele>48.799999237061</ele>
        <time>2019-08-08T07:55:37.000Z</time>
      </trkpt>
      <trkpt lat="47.26847" lon="-2.31239">
        <ele>49.200000762939</ele>
        <time>2019-08-08T07:55:38.000Z</time>
      </trkpt>
      <trkpt lat="47.26848" lon="-2.31211">
        <ele>49.200000762939</ele>
        <time>2019-08-08T07:55:42.000Z</time>
      </trkpt>
      <trkpt lat="47.26849" lon="-2.31205">
        <ele>49.200000762939</ele>
        <time>2019-08-08T07:55:43.000Z</time>
      </trkpt>
      <trkpt lat="47.2685" lon="-2.31173">
        <ele>49.200000762939</ele>
        <time>2019-08-08T07:55:48.000Z</time>
      </trkpt>
      <trkpt lat="47.26852" lon="-2.3113">
        <ele>49.200000762939</ele>
        <time>2019-08-08T07:55:54.000Z</time>
      </trkpt>
      <trkpt lat="47.26852" lon="-2.31116">
        <ele>49.200000762939</ele>
        <time>2019-08-08T07:55:56.000Z</time>
      </trkpt>
      <trkpt lat="47.26851" lon="-2.31098">
        <ele>48.799999237061</ele>
        <time>2019-08-08T07:55:59.000Z</time>
      </trkpt>
      <trkpt lat="47.26851" lon="-2.31092">
        <ele>48.400001525879</ele>
        <time>2019-08-08T07:56:00.000Z</time>
      </trkpt>
      <trkpt lat="47.2685" lon="-2.31087">
        <ele>48</ele>
        <time>2019-08-08T07:56:01.000Z</time>
      </trkpt>
      <trkpt lat="47.2685" lon="-2.3108">
        <ele>47.599998474121</ele>
        <time>2019-08-08T07:56:02.000Z</time>
      </trkpt>
      <trkpt lat="47.2685" lon="-2.31073">
        <ele>47.200000762939</ele>
        <time>2019-08-08T07:56:03.000Z</time>
      </trkpt>
      <trkpt lat="47.2685" lon="-2.31066">
        <ele>47.200000762939</ele>
        <time>2019-08-08T07:56:04.000Z</time>
      </trkpt>
      <trkpt lat="47.2685" lon="-2.31059">
        <ele>47.599998474121</ele>
        <time>2019-08-08T07:56:05.000Z</time>
      </trkpt>
      <trkpt lat="47.2685" lon="-2.31052">
        <ele>48.200000762939</ele>
        <time>2019-08-08T07:56:06.000Z</time>
      </trkpt>
      <trkpt lat="47.26849" lon="-2.31044">
        <ele>48.599998474121</ele>
        <time>2019-08-08T07:56:07.000Z</time>
      </trkpt>
      <trkpt lat="47.26849" lon="-2.31036">
        <ele>49.200000762939</ele>
        <time>2019-08-08T07:56:08.000Z</time>
      </trkpt>
      <trkpt lat="47.26849" lon="-2.31028">
        <ele>49.599998474121</ele>
        <time>2019-08-08T07:56:09.000Z</time>
      </trkpt>
      <trkpt lat="47.26848" lon="-2.31012">
        <ele>49.200000762939</ele>
        <time>2019-08-08T07:56:11.000Z</time>
      </trkpt>
      <trkpt lat="47.26847" lon="-2.31003">
        <ele>48.799999237061</ele>
        <time>2019-08-08T07:56:12.000Z</time>
      </trkpt>
      <trkpt lat="47.26847" lon="-2.30995">
        <ele>48.400001525879</ele>
        <time>2019-08-08T07:56:13.000Z</time>
      </trkpt>
      <trkpt lat="47.26846" lon="-2.30987">
        <ele>48</ele>
        <time>2019-08-08T07:56:14.000Z</time>
      </trkpt>
      <trkpt lat="47.26845" lon="-2.30979">
        <ele>47.599998474121</ele>
        <time>2019-08-08T07:56:15.000Z</time>
      </trkpt>
      <trkpt lat="47.26844" lon="-2.30962">
        <ele>47.599998474121</ele>
        <time>2019-08-08T07:56:17.000Z</time>
      </trkpt>
      <trkpt lat="47.26837" lon="-2.30923">
        <ele>47.599998474121</ele>
        <time>2019-08-08T07:56:22.000Z</time>
      </trkpt>
      <trkpt lat="47.26835" lon="-2.30915">
        <ele>47.599998474121</ele>
        <time>2019-08-08T07:56:23.000Z</time>
      </trkpt>
      <trkpt lat="47.26829" lon="-2.30865">
        <ele>47.599998474121</ele>
        <time>2019-08-08T07:56:29.000Z</time>
      </trkpt>
      <trkpt lat="47.26828" lon="-2.30816">
        <ele>47.599998474121</ele>
        <time>2019-08-08T07:56:35.000Z</time>
      </trkpt>
      <trkpt lat="47.26826" lon="-2.30796">
        <ele>47.599998474121</ele>
        <time>2019-08-08T07:56:38.000Z</time>
      </trkpt>
      <trkpt lat="47.26815" lon="-2.30798">
        <ele>47.599998474121</ele>
        <time>2019-08-08T07:56:41.000Z</time>
      </trkpt>
      <trkpt lat="47.26807" lon="-2.30805">
        <ele>47.599998474121</ele>
        <time>2019-08-08T07:56:43.000Z</time>
      </trkpt>
      <trkpt lat="47.26803" lon="-2.30809">
        <ele>47.599998474121</ele>
        <time>2019-08-08T07:56:44.000Z</time>
      </trkpt>
      <trkpt lat="47.26795" lon="-2.30819">
        <ele>47.599998474121</ele>
        <time>2019-08-08T07:56:46.000Z</time>
      </trkpt>
      <trkpt lat="47.26774" lon="-2.30843">
        <ele>47.599998474121</ele>
        <time>2019-08-08T07:56:51.000Z</time>
      </trkpt>
      <trkpt lat="47.26769" lon="-2.30848">
        <ele>47.599998474121</ele>
        <time>2019-08-08T07:56:52.000Z</time>
      </trkpt>
      <trkpt lat="47.26754" lon="-2.30862">
        <ele>47.599998474121</ele>
        <time>2019-08-08T07:56:55.000Z</time>
      </trkpt>
      <trkpt lat="47.26744" lon="-2.30869">
        <ele>47.599998474121</ele>
        <time>2019-08-08T07:56:57.000Z</time>
      </trkpt>
      <trkpt lat="47.2673" lon="-2.30865">
        <ele>47.599998474121</ele>
        <time>2019-08-08T07:57:00.000Z</time>
      </trkpt>
      <trkpt lat="47.26722" lon="-2.30855">
        <ele>47.599998474121</ele>
        <time>2019-08-08T07:57:02.000Z</time>
      </trkpt>
      <trkpt lat="47.26713" lon="-2.30837">
        <ele>47.599998474121</ele>
        <time>2019-08-08T07:57:05.000Z</time>
      </trkpt>
      <trkpt lat="47.26694" lon="-2.30789">
        <ele>47.599998474121</ele>
        <time>2019-08-08T07:57:11.000Z</time>
      </trkpt>
      <trkpt lat="47.2668" lon="-2.3075">
        <ele>47.200000762939</ele>
        <time>2019-08-08T07:57:15.000Z</time>
      </trkpt>
      <trkpt lat="47.26676" lon="-2.3074">
        <ele>46.799999237061</ele>
        <time>2019-08-08T07:57:16.000Z</time>
      </trkpt>
      <trkpt lat="47.26672" lon="-2.30731">
        <ele>46.400001525879</ele>
        <time>2019-08-08T07:57:17.000Z</time>
      </trkpt>
      <trkpt lat="47.26669" lon="-2.30722">
        <ele>46</ele>
        <time>2019-08-08T07:57:18.000Z</time>
      </trkpt>
      <trkpt lat="47.26666" lon="-2.30714">
        <ele>45.599998474121</ele>
        <time>2019-08-08T07:57:19.000Z</time>
      </trkpt>
      <trkpt lat="47.26663" lon="-2.30707">
        <ele>45.599998474121</ele>
        <time>2019-08-08T07:57:20.000Z</time>
      </trkpt>
      <trkpt lat="47.2666" lon="-2.30701">
        <ele>45</ele>
        <time>2019-08-08T07:57:21.000Z</time>
      </trkpt>
      <trkpt lat="47.26658" lon="-2.30697">
        <ele>44.599998474121</ele>
        <time>2019-08-08T07:57:22.000Z</time>
      </trkpt>
      <trkpt lat="47.26655" lon="-2.30695">
        <ele>44.200000762939</ele>
        <time>2019-08-08T07:57:23.000Z</time>
      </trkpt>
      <trkpt lat="47.26653" lon="-2.30693">
        <ele>43.799999237061</ele>
        <time>2019-08-08T07:57:24.000Z</time>
      </trkpt>
      <trkpt lat="47.26651" lon="-2.30692">
        <ele>43.400001525879</ele>
        <time>2019-08-08T07:57:25.000Z</time>
      </trkpt>
      <trkpt lat="47.26651" lon="-2.30694">
        <ele>43.400001525879</ele>
        <time>2019-08-08T07:57:26.000Z</time>
      </trkpt>
      <trkpt lat="47.26648" lon="-2.30703">
        <ele>43.400001525879</ele>
        <time>2019-08-08T07:57:29.000Z</time>
      </trkpt>
      <trkpt lat="47.26639" lon="-2.30717">
        <ele>43.400001525879</ele>
        <time>2019-08-08T07:57:33.000Z</time>
      </trkpt>
      <trkpt lat="47.26629" lon="-2.30726">
        <ele>43.400001525879</ele>
        <time>2019-08-08T07:57:37.000Z</time>
      </trkpt>
      <trkpt lat="47.26627" lon="-2.30734">
        <ele>42.799999237061</ele>
        <time>2019-08-08T07:57:39.000Z</time>
      </trkpt>
      <trkpt lat="47.26626" lon="-2.30738">
        <ele>42.400001525879</ele>
        <time>2019-08-08T07:57:40.000Z</time>
      </trkpt>
      <trkpt lat="47.26624" lon="-2.30744">
        <ele>42</ele>
        <time>2019-08-08T07:57:41.000Z</time>
      </trkpt>
      <trkpt lat="47.26621" lon="-2.30748">
        <ele>41.599998474121</ele>
        <time>2019-08-08T07:57:42.000Z</time>
      </trkpt>
      <trkpt lat="47.26618" lon="-2.3075">
        <ele>41.200000762939</ele>
        <time>2019-08-08T07:57:43.000Z</time>
      </trkpt>
      <trkpt lat="47.26606" lon="-2.30765">
        <ele>41.200000762939</ele>
        <time>2019-08-08T07:57:46.000Z</time>
      </trkpt>
      <trkpt lat="47.26598" lon="-2.30776">
        <ele>41.200000762939</ele>
        <time>2019-08-08T07:57:48.000Z</time>
      </trkpt>
      <trkpt lat="47.2658" lon="-2.308">
        <ele>41.200000762939</ele>
        <time>2019-08-08T07:57:53.000Z</time>
      </trkpt>
      <trkpt lat="47.26571" lon="-2.30819">
        <ele>40.799999237061</ele>
        <time>2019-08-08T07:57:56.000Z</time>
      </trkpt>
      <trkpt lat="47.26567" lon="-2.30824">
        <ele>40.400001525879</ele>
        <time>2019-08-08T07:57:57.000Z</time>
      </trkpt>
      <trkpt lat="47.26564" lon="-2.30827">
        <ele>39.799999237061</ele>
        <time>2019-08-08T07:57:58.000Z</time>
      </trkpt>
      <trkpt lat="47.2656" lon="-2.30831">
        <ele>39.400001525879</ele>
        <time>2019-08-08T07:57:59.000Z</time>
      </trkpt>
      <trkpt lat="47.26557" lon="-2.30835">
        <ele>39</ele>
        <time>2019-08-08T07:58:00.000Z</time>
      </trkpt>
      <trkpt lat="47.26553" lon="-2.30838">
        <ele>39</ele>
        <time>2019-08-08T07:58:01.000Z</time>
      </trkpt>
      <trkpt lat="47.26539" lon="-2.30861">
        <ele>39</ele>
        <time>2019-08-08T07:58:06.000Z</time>
      </trkpt>
      <trkpt lat="47.26536" lon="-2.30864">
        <ele>38.599998474121</ele>
        <time>2019-08-08T07:58:07.000Z</time>
      </trkpt>
      <trkpt lat="47.26533" lon="-2.30868">
        <ele>38.200000762939</ele>
        <time>2019-08-08T07:58:08.000Z</time>
      </trkpt>
      <trkpt lat="47.2653" lon="-2.30872">
        <ele>37.799999237061</ele>
        <time>2019-08-08T07:58:09.000Z</time>
      </trkpt>
      <trkpt lat="47.26526" lon="-2.30876">
        <ele>37.200000762939</ele>
        <time>2019-08-08T07:58:10.000Z</time>
      </trkpt>
      <trkpt lat="47.26523" lon="-2.30879">
        <ele>36.799999237061</ele>
        <time>2019-08-08T07:58:11.000Z</time>
      </trkpt>
      <trkpt lat="47.26516" lon="-2.30884">
        <ele>36.799999237061</ele>
        <time>2019-08-08T07:58:13.000Z</time>
      </trkpt>
      <trkpt lat="47.2651" lon="-2.30882">
        <ele>36.799999237061</ele>
        <time>2019-08-08T07:58:15.000Z</time>
      </trkpt>
      <trkpt lat="47.26502" lon="-2.30873">
        <ele>36.799999237061</ele>
        <time>2019-08-08T07:58:19.000Z</time>
      </trkpt>
      <trkpt lat="47.26493" lon="-2.30856">
        <ele>37.400001525879</ele>
        <time>2019-08-08T07:58:23.000Z</time>
      </trkpt>
      <trkpt lat="47.26489" lon="-2.30854">
        <ele>37.799999237061</ele>
        <time>2019-08-08T07:58:24.000Z</time>
      </trkpt>
      <trkpt lat="47.26486" lon="-2.3085">
        <ele>38.200000762939</ele>
        <time>2019-08-08T07:58:25.000Z</time>
      </trkpt>
      <trkpt lat="47.26483" lon="-2.30846">
        <ele>39.200000762939</ele>
        <time>2019-08-08T07:58:26.000Z</time>
      </trkpt>
      <trkpt lat="47.26477" lon="-2.30837">
        <ele>39.200000762939</ele>
        <time>2019-08-08T07:58:29.000Z</time>
      </trkpt>
      <trkpt lat="47.26471" lon="-2.30828">
        <ele>39.599998474121</ele>
        <time>2019-08-08T07:58:31.000Z</time>
      </trkpt>
      <trkpt lat="47.26469" lon="-2.30822">
        <ele>40</ele>
        <time>2019-08-08T07:58:32.000Z</time>
      </trkpt>
      <trkpt lat="47.26468" lon="-2.30816">
        <ele>40.400001525879</ele>
        <time>2019-08-08T07:58:33.000Z</time>
      </trkpt>
      <trkpt lat="47.26466" lon="-2.30809">
        <ele>41</ele>
        <time>2019-08-08T07:58:34.000Z</time>
      </trkpt>
      <trkpt lat="47.26464" lon="-2.30802">
        <ele>41.400001525879</ele>
        <time>2019-08-08T07:58:35.000Z</time>
      </trkpt>
      <trkpt lat="47.26454" lon="-2.30775">
        <ele>41.400001525879</ele>
        <time>2019-08-08T07:58:40.000Z</time>
      </trkpt>
      <trkpt lat="47.26447" lon="-2.30759">
        <ele>41.799999237061</ele>
        <time>2019-08-08T07:58:43.000Z</time>
      </trkpt>
      <trkpt lat="47.26445" lon="-2.30754">
        <ele>42.200000762939</ele>
        <time>2019-08-08T07:58:44.000Z</time>
      </trkpt>
      <trkpt lat="47.26443" lon="-2.30748">
        <ele>42.599998474121</ele>
        <time>2019-08-08T07:58:45.000Z</time>
      </trkpt>
      <trkpt lat="47.26441" lon="-2.30744">
        <ele>43</ele>
        <time>2019-08-08T07:58:46.000Z</time>
      </trkpt>
      <trkpt lat="47.26439" lon="-2.30739">
        <ele>43.400001525879</ele>
        <time>2019-08-08T07:58:47.000Z</time>
      </trkpt>
      <trkpt lat="47.26433" lon="-2.30722">
        <ele>43.400001525879</ele>
        <time>2019-08-08T07:58:51.000Z</time>
      </trkpt>
      <trkpt lat="47.26423" lon="-2.30703">
        <ele>43.400001525879</ele>
        <time>2019-08-08T07:58:56.000Z</time>
      </trkpt>
      <trkpt lat="47.2642" lon="-2.30695">
        <ele>43.799999237061</ele>
        <time>2019-08-08T07:58:58.000Z</time>
      </trkpt>
      <trkpt lat="47.26418" lon="-2.30692">
        <ele>44.200000762939</ele>
        <time>2019-08-08T07:58:59.000Z</time>
      </trkpt>
      <trkpt lat="47.26415" lon="-2.30689">
        <ele>44.599998474121</ele>
        <time>2019-08-08T07:59:00.000Z</time>
      </trkpt>
      <trkpt lat="47.26411" lon="-2.30686">
        <ele>45</ele>
        <time>2019-08-08T07:59:01.000Z</time>
      </trkpt>
      <trkpt lat="47.26408" lon="-2.30682">
        <ele>45.400001525879</ele>
        <time>2019-08-08T07:59:02.000Z</time>
      </trkpt>
      <trkpt lat="47.26394" lon="-2.30672">
        <ele>45.400001525879</ele>
        <time>2019-08-08T07:59:05.000Z</time>
      </trkpt>
      <trkpt lat="47.26386" lon="-2.30666">
        <ele>45.400001525879</ele>
        <time>2019-08-08T07:59:07.000Z</time>
      </trkpt>
      <trkpt lat="47.26376" lon="-2.30653">
        <ele>45.400001525879</ele>
        <time>2019-08-08T07:59:10.000Z</time>
      </trkpt>
      <trkpt lat="47.26368" lon="-2.30642">
        <ele>45.400001525879</ele>
        <time>2019-08-08T07:59:13.000Z</time>
      </trkpt>
      <trkpt lat="47.26366" lon="-2.30637">
        <ele>45.400001525879</ele>
        <time>2019-08-08T07:59:14.000Z</time>
      </trkpt>
      <trkpt lat="47.26347" lon="-2.30605">
        <ele>45.400001525879</ele>
        <time>2019-08-08T07:59:21.000Z</time>
      </trkpt>
      <trkpt lat="47.26342" lon="-2.30589">
        <ele>45.400001525879</ele>
        <time>2019-08-08T07:59:26.000Z</time>
      </trkpt>
      <trkpt lat="47.26341" lon="-2.30582">
        <ele>45.400001525879</ele>
        <time>2019-08-08T07:59:33.000Z</time>
      </trkpt>
      <trkpt lat="47.26341" lon="-2.30579">
        <ele>45.400001525879</ele>
        <time>2019-08-08T07:59:34.000Z</time>
      </trkpt>
      <trkpt lat="47.26342" lon="-2.30576">
        <ele>45.400001525879</ele>
        <time>2019-08-08T07:59:35.000Z</time>
      </trkpt>
      <trkpt lat="47.26344" lon="-2.30562">
        <ele>45.400001525879</ele>
        <time>2019-08-08T07:59:39.000Z</time>
      </trkpt>
      <trkpt lat="47.26341" lon="-2.3054">
        <ele>45.400001525879</ele>
        <time>2019-08-08T07:59:44.000Z</time>
      </trkpt>
      <trkpt lat="47.26335" lon="-2.30511">
        <ele>45.400001525879</ele>
        <time>2019-08-08T07:59:49.000Z</time>
      </trkpt>
      <trkpt lat="47.26335" lon="-2.30505">
        <ele>45.799999237061</ele>
        <time>2019-08-08T07:59:50.000Z</time>
      </trkpt>
      <trkpt lat="47.26334" lon="-2.30499">
        <ele>46.200000762939</ele>
        <time>2019-08-08T07:59:51.000Z</time>
      </trkpt>
      <trkpt lat="47.26333" lon="-2.30492">
        <ele>46.799999237061</ele>
        <time>2019-08-08T07:59:52.000Z</time>
      </trkpt>
      <trkpt lat="47.26331" lon="-2.30486">
        <ele>47.200000762939</ele>
        <time>2019-08-08T07:59:53.000Z</time>
      </trkpt>
      <trkpt lat="47.26329" lon="-2.30478">
        <ele>47.599998474121</ele>
        <time>2019-08-08T07:59:54.000Z</time>
      </trkpt>
      <trkpt lat="47.26322" lon="-2.3044">
        <ele>47.599998474121</ele>
        <time>2019-08-08T08:00:00.000Z</time>
      </trkpt>
      <trkpt lat="47.26313" lon="-2.30403">
        <ele>47.599998474121</ele>
        <time>2019-08-08T08:00:06.000Z</time>
      </trkpt>
      <trkpt lat="47.26307" lon="-2.30374">
        <ele>47.599998474121</ele>
        <time>2019-08-08T08:00:10.000Z</time>
      </trkpt>
      <trkpt lat="47.26304" lon="-2.30357">
        <ele>47.599998474121</ele>
        <time>2019-08-08T08:00:12.000Z</time>
      </trkpt>
      <trkpt lat="47.263" lon="-2.30336">
        <ele>47.599998474121</ele>
        <time>2019-08-08T08:00:15.000Z</time>
      </trkpt>
      <trkpt lat="47.26296" lon="-2.30322">
        <ele>47.599998474121</ele>
        <time>2019-08-08T08:00:17.000Z</time>
      </trkpt>
      <trkpt lat="47.26288" lon="-2.30301">
        <ele>47.599998474121</ele>
        <time>2019-08-08T08:00:20.000Z</time>
      </trkpt>
      <trkpt lat="47.26284" lon="-2.30286">
        <ele>47.599998474121</ele>
        <time>2019-08-08T08:00:22.000Z</time>
      </trkpt>
      <trkpt lat="47.26283" lon="-2.30279">
        <ele>47.599998474121</ele>
        <time>2019-08-08T08:00:23.000Z</time>
      </trkpt>
      <trkpt lat="47.26276" lon="-2.3024">
        <ele>47.599998474121</ele>
        <time>2019-08-08T08:00:28.000Z</time>
      </trkpt>
      <trkpt lat="47.26273" lon="-2.30225">
        <ele>47.599998474121</ele>
        <time>2019-08-08T08:00:30.000Z</time>
      </trkpt>
      <trkpt lat="47.26269" lon="-2.30204">
        <ele>47.599998474121</ele>
        <time>2019-08-08T08:00:33.000Z</time>
      </trkpt>
      <trkpt lat="47.26268" lon="-2.30197">
        <ele>47.599998474121</ele>
        <time>2019-08-08T08:00:34.000Z</time>
      </trkpt>
      <trkpt lat="47.26267" lon="-2.30191">
        <ele>47.599998474121</ele>
        <time>2019-08-08T08:00:35.000Z</time>
      </trkpt>
      <trkpt lat="47.26261" lon="-2.30171">
        <ele>47.599998474121</ele>
        <time>2019-08-08T08:00:38.000Z</time>
      </trkpt>
      <trkpt lat="47.26259" lon="-2.30165">
        <ele>48</ele>
        <time>2019-08-08T08:00:39.000Z</time>
      </trkpt>
      <trkpt lat="47.26256" lon="-2.30159">
        <ele>48.400001525879</ele>
        <time>2019-08-08T08:00:40.000Z</time>
      </trkpt>
      <trkpt lat="47.26254" lon="-2.30153">
        <ele>48.799999237061</ele>
        <time>2019-08-08T08:00:41.000Z</time>
      </trkpt>
      <trkpt lat="47.26252" lon="-2.30147">
        <ele>49.200000762939</ele>
        <time>2019-08-08T08:00:42.000Z</time>
      </trkpt>
      <trkpt lat="47.26251" lon="-2.30141">
        <ele>49.599998474121</ele>
        <time>2019-08-08T08:00:43.000Z</time>
      </trkpt>
      <trkpt lat="47.26249" lon="-2.30137">
        <ele>49.599998474121</ele>
        <time>2019-08-08T08:00:44.000Z</time>
      </trkpt>
      <trkpt lat="47.26247" lon="-2.30134">
        <ele>49.599998474121</ele>
        <time>2019-08-08T08:00:45.000Z</time>
      </trkpt>
      <trkpt lat="47.2624" lon="-2.30133">
        <ele>49.599998474121</ele>
        <time>2019-08-08T08:00:47.000Z</time>
      </trkpt>
      <trkpt lat="47.26233" lon="-2.30136">
        <ele>49.599998474121</ele>
        <time>2019-08-08T08:00:49.000Z</time>
      </trkpt>
      <trkpt lat="47.26224" lon="-2.30139">
        <ele>49.599998474121</ele>
        <time>2019-08-08T08:00:51.000Z</time>
      </trkpt>
      <trkpt lat="47.2622" lon="-2.3014">
        <ele>49.599998474121</ele>
        <time>2019-08-08T08:00:52.000Z</time>
      </trkpt>
      <trkpt lat="47.26196" lon="-2.30151">
        <ele>49.599998474121</ele>
        <time>2019-08-08T08:00:57.000Z</time>
      </trkpt>
      <trkpt lat="47.26177" lon="-2.30158">
        <ele>49.599998474121</ele>
        <time>2019-08-08T08:01:02.000Z</time>
      </trkpt>
      <trkpt lat="47.26174" lon="-2.30148">
        <ele>49.599998474121</ele>
        <time>2019-08-08T08:01:05.000Z</time>
      </trkpt>
      <trkpt lat="47.26172" lon="-2.30147">
        <ele>49.599998474121</ele>
        <time>2019-08-08T08:01:06.000Z</time>
      </trkpt>
      <trkpt lat="47.26166" lon="-2.30149">
        <ele>49.599998474121</ele>
        <time>2019-08-08T08:01:08.000Z</time>
      </trkpt>
      <trkpt lat="47.26159" lon="-2.30152">
        <ele>49.200000762939</ele>
        <time>2019-08-08T08:01:10.000Z</time>
      </trkpt>
      <trkpt lat="47.26155" lon="-2.30153">
        <ele>48.799999237061</ele>
        <time>2019-08-08T08:01:11.000Z</time>
      </trkpt>
      <trkpt lat="47.2615" lon="-2.30155">
        <ele>48.400001525879</ele>
        <time>2019-08-08T08:01:12.000Z</time>
      </trkpt>
      <trkpt lat="47.26146" lon="-2.30156">
        <ele>48</ele>
        <time>2019-08-08T08:01:13.000Z</time>
      </trkpt>
      <trkpt lat="47.26141" lon="-2.30157">
        <ele>47.599998474121</ele>
        <time>2019-08-08T08:01:14.000Z</time>
      </trkpt>
      <trkpt lat="47.26125" lon="-2.30161">
        <ele>47.599998474121</ele>
        <time>2019-08-08T08:01:17.000Z</time>
      </trkpt>
      <trkpt lat="47.26113" lon="-2.30166">
        <ele>46.599998474121</ele>
        <time>2019-08-08T08:01:20.000Z</time>
      </trkpt>
      <trkpt lat="47.2611" lon="-2.30166">
        <ele>46.200000762939</ele>
        <time>2019-08-08T08:01:21.000Z</time>
      </trkpt>
      <trkpt lat="47.26108" lon="-2.30165">
        <ele>45.799999237061</ele>
        <time>2019-08-08T08:01:22.000Z</time>
      </trkpt>
      <trkpt lat="47.26106" lon="-2.30163">
        <ele>45.200000762939</ele>
        <time>2019-08-08T08:01:23.000Z</time>
      </trkpt>
      <trkpt lat="47.26103" lon="-2.30158">
        <ele>45.200000762939</ele>
        <time>2019-08-08T08:01:25.000Z</time>
      </trkpt>
      <trkpt lat="47.2609" lon="-2.30146">
        <ele>45.200000762939</ele>
        <time>2019-08-08T08:01:31.000Z</time>
      </trkpt>
      <trkpt lat="47.26086" lon="-2.30147">
        <ele>44.799999237061</ele>
        <time>2019-08-08T08:01:32.000Z</time>
      </trkpt>
      <trkpt lat="47.26083" lon="-2.30146">
        <ele>44.400001525879</ele>
        <time>2019-08-08T08:01:33.000Z</time>
      </trkpt>
      <trkpt lat="47.26079" lon="-2.30144">
        <ele>44</ele>
        <time>2019-08-08T08:01:34.000Z</time>
      </trkpt>
      <trkpt lat="47.26075" lon="-2.3014">
        <ele>43.599998474121</ele>
        <time>2019-08-08T08:01:35.000Z</time>
      </trkpt>
      <trkpt lat="47.26071" lon="-2.30138">
        <ele>43.200000762939</ele>
        <time>2019-08-08T08:01:36.000Z</time>
      </trkpt>
      <trkpt lat="47.26067" lon="-2.30136">
        <ele>43.200000762939</ele>
        <time>2019-08-08T08:01:37.000Z</time>
      </trkpt>
      <trkpt lat="47.26058" lon="-2.30135">
        <ele>43.200000762939</ele>
        <time>2019-08-08T08:01:39.000Z</time>
      </trkpt>
      <trkpt lat="47.26048" lon="-2.30138">
        <ele>43.200000762939</ele>
        <time>2019-08-08T08:01:41.000Z</time>
      </trkpt>
      <trkpt lat="47.26033" lon="-2.3014">
        <ele>43.200000762939</ele>
        <time>2019-08-08T08:01:44.000Z</time>
      </trkpt>
      <trkpt lat="47.26029" lon="-2.30138">
        <ele>42.400001525879</ele>
        <time>2019-08-08T08:01:45.000Z</time>
      </trkpt>
      <trkpt lat="47.26024" lon="-2.30136">
        <ele>42</ele>
        <time>2019-08-08T08:01:46.000Z</time>
      </trkpt>
      <trkpt lat="47.26018" lon="-2.30136">
        <ele>41.599998474121</ele>
        <time>2019-08-08T08:01:47.000Z</time>
      </trkpt>
      <trkpt lat="47.26014" lon="-2.30136">
        <ele>41.200000762939</ele>
        <time>2019-08-08T08:01:48.000Z</time>
      </trkpt>
      <trkpt lat="47.26009" lon="-2.30135">
        <ele>41.200000762939</ele>
        <time>2019-08-08T08:01:49.000Z</time>
      </trkpt>
      <trkpt lat="47.25989" lon="-2.30136">
        <ele>41.200000762939</ele>
        <time>2019-08-08T08:01:53.000Z</time>
      </trkpt>
      <trkpt lat="47.25986" lon="-2.30135">
        <ele>40.799999237061</ele>
        <time>2019-08-08T08:01:54.000Z</time>
      </trkpt>
      <trkpt lat="47.25984" lon="-2.30134">
        <ele>40.400001525879</ele>
        <time>2019-08-08T08:01:55.000Z</time>
      </trkpt>
      <trkpt lat="47.25981" lon="-2.30132">
        <ele>40</ele>
        <time>2019-08-08T08:01:56.000Z</time>
      </trkpt>
      <trkpt lat="47.2598" lon="-2.30129">
        <ele>39.599998474121</ele>
        <time>2019-08-08T08:01:57.000Z</time>
      </trkpt>
      <trkpt lat="47.25978" lon="-2.30126">
        <ele>39.200000762939</ele>
        <time>2019-08-08T08:01:58.000Z</time>
      </trkpt>
      <trkpt lat="47.25973" lon="-2.30116">
        <ele>39.200000762939</ele>
        <time>2019-08-08T08:02:03.000Z</time>
      </trkpt>
      <trkpt lat="47.2597" lon="-2.30098">
        <ele>39.200000762939</ele>
        <time>2019-08-08T08:02:12.000Z</time>
      </trkpt>
      <trkpt lat="47.25969" lon="-2.30093">
        <ele>39.200000762939</ele>
        <time>2019-08-08T08:02:15.000Z</time>
      </trkpt>
      <trkpt lat="47.25966" lon="-2.301">
        <ele>39.200000762939</ele>
        <time>2019-08-08T08:02:57.000Z</time>
      </trkpt>
      <trkpt lat="47.25965" lon="-2.30117">
        <ele>39.200000762939</ele>
        <time>2019-08-08T08:03:03.000Z</time>
      </trkpt>
      <trkpt lat="47.25965" lon="-2.30125">
        <ele>39.200000762939</ele>
        <time>2019-08-08T08:03:06.000Z</time>
      </trkpt>
      <trkpt lat="47.25965" lon="-2.30128">
        <ele>39.200000762939</ele>
        <time>2019-08-08T08:03:08.000Z</time>
      </trkpt>
      <trkpt lat="47.25964" lon="-2.30129">
        <ele>39.200000762939</ele>
        <time>2019-08-08T08:03:09.000Z</time>
      </trkpt>
      <trkpt lat="47.25965" lon="-2.30124">
        <ele>41.200000762939</ele>
        <time>2019-08-08T08:09:50.000Z</time>
      </trkpt>
      <trkpt lat="47.25965" lon="-2.30118">
        <ele>41.200000762939</ele>
        <time>2019-08-08T08:09:52.000Z</time>
      </trkpt>
      <trkpt lat="47.25968" lon="-2.30089">
        <ele>41.200000762939</ele>
        <time>2019-08-08T08:09:57.000Z</time>
      </trkpt>
      <trkpt lat="47.2597" lon="-2.30075">
        <ele>41.200000762939</ele>
        <time>2019-08-08T08:09:59.000Z</time>
      </trkpt>
      <trkpt lat="47.25969" lon="-2.3005">
        <ele>41.200000762939</ele>
        <time>2019-08-08T08:10:03.000Z</time>
      </trkpt>
      <trkpt lat="47.2597" lon="-2.30031">
        <ele>41.599998474121</ele>
        <time>2019-08-08T08:10:06.000Z</time>
      </trkpt>
      <trkpt lat="47.25971" lon="-2.30025">
        <ele>42</ele>
        <time>2019-08-08T08:10:07.000Z</time>
      </trkpt>
      <trkpt lat="47.25971" lon="-2.30018">
        <ele>42.400001525879</ele>
        <time>2019-08-08T08:10:08.000Z</time>
      </trkpt>
      <trkpt lat="47.25972" lon="-2.30012">
        <ele>42.799999237061</ele>
        <time>2019-08-08T08:10:09.000Z</time>
      </trkpt>
      <trkpt lat="47.25972" lon="-2.30005">
        <ele>43.200000762939</ele>
        <time>2019-08-08T08:10:10.000Z</time>
      </trkpt>
      <trkpt lat="47.25972" lon="-2.29999">
        <ele>43.200000762939</ele>
        <time>2019-08-08T08:10:11.000Z</time>
      </trkpt>
      <trkpt lat="47.25977" lon="-2.29958">
        <ele>43.200000762939</ele>
        <time>2019-08-08T08:10:18.000Z</time>
      </trkpt>
      <trkpt lat="47.25983" lon="-2.29936">
        <ele>43.200000762939</ele>
        <time>2019-08-08T08:10:24.000Z</time>
      </trkpt>
      <trkpt lat="47.25984" lon="-2.29935">
        <ele>43.200000762939</ele>
        <time>2019-08-08T08:10:25.000Z</time>
      </trkpt>
      <trkpt lat="47.25984" lon="-2.29935">
        <ele>43.200000762939</ele>
        <time>2019-08-08T08:10:27.000Z</time>
      </trkpt>
      <trkpt lat="47.25986" lon="-2.29931">
        <ele>43.200000762939</ele>
        <time>2019-08-08T08:10:49.000Z</time>
      </trkpt>
      <trkpt lat="47.25986" lon="-2.2992">
        <ele>43.200000762939</ele>
        <time>2019-08-08T08:10:53.000Z</time>
      </trkpt>
      <trkpt lat="47.25979" lon="-2.29912">
        <ele>43.200000762939</ele>
        <time>2019-08-08T08:10:57.000Z</time>
      </trkpt>
      <trkpt lat="47.25978" lon="-2.2991">
        <ele>43.200000762939</ele>
        <time>2019-08-08T08:10:58.000Z</time>
      </trkpt>
      <trkpt lat="47.25972" lon="-2.29896">
        <ele>43.200000762939</ele>
        <time>2019-08-08T08:11:02.000Z</time>
      </trkpt>
      <trkpt lat="47.25962" lon="-2.29877">
        <ele>43.200000762939</ele>
        <time>2019-08-08T08:11:08.000Z</time>
      </trkpt>
      <trkpt lat="47.25959" lon="-2.29865">
        <ele>43.200000762939</ele>
        <time>2019-08-08T08:11:13.000Z</time>
      </trkpt>
      <trkpt lat="47.25956" lon="-2.29849">
        <ele>43.200000762939</ele>
        <time>2019-08-08T08:11:20.000Z</time>
      </trkpt>
      <trkpt lat="47.25953" lon="-2.29825">
        <ele>43.200000762939</ele>
        <time>2019-08-08T08:11:26.000Z</time>
      </trkpt>
      <trkpt lat="47.25948" lon="-2.29806">
        <ele>43.200000762939</ele>
        <time>2019-08-08T08:11:30.000Z</time>
      </trkpt>
      <trkpt lat="47.25944" lon="-2.29788">
        <ele>43.200000762939</ele>
        <time>2019-08-08T08:11:34.000Z</time>
      </trkpt>
      <trkpt lat="47.25933" lon="-2.29759">
        <ele>43.599998474121</ele>
        <time>2019-08-08T08:11:40.000Z</time>
      </trkpt>
      <trkpt lat="47.2593" lon="-2.29755">
        <ele>44</ele>
        <time>2019-08-08T08:11:41.000Z</time>
      </trkpt>
      <trkpt lat="47.25928" lon="-2.2975">
        <ele>44.400001525879</ele>
        <time>2019-08-08T08:11:42.000Z</time>
      </trkpt>
      <trkpt lat="47.25927" lon="-2.29746">
        <ele>44.799999237061</ele>
        <time>2019-08-08T08:11:43.000Z</time>
      </trkpt>
      <trkpt lat="47.25926" lon="-2.29742">
        <ele>45.200000762939</ele>
        <time>2019-08-08T08:11:44.000Z</time>
      </trkpt>
      <trkpt lat="47.25924" lon="-2.29725">
        <ele>45.200000762939</ele>
        <time>2019-08-08T08:11:47.000Z</time>
      </trkpt>
      <trkpt lat="47.25925" lon="-2.29718">
        <ele>45.200000762939</ele>
        <time>2019-08-08T08:11:48.000Z</time>
      </trkpt>
      <trkpt lat="47.25929" lon="-2.2968">
        <ele>45.200000762939</ele>
        <time>2019-08-08T08:11:54.000Z</time>
      </trkpt>
      <trkpt lat="47.25931" lon="-2.29668">
        <ele>45.599998474121</ele>
        <time>2019-08-08T08:11:56.000Z</time>
      </trkpt>
      <trkpt lat="47.25931" lon="-2.29663">
        <ele>46</ele>
        <time>2019-08-08T08:11:57.000Z</time>
      </trkpt>
      <trkpt lat="47.25932" lon="-2.29658">
        <ele>46.400001525879</ele>
        <time>2019-08-08T08:11:58.000Z</time>
      </trkpt>
      <trkpt lat="47.25932" lon="-2.29653">
        <ele>46.799999237061</ele>
        <time>2019-08-08T08:11:59.000Z</time>
      </trkpt>
      <trkpt lat="47.25932" lon="-2.29648">
        <ele>47.200000762939</ele>
        <time>2019-08-08T08:12:00.000Z</time>
      </trkpt>
      <trkpt lat="47.25935" lon="-2.29636">
        <ele>47.200000762939</ele>
        <time>2019-08-08T08:12:03.000Z</time>
      </trkpt>
      <trkpt lat="47.25937" lon="-2.29633">
        <ele>47.200000762939</ele>
        <time>2019-08-08T08:12:04.000Z</time>
      </trkpt>
      <trkpt lat="47.25947" lon="-2.29638">
        <ele>47.200000762939</ele>
        <time>2019-08-08T08:12:07.000Z</time>
      </trkpt>
      <trkpt lat="47.25951" lon="-2.29641">
        <ele>47.200000762939</ele>
        <time>2019-08-08T08:12:08.000Z</time>
      </trkpt>
      <trkpt lat="47.25965" lon="-2.29646">
        <ele>47.200000762939</ele>
        <time>2019-08-08T08:12:11.000Z</time>
      </trkpt>
      <trkpt lat="47.25984" lon="-2.29636">
        <ele>47.200000762939</ele>
        <time>2019-08-08T08:12:15.000Z</time>
      </trkpt>
      <trkpt lat="47.26003" lon="-2.29626">
        <ele>47.200000762939</ele>
        <time>2019-08-08T08:12:19.000Z</time>
      </trkpt>
      <trkpt lat="47.26013" lon="-2.29623">
        <ele>47.200000762939</ele>
        <time>2019-08-08T08:12:21.000Z</time>
      </trkpt>
      <trkpt lat="47.26041" lon="-2.29614">
        <ele>47.799999237061</ele>
        <time>2019-08-08T08:12:27.000Z</time>
      </trkpt>
      <trkpt lat="47.26046" lon="-2.29615">
        <ele>48.200000762939</ele>
        <time>2019-08-08T08:12:28.000Z</time>
      </trkpt>
      <trkpt lat="47.26051" lon="-2.29615">
        <ele>48.599998474121</ele>
        <time>2019-08-08T08:12:29.000Z</time>
      </trkpt>
      <trkpt lat="47.26055" lon="-2.29615">
        <ele>49</ele>
        <time>2019-08-08T08:12:30.000Z</time>
      </trkpt>
      <trkpt lat="47.26059" lon="-2.29614">
        <ele>49.400001525879</ele>
        <time>2019-08-08T08:12:31.000Z</time>
      </trkpt>
      <trkpt lat="47.26074" lon="-2.29613">
        <ele>49.400001525879</ele>
        <time>2019-08-08T08:12:35.000Z</time>
      </trkpt>
      <trkpt lat="47.26077" lon="-2.29612">
        <ele>49.799999237061</ele>
        <time>2019-08-08T08:12:36.000Z</time>
      </trkpt>
      <trkpt lat="47.2608" lon="-2.29611">
        <ele>50.200000762939</ele>
        <time>2019-08-08T08:12:37.000Z</time>
      </trkpt>
      <trkpt lat="47.26084" lon="-2.2961">
        <ele>50.799999237061</ele>
        <time>2019-08-08T08:12:38.000Z</time>
      </trkpt>
      <trkpt lat="47.26088" lon="-2.2961">
        <ele>51.200000762939</ele>
        <time>2019-08-08T08:12:39.000Z</time>
      </trkpt>
      <trkpt lat="47.26092" lon="-2.29609">
        <ele>51.599998474121</ele>
        <time>2019-08-08T08:12:40.000Z</time>
      </trkpt>
      <trkpt lat="47.26095" lon="-2.29608">
        <ele>51.599998474121</ele>
        <time>2019-08-08T08:12:41.000Z</time>
      </trkpt>
      <trkpt lat="47.26102" lon="-2.29606">
        <ele>52</ele>
        <time>2019-08-08T08:12:43.000Z</time>
      </trkpt>
      <trkpt lat="47.26105" lon="-2.29605">
        <ele>52.599998474121</ele>
        <time>2019-08-08T08:12:44.000Z</time>
      </trkpt>
      <trkpt lat="47.26109" lon="-2.29604">
        <ele>53</ele>
        <time>2019-08-08T08:12:45.000Z</time>
      </trkpt>
      <trkpt lat="47.26112" lon="-2.29603">
        <ele>53.400001525879</ele>
        <time>2019-08-08T08:12:46.000Z</time>
      </trkpt>
      <trkpt lat="47.26115" lon="-2.29602">
        <ele>54</ele>
        <time>2019-08-08T08:12:47.000Z</time>
      </trkpt>
      <trkpt lat="47.26129" lon="-2.29596">
        <ele>54.400001525879</ele>
        <time>2019-08-08T08:12:51.000Z</time>
      </trkpt>
      <trkpt lat="47.26133" lon="-2.29594">
        <ele>54.799999237061</ele>
        <time>2019-08-08T08:12:52.000Z</time>
      </trkpt>
      <trkpt lat="47.26137" lon="-2.29592">
        <ele>55.200000762939</ele>
        <time>2019-08-08T08:12:53.000Z</time>
      </trkpt>
      <trkpt lat="47.2614" lon="-2.29591">
        <ele>55.599998474121</ele>
        <time>2019-08-08T08:12:54.000Z</time>
      </trkpt>
      <trkpt lat="47.26144" lon="-2.29589">
        <ele>56</ele>
        <time>2019-08-08T08:12:55.000Z</time>
      </trkpt>
      <trkpt lat="47.26147" lon="-2.29587">
        <ele>56</ele>
        <time>2019-08-08T08:12:56.000Z</time>
      </trkpt>
      <trkpt lat="47.26163" lon="-2.29578">
        <ele>56.400001525879</ele>
        <time>2019-08-08T08:13:01.000Z</time>
      </trkpt>
      <trkpt lat="47.26166" lon="-2.29577">
        <ele>56.799999237061</ele>
        <time>2019-08-08T08:13:02.000Z</time>
      </trkpt>
      <trkpt lat="47.2617" lon="-2.29576">
        <ele>57.200000762939</ele>
        <time>2019-08-08T08:13:03.000Z</time>
      </trkpt>
      <trkpt lat="47.26173" lon="-2.29575">
        <ele>57.799999237061</ele>
        <time>2019-08-08T08:13:04.000Z</time>
      </trkpt>
      <trkpt lat="47.26176" lon="-2.29575">
        <ele>58.200000762939</ele>
        <time>2019-08-08T08:13:05.000Z</time>
      </trkpt>
      <trkpt lat="47.26179" lon="-2.29574">
        <ele>58.200000762939</ele>
        <time>2019-08-08T08:13:06.000Z</time>
      </trkpt>
      <trkpt lat="47.26189" lon="-2.29565">
        <ele>58.599998474121</ele>
        <time>2019-08-08T08:13:10.000Z</time>
      </trkpt>
      <trkpt lat="47.2619" lon="-2.29562">
        <ele>59</ele>
        <time>2019-08-08T08:13:11.000Z</time>
      </trkpt>
      <trkpt lat="47.26189" lon="-2.29557">
        <ele>59.400001525879</ele>
        <time>2019-08-08T08:13:12.000Z</time>
      </trkpt>
      <trkpt lat="47.26188" lon="-2.29553">
        <ele>59.799999237061</ele>
        <time>2019-08-08T08:13:13.000Z</time>
      </trkpt>
      <trkpt lat="47.26186" lon="-2.29548">
        <ele>60.200000762939</ele>
        <time>2019-08-08T08:13:14.000Z</time>
      </trkpt>
      <trkpt lat="47.26184" lon="-2.29545">
        <ele>60.200000762939</ele>
        <time>2019-08-08T08:13:15.000Z</time>
      </trkpt>
      <trkpt lat="47.26167" lon="-2.29528">
        <ele>60.200000762939</ele>
        <time>2019-08-08T08:13:20.000Z</time>
      </trkpt>
      <trkpt lat="47.26162" lon="-2.29526">
        <ele>60.200000762939</ele>
        <time>2019-08-08T08:13:21.000Z</time>
      </trkpt>
      <trkpt lat="47.26152" lon="-2.29519">
        <ele>60.200000762939</ele>
        <time>2019-08-08T08:13:23.000Z</time>
      </trkpt>
      <trkpt lat="47.26143" lon="-2.29509">
        <ele>60.200000762939</ele>
        <time>2019-08-08T08:13:25.000Z</time>
      </trkpt>
      <trkpt lat="47.26132" lon="-2.29488">
        <ele>60.200000762939</ele>
        <time>2019-08-08T08:13:28.000Z</time>
      </trkpt>
      <trkpt lat="47.26126" lon="-2.29473">
        <ele>60.200000762939</ele>
        <time>2019-08-08T08:13:30.000Z</time>
      </trkpt>
      <trkpt lat="47.26122" lon="-2.2946">
        <ele>60.200000762939</ele>
        <time>2019-08-08T08:13:32.000Z</time>
      </trkpt>
      <trkpt lat="47.26119" lon="-2.29446">
        <ele>60.200000762939</ele>
        <time>2019-08-08T08:13:34.000Z</time>
      </trkpt>
      <trkpt lat="47.26119" lon="-2.29438">
        <ele>60.200000762939</ele>
        <time>2019-08-08T08:13:35.000Z</time>
      </trkpt>
      <trkpt lat="47.26124" lon="-2.29403">
        <ele>60.200000762939</ele>
        <time>2019-08-08T08:13:39.000Z</time>
      </trkpt>
      <trkpt lat="47.26126" lon="-2.29395">
        <ele>60.200000762939</ele>
        <time>2019-08-08T08:13:40.000Z</time>
      </trkpt>
      <trkpt lat="47.26139" lon="-2.29353">
        <ele>60.200000762939</ele>
        <time>2019-08-08T08:13:46.000Z</time>
      </trkpt>
      <trkpt lat="47.26151" lon="-2.29353">
        <ele>60.200000762939</ele>
        <time>2019-08-08T08:13:49.000Z</time>
      </trkpt>
      <trkpt lat="47.26155" lon="-2.29355">
        <ele>60.200000762939</ele>
        <time>2019-08-08T08:13:50.000Z</time>
      </trkpt>
      <trkpt lat="47.26166" lon="-2.29359">
        <ele>60.200000762939</ele>
        <time>2019-08-08T08:13:53.000Z</time>
      </trkpt>
      <trkpt lat="47.2617" lon="-2.2936">
        <ele>60.200000762939</ele>
        <time>2019-08-08T08:13:54.000Z</time>
      </trkpt>
      <trkpt lat="47.26175" lon="-2.2936">
        <ele>60.200000762939</ele>
        <time>2019-08-08T08:13:55.000Z</time>
      </trkpt>
      <trkpt lat="47.26187" lon="-2.29355">
        <ele>60.200000762939</ele>
        <time>2019-08-08T08:13:58.000Z</time>
      </trkpt>
      <trkpt lat="47.26194" lon="-2.29351">
        <ele>60.200000762939</ele>
        <time>2019-08-08T08:14:00.000Z</time>
      </trkpt>
      <trkpt lat="47.26205" lon="-2.29341">
        <ele>60.599998474121</ele>
        <time>2019-08-08T08:14:03.000Z</time>
      </trkpt>
      <trkpt lat="47.26209" lon="-2.29337">
        <ele>61</ele>
        <time>2019-08-08T08:14:04.000Z</time>
      </trkpt>
      <trkpt lat="47.26212" lon="-2.29334">
        <ele>62</ele>
        <time>2019-08-08T08:14:05.000Z</time>
      </trkpt>
      <trkpt lat="47.26216" lon="-2.2933">
        <ele>62.400001525879</ele>
        <time>2019-08-08T08:14:06.000Z</time>
      </trkpt>
      <trkpt lat="47.26241" lon="-2.29305">
        <ele>62.400001525879</ele>
        <time>2019-08-08T08:14:11.000Z</time>
      </trkpt>
      <trkpt lat="47.26258" lon="-2.29292">
        <ele>62.799999237061</ele>
        <time>2019-08-08T08:14:14.000Z</time>
      </trkpt>
      <trkpt lat="47.26264" lon="-2.29289">
        <ele>63.200000762939</ele>
        <time>2019-08-08T08:14:15.000Z</time>
      </trkpt>
      <trkpt lat="47.26269" lon="-2.29285">
        <ele>63.599998474121</ele>
        <time>2019-08-08T08:14:16.000Z</time>
      </trkpt>
      <trkpt lat="47.26274" lon="-2.29283">
        <ele>64</ele>
        <time>2019-08-08T08:14:17.000Z</time>
      </trkpt>
      <trkpt lat="47.2628" lon="-2.29281">
        <ele>64.400001525879</ele>
        <time>2019-08-08T08:14:18.000Z</time>
      </trkpt>
      <trkpt lat="47.26323" lon="-2.29271">
        <ele>64.400001525879</ele>
        <time>2019-08-08T08:14:26.000Z</time>
      </trkpt>
      <trkpt lat="47.26333" lon="-2.29272">
        <ele>64.800003051758</ele>
        <time>2019-08-08T08:14:28.000Z</time>
      </trkpt>
      <trkpt lat="47.26338" lon="-2.29273">
        <ele>65.199996948242</ele>
        <time>2019-08-08T08:14:29.000Z</time>
      </trkpt>
      <trkpt lat="47.26343" lon="-2.29274">
        <ele>66</ele>
        <time>2019-08-08T08:14:30.000Z</time>
      </trkpt>
      <trkpt lat="47.26349" lon="-2.29275">
        <ele>66.400001525879</ele>
        <time>2019-08-08T08:14:31.000Z</time>
      </trkpt>
      <trkpt lat="47.26354" lon="-2.29277">
        <ele>66.400001525879</ele>
        <time>2019-08-08T08:14:32.000Z</time>
      </trkpt>
      <trkpt lat="47.26392" lon="-2.29294">
        <ele>66.400001525879</ele>
        <time>2019-08-08T08:14:39.000Z</time>
      </trkpt>
      <trkpt lat="47.26432" lon="-2.29315">
        <ele>66.400001525879</ele>
        <time>2019-08-08T08:14:46.000Z</time>
      </trkpt>
      <trkpt lat="47.26472" lon="-2.29335">
        <ele>66.400001525879</ele>
        <time>2019-08-08T08:14:53.000Z</time>
      </trkpt>
      <trkpt lat="47.2649" lon="-2.29338">
        <ele>66.400001525879</ele>
        <time>2019-08-08T08:14:56.000Z</time>
      </trkpt>
      <trkpt lat="47.26502" lon="-2.29336">
        <ele>66.800003051758</ele>
        <time>2019-08-08T08:14:58.000Z</time>
      </trkpt>
      <trkpt lat="47.26508" lon="-2.29335">
        <ele>67.199996948242</ele>
        <time>2019-08-08T08:14:59.000Z</time>
      </trkpt>
      <trkpt lat="47.26514" lon="-2.29333">
        <ele>67.599998474121</ele>
        <time>2019-08-08T08:15:00.000Z</time>
      </trkpt>
      <trkpt lat="47.26521" lon="-2.2933">
        <ele>68.199996948242</ele>
        <time>2019-08-08T08:15:01.000Z</time>
      </trkpt>
      <trkpt lat="47.26527" lon="-2.29328">
        <ele>68.599998474121</ele>
        <time>2019-08-08T08:15:02.000Z</time>
      </trkpt>
      <trkpt lat="47.26539" lon="-2.29321">
        <ele>68.599998474121</ele>
        <time>2019-08-08T08:15:04.000Z</time>
      </trkpt>
      <trkpt lat="47.26574" lon="-2.29301">
        <ele>68.599998474121</ele>
        <time>2019-08-08T08:15:10.000Z</time>
      </trkpt>
      <trkpt lat="47.2658" lon="-2.29297">
        <ele>68.599998474121</ele>
        <time>2019-08-08T08:15:11.000Z</time>
      </trkpt>
      <trkpt lat="47.26617" lon="-2.29273">
        <ele>68.599998474121</ele>
        <time>2019-08-08T08:15:17.000Z</time>
      </trkpt>
      <trkpt lat="47.26649" lon="-2.29247">
        <ele>68.199996948242</ele>
        <time>2019-08-08T08:15:22.000Z</time>
      </trkpt>
      <trkpt lat="47.26655" lon="-2.29242">
        <ele>67.599998474121</ele>
        <time>2019-08-08T08:15:23.000Z</time>
      </trkpt>
      <trkpt lat="47.26661" lon="-2.29235">
        <ele>67.199996948242</ele>
        <time>2019-08-08T08:15:24.000Z</time>
      </trkpt>
      <trkpt lat="47.26667" lon="-2.29229">
        <ele>66.800003051758</ele>
        <time>2019-08-08T08:15:25.000Z</time>
      </trkpt>
      <trkpt lat="47.26673" lon="-2.29223">
        <ele>66.400001525879</ele>
        <time>2019-08-08T08:15:26.000Z</time>
      </trkpt>
      <trkpt lat="47.26709" lon="-2.29187">
        <ele>66.400001525879</ele>
        <time>2019-08-08T08:15:32.000Z</time>
      </trkpt>
      <trkpt lat="47.26726" lon="-2.29169">
        <ele>66</ele>
        <time>2019-08-08T08:15:35.000Z</time>
      </trkpt>
      <trkpt lat="47.26732" lon="-2.29164">
        <ele>65.599998474121</ele>
        <time>2019-08-08T08:15:36.000Z</time>
      </trkpt>
      <trkpt lat="47.26738" lon="-2.29157">
        <ele>65.199996948242</ele>
        <time>2019-08-08T08:15:37.000Z</time>
      </trkpt>
      <trkpt lat="47.26744" lon="-2.29151">
        <ele>64.800003051758</ele>
        <time>2019-08-08T08:15:38.000Z</time>
      </trkpt>
      <trkpt lat="47.2675" lon="-2.29145">
        <ele>64.400001525879</ele>
        <time>2019-08-08T08:15:39.000Z</time>
      </trkpt>
      <trkpt lat="47.26779" lon="-2.29113">
        <ele>64.400001525879</ele>
        <time>2019-08-08T08:15:44.000Z</time>
      </trkpt>
      <trkpt lat="47.26785" lon="-2.29106">
        <ele>64</ele>
        <time>2019-08-08T08:15:45.000Z</time>
      </trkpt>
      <trkpt lat="47.26792" lon="-2.29099">
        <ele>63.400001525879</ele>
        <time>2019-08-08T08:15:46.000Z</time>
      </trkpt>
      <trkpt lat="47.26798" lon="-2.29092">
        <ele>63</ele>
        <time>2019-08-08T08:15:47.000Z</time>
      </trkpt>
      <trkpt lat="47.26805" lon="-2.29086">
        <ele>62.599998474121</ele>
        <time>2019-08-08T08:15:48.000Z</time>
      </trkpt>
      <trkpt lat="47.26811" lon="-2.2908">
        <ele>62.200000762939</ele>
        <time>2019-08-08T08:15:49.000Z</time>
      </trkpt>
      <trkpt lat="47.26824" lon="-2.29068">
        <ele>61.799999237061</ele>
        <time>2019-08-08T08:15:51.000Z</time>
      </trkpt>
      <trkpt lat="47.26831" lon="-2.29062">
        <ele>61.200000762939</ele>
        <time>2019-08-08T08:15:52.000Z</time>
      </trkpt>
      <trkpt lat="47.26837" lon="-2.29056">
        <ele>60.799999237061</ele>
        <time>2019-08-08T08:15:53.000Z</time>
      </trkpt>
      <trkpt lat="47.26844" lon="-2.29049">
        <ele>60.400001525879</ele>
        <time>2019-08-08T08:15:54.000Z</time>
      </trkpt>
      <trkpt lat="47.2685" lon="-2.29044">
        <ele>60</ele>
        <time>2019-08-08T08:15:55.000Z</time>
      </trkpt>
      <trkpt lat="47.26873" lon="-2.29024">
        <ele>60</ele>
        <time>2019-08-08T08:15:59.000Z</time>
      </trkpt>
      <trkpt lat="47.26885" lon="-2.29014">
        <ele>60</ele>
        <time>2019-08-08T08:16:01.000Z</time>
      </trkpt>
      <trkpt lat="47.26891" lon="-2.2901">
        <ele>59.400001525879</ele>
        <time>2019-08-08T08:16:02.000Z</time>
      </trkpt>
      <trkpt lat="47.26898" lon="-2.29006">
        <ele>59</ele>
        <time>2019-08-08T08:16:03.000Z</time>
      </trkpt>
      <trkpt lat="47.26904" lon="-2.29003">
        <ele>58.599998474121</ele>
        <time>2019-08-08T08:16:04.000Z</time>
      </trkpt>
      <trkpt lat="47.2691" lon="-2.29">
        <ele>58.200000762939</ele>
        <time>2019-08-08T08:16:05.000Z</time>
      </trkpt>
      <trkpt lat="47.26917" lon="-2.28998">
        <ele>57.799999237061</ele>
        <time>2019-08-08T08:16:06.000Z</time>
      </trkpt>
      <trkpt lat="47.26936" lon="-2.2899">
        <ele>57.799999237061</ele>
        <time>2019-08-08T08:16:09.000Z</time>
      </trkpt>
      <trkpt lat="47.26943" lon="-2.28989">
        <ele>57.799999237061</ele>
        <time>2019-08-08T08:16:10.000Z</time>
      </trkpt>
      <trkpt lat="47.26969" lon="-2.28995">
        <ele>57.799999237061</ele>
        <time>2019-08-08T08:16:14.000Z</time>
      </trkpt>
      <trkpt lat="47.27003" lon="-2.29003">
        <ele>57.799999237061</ele>
        <time>2019-08-08T08:16:19.000Z</time>
      </trkpt>
      <trkpt lat="47.27022" lon="-2.29007">
        <ele>57.799999237061</ele>
        <time>2019-08-08T08:16:23.000Z</time>
      </trkpt>
      <trkpt lat="47.27038" lon="-2.29012">
        <ele>57.799999237061</ele>
        <time>2019-08-08T08:16:29.000Z</time>
      </trkpt>
      <trkpt lat="47.27046" lon="-2.29027">
        <ele>57.799999237061</ele>
        <time>2019-08-08T08:16:33.000Z</time>
      </trkpt>
      <trkpt lat="47.27049" lon="-2.29033">
        <ele>57.799999237061</ele>
        <time>2019-08-08T08:16:34.000Z</time>
      </trkpt>
      <trkpt lat="47.2706" lon="-2.29047">
        <ele>57.799999237061</ele>
        <time>2019-08-08T08:16:37.000Z</time>
      </trkpt>
      <trkpt lat="47.27074" lon="-2.29055">
        <ele>57.799999237061</ele>
        <time>2019-08-08T08:16:40.000Z</time>
      </trkpt>
      <trkpt lat="47.27078" lon="-2.29059">
        <ele>57.799999237061</ele>
        <time>2019-08-08T08:16:41.000Z</time>
      </trkpt>
      <trkpt lat="47.27082" lon="-2.29062">
        <ele>57.799999237061</ele>
        <time>2019-08-08T08:16:42.000Z</time>
      </trkpt>
      <trkpt lat="47.27087" lon="-2.29064">
        <ele>57.799999237061</ele>
        <time>2019-08-08T08:16:43.000Z</time>
      </trkpt>
      <trkpt lat="47.27103" lon="-2.2907">
        <ele>57.799999237061</ele>
        <time>2019-08-08T08:16:46.000Z</time>
      </trkpt>
      <trkpt lat="47.27138" lon="-2.29088">
        <ele>57.799999237061</ele>
        <time>2019-08-08T08:16:52.000Z</time>
      </trkpt>
      <trkpt lat="47.27174" lon="-2.29109">
        <ele>57.799999237061</ele>
        <time>2019-08-08T08:16:59.000Z</time>
      </trkpt>
      <trkpt lat="47.27178" lon="-2.2911">
        <ele>57.799999237061</ele>
        <time>2019-08-08T08:17:00.000Z</time>
      </trkpt>
      <trkpt lat="47.27189" lon="-2.29103">
        <ele>57.799999237061</ele>
        <time>2019-08-08T08:17:03.000Z</time>
      </trkpt>
      <trkpt lat="47.27191" lon="-2.29089">
        <ele>57.799999237061</ele>
        <time>2019-08-08T08:17:06.000Z</time>
      </trkpt>
      <trkpt lat="47.2719" lon="-2.29084">
        <ele>57.799999237061</ele>
        <time>2019-08-08T08:17:07.000Z</time>
      </trkpt>
      <trkpt lat="47.2719" lon="-2.29078">
        <ele>57.400001525879</ele>
        <time>2019-08-08T08:17:08.000Z</time>
      </trkpt>
      <trkpt lat="47.27189" lon="-2.29072">
        <ele>57</ele>
        <time>2019-08-08T08:17:09.000Z</time>
      </trkpt>
      <trkpt lat="47.27188" lon="-2.29065">
        <ele>56.599998474121</ele>
        <time>2019-08-08T08:17:10.000Z</time>
      </trkpt>
      <trkpt lat="47.27187" lon="-2.29058">
        <ele>56.200000762939</ele>
        <time>2019-08-08T08:17:11.000Z</time>
      </trkpt>
      <trkpt lat="47.27186" lon="-2.29051">
        <ele>55.799999237061</ele>
        <time>2019-08-08T08:17:12.000Z</time>
      </trkpt>
      <trkpt lat="47.27181" lon="-2.29028">
        <ele>55.799999237061</ele>
        <time>2019-08-08T08:17:15.000Z</time>
      </trkpt>
      <trkpt lat="47.27178" lon="-2.29004">
        <ele>55.799999237061</ele>
        <time>2019-08-08T08:17:18.000Z</time>
      </trkpt>
      <trkpt lat="47.27173" lon="-2.28958">
        <ele>55.799999237061</ele>
        <time>2019-08-08T08:17:24.000Z</time>
      </trkpt>
      <trkpt lat="47.27171" lon="-2.28932">
        <ele>55.799999237061</ele>
        <time>2019-08-08T08:17:27.000Z</time>
      </trkpt>
      <trkpt lat="47.27171" lon="-2.28915">
        <ele>55.799999237061</ele>
        <time>2019-08-08T08:17:29.000Z</time>
      </trkpt>
      <trkpt lat="47.27172" lon="-2.28874">
        <ele>55.799999237061</ele>
        <time>2019-08-08T08:17:34.000Z</time>
      </trkpt>
      <trkpt lat="47.27174" lon="-2.28832">
        <ele>55.799999237061</ele>
        <time>2019-08-08T08:17:39.000Z</time>
      </trkpt>
      <trkpt lat="47.27178" lon="-2.28793">
        <ele>55.799999237061</ele>
        <time>2019-08-08T08:17:43.000Z</time>
      </trkpt>
      <trkpt lat="47.27179" lon="-2.28774">
        <ele>56.200000762939</ele>
        <time>2019-08-08T08:17:45.000Z</time>
      </trkpt>
      <trkpt lat="47.2718" lon="-2.28764">
        <ele>56.599998474121</ele>
        <time>2019-08-08T08:17:46.000Z</time>
      </trkpt>
      <trkpt lat="47.2718" lon="-2.28754">
        <ele>57.400001525879</ele>
        <time>2019-08-08T08:17:47.000Z</time>
      </trkpt>
      <trkpt lat="47.2718" lon="-2.28744">
        <ele>57.799999237061</ele>
        <time>2019-08-08T08:17:48.000Z</time>
      </trkpt>
      <trkpt lat="47.27178" lon="-2.28707">
        <ele>57.799999237061</ele>
        <time>2019-08-08T08:17:52.000Z</time>
      </trkpt>
      <trkpt lat="47.27178" lon="-2.28645">
        <ele>57.799999237061</ele>
        <time>2019-08-08T08:17:59.000Z</time>
      </trkpt>
      <trkpt lat="47.27176" lon="-2.28586">
        <ele>57.799999237061</ele>
        <time>2019-08-08T08:18:06.000Z</time>
      </trkpt>
      <trkpt lat="47.27171" lon="-2.28571">
        <ele>58.200000762939</ele>
        <time>2019-08-08T08:18:08.000Z</time>
      </trkpt>
      <trkpt lat="47.27169" lon="-2.28563">
        <ele>58.599998474121</ele>
        <time>2019-08-08T08:18:09.000Z</time>
      </trkpt>
      <trkpt lat="47.27167" lon="-2.28554">
        <ele>59.200000762939</ele>
        <time>2019-08-08T08:18:10.000Z</time>
      </trkpt>
      <trkpt lat="47.27165" lon="-2.28546">
        <ele>59.599998474121</ele>
        <time>2019-08-08T08:18:11.000Z</time>
      </trkpt>
      <trkpt lat="47.27163" lon="-2.28538">
        <ele>60</ele>
        <time>2019-08-08T08:18:12.000Z</time>
      </trkpt>
      <trkpt lat="47.27156" lon="-2.28489">
        <ele>60</ele>
        <time>2019-08-08T08:18:18.000Z</time>
      </trkpt>
      <trkpt lat="47.27154" lon="-2.28462">
        <ele>60</ele>
        <time>2019-08-08T08:18:22.000Z</time>
      </trkpt>
      <trkpt lat="47.27151" lon="-2.2844">
        <ele>60.400001525879</ele>
        <time>2019-08-08T08:18:25.000Z</time>
      </trkpt>
      <trkpt lat="47.2715" lon="-2.28433">
        <ele>60.799999237061</ele>
        <time>2019-08-08T08:18:26.000Z</time>
      </trkpt>
      <trkpt lat="47.27149" lon="-2.28426">
        <ele>61.200000762939</ele>
        <time>2019-08-08T08:18:27.000Z</time>
      </trkpt>
      <trkpt lat="47.2715" lon="-2.2842">
        <ele>61.599998474121</ele>
        <time>2019-08-08T08:18:28.000Z</time>
      </trkpt>
      <trkpt lat="47.27149" lon="-2.28412">
        <ele>62</ele>
        <time>2019-08-08T08:18:29.000Z</time>
      </trkpt>
      <trkpt lat="47.27148" lon="-2.28398">
        <ele>62</ele>
        <time>2019-08-08T08:18:31.000Z</time>
      </trkpt>
      <trkpt lat="47.27146" lon="-2.28381">
        <ele>62</ele>
        <time>2019-08-08T08:18:33.000Z</time>
      </trkpt>
      <trkpt lat="47.2714" lon="-2.28328">
        <ele>62</ele>
        <time>2019-08-08T08:18:39.000Z</time>
      </trkpt>
      <trkpt lat="47.27124" lon="-2.2827">
        <ele>62</ele>
        <time>2019-08-08T08:18:46.000Z</time>
      </trkpt>
      <trkpt lat="47.27117" lon="-2.28239">
        <ele>62</ele>
        <time>2019-08-08T08:18:50.000Z</time>
      </trkpt>
      <trkpt lat="47.27118" lon="-2.28231">
        <ele>62</ele>
        <time>2019-08-08T08:18:51.000Z</time>
      </trkpt>
      <trkpt lat="47.27124" lon="-2.28179">
        <ele>62</ele>
        <time>2019-08-08T08:18:57.000Z</time>
      </trkpt>
      <trkpt lat="47.27126" lon="-2.28147">
        <ele>62</ele>
        <time>2019-08-08T08:19:01.000Z</time>
      </trkpt>
      <trkpt lat="47.27125" lon="-2.28132">
        <ele>62</ele>
        <time>2019-08-08T08:19:03.000Z</time>
      </trkpt>
      <trkpt lat="47.27122" lon="-2.28102">
        <ele>62.400001525879</ele>
        <time>2019-08-08T08:19:07.000Z</time>
      </trkpt>
      <trkpt lat="47.27122" lon="-2.28095">
        <ele>63</ele>
        <time>2019-08-08T08:19:08.000Z</time>
      </trkpt>
      <trkpt lat="47.27122" lon="-2.28088">
        <ele>63.400001525879</ele>
        <time>2019-08-08T08:19:09.000Z</time>
      </trkpt>
      <trkpt lat="47.27122" lon="-2.28082">
        <ele>63.799999237061</ele>
        <time>2019-08-08T08:19:10.000Z</time>
      </trkpt>
      <trkpt lat="47.27122" lon="-2.28074">
        <ele>64.199996948242</ele>
        <time>2019-08-08T08:19:11.000Z</time>
      </trkpt>
      <trkpt lat="47.27122" lon="-2.28052">
        <ele>64.199996948242</ele>
        <time>2019-08-08T08:19:14.000Z</time>
      </trkpt>
      <trkpt lat="47.27121" lon="-2.28044">
        <ele>64.199996948242</ele>
        <time>2019-08-08T08:19:15.000Z</time>
      </trkpt>
      <trkpt lat="47.27116" lon="-2.28007">
        <ele>64.199996948242</ele>
        <time>2019-08-08T08:19:20.000Z</time>
      </trkpt>
      <trkpt lat="47.27111" lon="-2.27993">
        <ele>64.800003051758</ele>
        <time>2019-08-08T08:19:22.000Z</time>
      </trkpt>
      <trkpt lat="47.27106" lon="-2.27988">
        <ele>65.199996948242</ele>
        <time>2019-08-08T08:19:23.000Z</time>
      </trkpt>
      <trkpt lat="47.27101" lon="-2.27986">
        <ele>65.599998474121</ele>
        <time>2019-08-08T08:19:24.000Z</time>
      </trkpt>
      <trkpt lat="47.27096" lon="-2.27985">
        <ele>66</ele>
        <time>2019-08-08T08:19:25.000Z</time>
      </trkpt>
      <trkpt lat="47.27091" lon="-2.27984">
        <ele>66.400001525879</ele>
        <time>2019-08-08T08:19:26.000Z</time>
      </trkpt>
      <trkpt lat="47.27087" lon="-2.27982">
        <ele>66.400001525879</ele>
        <time>2019-08-08T08:19:27.000Z</time>
      </trkpt>
      <trkpt lat="47.27083" lon="-2.27979">
        <ele>66.400001525879</ele>
        <time>2019-08-08T08:19:28.000Z</time>
      </trkpt>
      <trkpt lat="47.2707" lon="-2.2796">
        <ele>66.400001525879</ele>
        <time>2019-08-08T08:19:32.000Z</time>
      </trkpt>
      <trkpt lat="47.27067" lon="-2.27953">
        <ele>66.400001525879</ele>
        <time>2019-08-08T08:19:33.000Z</time>
      </trkpt>
      <trkpt lat="47.27066" lon="-2.27945">
        <ele>66.400001525879</ele>
        <time>2019-08-08T08:19:34.000Z</time>
      </trkpt>
      <trkpt lat="47.27066" lon="-2.27928">
        <ele>66.400001525879</ele>
        <time>2019-08-08T08:19:36.000Z</time>
      </trkpt>
      <trkpt lat="47.27078" lon="-2.27898">
        <ele>66.400001525879</ele>
        <time>2019-08-08T08:19:40.000Z</time>
      </trkpt>
      <trkpt lat="47.27089" lon="-2.27886">
        <ele>66.400001525879</ele>
        <time>2019-08-08T08:19:42.000Z</time>
      </trkpt>
      <trkpt lat="47.27098" lon="-2.27871">
        <ele>66.400001525879</ele>
        <time>2019-08-08T08:19:44.000Z</time>
      </trkpt>
      <trkpt lat="47.27101" lon="-2.27862">
        <ele>66.400001525879</ele>
        <time>2019-08-08T08:19:45.000Z</time>
      </trkpt>
      <trkpt lat="47.27108" lon="-2.27831">
        <ele>66.400001525879</ele>
        <time>2019-08-08T08:19:48.000Z</time>
      </trkpt>
      <trkpt lat="47.27113" lon="-2.27811">
        <ele>66.400001525879</ele>
        <time>2019-08-08T08:19:50.000Z</time>
      </trkpt>
      <trkpt lat="47.27111" lon="-2.27794">
        <ele>66</ele>
        <time>2019-08-08T08:19:52.000Z</time>
      </trkpt>
      <trkpt lat="47.27109" lon="-2.27788">
        <ele>65.599998474121</ele>
        <time>2019-08-08T08:19:53.000Z</time>
      </trkpt>
      <trkpt lat="47.27106" lon="-2.27781">
        <ele>65</ele>
        <time>2019-08-08T08:19:54.000Z</time>
      </trkpt>
      <trkpt lat="47.27103" lon="-2.27774">
        <ele>64.599998474121</ele>
        <time>2019-08-08T08:19:55.000Z</time>
      </trkpt>
      <trkpt lat="47.27101" lon="-2.27766">
        <ele>64.199996948242</ele>
        <time>2019-08-08T08:19:56.000Z</time>
      </trkpt>
      <trkpt lat="47.27097" lon="-2.2776">
        <ele>64.199996948242</ele>
        <time>2019-08-08T08:19:57.000Z</time>
      </trkpt>
      <trkpt lat="47.27088" lon="-2.27751">
        <ele>64.199996948242</ele>
        <time>2019-08-08T08:19:59.000Z</time>
      </trkpt>
      <trkpt lat="47.27069" lon="-2.27743">
        <ele>64.199996948242</ele>
        <time>2019-08-08T08:20:02.000Z</time>
      </trkpt>
      <trkpt lat="47.27062" lon="-2.2774">
        <ele>64.199996948242</ele>
        <time>2019-08-08T08:20:03.000Z</time>
      </trkpt>
      <trkpt lat="47.27022" lon="-2.27725">
        <ele>63.799999237061</ele>
        <time>2019-08-08T08:20:10.000Z</time>
      </trkpt>
      <trkpt lat="47.2702" lon="-2.27719">
        <ele>63.200000762939</ele>
        <time>2019-08-08T08:20:11.000Z</time>
      </trkpt>
      <trkpt lat="47.27019" lon="-2.27714">
        <ele>62.799999237061</ele>
        <time>2019-08-08T08:20:12.000Z</time>
      </trkpt>
      <trkpt lat="47.2702" lon="-2.27708">
        <ele>62.400001525879</ele>
        <time>2019-08-08T08:20:13.000Z</time>
      </trkpt>
      <trkpt lat="47.27022" lon="-2.27702">
        <ele>62</ele>
        <time>2019-08-08T08:20:14.000Z</time>
      </trkpt>
      <trkpt lat="47.27026" lon="-2.27697">
        <ele>62</ele>
        <time>2019-08-08T08:20:15.000Z</time>
      </trkpt>
      <trkpt lat="47.27038" lon="-2.27682">
        <ele>62</ele>
        <time>2019-08-08T08:20:18.000Z</time>
      </trkpt>
      <trkpt lat="47.27047" lon="-2.27669">
        <ele>62</ele>
        <time>2019-08-08T08:20:20.000Z</time>
      </trkpt>
      <trkpt lat="47.27083" lon="-2.27636">
        <ele>62</ele>
        <time>2019-08-08T08:20:27.000Z</time>
      </trkpt>
      <trkpt lat="47.2713" lon="-2.27605">
        <ele>62</ele>
        <time>2019-08-08T08:20:35.000Z</time>
      </trkpt>
      <trkpt lat="47.27143" lon="-2.27583">
        <ele>62</ele>
        <time>2019-08-08T08:20:38.000Z</time>
      </trkpt>
      <trkpt lat="47.27149" lon="-2.27547">
        <ele>62</ele>
        <time>2019-08-08T08:20:42.000Z</time>
      </trkpt>
      <trkpt lat="47.27149" lon="-2.27538">
        <ele>62</ele>
        <time>2019-08-08T08:20:43.000Z</time>
      </trkpt>
      <trkpt lat="47.27147" lon="-2.27494">
        <ele>62</ele>
        <time>2019-08-08T08:20:48.000Z</time>
      </trkpt>
      <trkpt lat="47.27143" lon="-2.27442">
        <ele>62</ele>
        <time>2019-08-08T08:20:54.000Z</time>
      </trkpt>
      <trkpt lat="47.2714" lon="-2.27425">
        <ele>62</ele>
        <time>2019-08-08T08:20:56.000Z</time>
      </trkpt>
      <trkpt lat="47.27133" lon="-2.27387">
        <ele>62</ele>
        <time>2019-08-08T08:21:00.000Z</time>
      </trkpt>
      <trkpt lat="47.27129" lon="-2.2736">
        <ele>61.599998474121</ele>
        <time>2019-08-08T08:21:03.000Z</time>
      </trkpt>
      <trkpt lat="47.27127" lon="-2.2735">
        <ele>61.200000762939</ele>
        <time>2019-08-08T08:21:04.000Z</time>
      </trkpt>
      <trkpt lat="47.27126" lon="-2.2734">
        <ele>60.200000762939</ele>
        <time>2019-08-08T08:21:05.000Z</time>
      </trkpt>
      <trkpt lat="47.27125" lon="-2.2733">
        <ele>59.799999237061</ele>
        <time>2019-08-08T08:21:06.000Z</time>
      </trkpt>
      <trkpt lat="47.27116" lon="-2.27283">
        <ele>59.799999237061</ele>
        <time>2019-08-08T08:21:11.000Z</time>
      </trkpt>
      <trkpt lat="47.27094" lon="-2.27238">
        <ele>59.400001525879</ele>
        <time>2019-08-08T08:21:16.000Z</time>
      </trkpt>
      <trkpt lat="47.27088" lon="-2.27229">
        <ele>59</ele>
        <time>2019-08-08T08:21:17.000Z</time>
      </trkpt>
      <trkpt lat="47.27082" lon="-2.2722">
        <ele>58.599998474121</ele>
        <time>2019-08-08T08:21:18.000Z</time>
      </trkpt>
      <trkpt lat="47.27076" lon="-2.27211">
        <ele>58</ele>
        <time>2019-08-08T08:21:19.000Z</time>
      </trkpt>
      <trkpt lat="47.2707" lon="-2.27201">
        <ele>57.599998474121</ele>
        <time>2019-08-08T08:21:20.000Z</time>
      </trkpt>
      <trkpt lat="47.27057" lon="-2.27182">
        <ele>57.200000762939</ele>
        <time>2019-08-08T08:21:22.000Z</time>
      </trkpt>
      <trkpt lat="47.27051" lon="-2.27171">
        <ele>56.799999237061</ele>
        <time>2019-08-08T08:21:23.000Z</time>
      </trkpt>
      <trkpt lat="47.27045" lon="-2.2716">
        <ele>56.400001525879</ele>
        <time>2019-08-08T08:21:24.000Z</time>
      </trkpt>
      <trkpt lat="47.27039" lon="-2.27149">
        <ele>56</ele>
        <time>2019-08-08T08:21:25.000Z</time>
      </trkpt>
      <trkpt lat="47.27033" lon="-2.27139">
        <ele>55.599998474121</ele>
        <time>2019-08-08T08:21:26.000Z</time>
      </trkpt>
      <trkpt lat="47.27027" lon="-2.2713">
        <ele>55</ele>
        <time>2019-08-08T08:21:27.000Z</time>
      </trkpt>
      <trkpt lat="47.27021" lon="-2.27121">
        <ele>54.599998474121</ele>
        <time>2019-08-08T08:21:28.000Z</time>
      </trkpt>
      <trkpt lat="47.27017" lon="-2.27113">
        <ele>54</ele>
        <time>2019-08-08T08:21:29.000Z</time>
      </trkpt>
      <trkpt lat="47.27013" lon="-2.27107">
        <ele>53.599998474121</ele>
        <time>2019-08-08T08:21:30.000Z</time>
      </trkpt>
      <trkpt lat="47.27011" lon="-2.271">
        <ele>53.599998474121</ele>
        <time>2019-08-08T08:21:31.000Z</time>
      </trkpt>
      <trkpt lat="47.27009" lon="-2.27093">
        <ele>53.599998474121</ele>
        <time>2019-08-08T08:21:32.000Z</time>
      </trkpt>
      <trkpt lat="47.27006" lon="-2.27077">
        <ele>53.599998474121</ele>
        <time>2019-08-08T08:21:34.000Z</time>
      </trkpt>
      <trkpt lat="47.26998" lon="-2.27053">
        <ele>53.599998474121</ele>
        <time>2019-08-08T08:21:37.000Z</time>
      </trkpt>
      <trkpt lat="47.26981" lon="-2.27026">
        <ele>53.599998474121</ele>
        <time>2019-08-08T08:21:41.000Z</time>
      </trkpt>
      <trkpt lat="47.26976" lon="-2.27021">
        <ele>53.599998474121</ele>
        <time>2019-08-08T08:21:42.000Z</time>
      </trkpt>
      <trkpt lat="47.2696" lon="-2.27006">
        <ele>53.599998474121</ele>
        <time>2019-08-08T08:21:45.000Z</time>
      </trkpt>
      <trkpt lat="47.26949" lon="-2.26991">
        <ele>53.599998474121</ele>
        <time>2019-08-08T08:21:48.000Z</time>
      </trkpt>
      <trkpt lat="47.26946" lon="-2.26978">
        <ele>53.599998474121</ele>
        <time>2019-08-08T08:21:50.000Z</time>
      </trkpt>
      <trkpt lat="47.26954" lon="-2.26948">
        <ele>53.599998474121</ele>
        <time>2019-08-08T08:21:53.000Z</time>
      </trkpt>
      <trkpt lat="47.26957" lon="-2.26935">
        <ele>53.599998474121</ele>
        <time>2019-08-08T08:21:54.000Z</time>
      </trkpt>
      <trkpt lat="47.26957" lon="-2.26913">
        <ele>53.200000762939</ele>
        <time>2019-08-08T08:21:56.000Z</time>
      </trkpt>
      <trkpt lat="47.26955" lon="-2.26902">
        <ele>52.799999237061</ele>
        <time>2019-08-08T08:21:57.000Z</time>
      </trkpt>
      <trkpt lat="47.26955" lon="-2.26891">
        <ele>52.400001525879</ele>
        <time>2019-08-08T08:21:58.000Z</time>
      </trkpt>
      <trkpt lat="47.26954" lon="-2.2688">
        <ele>52</ele>
        <time>2019-08-08T08:21:59.000Z</time>
      </trkpt>
      <trkpt lat="47.26953" lon="-2.2687">
        <ele>51.599998474121</ele>
        <time>2019-08-08T08:22:00.000Z</time>
      </trkpt>
      <trkpt lat="47.26951" lon="-2.26853">
        <ele>51.599998474121</ele>
        <time>2019-08-08T08:22:02.000Z</time>
      </trkpt>
      <trkpt lat="47.26946" lon="-2.26824">
        <ele>51.599998474121</ele>
        <time>2019-08-08T08:22:05.000Z</time>
      </trkpt>
      <trkpt lat="47.26936" lon="-2.26802">
        <ele>51.599998474121</ele>
        <time>2019-08-08T08:22:08.000Z</time>
      </trkpt>
      <trkpt lat="47.26934" lon="-2.26794">
        <ele>51.599998474121</ele>
        <time>2019-08-08T08:22:09.000Z</time>
      </trkpt>
      <trkpt lat="47.2693" lon="-2.26778">
        <ele>51.599998474121</ele>
        <time>2019-08-08T08:22:11.000Z</time>
      </trkpt>
      <trkpt lat="47.26928" lon="-2.26761">
        <ele>51.599998474121</ele>
        <time>2019-08-08T08:22:13.000Z</time>
      </trkpt>
      <trkpt lat="47.26914" lon="-2.26706">
        <ele>51.599998474121</ele>
        <time>2019-08-08T08:22:20.000Z</time>
      </trkpt>
      <trkpt lat="47.26907" lon="-2.26684">
        <ele>52</ele>
        <time>2019-08-08T08:22:23.000Z</time>
      </trkpt>
      <trkpt lat="47.26904" lon="-2.26677">
        <ele>52.400001525879</ele>
        <time>2019-08-08T08:22:24.000Z</time>
      </trkpt>
      <trkpt lat="47.26902" lon="-2.2667">
        <ele>52.799999237061</ele>
        <time>2019-08-08T08:22:25.000Z</time>
      </trkpt>
      <trkpt lat="47.26899" lon="-2.26662">
        <ele>53.200000762939</ele>
        <time>2019-08-08T08:22:26.000Z</time>
      </trkpt>
      <trkpt lat="47.26897" lon="-2.26655">
        <ele>53.599998474121</ele>
        <time>2019-08-08T08:22:27.000Z</time>
      </trkpt>
      <trkpt lat="47.2689" lon="-2.26636">
        <ele>53.599998474121</ele>
        <time>2019-08-08T08:22:31.000Z</time>
      </trkpt>
      <trkpt lat="47.2688" lon="-2.26606">
        <ele>53.599998474121</ele>
        <time>2019-08-08T08:22:39.000Z</time>
      </trkpt>
      <trkpt lat="47.26871" lon="-2.26579">
        <ele>53.599998474121</ele>
        <time>2019-08-08T08:22:45.000Z</time>
      </trkpt>
      <trkpt lat="47.26868" lon="-2.26568">
        <ele>53.599998474121</ele>
        <time>2019-08-08T08:22:50.000Z</time>
      </trkpt>
      <trkpt lat="47.26868" lon="-2.26567">
        <ele>53.599998474121</ele>
        <time>2019-08-08T08:22:57.000Z</time>
      </trkpt>
      <trkpt lat="47.26867" lon="-2.26558">
        <ele>53.599998474121</ele>
        <time>2019-08-08T08:23:00.000Z</time>
      </trkpt>
      <trkpt lat="47.26869" lon="-2.26552">
        <ele>53.599998474121</ele>
        <time>2019-08-08T08:23:02.000Z</time>
      </trkpt>
      <trkpt lat="47.26876" lon="-2.26545">
        <ele>53.599998474121</ele>
        <time>2019-08-08T08:23:04.000Z</time>
      </trkpt>
      <trkpt lat="47.26884" lon="-2.2654">
        <ele>53.599998474121</ele>
        <time>2019-08-08T08:23:06.000Z</time>
      </trkpt>
      <trkpt lat="47.26893" lon="-2.26536">
        <ele>53.599998474121</ele>
        <time>2019-08-08T08:23:08.000Z</time>
      </trkpt>
      <trkpt lat="47.2693" lon="-2.26521">
        <ele>53.599998474121</ele>
        <time>2019-08-08T08:23:15.000Z</time>
      </trkpt>
      <trkpt lat="47.26963" lon="-2.26502">
        <ele>53.599998474121</ele>
        <time>2019-08-08T08:23:22.000Z</time>
      </trkpt>
      <trkpt lat="47.26993" lon="-2.26475">
        <ele>53.599998474121</ele>
        <time>2019-08-08T08:23:28.000Z</time>
      </trkpt>
      <trkpt lat="47.27023" lon="-2.26432">
        <ele>53.599998474121</ele>
        <time>2019-08-08T08:23:35.000Z</time>
      </trkpt>
      <trkpt lat="47.27049" lon="-2.26392">
        <ele>53.599998474121</ele>
        <time>2019-08-08T08:23:41.000Z</time>
      </trkpt>
      <trkpt lat="47.27084" lon="-2.26342">
        <ele>53.599998474121</ele>
        <time>2019-08-08T08:23:48.000Z</time>
      </trkpt>
      <trkpt lat="47.27118" lon="-2.26294">
        <ele>53.599998474121</ele>
        <time>2019-08-08T08:23:55.000Z</time>
      </trkpt>
      <trkpt lat="47.27152" lon="-2.26245">
        <ele>53.599998474121</ele>
        <time>2019-08-08T08:24:02.000Z</time>
      </trkpt>
      <trkpt lat="47.27182" lon="-2.26209">
        <ele>53.200000762939</ele>
        <time>2019-08-08T08:24:07.000Z</time>
      </trkpt>
      <trkpt lat="47.27188" lon="-2.26203">
        <ele>52.799999237061</ele>
        <time>2019-08-08T08:24:08.000Z</time>
      </trkpt>
      <trkpt lat="47.27195" lon="-2.26197">
        <ele>52.400001525879</ele>
        <time>2019-08-08T08:24:09.000Z</time>
      </trkpt>
      <trkpt lat="47.27202" lon="-2.26191">
        <ele>52</ele>
        <time>2019-08-08T08:24:10.000Z</time>
      </trkpt>
      <trkpt lat="47.27209" lon="-2.26186">
        <ele>51.599998474121</ele>
        <time>2019-08-08T08:24:11.000Z</time>
      </trkpt>
      <trkpt lat="47.27236" lon="-2.26166">
        <ele>51.599998474121</ele>
        <time>2019-08-08T08:24:15.000Z</time>
      </trkpt>
      <trkpt lat="47.27276" lon="-2.26145">
        <ele>51.599998474121</ele>
        <time>2019-08-08T08:24:21.000Z</time>
      </trkpt>
      <trkpt lat="47.27283" lon="-2.26142">
        <ele>50.599998474121</ele>
        <time>2019-08-08T08:24:22.000Z</time>
      </trkpt>
      <trkpt lat="47.27289" lon="-2.2614">
        <ele>50.200000762939</ele>
        <time>2019-08-08T08:24:23.000Z</time>
      </trkpt>
      <trkpt lat="47.27296" lon="-2.26137">
        <ele>49.799999237061</ele>
        <time>2019-08-08T08:24:24.000Z</time>
      </trkpt>
      <trkpt lat="47.27302" lon="-2.26135">
        <ele>49.400001525879</ele>
        <time>2019-08-08T08:24:25.000Z</time>
      </trkpt>
      <trkpt lat="47.2732" lon="-2.26129">
        <ele>49.400001525879</ele>
        <time>2019-08-08T08:24:28.000Z</time>
      </trkpt>
      <trkpt lat="47.27342" lon="-2.2612">
        <ele>49.400001525879</ele>
        <time>2019-08-08T08:24:32.000Z</time>
      </trkpt>
      <trkpt lat="47.27345" lon="-2.26114">
        <ele>49.400001525879</ele>
        <time>2019-08-08T08:24:33.000Z</time>
      </trkpt>
      <trkpt lat="47.27341" lon="-2.26102">
        <ele>49.400001525879</ele>
        <time>2019-08-08T08:24:35.000Z</time>
      </trkpt>
      <trkpt lat="47.27334" lon="-2.26087">
        <ele>49.400001525879</ele>
        <time>2019-08-08T08:24:37.000Z</time>
      </trkpt>
      <trkpt lat="47.27327" lon="-2.26072">
        <ele>49.400001525879</ele>
        <time>2019-08-08T08:24:39.000Z</time>
      </trkpt>
      <trkpt lat="47.27297" lon="-2.26014">
        <ele>49.400001525879</ele>
        <time>2019-08-08T08:24:47.000Z</time>
      </trkpt>
      <trkpt lat="47.27289" lon="-2.25996">
        <ele>49.400001525879</ele>
        <time>2019-08-08T08:24:51.000Z</time>
      </trkpt>
      <trkpt lat="47.27291" lon="-2.25994">
        <ele>49.400001525879</ele>
        <time>2019-08-08T08:24:52.000Z</time>
      </trkpt>
      <trkpt lat="47.27294" lon="-2.2599">
        <ele>49.400001525879</ele>
        <time>2019-08-08T08:24:54.000Z</time>
      </trkpt>
      <trkpt lat="47.27307" lon="-2.25977">
        <ele>49.400001525879</ele>
        <time>2019-08-08T08:25:00.000Z</time>
      </trkpt>
      <trkpt lat="47.27319" lon="-2.2597">
        <ele>49.400001525879</ele>
        <time>2019-08-08T08:25:03.000Z</time>
      </trkpt>
      <trkpt lat="47.27328" lon="-2.25966">
        <ele>49.400001525879</ele>
        <time>2019-08-08T08:25:05.000Z</time>
      </trkpt>
      <trkpt lat="47.27354" lon="-2.25953">
        <ele>49.400001525879</ele>
        <time>2019-08-08T08:25:11.000Z</time>
      </trkpt>
      <trkpt lat="47.27366" lon="-2.25941">
        <ele>49.400001525879</ele>
        <time>2019-08-08T08:25:14.000Z</time>
      </trkpt>
      <trkpt lat="47.27369" lon="-2.25934">
        <ele>49.400001525879</ele>
        <time>2019-08-08T08:25:15.000Z</time>
      </trkpt>
      <trkpt lat="47.27386" lon="-2.25912">
        <ele>49.400001525879</ele>
        <time>2019-08-08T08:25:19.000Z</time>
      </trkpt>
      <trkpt lat="47.27391" lon="-2.25908">
        <ele>49.400001525879</ele>
        <time>2019-08-08T08:25:20.000Z</time>
      </trkpt>
      <trkpt lat="47.27402" lon="-2.25891">
        <ele>49.400001525879</ele>
        <time>2019-08-08T08:25:23.000Z</time>
      </trkpt>
      <trkpt lat="47.27423" lon="-2.25854">
        <ele>49.400001525879</ele>
        <time>2019-08-08T08:25:29.000Z</time>
      </trkpt>
      <trkpt lat="47.27443" lon="-2.25816">
        <ele>49.400001525879</ele>
        <time>2019-08-08T08:25:35.000Z</time>
      </trkpt>
      <trkpt lat="47.27455" lon="-2.258">
        <ele>49.400001525879</ele>
        <time>2019-08-08T08:25:38.000Z</time>
      </trkpt>
      <trkpt lat="47.27465" lon="-2.25795">
        <ele>49.400001525879</ele>
        <time>2019-08-08T08:25:40.000Z</time>
      </trkpt>
      <trkpt lat="47.27468" lon="-2.25791">
        <ele>49.400001525879</ele>
        <time>2019-08-08T08:25:41.000Z</time>
      </trkpt>
      <trkpt lat="47.2748" lon="-2.25781">
        <ele>49.400001525879</ele>
        <time>2019-08-08T08:25:44.000Z</time>
      </trkpt>
      <trkpt lat="47.27488" lon="-2.25774">
        <ele>49.400001525879</ele>
        <time>2019-08-08T08:25:46.000Z</time>
      </trkpt>
      <trkpt lat="47.27492" lon="-2.25769">
        <ele>49.400001525879</ele>
        <time>2019-08-08T08:25:47.000Z</time>
      </trkpt>
      <trkpt lat="47.27499" lon="-2.2576">
        <ele>49.400001525879</ele>
        <time>2019-08-08T08:25:49.000Z</time>
      </trkpt>
      <trkpt lat="47.27503" lon="-2.25754">
        <ele>49.400001525879</ele>
        <time>2019-08-08T08:25:50.000Z</time>
      </trkpt>
      <trkpt lat="47.27513" lon="-2.25741">
        <ele>49.400001525879</ele>
        <time>2019-08-08T08:25:53.000Z</time>
      </trkpt>
      <trkpt lat="47.27527" lon="-2.25717">
        <ele>49</ele>
        <time>2019-08-08T08:25:58.000Z</time>
      </trkpt>
      <trkpt lat="47.27529" lon="-2.25711">
        <ele>48.599998474121</ele>
        <time>2019-08-08T08:25:59.000Z</time>
      </trkpt>
      <trkpt lat="47.27532" lon="-2.25706">
        <ele>48</ele>
        <time>2019-08-08T08:26:00.000Z</time>
      </trkpt>
      <trkpt lat="47.27534" lon="-2.25699">
        <ele>47.200000762939</ele>
        <time>2019-08-08T08:26:01.000Z</time>
      </trkpt>
      <trkpt lat="47.27547" lon="-2.25677">
        <ele>47.200000762939</ele>
        <time>2019-08-08T08:26:05.000Z</time>
      </trkpt>
      <trkpt lat="47.27557" lon="-2.25662">
        <ele>46.799999237061</ele>
        <time>2019-08-08T08:26:08.000Z</time>
      </trkpt>
      <trkpt lat="47.27558" lon="-2.25657">
        <ele>46.400001525879</ele>
        <time>2019-08-08T08:26:09.000Z</time>
      </trkpt>
      <trkpt lat="47.27557" lon="-2.25652">
        <ele>46</ele>
        <time>2019-08-08T08:26:10.000Z</time>
      </trkpt>
      <trkpt lat="47.27557" lon="-2.25647">
        <ele>45.400001525879</ele>
        <time>2019-08-08T08:26:11.000Z</time>
      </trkpt>
      <trkpt lat="47.27556" lon="-2.25642">
        <ele>45</ele>
        <time>2019-08-08T08:26:12.000Z</time>
      </trkpt>
      <trkpt lat="47.27556" lon="-2.2563">
        <ele>45</ele>
        <time>2019-08-08T08:26:14.000Z</time>
      </trkpt>
      <trkpt lat="47.27557" lon="-2.25617">
        <ele>45</ele>
        <time>2019-08-08T08:26:16.000Z</time>
      </trkpt>
      <trkpt lat="47.27558" lon="-2.25593">
        <ele>45</ele>
        <time>2019-08-08T08:26:19.000Z</time>
      </trkpt>
      <trkpt lat="47.27558" lon="-2.25584">
        <ele>45</ele>
        <time>2019-08-08T08:26:20.000Z</time>
      </trkpt>
      <trkpt lat="47.27553" lon="-2.25556">
        <ele>45</ele>
        <time>2019-08-08T08:26:23.000Z</time>
      </trkpt>
      <trkpt lat="47.27552" lon="-2.25546">
        <ele>45</ele>
        <time>2019-08-08T08:26:24.000Z</time>
      </trkpt>
      <trkpt lat="47.27545" lon="-2.2552">
        <ele>45</ele>
        <time>2019-08-08T08:26:27.000Z</time>
      </trkpt>
      <trkpt lat="47.27538" lon="-2.25504">
        <ele>45</ele>
        <time>2019-08-08T08:26:29.000Z</time>
      </trkpt>
      <trkpt lat="47.27527" lon="-2.25483">
        <ele>45</ele>
        <time>2019-08-08T08:26:32.000Z</time>
      </trkpt>
      <trkpt lat="47.27515" lon="-2.25469">
        <ele>45</ele>
        <time>2019-08-08T08:26:34.000Z</time>
      </trkpt>
      <trkpt lat="47.27504" lon="-2.25458">
        <ele>45</ele>
        <time>2019-08-08T08:26:36.000Z</time>
      </trkpt>
      <trkpt lat="47.2749" lon="-2.25454">
        <ele>45</ele>
        <time>2019-08-08T08:26:38.000Z</time>
      </trkpt>
      <trkpt lat="47.27471" lon="-2.25456">
        <ele>45</ele>
        <time>2019-08-08T08:26:41.000Z</time>
      </trkpt>
      <trkpt lat="47.27464" lon="-2.25456">
        <ele>45</ele>
        <time>2019-08-08T08:26:42.000Z</time>
      </trkpt>
      <trkpt lat="47.2744" lon="-2.25444">
        <ele>45</ele>
        <time>2019-08-08T08:26:46.000Z</time>
      </trkpt>
      <trkpt lat="47.27422" lon="-2.25425">
        <ele>45</ele>
        <time>2019-08-08T08:26:50.000Z</time>
      </trkpt>
      <trkpt lat="47.27417" lon="-2.25417">
        <ele>45</ele>
        <time>2019-08-08T08:26:52.000Z</time>
      </trkpt>
      <trkpt lat="47.27415" lon="-2.25412">
        <ele>45</ele>
        <time>2019-08-08T08:26:53.000Z</time>
      </trkpt>
      <trkpt lat="47.27405" lon="-2.2539">
        <ele>45</ele>
        <time>2019-08-08T08:26:58.000Z</time>
      </trkpt>
      <trkpt lat="47.274" lon="-2.25381">
        <ele>45</ele>
        <time>2019-08-08T08:27:01.000Z</time>
      </trkpt>
      <trkpt lat="47.27401" lon="-2.25364">
        <ele>45</ele>
        <time>2019-08-08T08:27:04.000Z</time>
      </trkpt>
      <trkpt lat="47.27401" lon="-2.25358">
        <ele>45</ele>
        <time>2019-08-08T08:27:05.000Z</time>
      </trkpt>
      <trkpt lat="47.27402" lon="-2.25344">
        <ele>45</ele>
        <time>2019-08-08T08:27:07.000Z</time>
      </trkpt>
      <trkpt lat="47.27401" lon="-2.25332">
        <ele>45</ele>
        <time>2019-08-08T08:27:09.000Z</time>
      </trkpt>
      <trkpt lat="47.27395" lon="-2.25311">
        <ele>45</ele>
        <time>2019-08-08T08:27:14.000Z</time>
      </trkpt>
      <trkpt lat="47.27396" lon="-2.25305">
        <ele>45</ele>
        <time>2019-08-08T08:27:15.000Z</time>
      </trkpt>
      <trkpt lat="47.27395" lon="-2.25297">
        <ele>45</ele>
        <time>2019-08-08T08:27:17.000Z</time>
      </trkpt>
      <trkpt lat="47.27393" lon="-2.25275">
        <ele>45</ele>
        <time>2019-08-08T08:27:20.000Z</time>
      </trkpt>
      <trkpt lat="47.27392" lon="-2.25269">
        <ele>45</ele>
        <time>2019-08-08T08:27:21.000Z</time>
      </trkpt>
      <trkpt lat="47.27389" lon="-2.25241">
        <ele>45</ele>
        <time>2019-08-08T08:27:25.000Z</time>
      </trkpt>
      <trkpt lat="47.27389" lon="-2.25233">
        <ele>45</ele>
        <time>2019-08-08T08:27:26.000Z</time>
      </trkpt>
      <trkpt lat="47.2739" lon="-2.25209">
        <ele>45</ele>
        <time>2019-08-08T08:27:29.000Z</time>
      </trkpt>
      <trkpt lat="47.27387" lon="-2.25196">
        <ele>45</ele>
        <time>2019-08-08T08:27:31.000Z</time>
      </trkpt>
      <trkpt lat="47.27383" lon="-2.25183">
        <ele>45</ele>
        <time>2019-08-08T08:27:33.000Z</time>
      </trkpt>
      <trkpt lat="47.27379" lon="-2.2516">
        <ele>45</ele>
        <time>2019-08-08T08:27:37.000Z</time>
      </trkpt>
      <trkpt lat="47.27366" lon="-2.25129">
        <ele>45</ele>
        <time>2019-08-08T08:27:41.000Z</time>
      </trkpt>
      <trkpt lat="47.27355" lon="-2.25103">
        <ele>45</ele>
        <time>2019-08-08T08:27:45.000Z</time>
      </trkpt>
      <trkpt lat="47.27352" lon="-2.25089">
        <ele>45</ele>
        <time>2019-08-08T08:27:47.000Z</time>
      </trkpt>
      <trkpt lat="47.27345" lon="-2.25046">
        <ele>45</ele>
        <time>2019-08-08T08:27:54.000Z</time>
      </trkpt>
      <trkpt lat="47.2735" lon="-2.25031">
        <ele>45</ele>
        <time>2019-08-08T08:27:58.000Z</time>
      </trkpt>
      <trkpt lat="47.27363" lon="-2.25004">
        <ele>45</ele>
        <time>2019-08-08T08:28:04.000Z</time>
      </trkpt>
      <trkpt lat="47.27378" lon="-2.24981">
        <ele>45</ele>
        <time>2019-08-08T08:28:09.000Z</time>
      </trkpt>
      <trkpt lat="47.27382" lon="-2.24977">
        <ele>45</ele>
        <time>2019-08-08T08:28:10.000Z</time>
      </trkpt>
      <trkpt lat="47.27394" lon="-2.24968">
        <ele>45</ele>
        <time>2019-08-08T08:28:13.000Z</time>
      </trkpt>
      <trkpt lat="47.27404" lon="-2.24964">
        <ele>45</ele>
        <time>2019-08-08T08:28:15.000Z</time>
      </trkpt>
      <trkpt lat="47.2742" lon="-2.24949">
        <ele>45</ele>
        <time>2019-08-08T08:28:20.000Z</time>
      </trkpt>
      <trkpt lat="47.27426" lon="-2.24932">
        <ele>45</ele>
        <time>2019-08-08T08:28:23.000Z</time>
      </trkpt>
      <trkpt lat="47.27426" lon="-2.24923">
        <ele>45</ele>
        <time>2019-08-08T08:28:25.000Z</time>
      </trkpt>
      <trkpt lat="47.27421" lon="-2.24909">
        <ele>45</ele>
        <time>2019-08-08T08:28:28.000Z</time>
      </trkpt>
      <trkpt lat="47.27416" lon="-2.24898">
        <ele>45</ele>
        <time>2019-08-08T08:28:30.000Z</time>
      </trkpt>
      <trkpt lat="47.27412" lon="-2.24883">
        <ele>45</ele>
        <time>2019-08-08T08:28:34.000Z</time>
      </trkpt>
      <trkpt lat="47.27411" lon="-2.24869">
        <ele>45</ele>
        <time>2019-08-08T08:28:41.000Z</time>
      </trkpt>
      <trkpt lat="47.2741" lon="-2.24844">
        <ele>45</ele>
        <time>2019-08-08T08:28:46.000Z</time>
      </trkpt>
      <trkpt lat="47.27417" lon="-2.24835">
        <ele>45</ele>
        <time>2019-08-08T08:28:47.000Z</time>
      </trkpt>
      <trkpt lat="47.27421" lon="-2.2483">
        <ele>45</ele>
        <time>2019-08-08T08:28:48.000Z</time>
      </trkpt>
      <trkpt lat="47.27457" lon="-2.24788">
        <ele>45</ele>
        <time>2019-08-08T08:28:52.000Z</time>
      </trkpt>
      <trkpt lat="47.27462" lon="-2.24786">
        <ele>46</ele>
        <time>2019-08-08T08:28:53.000Z</time>
      </trkpt>
      <trkpt lat="47.27467" lon="-2.24786">
        <ele>46.599998474121</ele>
        <time>2019-08-08T08:28:54.000Z</time>
      </trkpt>
      <trkpt lat="47.2747" lon="-2.24787">
        <ele>47</ele>
        <time>2019-08-08T08:28:55.000Z</time>
      </trkpt>
      <trkpt lat="47.27475" lon="-2.24789">
        <ele>47.599998474121</ele>
        <time>2019-08-08T08:28:56.000Z</time>
      </trkpt>
      <trkpt lat="47.27479" lon="-2.24789">
        <ele>48</ele>
        <time>2019-08-08T08:28:57.000Z</time>
      </trkpt>
      <trkpt lat="47.27483" lon="-2.24789">
        <ele>48.400001525879</ele>
        <time>2019-08-08T08:28:58.000Z</time>
      </trkpt>
      <trkpt lat="47.27487" lon="-2.2479">
        <ele>48.799999237061</ele>
        <time>2019-08-08T08:28:59.000Z</time>
      </trkpt>
      <trkpt lat="47.2749" lon="-2.2479">
        <ele>49.200000762939</ele>
        <time>2019-08-08T08:29:00.000Z</time>
      </trkpt>
      <trkpt lat="47.27493" lon="-2.24789">
        <ele>49.599998474121</ele>
        <time>2019-08-08T08:29:01.000Z</time>
      </trkpt>
      <trkpt lat="47.27512" lon="-2.24786">
        <ele>49.599998474121</ele>
        <time>2019-08-08T08:29:07.000Z</time>
      </trkpt>
      <trkpt lat="47.27527" lon="-2.24785">
        <ele>50</ele>
        <time>2019-08-08T08:29:11.000Z</time>
      </trkpt>
      <trkpt lat="47.27531" lon="-2.24785">
        <ele>50.400001525879</ele>
        <time>2019-08-08T08:29:12.000Z</time>
      </trkpt>
      <trkpt lat="47.27535" lon="-2.24785">
        <ele>50.799999237061</ele>
        <time>2019-08-08T08:29:13.000Z</time>
      </trkpt>
      <trkpt lat="47.27539" lon="-2.24786">
        <ele>51.200000762939</ele>
        <time>2019-08-08T08:29:14.000Z</time>
      </trkpt>
      <trkpt lat="47.27543" lon="-2.24786">
        <ele>51.599998474121</ele>
        <time>2019-08-08T08:29:15.000Z</time>
      </trkpt>
      <trkpt lat="47.27564" lon="-2.24787">
        <ele>51.599998474121</ele>
        <time>2019-08-08T08:29:20.000Z</time>
      </trkpt>
      <trkpt lat="47.27593" lon="-2.24788">
        <ele>51.599998474121</ele>
        <time>2019-08-08T08:29:26.000Z</time>
      </trkpt>
      <trkpt lat="47.27626" lon="-2.24787">
        <ele>51.599998474121</ele>
        <time>2019-08-08T08:29:33.000Z</time>
      </trkpt>
      <trkpt lat="47.27642" lon="-2.24792">
        <ele>51.599998474121</ele>
        <time>2019-08-08T08:29:36.000Z</time>
      </trkpt>
      <trkpt lat="47.27654" lon="-2.24799">
        <ele>51.599998474121</ele>
        <time>2019-08-08T08:29:38.000Z</time>
      </trkpt>
      <trkpt lat="47.27665" lon="-2.24799">
        <ele>51.599998474121</ele>
        <time>2019-08-08T08:29:39.000Z</time>
      </trkpt>
      <trkpt lat="47.2768" lon="-2.24799">
        <ele>51.599998474121</ele>
        <time>2019-08-08T08:29:41.000Z</time>
      </trkpt>
      <trkpt lat="47.27734" lon="-2.24802">
        <ele>51.599998474121</ele>
        <time>2019-08-08T08:29:50.000Z</time>
      </trkpt>
      <trkpt lat="47.27772" lon="-2.24801">
        <ele>51.599998474121</ele>
        <time>2019-08-08T08:29:57.000Z</time>
      </trkpt>
      <trkpt lat="47.27816" lon="-2.24796">
        <ele>51.599998474121</ele>
        <time>2019-08-08T08:30:05.000Z</time>
      </trkpt>
      <trkpt lat="47.27834" lon="-2.24795">
        <ele>51.599998474121</ele>
        <time>2019-08-08T08:30:08.000Z</time>
      </trkpt>
      <trkpt lat="47.2785" lon="-2.24787">
        <ele>51.599998474121</ele>
        <time>2019-08-08T08:30:11.000Z</time>
      </trkpt>
      <trkpt lat="47.27856" lon="-2.24776">
        <ele>51.599998474121</ele>
        <time>2019-08-08T08:30:13.000Z</time>
      </trkpt>
      <trkpt lat="47.2786" lon="-2.24769">
        <ele>51.599998474121</ele>
        <time>2019-08-08T08:30:15.000Z</time>
      </trkpt>
      <trkpt lat="47.27864" lon="-2.24771">
        <ele>51.599998474121</ele>
        <time>2019-08-08T08:30:16.000Z</time>
      </trkpt>
      <trkpt lat="47.27867" lon="-2.24772">
        <ele>51.599998474121</ele>
        <time>2019-08-08T08:30:17.000Z</time>
      </trkpt>
      <trkpt lat="47.27879" lon="-2.2477">
        <ele>51.599998474121</ele>
        <time>2019-08-08T08:30:20.000Z</time>
      </trkpt>
      <trkpt lat="47.27882" lon="-2.24769">
        <ele>51.599998474121</ele>
        <time>2019-08-08T08:30:21.000Z</time>
      </trkpt>
      <trkpt lat="47.27895" lon="-2.24766">
        <ele>52</ele>
        <time>2019-08-08T08:30:26.000Z</time>
      </trkpt>
      <trkpt lat="47.27898" lon="-2.24766">
        <ele>52.400001525879</ele>
        <time>2019-08-08T08:30:27.000Z</time>
      </trkpt>
      <trkpt lat="47.279" lon="-2.24766">
        <ele>53</ele>
        <time>2019-08-08T08:30:28.000Z</time>
      </trkpt>
      <trkpt lat="47.27902" lon="-2.24766">
        <ele>53.400001525879</ele>
        <time>2019-08-08T08:30:29.000Z</time>
      </trkpt>
      <trkpt lat="47.27904" lon="-2.24766">
        <ele>53.799999237061</ele>
        <time>2019-08-08T08:30:30.000Z</time>
      </trkpt>
      <trkpt lat="47.2791" lon="-2.24765">
        <ele>54.200000762939</ele>
        <time>2019-08-08T08:30:33.000Z</time>
      </trkpt>
      <trkpt lat="47.27912" lon="-2.24765">
        <ele>54.599998474121</ele>
        <time>2019-08-08T08:30:34.000Z</time>
      </trkpt>
      <trkpt lat="47.27914" lon="-2.24766">
        <ele>55</ele>
        <time>2019-08-08T08:30:35.000Z</time>
      </trkpt>
      <trkpt lat="47.27916" lon="-2.24767">
        <ele>55.400001525879</ele>
        <time>2019-08-08T08:30:36.000Z</time>
      </trkpt>
      <trkpt lat="47.27917" lon="-2.24769">
        <ele>55.799999237061</ele>
        <time>2019-08-08T08:30:37.000Z</time>
      </trkpt>
      <trkpt lat="47.27917" lon="-2.24773">
        <ele>55.799999237061</ele>
        <time>2019-08-08T08:30:39.000Z</time>
      </trkpt>
      <trkpt lat="47.27917" lon="-2.24776">
        <ele>55.799999237061</ele>
        <time>2019-08-08T08:30:40.000Z</time>
      </trkpt>
      <trkpt lat="47.27908" lon="-2.2478">
        <ele>55.799999237061</ele>
        <time>2019-08-08T08:30:44.000Z</time>
      </trkpt>
      <trkpt lat="47.27897" lon="-2.2479">
        <ele>55.799999237061</ele>
        <time>2019-08-08T08:30:47.000Z</time>
      </trkpt>
      <trkpt lat="47.27898" lon="-2.24794">
        <ele>55.799999237061</ele>
        <time>2019-08-08T08:30:48.000Z</time>
      </trkpt>
      <trkpt lat="47.27904" lon="-2.24802">
        <ele>55.799999237061</ele>
        <time>2019-08-08T08:30:50.000Z</time>
      </trkpt>
      <trkpt lat="47.27913" lon="-2.24807">
        <ele>55.799999237061</ele>
        <time>2019-08-08T08:30:52.000Z</time>
      </trkpt>
      <trkpt lat="47.27923" lon="-2.24812">
        <ele>55.799999237061</ele>
        <time>2019-08-08T08:30:54.000Z</time>
      </trkpt>
      <trkpt lat="47.27927" lon="-2.24813">
        <ele>55.799999237061</ele>
        <time>2019-08-08T08:30:55.000Z</time>
      </trkpt>
      <trkpt lat="47.27943" lon="-2.24818">
        <ele>55.799999237061</ele>
        <time>2019-08-08T08:30:58.000Z</time>
      </trkpt>
      <trkpt lat="47.27952" lon="-2.24823">
        <ele>55.799999237061</ele>
        <time>2019-08-08T08:31:00.000Z</time>
      </trkpt>
      <trkpt lat="47.27967" lon="-2.24827">
        <ele>55.799999237061</ele>
        <time>2019-08-08T08:31:03.000Z</time>
      </trkpt>
      <trkpt lat="47.27984" lon="-2.24832">
        <ele>55.799999237061</ele>
        <time>2019-08-08T08:31:06.000Z</time>
      </trkpt>
      <trkpt lat="47.28021" lon="-2.24839">
        <ele>55.799999237061</ele>
        <time>2019-08-08T08:31:13.000Z</time>
      </trkpt>
      <trkpt lat="47.28048" lon="-2.24846">
        <ele>55.799999237061</ele>
        <time>2019-08-08T08:31:18.000Z</time>
      </trkpt>
      <trkpt lat="47.28053" lon="-2.24847">
        <ele>55.799999237061</ele>
        <time>2019-08-08T08:31:19.000Z</time>
      </trkpt>
      <trkpt lat="47.28068" lon="-2.24851">
        <ele>55.799999237061</ele>
        <time>2019-08-08T08:31:22.000Z</time>
      </trkpt>
      <trkpt lat="47.28073" lon="-2.24851">
        <ele>55.799999237061</ele>
        <time>2019-08-08T08:31:23.000Z</time>
      </trkpt>
      <trkpt lat="47.28094" lon="-2.24852">
        <ele>55.799999237061</ele>
        <time>2019-08-08T08:31:27.000Z</time>
      </trkpt>
      <trkpt lat="47.28099" lon="-2.24854">
        <ele>55.799999237061</ele>
        <time>2019-08-08T08:31:28.000Z</time>
      </trkpt>
      <trkpt lat="47.2813" lon="-2.24865">
        <ele>55.799999237061</ele>
        <time>2019-08-08T08:31:33.000Z</time>
      </trkpt>
      <trkpt lat="47.28136" lon="-2.24866">
        <ele>55.400001525879</ele>
        <time>2019-08-08T08:31:34.000Z</time>
      </trkpt>
      <trkpt lat="47.28141" lon="-2.24865">
        <ele>55</ele>
        <time>2019-08-08T08:31:35.000Z</time>
      </trkpt>
      <trkpt lat="47.28145" lon="-2.24864">
        <ele>54.599998474121</ele>
        <time>2019-08-08T08:31:36.000Z</time>
      </trkpt>
      <trkpt lat="47.28149" lon="-2.24861">
        <ele>54.200000762939</ele>
        <time>2019-08-08T08:31:37.000Z</time>
      </trkpt>
      <trkpt lat="47.28151" lon="-2.24858">
        <ele>53.599998474121</ele>
        <time>2019-08-08T08:31:38.000Z</time>
      </trkpt>
      <trkpt lat="47.28154" lon="-2.2485">
        <ele>53.200000762939</ele>
        <time>2019-08-08T08:31:39.000Z</time>
      </trkpt>
      <trkpt lat="47.28155" lon="-2.24846">
        <ele>52.599998474121</ele>
        <time>2019-08-08T08:31:40.000Z</time>
      </trkpt>
      <trkpt lat="47.28155" lon="-2.2484">
        <ele>52</ele>
        <time>2019-08-08T08:31:41.000Z</time>
      </trkpt>
      <trkpt lat="47.28156" lon="-2.24833">
        <ele>51.599998474121</ele>
        <time>2019-08-08T08:31:42.000Z</time>
      </trkpt>
      <trkpt lat="47.28158" lon="-2.24819">
        <ele>51.599998474121</ele>
        <time>2019-08-08T08:31:44.000Z</time>
      </trkpt>
      <trkpt lat="47.28169" lon="-2.24811">
        <ele>51.599998474121</ele>
        <time>2019-08-08T08:31:47.000Z</time>
      </trkpt>
      <trkpt lat="47.28181" lon="-2.24812">
        <ele>51.599998474121</ele>
        <time>2019-08-08T08:31:49.000Z</time>
      </trkpt>
      <trkpt lat="47.28188" lon="-2.24814">
        <ele>51</ele>
        <time>2019-08-08T08:31:50.000Z</time>
      </trkpt>
      <trkpt lat="47.28196" lon="-2.24815">
        <ele>50.599998474121</ele>
        <time>2019-08-08T08:31:51.000Z</time>
      </trkpt>
      <trkpt lat="47.28204" lon="-2.24818">
        <ele>50.200000762939</ele>
        <time>2019-08-08T08:31:52.000Z</time>
      </trkpt>
      <trkpt lat="47.28213" lon="-2.2482">
        <ele>49.599998474121</ele>
        <time>2019-08-08T08:31:53.000Z</time>
      </trkpt>
      <trkpt lat="47.28221" lon="-2.24822">
        <ele>49</ele>
        <time>2019-08-08T08:31:54.000Z</time>
      </trkpt>
      <trkpt lat="47.28229" lon="-2.24822">
        <ele>48.400001525879</ele>
        <time>2019-08-08T08:31:55.000Z</time>
      </trkpt>
      <trkpt lat="47.28236" lon="-2.24822">
        <ele>47.799999237061</ele>
        <time>2019-08-08T08:31:56.000Z</time>
      </trkpt>
      <trkpt lat="47.28243" lon="-2.2482">
        <ele>47</ele>
        <time>2019-08-08T08:31:57.000Z</time>
      </trkpt>
      <trkpt lat="47.2825" lon="-2.24817">
        <ele>46.400001525879</ele>
        <time>2019-08-08T08:31:58.000Z</time>
      </trkpt>
      <trkpt lat="47.28256" lon="-2.24812">
        <ele>45.799999237061</ele>
        <time>2019-08-08T08:31:59.000Z</time>
      </trkpt>
      <trkpt lat="47.28263" lon="-2.24807">
        <ele>45.200000762939</ele>
        <time>2019-08-08T08:32:00.000Z</time>
      </trkpt>
      <trkpt lat="47.28269" lon="-2.24802">
        <ele>44.599998474121</ele>
        <time>2019-08-08T08:32:01.000Z</time>
      </trkpt>
      <trkpt lat="47.28291" lon="-2.24785">
        <ele>44.200000762939</ele>
        <time>2019-08-08T08:32:04.000Z</time>
      </trkpt>
      <trkpt lat="47.28298" lon="-2.24781">
        <ele>43.799999237061</ele>
        <time>2019-08-08T08:32:05.000Z</time>
      </trkpt>
      <trkpt lat="47.28306" lon="-2.24776">
        <ele>43.400001525879</ele>
        <time>2019-08-08T08:32:06.000Z</time>
      </trkpt>
      <trkpt lat="47.28313" lon="-2.24772">
        <ele>42.799999237061</ele>
        <time>2019-08-08T08:32:07.000Z</time>
      </trkpt>
      <trkpt lat="47.28322" lon="-2.24768">
        <ele>42.400001525879</ele>
        <time>2019-08-08T08:32:08.000Z</time>
      </trkpt>
      <trkpt lat="47.28337" lon="-2.24765">
        <ele>42.400001525879</ele>
        <time>2019-08-08T08:32:10.000Z</time>
      </trkpt>
      <trkpt lat="47.28359" lon="-2.24773">
        <ele>42</ele>
        <time>2019-08-08T08:32:13.000Z</time>
      </trkpt>
      <trkpt lat="47.28365" lon="-2.24775">
        <ele>41.599998474121</ele>
        <time>2019-08-08T08:32:14.000Z</time>
      </trkpt>
      <trkpt lat="47.2837" lon="-2.24776">
        <ele>41.200000762939</ele>
        <time>2019-08-08T08:32:15.000Z</time>
      </trkpt>
      <trkpt lat="47.28374" lon="-2.24775">
        <ele>40.799999237061</ele>
        <time>2019-08-08T08:32:16.000Z</time>
      </trkpt>
      <trkpt lat="47.28378" lon="-2.24774">
        <ele>40.200000762939</ele>
        <time>2019-08-08T08:32:17.000Z</time>
      </trkpt>
      <trkpt lat="47.28382" lon="-2.24773">
        <ele>39.799999237061</ele>
        <time>2019-08-08T08:32:18.000Z</time>
      </trkpt>
      <trkpt lat="47.28387" lon="-2.24772">
        <ele>39.200000762939</ele>
        <time>2019-08-08T08:32:19.000Z</time>
      </trkpt>
      <trkpt lat="47.28393" lon="-2.24769">
        <ele>38.599998474121</ele>
        <time>2019-08-08T08:32:20.000Z</time>
      </trkpt>
      <trkpt lat="47.28398" lon="-2.24766">
        <ele>38.200000762939</ele>
        <time>2019-08-08T08:32:21.000Z</time>
      </trkpt>
      <trkpt lat="47.28409" lon="-2.24759">
        <ele>38.200000762939</ele>
        <time>2019-08-08T08:32:23.000Z</time>
      </trkpt>
      <trkpt lat="47.28428" lon="-2.24745">
        <ele>38.200000762939</ele>
        <time>2019-08-08T08:32:26.000Z</time>
      </trkpt>
      <trkpt lat="47.28441" lon="-2.24736">
        <ele>38.200000762939</ele>
        <time>2019-08-08T08:32:28.000Z</time>
      </trkpt>
      <trkpt lat="47.28461" lon="-2.24721">
        <ele>38.200000762939</ele>
        <time>2019-08-08T08:32:31.000Z</time>
      </trkpt>
      <trkpt lat="47.28474" lon="-2.2471">
        <ele>38.200000762939</ele>
        <time>2019-08-08T08:32:33.000Z</time>
      </trkpt>
      <trkpt lat="47.28494" lon="-2.24697">
        <ele>38.200000762939</ele>
        <time>2019-08-08T08:32:36.000Z</time>
      </trkpt>
      <trkpt lat="47.28525" lon="-2.24673">
        <ele>38.200000762939</ele>
        <time>2019-08-08T08:32:41.000Z</time>
      </trkpt>
      <trkpt lat="47.28531" lon="-2.24668">
        <ele>38.200000762939</ele>
        <time>2019-08-08T08:32:42.000Z</time>
      </trkpt>
      <trkpt lat="47.28542" lon="-2.24657">
        <ele>38.200000762939</ele>
        <time>2019-08-08T08:32:44.000Z</time>
      </trkpt>
      <trkpt lat="47.28558" lon="-2.24642">
        <ele>38.200000762939</ele>
        <time>2019-08-08T08:32:47.000Z</time>
      </trkpt>
      <trkpt lat="47.28572" lon="-2.2463">
        <ele>37.799999237061</ele>
        <time>2019-08-08T08:32:51.000Z</time>
      </trkpt>
      <trkpt lat="47.28574" lon="-2.2463">
        <ele>37.400001525879</ele>
        <time>2019-08-08T08:32:52.000Z</time>
      </trkpt>
      <trkpt lat="47.28575" lon="-2.24629">
        <ele>37</ele>
        <time>2019-08-08T08:32:53.000Z</time>
      </trkpt>
      <trkpt lat="47.28577" lon="-2.24629">
        <ele>36.599998474121</ele>
        <time>2019-08-08T08:32:54.000Z</time>
      </trkpt>
      <trkpt lat="47.28579" lon="-2.24627">
        <ele>36.200000762939</ele>
        <time>2019-08-08T08:32:55.000Z</time>
      </trkpt>
      <trkpt lat="47.28581" lon="-2.24625">
        <ele>36.200000762939</ele>
        <time>2019-08-08T08:32:56.000Z</time>
      </trkpt>
      <trkpt lat="47.28589" lon="-2.24613">
        <ele>36.200000762939</ele>
        <time>2019-08-08T08:33:01.000Z</time>
      </trkpt>
      <trkpt lat="47.28598" lon="-2.24605">
        <ele>36.200000762939</ele>
        <time>2019-08-08T08:33:06.000Z</time>
      </trkpt>
      <trkpt lat="47.28604" lon="-2.24596">
        <ele>36.200000762939</ele>
        <time>2019-08-08T08:33:08.000Z</time>
      </trkpt>
      <trkpt lat="47.28605" lon="-2.24591">
        <ele>36.200000762939</ele>
        <time>2019-08-08T08:33:09.000Z</time>
      </trkpt>
      <trkpt lat="47.28609" lon="-2.24568">
        <ele>36.200000762939</ele>
        <time>2019-08-08T08:33:13.000Z</time>
      </trkpt>
      <trkpt lat="47.28613" lon="-2.24556">
        <ele>36.200000762939</ele>
        <time>2019-08-08T08:33:15.000Z</time>
      </trkpt>
      <trkpt lat="47.28614" lon="-2.24549">
        <ele>36.200000762939</ele>
        <time>2019-08-08T08:33:16.000Z</time>
      </trkpt>
      <trkpt lat="47.2862" lon="-2.24526">
        <ele>36.200000762939</ele>
        <time>2019-08-08T08:33:20.000Z</time>
      </trkpt>
      <trkpt lat="47.28622" lon="-2.24518">
        <ele>36.200000762939</ele>
        <time>2019-08-08T08:33:21.000Z</time>
      </trkpt>
      <trkpt lat="47.28629" lon="-2.24493">
        <ele>36.200000762939</ele>
        <time>2019-08-08T08:33:24.000Z</time>
      </trkpt>
      <trkpt lat="47.28638" lon="-2.24452">
        <ele>36.200000762939</ele>
        <time>2019-08-08T08:33:29.000Z</time>
      </trkpt>
      <trkpt lat="47.28641" lon="-2.24444">
        <ele>36.200000762939</ele>
        <time>2019-08-08T08:33:30.000Z</time>
      </trkpt>
      <trkpt lat="47.28645" lon="-2.24428">
        <ele>36.200000762939</ele>
        <time>2019-08-08T08:33:32.000Z</time>
      </trkpt>
      <trkpt lat="47.28651" lon="-2.24402">
        <ele>36.200000762939</ele>
        <time>2019-08-08T08:33:35.000Z</time>
      </trkpt>
      <trkpt lat="47.28661" lon="-2.2436">
        <ele>36.200000762939</ele>
        <time>2019-08-08T08:33:40.000Z</time>
      </trkpt>
      <trkpt lat="47.28663" lon="-2.24351">
        <ele>36.599998474121</ele>
        <time>2019-08-08T08:33:41.000Z</time>
      </trkpt>
      <trkpt lat="47.28665" lon="-2.24342">
        <ele>37</ele>
        <time>2019-08-08T08:33:42.000Z</time>
      </trkpt>
      <trkpt lat="47.28667" lon="-2.24333">
        <ele>37.400001525879</ele>
        <time>2019-08-08T08:33:43.000Z</time>
      </trkpt>
      <trkpt lat="47.2867" lon="-2.24324">
        <ele>37.799999237061</ele>
        <time>2019-08-08T08:33:44.000Z</time>
      </trkpt>
      <trkpt lat="47.28672" lon="-2.24316">
        <ele>38.200000762939</ele>
        <time>2019-08-08T08:33:45.000Z</time>
      </trkpt>
      <trkpt lat="47.28677" lon="-2.24299">
        <ele>38.200000762939</ele>
        <time>2019-08-08T08:33:47.000Z</time>
      </trkpt>
      <trkpt lat="47.28685" lon="-2.24271">
        <ele>38.200000762939</ele>
        <time>2019-08-08T08:33:51.000Z</time>
      </trkpt>
      <trkpt lat="47.28703" lon="-2.24258">
        <ele>38.200000762939</ele>
        <time>2019-08-08T08:33:55.000Z</time>
      </trkpt>
      <trkpt lat="47.28713" lon="-2.24259">
        <ele>38.200000762939</ele>
        <time>2019-08-08T08:33:57.000Z</time>
      </trkpt>
      <trkpt lat="47.28729" lon="-2.2426">
        <ele>38.200000762939</ele>
        <time>2019-08-08T08:34:00.000Z</time>
      </trkpt>
      <trkpt lat="47.28763" lon="-2.2426">
        <ele>38.200000762939</ele>
        <time>2019-08-08T08:34:06.000Z</time>
      </trkpt>
      <trkpt lat="47.28768" lon="-2.24259">
        <ele>38.200000762939</ele>
        <time>2019-08-08T08:34:07.000Z</time>
      </trkpt>
      <trkpt lat="47.28778" lon="-2.24254">
        <ele>38.200000762939</ele>
        <time>2019-08-08T08:34:09.000Z</time>
      </trkpt>
      <trkpt lat="47.28782" lon="-2.24244">
        <ele>38.200000762939</ele>
        <time>2019-08-08T08:34:11.000Z</time>
      </trkpt>
      <trkpt lat="47.28781" lon="-2.24231">
        <ele>38.200000762939</ele>
        <time>2019-08-08T08:34:13.000Z</time>
      </trkpt>
      <trkpt lat="47.28781" lon="-2.24208">
        <ele>38.200000762939</ele>
        <time>2019-08-08T08:34:16.000Z</time>
      </trkpt>
      <trkpt lat="47.28782" lon="-2.24147">
        <ele>38.200000762939</ele>
        <time>2019-08-08T08:34:23.000Z</time>
      </trkpt>
      <trkpt lat="47.28782" lon="-2.24138">
        <ele>38.200000762939</ele>
        <time>2019-08-08T08:34:24.000Z</time>
      </trkpt>
      <trkpt lat="47.28784" lon="-2.24096">
        <ele>38.200000762939</ele>
        <time>2019-08-08T08:34:28.000Z</time>
      </trkpt>
      <trkpt lat="47.28788" lon="-2.24027">
        <ele>38.200000762939</ele>
        <time>2019-08-08T08:34:35.000Z</time>
      </trkpt>
      <trkpt lat="47.28794" lon="-2.23968">
        <ele>38.200000762939</ele>
        <time>2019-08-08T08:34:41.000Z</time>
      </trkpt>
      <trkpt lat="47.288" lon="-2.2391">
        <ele>38.200000762939</ele>
        <time>2019-08-08T08:34:47.000Z</time>
      </trkpt>
      <trkpt lat="47.28801" lon="-2.23901">
        <ele>38.200000762939</ele>
        <time>2019-08-08T08:34:48.000Z</time>
      </trkpt>
      <trkpt lat="47.28801" lon="-2.23861">
        <ele>38.200000762939</ele>
        <time>2019-08-08T08:34:52.000Z</time>
      </trkpt>
      <trkpt lat="47.288" lon="-2.23851">
        <ele>38.200000762939</ele>
        <time>2019-08-08T08:34:53.000Z</time>
      </trkpt>
      <trkpt lat="47.28794" lon="-2.23834">
        <ele>38.200000762939</ele>
        <time>2019-08-08T08:34:55.000Z</time>
      </trkpt>
      <trkpt lat="47.28788" lon="-2.23821">
        <ele>38.200000762939</ele>
        <time>2019-08-08T08:34:57.000Z</time>
      </trkpt>
      <trkpt lat="47.28785" lon="-2.23816">
        <ele>38.200000762939</ele>
        <time>2019-08-08T08:34:58.000Z</time>
      </trkpt>
      <trkpt lat="47.28784" lon="-2.23813">
        <ele>37.799999237061</ele>
        <time>2019-08-08T08:34:59.000Z</time>
      </trkpt>
      <trkpt lat="47.28783" lon="-2.23811">
        <ele>37.200000762939</ele>
        <time>2019-08-08T08:35:00.000Z</time>
      </trkpt>
      <trkpt lat="47.28782" lon="-2.23808">
        <ele>36.799999237061</ele>
        <time>2019-08-08T08:35:01.000Z</time>
      </trkpt>
      <trkpt lat="47.28781" lon="-2.23806">
        <ele>36.400001525879</ele>
        <time>2019-08-08T08:35:02.000Z</time>
      </trkpt>
      <trkpt lat="47.2878" lon="-2.23804">
        <ele>36</ele>
        <time>2019-08-08T08:35:03.000Z</time>
      </trkpt>
      <trkpt lat="47.28776" lon="-2.23798">
        <ele>36</ele>
        <time>2019-08-08T08:35:07.000Z</time>
      </trkpt>
      <trkpt lat="47.28775" lon="-2.23795">
        <ele>36</ele>
        <time>2019-08-08T08:35:08.000Z</time>
      </trkpt>
      <trkpt lat="47.28768" lon="-2.2378">
        <ele>36</ele>
        <time>2019-08-08T08:35:11.000Z</time>
      </trkpt>
      <trkpt lat="47.28765" lon="-2.23775">
        <ele>36</ele>
        <time>2019-08-08T08:35:12.000Z</time>
      </trkpt>
      <trkpt lat="47.28755" lon="-2.2376">
        <ele>36</ele>
        <time>2019-08-08T08:35:15.000Z</time>
      </trkpt>
      <trkpt lat="47.28748" lon="-2.23747">
        <ele>36</ele>
        <time>2019-08-08T08:35:17.000Z</time>
      </trkpt>
      <trkpt lat="47.28727" lon="-2.23706">
        <ele>36</ele>
        <time>2019-08-08T08:35:23.000Z</time>
      </trkpt>
      <trkpt lat="47.28711" lon="-2.23678">
        <ele>36</ele>
        <time>2019-08-08T08:35:27.000Z</time>
      </trkpt>
      <trkpt lat="47.28708" lon="-2.23672">
        <ele>36</ele>
        <time>2019-08-08T08:35:28.000Z</time>
      </trkpt>
      <trkpt lat="47.28684" lon="-2.2363">
        <ele>36</ele>
        <time>2019-08-08T08:35:34.000Z</time>
      </trkpt>
      <trkpt lat="47.28656" lon="-2.23587">
        <ele>36</ele>
        <time>2019-08-08T08:35:40.000Z</time>
      </trkpt>
      <trkpt lat="47.28638" lon="-2.23572">
        <ele>36</ele>
        <time>2019-08-08T08:35:44.000Z</time>
      </trkpt>
      <trkpt lat="47.28641" lon="-2.23562">
        <ele>36</ele>
        <time>2019-08-08T08:35:47.000Z</time>
      </trkpt>
      <trkpt lat="47.28649" lon="-2.23545">
        <ele>36</ele>
        <time>2019-08-08T08:35:51.000Z</time>
      </trkpt>
      <trkpt lat="47.28649" lon="-2.23523">
        <ele>36</ele>
        <time>2019-08-08T08:35:55.000Z</time>
      </trkpt>
      <trkpt lat="47.28651" lon="-2.23505">
        <ele>36</ele>
        <time>2019-08-08T08:35:58.000Z</time>
      </trkpt>
      <trkpt lat="47.28652" lon="-2.23492">
        <ele>36</ele>
        <time>2019-08-08T08:36:00.000Z</time>
      </trkpt>
      <trkpt lat="47.28653" lon="-2.23454">
        <ele>36</ele>
        <time>2019-08-08T08:36:05.000Z</time>
      </trkpt>
      <trkpt lat="47.28652" lon="-2.23447">
        <ele>36</ele>
        <time>2019-08-08T08:36:06.000Z</time>
      </trkpt>
      <trkpt lat="47.28645" lon="-2.23415">
        <ele>36</ele>
        <time>2019-08-08T08:36:10.000Z</time>
      </trkpt>
      <trkpt lat="47.28643" lon="-2.23379">
        <ele>36</ele>
        <time>2019-08-08T08:36:14.000Z</time>
      </trkpt>
      <trkpt lat="47.28643" lon="-2.23371">
        <ele>36</ele>
        <time>2019-08-08T08:36:15.000Z</time>
      </trkpt>
      <trkpt lat="47.28647" lon="-2.23362">
        <ele>36</ele>
        <time>2019-08-08T08:36:17.000Z</time>
      </trkpt>
      <trkpt lat="47.2865" lon="-2.2336">
        <ele>36</ele>
        <time>2019-08-08T08:36:18.000Z</time>
      </trkpt>
      <trkpt lat="47.2866" lon="-2.23363">
        <ele>36</ele>
        <time>2019-08-08T08:36:21.000Z</time>
      </trkpt>
      <trkpt lat="47.28664" lon="-2.23364">
        <ele>36</ele>
        <time>2019-08-08T08:36:23.000Z</time>
      </trkpt>
      <trkpt lat="47.28667" lon="-2.23357">
        <ele>36</ele>
        <time>2019-08-08T08:36:25.000Z</time>
      </trkpt>
      <trkpt lat="47.28669" lon="-2.2334">
        <ele>36</ele>
        <time>2019-08-08T08:36:29.000Z</time>
      </trkpt>
      <trkpt lat="47.28669" lon="-2.23335">
        <ele>36</ele>
        <time>2019-08-08T08:36:30.000Z</time>
      </trkpt>
      <trkpt lat="47.28672" lon="-2.23317">
        <ele>36</ele>
        <time>2019-08-08T08:36:35.000Z</time>
      </trkpt>
      <trkpt lat="47.28673" lon="-2.23297">
        <ele>36</ele>
        <time>2019-08-08T08:36:41.000Z</time>
      </trkpt>
      <trkpt lat="47.28675" lon="-2.23277">
        <ele>36</ele>
        <time>2019-08-08T08:36:45.000Z</time>
      </trkpt>
      <trkpt lat="47.2868" lon="-2.23255">
        <ele>36</ele>
        <time>2019-08-08T08:36:49.000Z</time>
      </trkpt>
      <trkpt lat="47.2868" lon="-2.2325">
        <ele>36.400001525879</ele>
        <time>2019-08-08T08:36:50.000Z</time>
      </trkpt>
      <trkpt lat="47.2868" lon="-2.23245">
        <ele>36.799999237061</ele>
        <time>2019-08-08T08:36:51.000Z</time>
      </trkpt>
      <trkpt lat="47.2868" lon="-2.2324">
        <ele>37.200000762939</ele>
        <time>2019-08-08T08:36:52.000Z</time>
      </trkpt>
      <trkpt lat="47.28681" lon="-2.23235">
        <ele>37.599998474121</ele>
        <time>2019-08-08T08:36:53.000Z</time>
      </trkpt>
      <trkpt lat="47.2868" lon="-2.23229">
        <ele>38</ele>
        <time>2019-08-08T08:36:54.000Z</time>
      </trkpt>
      <trkpt lat="47.28671" lon="-2.23202">
        <ele>38</ele>
        <time>2019-08-08T08:36:58.000Z</time>
      </trkpt>
      <trkpt lat="47.28656" lon="-2.23189">
        <ele>37.599998474121</ele>
        <time>2019-08-08T08:37:01.000Z</time>
      </trkpt>
      <trkpt lat="47.28652" lon="-2.23188">
        <ele>37.200000762939</ele>
        <time>2019-08-08T08:37:02.000Z</time>
      </trkpt>
      <trkpt lat="47.28647" lon="-2.23188">
        <ele>36.799999237061</ele>
        <time>2019-08-08T08:37:03.000Z</time>
      </trkpt>
      <trkpt lat="47.28642" lon="-2.23189">
        <ele>36.200000762939</ele>
        <time>2019-08-08T08:37:04.000Z</time>
      </trkpt>
      <trkpt lat="47.28637" lon="-2.23191">
        <ele>35.799999237061</ele>
        <time>2019-08-08T08:37:05.000Z</time>
      </trkpt>
      <trkpt lat="47.28632" lon="-2.23192">
        <ele>35.799999237061</ele>
        <time>2019-08-08T08:37:06.000Z</time>
      </trkpt>
      <trkpt lat="47.28618" lon="-2.23197">
        <ele>35.799999237061</ele>
        <time>2019-08-08T08:37:09.000Z</time>
      </trkpt>
      <trkpt lat="47.2861" lon="-2.23204">
        <ele>35.799999237061</ele>
        <time>2019-08-08T08:37:11.000Z</time>
      </trkpt>
      <trkpt lat="47.28595" lon="-2.23228">
        <ele>35.799999237061</ele>
        <time>2019-08-08T08:37:16.000Z</time>
      </trkpt>
      <trkpt lat="47.28593" lon="-2.23234">
        <ele>35.799999237061</ele>
        <time>2019-08-08T08:37:17.000Z</time>
      </trkpt>
      <trkpt lat="47.2859" lon="-2.23246">
        <ele>35.799999237061</ele>
        <time>2019-08-08T08:37:19.000Z</time>
      </trkpt>
      <trkpt lat="47.28592" lon="-2.23267">
        <ele>35.799999237061</ele>
        <time>2019-08-08T08:37:22.000Z</time>
      </trkpt>
      <trkpt lat="47.28599" lon="-2.2329">
        <ele>35.799999237061</ele>
        <time>2019-08-08T08:37:25.000Z</time>
      </trkpt>
      <trkpt lat="47.28613" lon="-2.23301">
        <ele>35.799999237061</ele>
        <time>2019-08-08T08:37:28.000Z</time>
      </trkpt>
      <trkpt lat="47.28618" lon="-2.23303">
        <ele>35.799999237061</ele>
        <time>2019-08-08T08:37:29.000Z</time>
      </trkpt>
      <trkpt lat="47.28623" lon="-2.23304">
        <ele>35.799999237061</ele>
        <time>2019-08-08T08:37:30.000Z</time>
      </trkpt>
      <trkpt lat="47.28637" lon="-2.23302">
        <ele>35.799999237061</ele>
        <time>2019-08-08T08:37:33.000Z</time>
      </trkpt>
      <trkpt lat="47.28647" lon="-2.23304">
        <ele>35.799999237061</ele>
        <time>2019-08-08T08:37:37.000Z</time>
      </trkpt>
      <trkpt lat="47.2865" lon="-2.23306">
        <ele>35.799999237061</ele>
        <time>2019-08-08T08:37:38.000Z</time>
      </trkpt>
      <trkpt lat="47.28656" lon="-2.23311">
        <ele>35.799999237061</ele>
        <time>2019-08-08T08:37:42.000Z</time>
      </trkpt>
      <trkpt lat="47.28655" lon="-2.23316">
        <ele>35.799999237061</ele>
        <time>2019-08-08T08:38:24.000Z</time>
      </trkpt>
      <trkpt lat="47.28656" lon="-2.23338">
        <ele>35.799999237061</ele>
        <time>2019-08-08T08:38:30.000Z</time>
      </trkpt>
      <trkpt lat="47.28652" lon="-2.23374">
        <ele>35.799999237061</ele>
        <time>2019-08-08T08:38:35.000Z</time>
      </trkpt>
      <trkpt lat="47.28651" lon="-2.23381">
        <ele>35.799999237061</ele>
        <time>2019-08-08T08:38:36.000Z</time>
      </trkpt>
      <trkpt lat="47.28652" lon="-2.23393">
        <ele>35.799999237061</ele>
        <time>2019-08-08T08:38:38.000Z</time>
      </trkpt>
      <trkpt lat="47.28654" lon="-2.23407">
        <ele>35.799999237061</ele>
        <time>2019-08-08T08:38:40.000Z</time>
      </trkpt>
      <trkpt lat="47.28657" lon="-2.23419">
        <ele>35.799999237061</ele>
        <time>2019-08-08T08:38:42.000Z</time>
      </trkpt>
      <trkpt lat="47.28659" lon="-2.23436">
        <ele>35.799999237061</ele>
        <time>2019-08-08T08:38:45.000Z</time>
      </trkpt>
      <trkpt lat="47.28659" lon="-2.23479">
        <ele>35.799999237061</ele>
        <time>2019-08-08T08:38:52.000Z</time>
      </trkpt>
      <trkpt lat="47.28655" lon="-2.23518">
        <ele>35.799999237061</ele>
        <time>2019-08-08T08:38:58.000Z</time>
      </trkpt>
      <trkpt lat="47.28654" lon="-2.23527">
        <ele>35.799999237061</ele>
        <time>2019-08-08T08:38:59.000Z</time>
      </trkpt>
      <trkpt lat="47.28654" lon="-2.23547">
        <ele>35.799999237061</ele>
        <time>2019-08-08T08:39:02.000Z</time>
      </trkpt>
      <trkpt lat="47.28656" lon="-2.2355">
        <ele>35.799999237061</ele>
        <time>2019-08-08T08:39:03.000Z</time>
      </trkpt>
      <trkpt lat="47.28669" lon="-2.23558">
        <ele>35.799999237061</ele>
        <time>2019-08-08T08:39:07.000Z</time>
      </trkpt>
      <trkpt lat="47.28677" lon="-2.23564">
        <ele>35.799999237061</ele>
        <time>2019-08-08T08:39:09.000Z</time>
      </trkpt>
      <trkpt lat="47.28681" lon="-2.23569">
        <ele>35.799999237061</ele>
        <time>2019-08-08T08:39:10.000Z</time>
      </trkpt>
      <trkpt lat="47.28685" lon="-2.23575">
        <ele>35.799999237061</ele>
        <time>2019-08-08T08:39:11.000Z</time>
      </trkpt>
      <trkpt lat="47.28689" lon="-2.23581">
        <ele>35.799999237061</ele>
        <time>2019-08-08T08:39:12.000Z</time>
      </trkpt>
      <trkpt lat="47.28696" lon="-2.23591">
        <ele>35.799999237061</ele>
        <time>2019-08-08T08:39:14.000Z</time>
      </trkpt>
      <trkpt lat="47.287" lon="-2.23593">
        <ele>35.799999237061</ele>
        <time>2019-08-08T08:39:15.000Z</time>
      </trkpt>
      <trkpt lat="47.2871" lon="-2.2359">
        <ele>35.799999237061</ele>
        <time>2019-08-08T08:39:18.000Z</time>
      </trkpt>
      <trkpt lat="47.28713" lon="-2.23587">
        <ele>35.799999237061</ele>
        <time>2019-08-08T08:39:19.000Z</time>
      </trkpt>
      <trkpt lat="47.2872" lon="-2.23579">
        <ele>35.799999237061</ele>
        <time>2019-08-08T08:39:21.000Z</time>
      </trkpt>
      <trkpt lat="47.28726" lon="-2.23567">
        <ele>35.799999237061</ele>
        <time>2019-08-08T08:39:23.000Z</time>
      </trkpt>
      <trkpt lat="47.28733" lon="-2.23556">
        <ele>35.799999237061</ele>
        <time>2019-08-08T08:39:25.000Z</time>
      </trkpt>
      <trkpt lat="47.2874" lon="-2.23547">
        <ele>35.799999237061</ele>
        <time>2019-08-08T08:39:27.000Z</time>
      </trkpt>
      <trkpt lat="47.28744" lon="-2.23544">
        <ele>35.799999237061</ele>
        <time>2019-08-08T08:39:28.000Z</time>
      </trkpt>
      <trkpt lat="47.2875" lon="-2.23536">
        <ele>36.400001525879</ele>
        <time>2019-08-08T08:39:30.000Z</time>
      </trkpt>
      <trkpt lat="47.28754" lon="-2.23533">
        <ele>36.799999237061</ele>
        <time>2019-08-08T08:39:31.000Z</time>
      </trkpt>
      <trkpt lat="47.28757" lon="-2.23531">
        <ele>37.200000762939</ele>
        <time>2019-08-08T08:39:32.000Z</time>
      </trkpt>
      <trkpt lat="47.2876" lon="-2.23528">
        <ele>37.599998474121</ele>
        <time>2019-08-08T08:39:33.000Z</time>
      </trkpt>
      <trkpt lat="47.28763" lon="-2.23526">
        <ele>38.200000762939</ele>
        <time>2019-08-08T08:39:34.000Z</time>
      </trkpt>
      <trkpt lat="47.28781" lon="-2.23519">
        <ele>38.200000762939</ele>
        <time>2019-08-08T08:39:38.000Z</time>
      </trkpt>
      <trkpt lat="47.28785" lon="-2.23517">
        <ele>38.599998474121</ele>
        <time>2019-08-08T08:39:39.000Z</time>
      </trkpt>
      <trkpt lat="47.2879" lon="-2.23516">
        <ele>39</ele>
        <time>2019-08-08T08:39:40.000Z</time>
      </trkpt>
      <trkpt lat="47.28794" lon="-2.23515">
        <ele>39.400001525879</ele>
        <time>2019-08-08T08:39:41.000Z</time>
      </trkpt>
      <trkpt lat="47.28798" lon="-2.23515">
        <ele>39.799999237061</ele>
        <time>2019-08-08T08:39:42.000Z</time>
      </trkpt>
      <trkpt lat="47.28802" lon="-2.23514">
        <ele>40.200000762939</ele>
        <time>2019-08-08T08:39:43.000Z</time>
      </trkpt>
      <trkpt lat="47.28806" lon="-2.23514">
        <ele>40.200000762939</ele>
        <time>2019-08-08T08:39:44.000Z</time>
      </trkpt>
      <trkpt lat="47.28827" lon="-2.23512">
        <ele>40.200000762939</ele>
        <time>2019-08-08T08:39:50.000Z</time>
      </trkpt>
      <trkpt lat="47.28841" lon="-2.2351">
        <ele>40.599998474121</ele>
        <time>2019-08-08T08:39:53.000Z</time>
      </trkpt>
      <trkpt lat="47.28846" lon="-2.2351">
        <ele>41</ele>
        <time>2019-08-08T08:39:54.000Z</time>
      </trkpt>
      <trkpt lat="47.28851" lon="-2.2351">
        <ele>41.400001525879</ele>
        <time>2019-08-08T08:39:55.000Z</time>
      </trkpt>
      <trkpt lat="47.28856" lon="-2.2351">
        <ele>41.799999237061</ele>
        <time>2019-08-08T08:39:56.000Z</time>
      </trkpt>
      <trkpt lat="47.2886" lon="-2.23509">
        <ele>42.200000762939</ele>
        <time>2019-08-08T08:39:57.000Z</time>
      </trkpt>
      <trkpt lat="47.28876" lon="-2.23508">
        <ele>42.200000762939</ele>
        <time>2019-08-08T08:40:00.000Z</time>
      </trkpt>
      <trkpt lat="47.28887" lon="-2.23508">
        <ele>42.200000762939</ele>
        <time>2019-08-08T08:40:02.000Z</time>
      </trkpt>
      <trkpt lat="47.28907" lon="-2.23504">
        <ele>42.200000762939</ele>
        <time>2019-08-08T08:40:06.000Z</time>
      </trkpt>
      <trkpt lat="47.28918" lon="-2.23501">
        <ele>42.599998474121</ele>
        <time>2019-08-08T08:40:08.000Z</time>
      </trkpt>
      <trkpt lat="47.28923" lon="-2.23499">
        <ele>43</ele>
        <time>2019-08-08T08:40:09.000Z</time>
      </trkpt>
      <trkpt lat="47.28928" lon="-2.23498">
        <ele>43.599998474121</ele>
        <time>2019-08-08T08:40:10.000Z</time>
      </trkpt>
      <trkpt lat="47.28933" lon="-2.23498">
        <ele>44</ele>
        <time>2019-08-08T08:40:11.000Z</time>
      </trkpt>
      <trkpt lat="47.28937" lon="-2.23497">
        <ele>44.400001525879</ele>
        <time>2019-08-08T08:40:12.000Z</time>
      </trkpt>
      <trkpt lat="47.28947" lon="-2.23495">
        <ele>44.400001525879</ele>
        <time>2019-08-08T08:40:14.000Z</time>
      </trkpt>
      <trkpt lat="47.28954" lon="-2.23491">
        <ele>44.400001525879</ele>
        <time>2019-08-08T08:40:16.000Z</time>
      </trkpt>
      <trkpt lat="47.28957" lon="-2.23485">
        <ele>44.400001525879</ele>
        <time>2019-08-08T08:40:17.000Z</time>
      </trkpt>
      <trkpt lat="47.28959" lon="-2.23465">
        <ele>44.400001525879</ele>
        <time>2019-08-08T08:40:20.000Z</time>
      </trkpt>
      <trkpt lat="47.28966" lon="-2.23397">
        <ele>44.400001525879</ele>
        <time>2019-08-08T08:40:28.000Z</time>
      </trkpt>
      <trkpt lat="47.28972" lon="-2.2334">
        <ele>44.400001525879</ele>
        <time>2019-08-08T08:40:34.000Z</time>
      </trkpt>
      <trkpt lat="47.2898" lon="-2.23252">
        <ele>44.400001525879</ele>
        <time>2019-08-08T08:40:42.000Z</time>
      </trkpt>
      <trkpt lat="47.28988" lon="-2.23167">
        <ele>44.400001525879</ele>
        <time>2019-08-08T08:40:49.000Z</time>
      </trkpt>
      <trkpt lat="47.28989" lon="-2.23154">
        <ele>44</ele>
        <time>2019-08-08T08:40:50.000Z</time>
      </trkpt>
      <trkpt lat="47.28991" lon="-2.23142">
        <ele>43.599998474121</ele>
        <time>2019-08-08T08:40:51.000Z</time>
      </trkpt>
      <trkpt lat="47.28993" lon="-2.23129">
        <ele>43.200000762939</ele>
        <time>2019-08-08T08:40:52.000Z</time>
      </trkpt>
      <trkpt lat="47.28994" lon="-2.23116">
        <ele>42.799999237061</ele>
        <time>2019-08-08T08:40:53.000Z</time>
      </trkpt>
      <trkpt lat="47.28996" lon="-2.23103">
        <ele>42.200000762939</ele>
        <time>2019-08-08T08:40:54.000Z</time>
      </trkpt>
      <trkpt lat="47.28998" lon="-2.23091">
        <ele>41.799999237061</ele>
        <time>2019-08-08T08:40:55.000Z</time>
      </trkpt>
      <trkpt lat="47.29" lon="-2.23079">
        <ele>41.200000762939</ele>
        <time>2019-08-08T08:40:56.000Z</time>
      </trkpt>
      <trkpt lat="47.29002" lon="-2.23067">
        <ele>40.599998474121</ele>
        <time>2019-08-08T08:40:57.000Z</time>
      </trkpt>
      <trkpt lat="47.29005" lon="-2.23056">
        <ele>40.200000762939</ele>
        <time>2019-08-08T08:40:58.000Z</time>
      </trkpt>
      <trkpt lat="47.29015" lon="-2.23022">
        <ele>39.599998474121</ele>
        <time>2019-08-08T08:41:01.000Z</time>
      </trkpt>
      <trkpt lat="47.29018" lon="-2.23012">
        <ele>39.200000762939</ele>
        <time>2019-08-08T08:41:02.000Z</time>
      </trkpt>
      <trkpt lat="47.2902" lon="-2.23003">
        <ele>38.799999237061</ele>
        <time>2019-08-08T08:41:03.000Z</time>
      </trkpt>
      <trkpt lat="47.29023" lon="-2.22995">
        <ele>38.200000762939</ele>
        <time>2019-08-08T08:41:04.000Z</time>
      </trkpt>
      <trkpt lat="47.29024" lon="-2.22987">
        <ele>37.799999237061</ele>
        <time>2019-08-08T08:41:05.000Z</time>
      </trkpt>
      <trkpt lat="47.29025" lon="-2.22979">
        <ele>37.200000762939</ele>
        <time>2019-08-08T08:41:06.000Z</time>
      </trkpt>
      <trkpt lat="47.29029" lon="-2.22974">
        <ele>36.799999237061</ele>
        <time>2019-08-08T08:41:07.000Z</time>
      </trkpt>
      <trkpt lat="47.29033" lon="-2.22973">
        <ele>36.400001525879</ele>
        <time>2019-08-08T08:41:08.000Z</time>
      </trkpt>
      <trkpt lat="47.29038" lon="-2.22976">
        <ele>36</ele>
        <time>2019-08-08T08:41:09.000Z</time>
      </trkpt>
      <trkpt lat="47.29041" lon="-2.22982">
        <ele>35.400001525879</ele>
        <time>2019-08-08T08:41:10.000Z</time>
      </trkpt>
      <trkpt lat="47.29044" lon="-2.22989">
        <ele>35.400001525879</ele>
        <time>2019-08-08T08:41:11.000Z</time>
      </trkpt>
      <trkpt lat="47.29047" lon="-2.22995">
        <ele>35.400001525879</ele>
        <time>2019-08-08T08:41:12.000Z</time>
      </trkpt>
      <trkpt lat="47.29062" lon="-2.23012">
        <ele>35.400001525879</ele>
        <time>2019-08-08T08:41:15.000Z</time>
      </trkpt>
      <trkpt lat="47.29076" lon="-2.2303">
        <ele>35.400001525879</ele>
        <time>2019-08-08T08:41:18.000Z</time>
      </trkpt>
      <trkpt lat="47.29086" lon="-2.23043">
        <ele>35.400001525879</ele>
        <time>2019-08-08T08:41:20.000Z</time>
      </trkpt>
      <trkpt lat="47.29123" lon="-2.2309">
        <ele>35.400001525879</ele>
        <time>2019-08-08T08:41:27.000Z</time>
      </trkpt>
      <trkpt lat="47.29158" lon="-2.23134">
        <ele>35.400001525879</ele>
        <time>2019-08-08T08:41:33.000Z</time>
      </trkpt>
      <trkpt lat="47.29181" lon="-2.23163">
        <ele>35.400001525879</ele>
        <time>2019-08-08T08:41:37.000Z</time>
      </trkpt>
      <trkpt lat="47.29185" lon="-2.2317">
        <ele>35.400001525879</ele>
        <time>2019-08-08T08:41:38.000Z</time>
      </trkpt>
      <trkpt lat="47.29194" lon="-2.23183">
        <ele>35.400001525879</ele>
        <time>2019-08-08T08:41:40.000Z</time>
      </trkpt>
      <trkpt lat="47.292" lon="-2.23195">
        <ele>35.400001525879</ele>
        <time>2019-08-08T08:41:42.000Z</time>
      </trkpt>
      <trkpt lat="47.29202" lon="-2.23221">
        <ele>35.400001525879</ele>
        <time>2019-08-08T08:41:45.000Z</time>
      </trkpt>
      <trkpt lat="47.29215" lon="-2.23244">
        <ele>35.400001525879</ele>
        <time>2019-08-08T08:41:48.000Z</time>
      </trkpt>
      <trkpt lat="47.29221" lon="-2.23251">
        <ele>35.400001525879</ele>
        <time>2019-08-08T08:41:49.000Z</time>
      </trkpt>
      <trkpt lat="47.29247" lon="-2.23288">
        <ele>35.400001525879</ele>
        <time>2019-08-08T08:41:54.000Z</time>
      </trkpt>
      <trkpt lat="47.29252" lon="-2.23297">
        <ele>35.400001525879</ele>
        <time>2019-08-08T08:41:55.000Z</time>
      </trkpt>
      <trkpt lat="47.29265" lon="-2.23326">
        <ele>35.400001525879</ele>
        <time>2019-08-08T08:41:58.000Z</time>
      </trkpt>
      <trkpt lat="47.29274" lon="-2.23369">
        <ele>35.400001525879</ele>
        <time>2019-08-08T08:42:02.000Z</time>
      </trkpt>
      <trkpt lat="47.29291" lon="-2.23444">
        <ele>35.400001525879</ele>
        <time>2019-08-08T08:42:09.000Z</time>
      </trkpt>
      <trkpt lat="47.29304" lon="-2.23512">
        <ele>35.400001525879</ele>
        <time>2019-08-08T08:42:16.000Z</time>
      </trkpt>
      <trkpt lat="47.29314" lon="-2.23585">
        <ele>35.400001525879</ele>
        <time>2019-08-08T08:42:24.000Z</time>
      </trkpt>
      <trkpt lat="47.29314" lon="-2.23646">
        <ele>35.400001525879</ele>
        <time>2019-08-08T08:42:31.000Z</time>
      </trkpt>
      <trkpt lat="47.29316" lon="-2.23697">
        <ele>35.400001525879</ele>
        <time>2019-08-08T08:42:37.000Z</time>
      </trkpt>
      <trkpt lat="47.29316" lon="-2.23705">
        <ele>35.400001525879</ele>
        <time>2019-08-08T08:42:38.000Z</time>
      </trkpt>
      <trkpt lat="47.29315" lon="-2.23756">
        <ele>35.400001525879</ele>
        <time>2019-08-08T08:42:44.000Z</time>
      </trkpt>
      <trkpt lat="47.29317" lon="-2.2378">
        <ele>35.400001525879</ele>
        <time>2019-08-08T08:42:48.000Z</time>
      </trkpt>
      <trkpt lat="47.29327" lon="-2.23782">
        <ele>35.400001525879</ele>
        <time>2019-08-08T08:42:51.000Z</time>
      </trkpt>
      <trkpt lat="47.29344" lon="-2.2379">
        <ele>35.400001525879</ele>
        <time>2019-08-08T08:42:56.000Z</time>
      </trkpt>
      <trkpt lat="47.29357" lon="-2.23795">
        <ele>35.400001525879</ele>
        <time>2019-08-08T08:43:00.000Z</time>
      </trkpt>
      <trkpt lat="47.2936" lon="-2.23792">
        <ele>35.400001525879</ele>
        <time>2019-08-08T08:43:01.000Z</time>
      </trkpt>
      <trkpt lat="47.29365" lon="-2.23778">
        <ele>35.400001525879</ele>
        <time>2019-08-08T08:43:04.000Z</time>
      </trkpt>
      <trkpt lat="47.29366" lon="-2.23773">
        <ele>35.400001525879</ele>
        <time>2019-08-08T08:43:05.000Z</time>
      </trkpt>
      <trkpt lat="47.29367" lon="-2.23756">
        <ele>35.400001525879</ele>
        <time>2019-08-08T08:43:10.000Z</time>
      </trkpt>
      <trkpt lat="47.29367" lon="-2.23746">
        <ele>35.400001525879</ele>
        <time>2019-08-08T08:43:14.000Z</time>
      </trkpt>
      <trkpt lat="47.29367" lon="-2.23741">
        <ele>35.400001525879</ele>
        <time>2019-08-08T08:43:16.000Z</time>
      </trkpt>
      <trkpt lat="47.29369" lon="-2.23736">
        <ele>35.400001525879</ele>
        <time>2019-08-08T08:43:18.000Z</time>
      </trkpt>
      <trkpt lat="47.2937" lon="-2.23735">
        <ele>35.400001525879</ele>
        <time>2019-08-08T08:43:19.000Z</time>
      </trkpt>
      <trkpt lat="47.29371" lon="-2.23735">
        <ele>35.400001525879</ele>
        <time>2019-08-08T08:43:21.000Z</time>
      </trkpt>
      <trkpt lat="47.29371" lon="-2.23736">
        <ele>35.400001525879</ele>
        <time>2019-08-08T08:43:22.000Z</time>
      </trkpt>
      <trkpt lat="47.2937" lon="-2.23741">
        <ele>35.400001525879</ele>
        <time>2019-08-08T08:43:23.000Z</time>
      </trkpt>
      <trkpt lat="47.29366" lon="-2.23783">
        <ele>35.400001525879</ele>
        <time>2019-08-08T08:43:30.000Z</time>
      </trkpt>
      <trkpt lat="47.29362" lon="-2.23794">
        <ele>35.400001525879</ele>
        <time>2019-08-08T08:43:32.000Z</time>
      </trkpt>
      <trkpt lat="47.29359" lon="-2.23797">
        <ele>35.400001525879</ele>
        <time>2019-08-08T08:43:33.000Z</time>
      </trkpt>
      <trkpt lat="47.29348" lon="-2.23794">
        <ele>35.400001525879</ele>
        <time>2019-08-08T08:43:36.000Z</time>
      </trkpt>
      <trkpt lat="47.29344" lon="-2.23792">
        <ele>35.400001525879</ele>
        <time>2019-08-08T08:43:37.000Z</time>
      </trkpt>
      <trkpt lat="47.29332" lon="-2.23782">
        <ele>35.400001525879</ele>
        <time>2019-08-08T08:43:41.000Z</time>
      </trkpt>
      <trkpt lat="47.29321" lon="-2.2378">
        <ele>35.400001525879</ele>
        <time>2019-08-08T08:43:45.000Z</time>
      </trkpt>
      <trkpt lat="47.29316" lon="-2.2378">
        <ele>35.400001525879</ele>
        <time>2019-08-08T08:43:50.000Z</time>
      </trkpt>
      <trkpt lat="47.29316" lon="-2.23776">
        <ele>35.400001525879</ele>
        <time>2019-08-08T08:43:54.000Z</time>
      </trkpt>
      <trkpt lat="47.29324" lon="-2.23776">
        <ele>35.400001525879</ele>
        <time>2019-08-08T08:43:56.000Z</time>
      </trkpt>
      <trkpt lat="47.29329" lon="-2.23777">
        <ele>35.400001525879</ele>
        <time>2019-08-08T08:43:57.000Z</time>
      </trkpt>
      <trkpt lat="47.29344" lon="-2.23786">
        <ele>35.400001525879</ele>
        <time>2019-08-08T08:44:00.000Z</time>
      </trkpt>
      <trkpt lat="47.29355" lon="-2.2379">
        <ele>35.400001525879</ele>
        <time>2019-08-08T08:44:02.000Z</time>
      </trkpt>
      <trkpt lat="47.29359" lon="-2.23786">
        <ele>35.400001525879</ele>
        <time>2019-08-08T08:44:03.000Z</time>
      </trkpt>
      <trkpt lat="47.29365" lon="-2.23764">
        <ele>35.400001525879</ele>
        <time>2019-08-08T08:44:06.000Z</time>
      </trkpt>
      <trkpt lat="47.29366" lon="-2.23757">
        <ele>35.799999237061</ele>
        <time>2019-08-08T08:44:07.000Z</time>
      </trkpt>
      <trkpt lat="47.29368" lon="-2.23749">
        <ele>36.799999237061</ele>
        <time>2019-08-08T08:44:08.000Z</time>
      </trkpt>
      <trkpt lat="47.29369" lon="-2.23742">
        <ele>37.200000762939</ele>
        <time>2019-08-08T08:44:09.000Z</time>
      </trkpt>
      <trkpt lat="47.2937" lon="-2.23734">
        <ele>37.599998474121</ele>
        <time>2019-08-08T08:44:10.000Z</time>
      </trkpt>
      <trkpt lat="47.29377" lon="-2.23713">
        <ele>37.599998474121</ele>
        <time>2019-08-08T08:44:13.000Z</time>
      </trkpt>
      <trkpt lat="47.29391" lon="-2.23706">
        <ele>37.599998474121</ele>
        <time>2019-08-08T08:44:16.000Z</time>
      </trkpt>
      <trkpt lat="47.29411" lon="-2.237">
        <ele>37.599998474121</ele>
        <time>2019-08-08T08:44:20.000Z</time>
      </trkpt>
      <trkpt lat="47.29429" lon="-2.23692">
        <ele>38</ele>
        <time>2019-08-08T08:44:24.000Z</time>
      </trkpt>
      <trkpt lat="47.29433" lon="-2.23691">
        <ele>38.400001525879</ele>
        <time>2019-08-08T08:44:25.000Z</time>
      </trkpt>
      <trkpt lat="47.29438" lon="-2.23689">
        <ele>38.799999237061</ele>
        <time>2019-08-08T08:44:26.000Z</time>
      </trkpt>
      <trkpt lat="47.29443" lon="-2.23687">
        <ele>39.400001525879</ele>
        <time>2019-08-08T08:44:27.000Z</time>
      </trkpt>
      <trkpt lat="47.29448" lon="-2.23684">
        <ele>39.799999237061</ele>
        <time>2019-08-08T08:44:28.000Z</time>
      </trkpt>
      <trkpt lat="47.29456" lon="-2.2368">
        <ele>40.200000762939</ele>
        <time>2019-08-08T08:44:30.000Z</time>
      </trkpt>
      <trkpt lat="47.2946" lon="-2.23677">
        <ele>40.599998474121</ele>
        <time>2019-08-08T08:44:31.000Z</time>
      </trkpt>
      <trkpt lat="47.29464" lon="-2.23675">
        <ele>41.400001525879</ele>
        <time>2019-08-08T08:44:32.000Z</time>
      </trkpt>
      <trkpt lat="47.29468" lon="-2.23672">
        <ele>42</ele>
        <time>2019-08-08T08:44:33.000Z</time>
      </trkpt>
      <trkpt lat="47.29486" lon="-2.23665">
        <ele>42</ele>
        <time>2019-08-08T08:44:37.000Z</time>
      </trkpt>
      <trkpt lat="47.2949" lon="-2.23669">
        <ele>42</ele>
        <time>2019-08-08T08:44:38.000Z</time>
      </trkpt>
      <trkpt lat="47.29497" lon="-2.23692">
        <ele>42</ele>
        <time>2019-08-08T08:44:41.000Z</time>
      </trkpt>
      <trkpt lat="47.29498" lon="-2.2371">
        <ele>42</ele>
        <time>2019-08-08T08:44:43.000Z</time>
      </trkpt>
      <trkpt lat="47.29499" lon="-2.23731">
        <ele>42</ele>
        <time>2019-08-08T08:44:45.000Z</time>
      </trkpt>
      <trkpt lat="47.29507" lon="-2.23787">
        <ele>41.400001525879</ele>
        <time>2019-08-08T08:44:50.000Z</time>
      </trkpt>
      <trkpt lat="47.2951" lon="-2.23798">
        <ele>41</ele>
        <time>2019-08-08T08:44:51.000Z</time>
      </trkpt>
      <trkpt lat="47.29513" lon="-2.23809">
        <ele>40.400001525879</ele>
        <time>2019-08-08T08:44:52.000Z</time>
      </trkpt>
      <trkpt lat="47.29516" lon="-2.23821">
        <ele>40</ele>
        <time>2019-08-08T08:44:53.000Z</time>
      </trkpt>
      <trkpt lat="47.2952" lon="-2.23833">
        <ele>39.400001525879</ele>
        <time>2019-08-08T08:44:54.000Z</time>
      </trkpt>
      <trkpt lat="47.29523" lon="-2.23845">
        <ele>39.400001525879</ele>
        <time>2019-08-08T08:44:55.000Z</time>
      </trkpt>
      <trkpt lat="47.29536" lon="-2.2389">
        <ele>39.400001525879</ele>
        <time>2019-08-08T08:44:59.000Z</time>
      </trkpt>
      <trkpt lat="47.29537" lon="-2.23902">
        <ele>39.400001525879</ele>
        <time>2019-08-08T08:45:00.000Z</time>
      </trkpt>
      <trkpt lat="47.29545" lon="-2.23969">
        <ele>39.400001525879</ele>
        <time>2019-08-08T08:45:06.000Z</time>
      </trkpt>
      <trkpt lat="47.29557" lon="-2.24041">
        <ele>39.400001525879</ele>
        <time>2019-08-08T08:45:13.000Z</time>
      </trkpt>
      <trkpt lat="47.29569" lon="-2.24109">
        <ele>39.400001525879</ele>
        <time>2019-08-08T08:45:20.000Z</time>
      </trkpt>
      <trkpt lat="47.29581" lon="-2.24172">
        <ele>39.400001525879</ele>
        <time>2019-08-08T08:45:27.000Z</time>
      </trkpt>
      <trkpt lat="47.29588" lon="-2.24204">
        <ele>39.400001525879</ele>
        <time>2019-08-08T08:45:31.000Z</time>
      </trkpt>
      <trkpt lat="47.29595" lon="-2.2421">
        <ele>39.400001525879</ele>
        <time>2019-08-08T08:45:33.000Z</time>
      </trkpt>
      <trkpt lat="47.29602" lon="-2.24205">
        <ele>39.400001525879</ele>
        <time>2019-08-08T08:45:35.000Z</time>
      </trkpt>
      <trkpt lat="47.29608" lon="-2.24185">
        <ele>39.400001525879</ele>
        <time>2019-08-08T08:45:38.000Z</time>
      </trkpt>
      <trkpt lat="47.29608" lon="-2.24177">
        <ele>39.400001525879</ele>
        <time>2019-08-08T08:45:39.000Z</time>
      </trkpt>
      <trkpt lat="47.29609" lon="-2.24168">
        <ele>39.400001525879</ele>
        <time>2019-08-08T08:45:40.000Z</time>
      </trkpt>
      <trkpt lat="47.29611" lon="-2.24142">
        <ele>39.400001525879</ele>
        <time>2019-08-08T08:45:43.000Z</time>
      </trkpt>
      <trkpt lat="47.29616" lon="-2.24096">
        <ele>39.400001525879</ele>
        <time>2019-08-08T08:45:49.000Z</time>
      </trkpt>
      <trkpt lat="47.29618" lon="-2.24081">
        <ele>39.400001525879</ele>
        <time>2019-08-08T08:45:51.000Z</time>
      </trkpt>
      <trkpt lat="47.29621" lon="-2.24074">
        <ele>39.400001525879</ele>
        <time>2019-08-08T08:45:53.000Z</time>
      </trkpt>
      <trkpt lat="47.29622" lon="-2.24073">
        <ele>39.400001525879</ele>
        <time>2019-08-08T08:45:55.000Z</time>
      </trkpt>
      <trkpt lat="47.29624" lon="-2.24068">
        <ele>39.400001525879</ele>
        <time>2019-08-08T08:46:08.000Z</time>
      </trkpt>
      <trkpt lat="47.29624" lon="-2.24066">
        <ele>39.400001525879</ele>
        <time>2019-08-08T08:46:09.000Z</time>
      </trkpt>
      <trkpt lat="47.29627" lon="-2.24044">
        <ele>39.400001525879</ele>
        <time>2019-08-08T08:46:13.000Z</time>
      </trkpt>
      <trkpt lat="47.29631" lon="-2.24007">
        <ele>39.400001525879</ele>
        <time>2019-08-08T08:46:18.000Z</time>
      </trkpt>
      <trkpt lat="47.29633" lon="-2.24">
        <ele>39</ele>
        <time>2019-08-08T08:46:19.000Z</time>
      </trkpt>
      <trkpt lat="47.29635" lon="-2.23995">
        <ele>38.599998474121</ele>
        <time>2019-08-08T08:46:20.000Z</time>
      </trkpt>
      <trkpt lat="47.2964" lon="-2.2399">
        <ele>38.200000762939</ele>
        <time>2019-08-08T08:46:21.000Z</time>
      </trkpt>
      <trkpt lat="47.29646" lon="-2.23985">
        <ele>37.799999237061</ele>
        <time>2019-08-08T08:46:22.000Z</time>
      </trkpt>
      <trkpt lat="47.29651" lon="-2.23981">
        <ele>37.400001525879</ele>
        <time>2019-08-08T08:46:23.000Z</time>
      </trkpt>
      <trkpt lat="47.29662" lon="-2.2397">
        <ele>37.400001525879</ele>
        <time>2019-08-08T08:46:25.000Z</time>
      </trkpt>
      <trkpt lat="47.29667" lon="-2.23966">
        <ele>37.400001525879</ele>
        <time>2019-08-08T08:46:26.000Z</time>
      </trkpt>
      <trkpt lat="47.29685" lon="-2.23955">
        <ele>37.400001525879</ele>
        <time>2019-08-08T08:46:29.000Z</time>
      </trkpt>
      <trkpt lat="47.2969" lon="-2.23953">
        <ele>37.400001525879</ele>
        <time>2019-08-08T08:46:30.000Z</time>
      </trkpt>
      <trkpt lat="47.29707" lon="-2.23943">
        <ele>37.400001525879</ele>
        <time>2019-08-08T08:46:33.000Z</time>
      </trkpt>
      <trkpt lat="47.29711" lon="-2.23937">
        <ele>37.400001525879</ele>
        <time>2019-08-08T08:46:34.000Z</time>
      </trkpt>
      <trkpt lat="47.29717" lon="-2.23917">
        <ele>37.400001525879</ele>
        <time>2019-08-08T08:46:37.000Z</time>
      </trkpt>
      <trkpt lat="47.29717" lon="-2.23902">
        <ele>37.400001525879</ele>
        <time>2019-08-08T08:46:39.000Z</time>
      </trkpt>
      <trkpt lat="47.29719" lon="-2.23892">
        <ele>37.400001525879</ele>
        <time>2019-08-08T08:46:40.000Z</time>
      </trkpt>
      <trkpt lat="47.2972" lon="-2.23884">
        <ele>37.400001525879</ele>
        <time>2019-08-08T08:46:41.000Z</time>
      </trkpt>
      <trkpt lat="47.29724" lon="-2.23862">
        <ele>37.400001525879</ele>
        <time>2019-08-08T08:46:44.000Z</time>
      </trkpt>
      <trkpt lat="47.29728" lon="-2.23848">
        <ele>37.400001525879</ele>
        <time>2019-08-08T08:46:46.000Z</time>
      </trkpt>
      <trkpt lat="47.29734" lon="-2.23835">
        <ele>37.400001525879</ele>
        <time>2019-08-08T08:46:48.000Z</time>
      </trkpt>
      <trkpt lat="47.29745" lon="-2.23816">
        <ele>37.400001525879</ele>
        <time>2019-08-08T08:46:51.000Z</time>
      </trkpt>
      <trkpt lat="47.2975" lon="-2.23809">
        <ele>37.400001525879</ele>
        <time>2019-08-08T08:46:52.000Z</time>
      </trkpt>
      <trkpt lat="47.29754" lon="-2.23804">
        <ele>37.400001525879</ele>
        <time>2019-08-08T08:46:53.000Z</time>
      </trkpt>
      <trkpt lat="47.2977" lon="-2.23795">
        <ele>37.400001525879</ele>
        <time>2019-08-08T08:46:56.000Z</time>
      </trkpt>
      <trkpt lat="47.29792" lon="-2.23794">
        <ele>37.400001525879</ele>
        <time>2019-08-08T08:47:00.000Z</time>
      </trkpt>
      <trkpt lat="47.29798" lon="-2.23795">
        <ele>37.400001525879</ele>
        <time>2019-08-08T08:47:01.000Z</time>
      </trkpt>
      <trkpt lat="47.29804" lon="-2.23797">
        <ele>37.400001525879</ele>
        <time>2019-08-08T08:47:02.000Z</time>
      </trkpt>
      <trkpt lat="47.29824" lon="-2.23807">
        <ele>37.400001525879</ele>
        <time>2019-08-08T08:47:05.000Z</time>
      </trkpt>
      <trkpt lat="47.29851" lon="-2.23823">
        <ele>37.400001525879</ele>
        <time>2019-08-08T08:47:10.000Z</time>
      </trkpt>
      <trkpt lat="47.2987" lon="-2.23825">
        <ele>37.400001525879</ele>
        <time>2019-08-08T08:47:14.000Z</time>
      </trkpt>
      <trkpt lat="47.29874" lon="-2.23825">
        <ele>37.400001525879</ele>
        <time>2019-08-08T08:47:15.000Z</time>
      </trkpt>
      <trkpt lat="47.29898" lon="-2.23823">
        <ele>37.400001525879</ele>
        <time>2019-08-08T08:47:20.000Z</time>
      </trkpt>
      <trkpt lat="47.29927" lon="-2.23828">
        <ele>37.400001525879</ele>
        <time>2019-08-08T08:47:26.000Z</time>
      </trkpt>
      <trkpt lat="47.29937" lon="-2.2383">
        <ele>37.400001525879</ele>
        <time>2019-08-08T08:47:28.000Z</time>
      </trkpt>
      <trkpt lat="47.29953" lon="-2.23837">
        <ele>37.400001525879</ele>
        <time>2019-08-08T08:47:31.000Z</time>
      </trkpt>
      <trkpt lat="47.29959" lon="-2.2384">
        <ele>37.400001525879</ele>
        <time>2019-08-08T08:47:32.000Z</time>
      </trkpt>
      <trkpt lat="47.29986" lon="-2.23865">
        <ele>37.400001525879</ele>
        <time>2019-08-08T08:47:38.000Z</time>
      </trkpt>
      <trkpt lat="47.29999" lon="-2.23885">
        <ele>37.400001525879</ele>
        <time>2019-08-08T08:47:43.000Z</time>
      </trkpt>
      <trkpt lat="47.30001" lon="-2.2389">
        <ele>37.400001525879</ele>
        <time>2019-08-08T08:47:47.000Z</time>
      </trkpt>
      <trkpt lat="47.30001" lon="-2.23893">
        <ele>37.400001525879</ele>
        <time>2019-08-08T08:48:07.000Z</time>
      </trkpt>
      <trkpt lat="47.30002" lon="-2.23908">
        <ele>37.400001525879</ele>
        <time>2019-08-08T08:48:11.000Z</time>
      </trkpt>
      <trkpt lat="47.30001" lon="-2.23932">
        <ele>37.400001525879</ele>
        <time>2019-08-08T08:48:15.000Z</time>
      </trkpt>
      <trkpt lat="47.30001" lon="-2.23938">
        <ele>37.400001525879</ele>
        <time>2019-08-08T08:48:16.000Z</time>
      </trkpt>
      <trkpt lat="47.30002" lon="-2.23959">
        <ele>37.400001525879</ele>
        <time>2019-08-08T08:48:19.000Z</time>
      </trkpt>
      <trkpt lat="47.30002" lon="-2.23966">
        <ele>37.400001525879</ele>
        <time>2019-08-08T08:48:20.000Z</time>
      </trkpt>
      <trkpt lat="47.29999" lon="-2.23994">
        <ele>37.400001525879</ele>
        <time>2019-08-08T08:48:24.000Z</time>
      </trkpt>
      <trkpt lat="47.29999" lon="-2.24009">
        <ele>37.400001525879</ele>
        <time>2019-08-08T08:48:26.000Z</time>
      </trkpt>
      <trkpt lat="47.29998" lon="-2.24037">
        <ele>37.799999237061</ele>
        <time>2019-08-08T08:48:30.000Z</time>
      </trkpt>
      <trkpt lat="47.29998" lon="-2.24044">
        <ele>38.200000762939</ele>
        <time>2019-08-08T08:48:31.000Z</time>
      </trkpt>
      <trkpt lat="47.29999" lon="-2.2405">
        <ele>38.599998474121</ele>
        <time>2019-08-08T08:48:32.000Z</time>
      </trkpt>
      <trkpt lat="47.29998" lon="-2.24057">
        <ele>39</ele>
        <time>2019-08-08T08:48:33.000Z</time>
      </trkpt>
      <trkpt lat="47.29999" lon="-2.24064">
        <ele>39.400001525879</ele>
        <time>2019-08-08T08:48:34.000Z</time>
      </trkpt>
      <trkpt lat="47.30001" lon="-2.24105">
        <ele>39.400001525879</ele>
        <time>2019-08-08T08:48:40.000Z</time>
      </trkpt>
      <trkpt lat="47.30001" lon="-2.2411">
        <ele>39.799999237061</ele>
        <time>2019-08-08T08:48:41.000Z</time>
      </trkpt>
      <trkpt lat="47.3" lon="-2.24116">
        <ele>40.200000762939</ele>
        <time>2019-08-08T08:48:42.000Z</time>
      </trkpt>
      <trkpt lat="47.3" lon="-2.24121">
        <ele>40.599998474121</ele>
        <time>2019-08-08T08:48:43.000Z</time>
      </trkpt>
      <trkpt lat="47.29999" lon="-2.24126">
        <ele>41</ele>
        <time>2019-08-08T08:48:44.000Z</time>
      </trkpt>
      <trkpt lat="47.29998" lon="-2.24133">
        <ele>41.400001525879</ele>
        <time>2019-08-08T08:48:45.000Z</time>
      </trkpt>
      <trkpt lat="47.29996" lon="-2.24146">
        <ele>42</ele>
        <time>2019-08-08T08:48:47.000Z</time>
      </trkpt>
      <trkpt lat="47.29994" lon="-2.24152">
        <ele>42.400001525879</ele>
        <time>2019-08-08T08:48:48.000Z</time>
      </trkpt>
      <trkpt lat="47.29993" lon="-2.24158">
        <ele>42.799999237061</ele>
        <time>2019-08-08T08:48:49.000Z</time>
      </trkpt>
      <trkpt lat="47.29991" lon="-2.24163">
        <ele>43.400001525879</ele>
        <time>2019-08-08T08:48:50.000Z</time>
      </trkpt>
      <trkpt lat="47.29989" lon="-2.24169">
        <ele>43.799999237061</ele>
        <time>2019-08-08T08:48:51.000Z</time>
      </trkpt>
      <trkpt lat="47.29987" lon="-2.24175">
        <ele>44.200000762939</ele>
        <time>2019-08-08T08:48:52.000Z</time>
      </trkpt>
      <trkpt lat="47.29985" lon="-2.24182">
        <ele>44.799999237061</ele>
        <time>2019-08-08T08:48:53.000Z</time>
      </trkpt>
      <trkpt lat="47.29984" lon="-2.24189">
        <ele>45.200000762939</ele>
        <time>2019-08-08T08:48:54.000Z</time>
      </trkpt>
      <trkpt lat="47.29982" lon="-2.24196">
        <ele>45.599998474121</ele>
        <time>2019-08-08T08:48:55.000Z</time>
      </trkpt>
      <trkpt lat="47.2998" lon="-2.24203">
        <ele>46</ele>
        <time>2019-08-08T08:48:56.000Z</time>
      </trkpt>
      <trkpt lat="47.29975" lon="-2.24215">
        <ele>46.400001525879</ele>
        <time>2019-08-08T08:48:58.000Z</time>
      </trkpt>
      <trkpt lat="47.29971" lon="-2.24222">
        <ele>46.799999237061</ele>
        <time>2019-08-08T08:48:59.000Z</time>
      </trkpt>
      <trkpt lat="47.29968" lon="-2.24228">
        <ele>47.400001525879</ele>
        <time>2019-08-08T08:49:00.000Z</time>
      </trkpt>
      <trkpt lat="47.29964" lon="-2.24235">
        <ele>47.799999237061</ele>
        <time>2019-08-08T08:49:01.000Z</time>
      </trkpt>
      <trkpt lat="47.29961" lon="-2.24241">
        <ele>48.200000762939</ele>
        <time>2019-08-08T08:49:02.000Z</time>
      </trkpt>
      <trkpt lat="47.29942" lon="-2.24279">
        <ele>48.200000762939</ele>
        <time>2019-08-08T08:49:08.000Z</time>
      </trkpt>
      <trkpt lat="47.29939" lon="-2.24286">
        <ele>48.200000762939</ele>
        <time>2019-08-08T08:49:09.000Z</time>
      </trkpt>
      <trkpt lat="47.29939" lon="-2.243">
        <ele>48.200000762939</ele>
        <time>2019-08-08T08:49:11.000Z</time>
      </trkpt>
      <trkpt lat="47.29948" lon="-2.24317">
        <ele>48.200000762939</ele>
        <time>2019-08-08T08:49:14.000Z</time>
      </trkpt>
      <trkpt lat="47.29952" lon="-2.24322">
        <ele>48.200000762939</ele>
        <time>2019-08-08T08:49:15.000Z</time>
      </trkpt>
      <trkpt lat="47.2998" lon="-2.24353">
        <ele>48.200000762939</ele>
        <time>2019-08-08T08:49:22.000Z</time>
      </trkpt>
      <trkpt lat="47.29987" lon="-2.24361">
        <ele>48.200000762939</ele>
        <time>2019-08-08T08:49:24.000Z</time>
      </trkpt>
      <trkpt lat="47.29993" lon="-2.2436">
        <ele>48.200000762939</ele>
        <time>2019-08-08T08:49:26.000Z</time>
      </trkpt>
      <trkpt lat="47.29998" lon="-2.24345">
        <ele>48.599998474121</ele>
        <time>2019-08-08T08:49:29.000Z</time>
      </trkpt>
      <trkpt lat="47.3" lon="-2.2434">
        <ele>49</ele>
        <time>2019-08-08T08:49:30.000Z</time>
      </trkpt>
      <trkpt lat="47.30001" lon="-2.24335">
        <ele>49.400001525879</ele>
        <time>2019-08-08T08:49:31.000Z</time>
      </trkpt>
      <trkpt lat="47.30003" lon="-2.24329">
        <ele>50</ele>
        <time>2019-08-08T08:49:32.000Z</time>
      </trkpt>
      <trkpt lat="47.30004" lon="-2.24324">
        <ele>50.400001525879</ele>
        <time>2019-08-08T08:49:33.000Z</time>
      </trkpt>
      <trkpt lat="47.30008" lon="-2.24314">
        <ele>50.400001525879</ele>
        <time>2019-08-08T08:49:35.000Z</time>
      </trkpt>
      <trkpt lat="47.30012" lon="-2.24305">
        <ele>50.400001525879</ele>
        <time>2019-08-08T08:49:37.000Z</time>
      </trkpt>
      <trkpt lat="47.30013" lon="-2.24294">
        <ele>50.400001525879</ele>
        <time>2019-08-08T08:49:39.000Z</time>
      </trkpt>
      <trkpt lat="47.30019" lon="-2.24287">
        <ele>50.400001525879</ele>
        <time>2019-08-08T08:49:42.000Z</time>
      </trkpt>
      <trkpt lat="47.30022" lon="-2.24283">
        <ele>50.400001525879</ele>
        <time>2019-08-08T08:49:46.000Z</time>
      </trkpt>
      <trkpt lat="47.30023" lon="-2.24271">
        <ele>50.400001525879</ele>
        <time>2019-08-08T08:49:49.000Z</time>
      </trkpt>
      <trkpt lat="47.30023" lon="-2.24265">
        <ele>50.400001525879</ele>
        <time>2019-08-08T08:49:50.000Z</time>
      </trkpt>
      <trkpt lat="47.30023" lon="-2.24258">
        <ele>50.400001525879</ele>
        <time>2019-08-08T08:49:51.000Z</time>
      </trkpt>
      <trkpt lat="47.3002" lon="-2.24245">
        <ele>50.400001525879</ele>
        <time>2019-08-08T08:49:53.000Z</time>
      </trkpt>
      <trkpt lat="47.30018" lon="-2.24238">
        <ele>50</ele>
        <time>2019-08-08T08:49:54.000Z</time>
      </trkpt>
      <trkpt lat="47.30017" lon="-2.24231">
        <ele>49.599998474121</ele>
        <time>2019-08-08T08:49:55.000Z</time>
      </trkpt>
      <trkpt lat="47.30015" lon="-2.24224">
        <ele>49.200000762939</ele>
        <time>2019-08-08T08:49:56.000Z</time>
      </trkpt>
      <trkpt lat="47.30014" lon="-2.24217">
        <ele>48.599998474121</ele>
        <time>2019-08-08T08:49:57.000Z</time>
      </trkpt>
      <trkpt lat="47.30013" lon="-2.24209">
        <ele>48.200000762939</ele>
        <time>2019-08-08T08:49:58.000Z</time>
      </trkpt>
      <trkpt lat="47.30013" lon="-2.24201">
        <ele>48.200000762939</ele>
        <time>2019-08-08T08:49:59.000Z</time>
      </trkpt>
      <trkpt lat="47.30012" lon="-2.24181">
        <ele>47.799999237061</ele>
        <time>2019-08-08T08:50:01.000Z</time>
      </trkpt>
      <trkpt lat="47.30012" lon="-2.24173">
        <ele>47.200000762939</ele>
        <time>2019-08-08T08:50:02.000Z</time>
      </trkpt>
      <trkpt lat="47.30011" lon="-2.24166">
        <ele>46.799999237061</ele>
        <time>2019-08-08T08:50:03.000Z</time>
      </trkpt>
      <trkpt lat="47.30011" lon="-2.24161">
        <ele>46</ele>
        <time>2019-08-08T08:50:04.000Z</time>
      </trkpt>
      <trkpt lat="47.30011" lon="-2.24158">
        <ele>45.400001525879</ele>
        <time>2019-08-08T08:50:05.000Z</time>
      </trkpt>
      <trkpt lat="47.30013" lon="-2.24155">
        <ele>44.799999237061</ele>
        <time>2019-08-08T08:50:06.000Z</time>
      </trkpt>
      <trkpt lat="47.30015" lon="-2.24154">
        <ele>44</ele>
        <time>2019-08-08T08:50:07.000Z</time>
      </trkpt>
      <trkpt lat="47.30016" lon="-2.24152">
        <ele>43.400001525879</ele>
        <time>2019-08-08T08:50:08.000Z</time>
      </trkpt>
      <trkpt lat="47.30023" lon="-2.24145">
        <ele>43.400001525879</ele>
        <time>2019-08-08T08:50:12.000Z</time>
      </trkpt>
      <trkpt lat="47.30026" lon="-2.24143">
        <ele>43.400001525879</ele>
        <time>2019-08-08T08:50:13.000Z</time>
      </trkpt>
      <trkpt lat="47.30039" lon="-2.24132">
        <ele>43.799999237061</ele>
        <time>2019-08-08T08:50:18.000Z</time>
      </trkpt>
      <trkpt lat="47.30042" lon="-2.2413">
        <ele>44.200000762939</ele>
        <time>2019-08-08T08:50:19.000Z</time>
      </trkpt>
      <trkpt lat="47.30046" lon="-2.24128">
        <ele>44.599998474121</ele>
        <time>2019-08-08T08:50:20.000Z</time>
      </trkpt>
      <trkpt lat="47.3005" lon="-2.24126">
        <ele>45</ele>
        <time>2019-08-08T08:50:21.000Z</time>
      </trkpt>
      <trkpt lat="47.30055" lon="-2.24124">
        <ele>45.400001525879</ele>
        <time>2019-08-08T08:50:22.000Z</time>
      </trkpt>
      <trkpt lat="47.30065" lon="-2.2412">
        <ele>45.400001525879</ele>
        <time>2019-08-08T08:50:24.000Z</time>
      </trkpt>
      <trkpt lat="47.3009" lon="-2.24106">
        <ele>45.400001525879</ele>
        <time>2019-08-08T08:50:28.000Z</time>
      </trkpt>
      <trkpt lat="47.30117" lon="-2.24086">
        <ele>45.400001525879</ele>
        <time>2019-08-08T08:50:33.000Z</time>
      </trkpt>
      <trkpt lat="47.30122" lon="-2.24079">
        <ele>45.400001525879</ele>
        <time>2019-08-08T08:50:34.000Z</time>
      </trkpt>
      <trkpt lat="47.30131" lon="-2.24077">
        <ele>45.400001525879</ele>
        <time>2019-08-08T08:50:36.000Z</time>
      </trkpt>
      <trkpt lat="47.30148" lon="-2.24069">
        <ele>45.400001525879</ele>
        <time>2019-08-08T08:50:40.000Z</time>
      </trkpt>
      <trkpt lat="47.30173" lon="-2.24059">
        <ele>45.400001525879</ele>
        <time>2019-08-08T08:50:45.000Z</time>
      </trkpt>
      <trkpt lat="47.30183" lon="-2.24055">
        <ele>45.400001525879</ele>
        <time>2019-08-08T08:50:47.000Z</time>
      </trkpt>
      <trkpt lat="47.302" lon="-2.24056">
        <ele>45.400001525879</ele>
        <time>2019-08-08T08:50:50.000Z</time>
      </trkpt>
      <trkpt lat="47.30205" lon="-2.24055">
        <ele>45.400001525879</ele>
        <time>2019-08-08T08:50:51.000Z</time>
      </trkpt>
      <trkpt lat="47.30216" lon="-2.24054">
        <ele>45.400001525879</ele>
        <time>2019-08-08T08:50:53.000Z</time>
      </trkpt>
      <trkpt lat="47.3022" lon="-2.24057">
        <ele>45.400001525879</ele>
        <time>2019-08-08T08:50:54.000Z</time>
      </trkpt>
      <trkpt lat="47.30234" lon="-2.24058">
        <ele>45.400001525879</ele>
        <time>2019-08-08T08:50:57.000Z</time>
      </trkpt>
      <trkpt lat="47.30239" lon="-2.24059">
        <ele>45.400001525879</ele>
        <time>2019-08-08T08:50:58.000Z</time>
      </trkpt>
      <trkpt lat="47.30258" lon="-2.24061">
        <ele>45.400001525879</ele>
        <time>2019-08-08T08:51:03.000Z</time>
      </trkpt>
      <trkpt lat="47.30271" lon="-2.24058">
        <ele>45.400001525879</ele>
        <time>2019-08-08T08:51:06.000Z</time>
      </trkpt>
      <trkpt lat="47.30275" lon="-2.24053">
        <ele>45.400001525879</ele>
        <time>2019-08-08T08:51:07.000Z</time>
      </trkpt>
      <trkpt lat="47.30277" lon="-2.24047">
        <ele>45</ele>
        <time>2019-08-08T08:51:08.000Z</time>
      </trkpt>
      <trkpt lat="47.30278" lon="-2.24041">
        <ele>44.599998474121</ele>
        <time>2019-08-08T08:51:09.000Z</time>
      </trkpt>
      <trkpt lat="47.3028" lon="-2.24033">
        <ele>44.200000762939</ele>
        <time>2019-08-08T08:51:10.000Z</time>
      </trkpt>
      <trkpt lat="47.3028" lon="-2.24024">
        <ele>43.799999237061</ele>
        <time>2019-08-08T08:51:11.000Z</time>
      </trkpt>
      <trkpt lat="47.30279" lon="-2.24014">
        <ele>43.400001525879</ele>
        <time>2019-08-08T08:51:12.000Z</time>
      </trkpt>
      <trkpt lat="47.30279" lon="-2.24004">
        <ele>43.400001525879</ele>
        <time>2019-08-08T08:51:13.000Z</time>
      </trkpt>
      <trkpt lat="47.30277" lon="-2.23993">
        <ele>43.400001525879</ele>
        <time>2019-08-08T08:51:14.000Z</time>
      </trkpt>
      <trkpt lat="47.30268" lon="-2.2395">
        <ele>43</ele>
        <time>2019-08-08T08:51:18.000Z</time>
      </trkpt>
      <trkpt lat="47.30264" lon="-2.2394">
        <ele>42.400001525879</ele>
        <time>2019-08-08T08:51:19.000Z</time>
      </trkpt>
      <trkpt lat="47.30263" lon="-2.23928">
        <ele>42</ele>
        <time>2019-08-08T08:51:20.000Z</time>
      </trkpt>
      <trkpt lat="47.30262" lon="-2.23918">
        <ele>41.599998474121</ele>
        <time>2019-08-08T08:51:21.000Z</time>
      </trkpt>
      <trkpt lat="47.30262" lon="-2.23908">
        <ele>41.200000762939</ele>
        <time>2019-08-08T08:51:22.000Z</time>
      </trkpt>
      <trkpt lat="47.30263" lon="-2.239">
        <ele>41.200000762939</ele>
        <time>2019-08-08T08:51:23.000Z</time>
      </trkpt>
      <trkpt lat="47.30266" lon="-2.23887">
        <ele>40.599998474121</ele>
        <time>2019-08-08T08:51:25.000Z</time>
      </trkpt>
      <trkpt lat="47.30267" lon="-2.23886">
        <ele>40.200000762939</ele>
        <time>2019-08-08T08:51:26.000Z</time>
      </trkpt>
      <trkpt lat="47.30269" lon="-2.23886">
        <ele>39.799999237061</ele>
        <time>2019-08-08T08:51:27.000Z</time>
      </trkpt>
      <trkpt lat="47.3027" lon="-2.23887">
        <ele>39.400001525879</ele>
        <time>2019-08-08T08:51:28.000Z</time>
      </trkpt>
      <trkpt lat="47.30271" lon="-2.23886">
        <ele>39</ele>
        <time>2019-08-08T08:51:29.000Z</time>
      </trkpt>
      <trkpt lat="47.30271" lon="-2.23886">
        <ele>39</ele>
        <time>2019-08-08T08:51:30.000Z</time>
      </trkpt>
      <trkpt lat="47.30274" lon="-2.23886">
        <ele>39</ele>
        <time>2019-08-08T08:51:43.000Z</time>
      </trkpt>
      <trkpt lat="47.3028" lon="-2.23884">
        <ele>39</ele>
        <time>2019-08-08T08:51:46.000Z</time>
      </trkpt>
      <trkpt lat="47.30283" lon="-2.23883">
        <ele>39</ele>
        <time>2019-08-08T08:51:47.000Z</time>
      </trkpt>
      <trkpt lat="47.30299" lon="-2.23882">
        <ele>39</ele>
        <time>2019-08-08T08:51:51.000Z</time>
      </trkpt>
      <trkpt lat="47.30303" lon="-2.23882">
        <ele>39</ele>
        <time>2019-08-08T08:51:52.000Z</time>
      </trkpt>
      <trkpt lat="47.3032" lon="-2.23874">
        <ele>39</ele>
        <time>2019-08-08T08:51:56.000Z</time>
      </trkpt>
      <trkpt lat="47.30348" lon="-2.23862">
        <ele>39</ele>
        <time>2019-08-08T08:52:01.000Z</time>
      </trkpt>
      <trkpt lat="47.30391" lon="-2.23852">
        <ele>39</ele>
        <time>2019-08-08T08:52:08.000Z</time>
      </trkpt>
      <trkpt lat="47.30431" lon="-2.23846">
        <ele>39</ele>
        <time>2019-08-08T08:52:14.000Z</time>
      </trkpt>
      <trkpt lat="47.3047" lon="-2.23839">
        <ele>39</ele>
        <time>2019-08-08T08:52:20.000Z</time>
      </trkpt>
      <trkpt lat="47.30484" lon="-2.23839">
        <ele>39</ele>
        <time>2019-08-08T08:52:22.000Z</time>
      </trkpt>
      <trkpt lat="47.30495" lon="-2.23846">
        <ele>39</ele>
        <time>2019-08-08T08:52:24.000Z</time>
      </trkpt>
      <trkpt lat="47.30509" lon="-2.23865">
        <ele>39</ele>
        <time>2019-08-08T08:52:27.000Z</time>
      </trkpt>
      <trkpt lat="47.30522" lon="-2.23885">
        <ele>39</ele>
        <time>2019-08-08T08:52:30.000Z</time>
      </trkpt>
      <trkpt lat="47.30549" lon="-2.23923">
        <ele>39</ele>
        <time>2019-08-08T08:52:37.000Z</time>
      </trkpt>
      <trkpt lat="47.30554" lon="-2.23933">
        <ele>39</ele>
        <time>2019-08-08T08:52:40.000Z</time>
      </trkpt>
      <trkpt lat="47.3055" lon="-2.23945">
        <ele>39</ele>
        <time>2019-08-08T08:52:43.000Z</time>
      </trkpt>
      <trkpt lat="47.30538" lon="-2.2396">
        <ele>39</ele>
        <time>2019-08-08T08:52:47.000Z</time>
      </trkpt>
      <trkpt lat="47.30535" lon="-2.23964">
        <ele>39</ele>
        <time>2019-08-08T08:52:48.000Z</time>
      </trkpt>
      <trkpt lat="47.30525" lon="-2.23978">
        <ele>39</ele>
        <time>2019-08-08T08:52:51.000Z</time>
      </trkpt>
      <trkpt lat="47.30518" lon="-2.23986">
        <ele>39.400001525879</ele>
        <time>2019-08-08T08:52:53.000Z</time>
      </trkpt>
      <trkpt lat="47.30514" lon="-2.2399">
        <ele>39.799999237061</ele>
        <time>2019-08-08T08:52:54.000Z</time>
      </trkpt>
      <trkpt lat="47.3051" lon="-2.23994">
        <ele>40.200000762939</ele>
        <time>2019-08-08T08:52:55.000Z</time>
      </trkpt>
      <trkpt lat="47.30507" lon="-2.23999">
        <ele>40.799999237061</ele>
        <time>2019-08-08T08:52:56.000Z</time>
      </trkpt>
      <trkpt lat="47.30504" lon="-2.24004">
        <ele>41.200000762939</ele>
        <time>2019-08-08T08:52:57.000Z</time>
      </trkpt>
      <trkpt lat="47.30498" lon="-2.24012">
        <ele>41.200000762939</ele>
        <time>2019-08-08T08:52:59.000Z</time>
      </trkpt>
      <trkpt lat="47.30495" lon="-2.24016">
        <ele>41.599998474121</ele>
        <time>2019-08-08T08:53:00.000Z</time>
      </trkpt>
      <trkpt lat="47.30492" lon="-2.2402">
        <ele>42</ele>
        <time>2019-08-08T08:53:01.000Z</time>
      </trkpt>
      <trkpt lat="47.30489" lon="-2.24024">
        <ele>42.400001525879</ele>
        <time>2019-08-08T08:53:02.000Z</time>
      </trkpt>
      <trkpt lat="47.30486" lon="-2.24027">
        <ele>42.799999237061</ele>
        <time>2019-08-08T08:53:03.000Z</time>
      </trkpt>
      <trkpt lat="47.30484" lon="-2.2403">
        <ele>43.200000762939</ele>
        <time>2019-08-08T08:53:04.000Z</time>
      </trkpt>
      <trkpt lat="47.30481" lon="-2.24032">
        <ele>43.200000762939</ele>
        <time>2019-08-08T08:53:05.000Z</time>
      </trkpt>
      <trkpt lat="47.30479" lon="-2.24034">
        <ele>43.799999237061</ele>
        <time>2019-08-08T08:53:06.000Z</time>
      </trkpt>
      <trkpt lat="47.30476" lon="-2.24036">
        <ele>44.200000762939</ele>
        <time>2019-08-08T08:53:07.000Z</time>
      </trkpt>
      <trkpt lat="47.30473" lon="-2.24038">
        <ele>44.599998474121</ele>
        <time>2019-08-08T08:53:08.000Z</time>
      </trkpt>
      <trkpt lat="47.3047" lon="-2.2404">
        <ele>45</ele>
        <time>2019-08-08T08:53:09.000Z</time>
      </trkpt>
      <trkpt lat="47.30468" lon="-2.24041">
        <ele>45.400001525879</ele>
        <time>2019-08-08T08:53:10.000Z</time>
      </trkpt>
      <trkpt lat="47.30465" lon="-2.24043">
        <ele>45.400001525879</ele>
        <time>2019-08-08T08:53:11.000Z</time>
      </trkpt>
      <trkpt lat="47.30459" lon="-2.24049">
        <ele>45.799999237061</ele>
        <time>2019-08-08T08:53:14.000Z</time>
      </trkpt>
      <trkpt lat="47.30457" lon="-2.24052">
        <ele>46.200000762939</ele>
        <time>2019-08-08T08:53:15.000Z</time>
      </trkpt>
      <trkpt lat="47.30455" lon="-2.24055">
        <ele>46.799999237061</ele>
        <time>2019-08-08T08:53:16.000Z</time>
      </trkpt>
      <trkpt lat="47.30453" lon="-2.24057">
        <ele>47.200000762939</ele>
        <time>2019-08-08T08:53:17.000Z</time>
      </trkpt>
      <trkpt lat="47.30451" lon="-2.2406">
        <ele>47.599998474121</ele>
        <time>2019-08-08T08:53:18.000Z</time>
      </trkpt>
      <trkpt lat="47.30447" lon="-2.24065">
        <ele>47.599998474121</ele>
        <time>2019-08-08T08:53:20.000Z</time>
      </trkpt>
      <trkpt lat="47.30432" lon="-2.24081">
        <ele>47.599998474121</ele>
        <time>2019-08-08T08:53:27.000Z</time>
      </trkpt>
      <trkpt lat="47.30422" lon="-2.24091">
        <ele>48</ele>
        <time>2019-08-08T08:53:32.000Z</time>
      </trkpt>
      <trkpt lat="47.3042" lon="-2.24093">
        <ele>48.400001525879</ele>
        <time>2019-08-08T08:53:33.000Z</time>
      </trkpt>
      <trkpt lat="47.30418" lon="-2.24095">
        <ele>48.799999237061</ele>
        <time>2019-08-08T08:53:34.000Z</time>
      </trkpt>
      <trkpt lat="47.30416" lon="-2.24098">
        <ele>49.200000762939</ele>
        <time>2019-08-08T08:53:35.000Z</time>
      </trkpt>
      <trkpt lat="47.30414" lon="-2.241">
        <ele>49.599998474121</ele>
        <time>2019-08-08T08:53:36.000Z</time>
      </trkpt>
      <trkpt lat="47.30404" lon="-2.24109">
        <ele>49.599998474121</ele>
        <time>2019-08-08T08:53:39.000Z</time>
      </trkpt>
      <trkpt lat="47.30389" lon="-2.24123">
        <ele>50</ele>
        <time>2019-08-08T08:53:44.000Z</time>
      </trkpt>
      <trkpt lat="47.30385" lon="-2.24126">
        <ele>50.400001525879</ele>
        <time>2019-08-08T08:53:45.000Z</time>
      </trkpt>
      <trkpt lat="47.30382" lon="-2.24129">
        <ele>50.799999237061</ele>
        <time>2019-08-08T08:53:46.000Z</time>
      </trkpt>
      <trkpt lat="47.30378" lon="-2.24133">
        <ele>51.200000762939</ele>
        <time>2019-08-08T08:53:47.000Z</time>
      </trkpt>
      <trkpt lat="47.30374" lon="-2.24137">
        <ele>51.599998474121</ele>
        <time>2019-08-08T08:53:48.000Z</time>
      </trkpt>
      <trkpt lat="47.30366" lon="-2.24147">
        <ele>51.599998474121</ele>
        <time>2019-08-08T08:53:50.000Z</time>
      </trkpt>
      <trkpt lat="47.30347" lon="-2.24179">
        <ele>51.599998474121</ele>
        <time>2019-08-08T08:53:55.000Z</time>
      </trkpt>
      <trkpt lat="47.30346" lon="-2.24187">
        <ele>51.599998474121</ele>
        <time>2019-08-08T08:53:56.000Z</time>
      </trkpt>
      <trkpt lat="47.30351" lon="-2.24203">
        <ele>51.599998474121</ele>
        <time>2019-08-08T08:53:58.000Z</time>
      </trkpt>
      <trkpt lat="47.30368" lon="-2.24225">
        <ele>51.599998474121</ele>
        <time>2019-08-08T08:54:02.000Z</time>
      </trkpt>
      <trkpt lat="47.30372" lon="-2.24229">
        <ele>51.599998474121</ele>
        <time>2019-08-08T08:54:03.000Z</time>
      </trkpt>
      <trkpt lat="47.30398" lon="-2.24255">
        <ele>51.599998474121</ele>
        <time>2019-08-08T08:54:09.000Z</time>
      </trkpt>
      <trkpt lat="47.30415" lon="-2.24272">
        <ele>51.599998474121</ele>
        <time>2019-08-08T08:54:13.000Z</time>
      </trkpt>
      <trkpt lat="47.30426" lon="-2.24276">
        <ele>51.599998474121</ele>
        <time>2019-08-08T08:54:15.000Z</time>
      </trkpt>
      <trkpt lat="47.30463" lon="-2.24284">
        <ele>51.599998474121</ele>
        <time>2019-08-08T08:54:22.000Z</time>
      </trkpt>
      <trkpt lat="47.30494" lon="-2.243">
        <ele>51.599998474121</ele>
        <time>2019-08-08T08:54:28.000Z</time>
      </trkpt>
      <trkpt lat="47.30498" lon="-2.24304">
        <ele>51.599998474121</ele>
        <time>2019-08-08T08:54:29.000Z</time>
      </trkpt>
      <trkpt lat="47.30516" lon="-2.24323">
        <ele>51.599998474121</ele>
        <time>2019-08-08T08:54:33.000Z</time>
      </trkpt>
      <trkpt lat="47.30544" lon="-2.24352">
        <ele>51.599998474121</ele>
        <time>2019-08-08T08:54:40.000Z</time>
      </trkpt>
      <trkpt lat="47.30557" lon="-2.24364">
        <ele>51.599998474121</ele>
        <time>2019-08-08T08:54:45.000Z</time>
      </trkpt>
      <trkpt lat="47.3057" lon="-2.24377">
        <ele>51.200000762939</ele>
        <time>2019-08-08T08:54:49.000Z</time>
      </trkpt>
      <trkpt lat="47.30573" lon="-2.24381">
        <ele>50.400001525879</ele>
        <time>2019-08-08T08:54:50.000Z</time>
      </trkpt>
      <trkpt lat="47.30576" lon="-2.24385">
        <ele>50</ele>
        <time>2019-08-08T08:54:51.000Z</time>
      </trkpt>
      <trkpt lat="47.3058" lon="-2.24389">
        <ele>49.599998474121</ele>
        <time>2019-08-08T08:54:52.000Z</time>
      </trkpt>
      <trkpt lat="47.30602" lon="-2.24413">
        <ele>49.599998474121</ele>
        <time>2019-08-08T08:54:58.000Z</time>
      </trkpt>
      <trkpt lat="47.30607" lon="-2.24415">
        <ele>49.599998474121</ele>
        <time>2019-08-08T08:54:59.000Z</time>
      </trkpt>
      <trkpt lat="47.30621" lon="-2.24421">
        <ele>49.599998474121</ele>
        <time>2019-08-08T08:55:02.000Z</time>
      </trkpt>
      <trkpt lat="47.30631" lon="-2.24429">
        <ele>49</ele>
        <time>2019-08-08T08:55:05.000Z</time>
      </trkpt>
      <trkpt lat="47.30633" lon="-2.24435">
        <ele>48.599998474121</ele>
        <time>2019-08-08T08:55:06.000Z</time>
      </trkpt>
      <trkpt lat="47.30634" lon="-2.24441">
        <ele>48.200000762939</ele>
        <time>2019-08-08T08:55:07.000Z</time>
      </trkpt>
      <trkpt lat="47.30635" lon="-2.24447">
        <ele>47.799999237061</ele>
        <time>2019-08-08T08:55:08.000Z</time>
      </trkpt>
      <trkpt lat="47.30635" lon="-2.24454">
        <ele>47.400001525879</ele>
        <time>2019-08-08T08:55:09.000Z</time>
      </trkpt>
      <trkpt lat="47.30635" lon="-2.24461">
        <ele>47.400001525879</ele>
        <time>2019-08-08T08:55:10.000Z</time>
      </trkpt>
      <trkpt lat="47.30635" lon="-2.24469">
        <ele>47.400001525879</ele>
        <time>2019-08-08T08:55:11.000Z</time>
      </trkpt>
      <trkpt lat="47.30633" lon="-2.24503">
        <ele>47</ele>
        <time>2019-08-08T08:55:15.000Z</time>
      </trkpt>
      <trkpt lat="47.30632" lon="-2.24513">
        <ele>46.400001525879</ele>
        <time>2019-08-08T08:55:16.000Z</time>
      </trkpt>
      <trkpt lat="47.30632" lon="-2.24522">
        <ele>46</ele>
        <time>2019-08-08T08:55:17.000Z</time>
      </trkpt>
      <trkpt lat="47.30632" lon="-2.24532">
        <ele>45.599998474121</ele>
        <time>2019-08-08T08:55:18.000Z</time>
      </trkpt>
      <trkpt lat="47.30632" lon="-2.24541">
        <ele>45</ele>
        <time>2019-08-08T08:55:19.000Z</time>
      </trkpt>
      <trkpt lat="47.30629" lon="-2.24566">
        <ele>44.599998474121</ele>
        <time>2019-08-08T08:55:21.000Z</time>
      </trkpt>
      <trkpt lat="47.30627" lon="-2.2458">
        <ele>44</ele>
        <time>2019-08-08T08:55:22.000Z</time>
      </trkpt>
      <trkpt lat="47.30625" lon="-2.24594">
        <ele>43.599998474121</ele>
        <time>2019-08-08T08:55:23.000Z</time>
      </trkpt>
      <trkpt lat="47.30625" lon="-2.24607">
        <ele>43.200000762939</ele>
        <time>2019-08-08T08:55:24.000Z</time>
      </trkpt>
      <trkpt lat="47.30626" lon="-2.2462">
        <ele>42.599998474121</ele>
        <time>2019-08-08T08:55:25.000Z</time>
      </trkpt>
      <trkpt lat="47.30628" lon="-2.24633">
        <ele>42.200000762939</ele>
        <time>2019-08-08T08:55:26.000Z</time>
      </trkpt>
      <trkpt lat="47.3063" lon="-2.24645">
        <ele>41.599998474121</ele>
        <time>2019-08-08T08:55:27.000Z</time>
      </trkpt>
      <trkpt lat="47.30631" lon="-2.24657">
        <ele>41</ele>
        <time>2019-08-08T08:55:28.000Z</time>
      </trkpt>
      <trkpt lat="47.30633" lon="-2.24669">
        <ele>40.599998474121</ele>
        <time>2019-08-08T08:55:29.000Z</time>
      </trkpt>
      <trkpt lat="47.30635" lon="-2.24679">
        <ele>40.599998474121</ele>
        <time>2019-08-08T08:55:30.000Z</time>
      </trkpt>
      <trkpt lat="47.30647" lon="-2.24727">
        <ele>40.599998474121</ele>
        <time>2019-08-08T08:55:35.000Z</time>
      </trkpt>
      <trkpt lat="47.30653" lon="-2.24742">
        <ele>40.599998474121</ele>
        <time>2019-08-08T08:55:37.000Z</time>
      </trkpt>
      <trkpt lat="47.30674" lon="-2.24783">
        <ele>40.599998474121</ele>
        <time>2019-08-08T08:55:43.000Z</time>
      </trkpt>
      <trkpt lat="47.30696" lon="-2.2481">
        <ele>40.599998474121</ele>
        <time>2019-08-08T08:55:48.000Z</time>
      </trkpt>
      <trkpt lat="47.30707" lon="-2.24826">
        <ele>40.599998474121</ele>
        <time>2019-08-08T08:55:51.000Z</time>
      </trkpt>
      <trkpt lat="47.30713" lon="-2.24839">
        <ele>40.599998474121</ele>
        <time>2019-08-08T08:55:53.000Z</time>
      </trkpt>
      <trkpt lat="47.30716" lon="-2.24847">
        <ele>40.599998474121</ele>
        <time>2019-08-08T08:55:54.000Z</time>
      </trkpt>
      <trkpt lat="47.30729" lon="-2.24867">
        <ele>40.599998474121</ele>
        <time>2019-08-08T08:55:57.000Z</time>
      </trkpt>
      <trkpt lat="47.30734" lon="-2.24872">
        <ele>40.599998474121</ele>
        <time>2019-08-08T08:55:58.000Z</time>
      </trkpt>
      <trkpt lat="47.30749" lon="-2.24885">
        <ele>40.599998474121</ele>
        <time>2019-08-08T08:56:01.000Z</time>
      </trkpt>
      <trkpt lat="47.30767" lon="-2.24893">
        <ele>40.599998474121</ele>
        <time>2019-08-08T08:56:04.000Z</time>
      </trkpt>
      <trkpt lat="47.30783" lon="-2.24901">
        <ele>40.599998474121</ele>
        <time>2019-08-08T08:56:07.000Z</time>
      </trkpt>
      <trkpt lat="47.30817" lon="-2.24913">
        <ele>40.599998474121</ele>
        <time>2019-08-08T08:56:13.000Z</time>
      </trkpt>
      <trkpt lat="47.30823" lon="-2.24913">
        <ele>40.599998474121</ele>
        <time>2019-08-08T08:56:14.000Z</time>
      </trkpt>
      <trkpt lat="47.30846" lon="-2.24904">
        <ele>40.599998474121</ele>
        <time>2019-08-08T08:56:18.000Z</time>
      </trkpt>
      <trkpt lat="47.30852" lon="-2.24899">
        <ele>40.599998474121</ele>
        <time>2019-08-08T08:56:19.000Z</time>
      </trkpt>
      <trkpt lat="47.30863" lon="-2.24885">
        <ele>40.599998474121</ele>
        <time>2019-08-08T08:56:21.000Z</time>
      </trkpt>
      <trkpt lat="47.30884" lon="-2.24855">
        <ele>40.200000762939</ele>
        <time>2019-08-08T08:56:25.000Z</time>
      </trkpt>
      <trkpt lat="47.30889" lon="-2.24848">
        <ele>39.799999237061</ele>
        <time>2019-08-08T08:56:26.000Z</time>
      </trkpt>
      <trkpt lat="47.30894" lon="-2.24841">
        <ele>39.400001525879</ele>
        <time>2019-08-08T08:56:27.000Z</time>
      </trkpt>
      <trkpt lat="47.30899" lon="-2.24835">
        <ele>39</ele>
        <time>2019-08-08T08:56:28.000Z</time>
      </trkpt>
      <trkpt lat="47.30905" lon="-2.24828">
        <ele>38.400001525879</ele>
        <time>2019-08-08T08:56:29.000Z</time>
      </trkpt>
      <trkpt lat="47.30941" lon="-2.24782">
        <ele>38.400001525879</ele>
        <time>2019-08-08T08:56:36.000Z</time>
      </trkpt>
      <trkpt lat="47.30952" lon="-2.2477">
        <ele>38.400001525879</ele>
        <time>2019-08-08T08:56:38.000Z</time>
      </trkpt>
      <trkpt lat="47.30971" lon="-2.24756">
        <ele>38.400001525879</ele>
        <time>2019-08-08T08:56:41.000Z</time>
      </trkpt>
      <trkpt lat="47.31001" lon="-2.24749">
        <ele>38.400001525879</ele>
        <time>2019-08-08T08:56:45.000Z</time>
      </trkpt>
      <trkpt lat="47.31016" lon="-2.24751">
        <ele>38.400001525879</ele>
        <time>2019-08-08T08:56:47.000Z</time>
      </trkpt>
      <trkpt lat="47.31038" lon="-2.24759">
        <ele>38.400001525879</ele>
        <time>2019-08-08T08:56:50.000Z</time>
      </trkpt>
      <trkpt lat="47.31073" lon="-2.24773">
        <ele>38.400001525879</ele>
        <time>2019-08-08T08:56:55.000Z</time>
      </trkpt>
      <trkpt lat="47.3108" lon="-2.24774">
        <ele>38.400001525879</ele>
        <time>2019-08-08T08:56:56.000Z</time>
      </trkpt>
      <trkpt lat="47.31101" lon="-2.24774">
        <ele>38.400001525879</ele>
        <time>2019-08-08T08:57:00.000Z</time>
      </trkpt>
      <trkpt lat="47.31117" lon="-2.24768">
        <ele>38.400001525879</ele>
        <time>2019-08-08T08:57:03.000Z</time>
      </trkpt>
      <trkpt lat="47.31127" lon="-2.2476">
        <ele>38.400001525879</ele>
        <time>2019-08-08T08:57:05.000Z</time>
      </trkpt>
      <trkpt lat="47.31137" lon="-2.24749">
        <ele>38.400001525879</ele>
        <time>2019-08-08T08:57:07.000Z</time>
      </trkpt>
      <trkpt lat="47.31152" lon="-2.24734">
        <ele>38.400001525879</ele>
        <time>2019-08-08T08:57:10.000Z</time>
      </trkpt>
      <trkpt lat="47.31174" lon="-2.24703">
        <ele>38.400001525879</ele>
        <time>2019-08-08T08:57:15.000Z</time>
      </trkpt>
      <trkpt lat="47.31191" lon="-2.24678">
        <ele>38.400001525879</ele>
        <time>2019-08-08T08:57:19.000Z</time>
      </trkpt>
      <trkpt lat="47.31201" lon="-2.24668">
        <ele>38.400001525879</ele>
        <time>2019-08-08T08:57:21.000Z</time>
      </trkpt>
      <trkpt lat="47.31223" lon="-2.24645">
        <ele>38.400001525879</ele>
        <time>2019-08-08T08:57:26.000Z</time>
      </trkpt>
      <trkpt lat="47.31228" lon="-2.2464">
        <ele>38.400001525879</ele>
        <time>2019-08-08T08:57:27.000Z</time>
      </trkpt>
      <trkpt lat="47.31232" lon="-2.24633">
        <ele>39</ele>
        <time>2019-08-08T08:57:28.000Z</time>
      </trkpt>
      <trkpt lat="47.31236" lon="-2.24627">
        <ele>39.400001525879</ele>
        <time>2019-08-08T08:57:29.000Z</time>
      </trkpt>
      <trkpt lat="47.3124" lon="-2.24622">
        <ele>39.799999237061</ele>
        <time>2019-08-08T08:57:30.000Z</time>
      </trkpt>
      <trkpt lat="47.31245" lon="-2.24619">
        <ele>40.200000762939</ele>
        <time>2019-08-08T08:57:31.000Z</time>
      </trkpt>
      <trkpt lat="47.3125" lon="-2.24615">
        <ele>40.599998474121</ele>
        <time>2019-08-08T08:57:32.000Z</time>
      </trkpt>
      <trkpt lat="47.31264" lon="-2.24602">
        <ele>40.599998474121</ele>
        <time>2019-08-08T08:57:35.000Z</time>
      </trkpt>
      <trkpt lat="47.31274" lon="-2.24593">
        <ele>40.599998474121</ele>
        <time>2019-08-08T08:57:37.000Z</time>
      </trkpt>
      <trkpt lat="47.31304" lon="-2.24563">
        <ele>40.599998474121</ele>
        <time>2019-08-08T08:57:43.000Z</time>
      </trkpt>
      <trkpt lat="47.31308" lon="-2.24558">
        <ele>40.599998474121</ele>
        <time>2019-08-08T08:57:44.000Z</time>
      </trkpt>
      <trkpt lat="47.31322" lon="-2.24543">
        <ele>40.599998474121</ele>
        <time>2019-08-08T08:57:47.000Z</time>
      </trkpt>
      <trkpt lat="47.31338" lon="-2.24529">
        <ele>40.599998474121</ele>
        <time>2019-08-08T08:57:50.000Z</time>
      </trkpt>
      <trkpt lat="47.31367" lon="-2.24496">
        <ele>40.599998474121</ele>
        <time>2019-08-08T08:57:56.000Z</time>
      </trkpt>
      <trkpt lat="47.31387" lon="-2.24474">
        <ele>40.599998474121</ele>
        <time>2019-08-08T08:58:00.000Z</time>
      </trkpt>
      <trkpt lat="47.31399" lon="-2.24464">
        <ele>40.599998474121</ele>
        <time>2019-08-08T08:58:02.000Z</time>
      </trkpt>
      <trkpt lat="47.31434" lon="-2.24425">
        <ele>40.599998474121</ele>
        <time>2019-08-08T08:58:09.000Z</time>
      </trkpt>
      <trkpt lat="47.31448" lon="-2.24406">
        <ele>40.599998474121</ele>
        <time>2019-08-08T08:58:12.000Z</time>
      </trkpt>
      <trkpt lat="47.31457" lon="-2.24396">
        <ele>40.599998474121</ele>
        <time>2019-08-08T08:58:14.000Z</time>
      </trkpt>
      <trkpt lat="47.31473" lon="-2.2439">
        <ele>40.599998474121</ele>
        <time>2019-08-08T08:58:17.000Z</time>
      </trkpt>
      <trkpt lat="47.31494" lon="-2.24379">
        <ele>40.599998474121</ele>
        <time>2019-08-08T08:58:21.000Z</time>
      </trkpt>
      <trkpt lat="47.31514" lon="-2.24379">
        <ele>40.599998474121</ele>
        <time>2019-08-08T08:58:25.000Z</time>
      </trkpt>
      <trkpt lat="47.31518" lon="-2.2438">
        <ele>40.599998474121</ele>
        <time>2019-08-08T08:58:26.000Z</time>
      </trkpt>
      <trkpt lat="47.31546" lon="-2.24381">
        <ele>40.599998474121</ele>
        <time>2019-08-08T08:58:32.000Z</time>
      </trkpt>
      <trkpt lat="47.31564" lon="-2.24388">
        <ele>40.200000762939</ele>
        <time>2019-08-08T08:58:36.000Z</time>
      </trkpt>
      <trkpt lat="47.31569" lon="-2.2439">
        <ele>39.799999237061</ele>
        <time>2019-08-08T08:58:37.000Z</time>
      </trkpt>
      <trkpt lat="47.31574" lon="-2.24393">
        <ele>39.400001525879</ele>
        <time>2019-08-08T08:58:38.000Z</time>
      </trkpt>
      <trkpt lat="47.31578" lon="-2.24396">
        <ele>39</ele>
        <time>2019-08-08T08:58:39.000Z</time>
      </trkpt>
      <trkpt lat="47.31581" lon="-2.24399">
        <ele>38.400001525879</ele>
        <time>2019-08-08T08:58:40.000Z</time>
      </trkpt>
      <trkpt lat="47.31592" lon="-2.24407">
        <ele>38.400001525879</ele>
        <time>2019-08-08T08:58:43.000Z</time>
      </trkpt>
      <trkpt lat="47.31595" lon="-2.24406">
        <ele>38.400001525879</ele>
        <time>2019-08-08T08:58:44.000Z</time>
      </trkpt>
      <trkpt lat="47.31604" lon="-2.24405">
        <ele>38.400001525879</ele>
        <time>2019-08-08T08:58:46.000Z</time>
      </trkpt>
      <trkpt lat="47.31621" lon="-2.24416">
        <ele>38.400001525879</ele>
        <time>2019-08-08T08:58:50.000Z</time>
      </trkpt>
      <trkpt lat="47.31626" lon="-2.24419">
        <ele>38.400001525879</ele>
        <time>2019-08-08T08:58:51.000Z</time>
      </trkpt>
      <trkpt lat="47.3164" lon="-2.24423">
        <ele>38.400001525879</ele>
        <time>2019-08-08T08:58:54.000Z</time>
      </trkpt>
      <trkpt lat="47.31649" lon="-2.24426">
        <ele>38.400001525879</ele>
        <time>2019-08-08T08:58:56.000Z</time>
      </trkpt>
      <trkpt lat="47.31658" lon="-2.24436">
        <ele>38.400001525879</ele>
        <time>2019-08-08T08:58:58.000Z</time>
      </trkpt>
      <trkpt lat="47.31664" lon="-2.2444">
        <ele>38.400001525879</ele>
        <time>2019-08-08T08:59:00.000Z</time>
      </trkpt>
      <trkpt lat="47.31666" lon="-2.2444">
        <ele>38.400001525879</ele>
        <time>2019-08-08T08:59:01.000Z</time>
      </trkpt>
      <trkpt lat="47.31667" lon="-2.24441">
        <ele>38.400001525879</ele>
        <time>2019-08-08T08:59:03.000Z</time>
      </trkpt>
      <trkpt lat="47.31673" lon="-2.24436">
        <ele>38.400001525879</ele>
        <time>2019-08-08T08:59:17.000Z</time>
      </trkpt>
      <trkpt lat="47.31674" lon="-2.24435">
        <ele>38.400001525879</ele>
        <time>2019-08-08T08:59:18.000Z</time>
      </trkpt>
      <trkpt lat="47.31689" lon="-2.24434">
        <ele>38.400001525879</ele>
        <time>2019-08-08T08:59:23.000Z</time>
      </trkpt>
      <trkpt lat="47.31704" lon="-2.2444">
        <ele>38.400001525879</ele>
        <time>2019-08-08T08:59:28.000Z</time>
      </trkpt>
      <trkpt lat="47.31713" lon="-2.24455">
        <ele>38.400001525879</ele>
        <time>2019-08-08T08:59:32.000Z</time>
      </trkpt>
      <trkpt lat="47.31726" lon="-2.24478">
        <ele>38</ele>
        <time>2019-08-08T08:59:37.000Z</time>
      </trkpt>
      <trkpt lat="47.31728" lon="-2.24484">
        <ele>37.599998474121</ele>
        <time>2019-08-08T08:59:38.000Z</time>
      </trkpt>
      <trkpt lat="47.31729" lon="-2.2449">
        <ele>37.200000762939</ele>
        <time>2019-08-08T08:59:39.000Z</time>
      </trkpt>
      <trkpt lat="47.3173" lon="-2.24496">
        <ele>36.799999237061</ele>
        <time>2019-08-08T08:59:40.000Z</time>
      </trkpt>
      <trkpt lat="47.31732" lon="-2.24502">
        <ele>36.400001525879</ele>
        <time>2019-08-08T08:59:41.000Z</time>
      </trkpt>
      <trkpt lat="47.31735" lon="-2.24513">
        <ele>36.400001525879</ele>
        <time>2019-08-08T08:59:43.000Z</time>
      </trkpt>
      <trkpt lat="47.31754" lon="-2.24565">
        <ele>36.400001525879</ele>
        <time>2019-08-08T08:59:51.000Z</time>
      </trkpt>
      <trkpt lat="47.31774" lon="-2.24611">
        <ele>36.400001525879</ele>
        <time>2019-08-08T08:59:58.000Z</time>
      </trkpt>
      <trkpt lat="47.31784" lon="-2.24625">
        <ele>36.400001525879</ele>
        <time>2019-08-08T09:00:01.000Z</time>
      </trkpt>
      <trkpt lat="47.31789" lon="-2.24624">
        <ele>36.400001525879</ele>
        <time>2019-08-08T09:00:02.000Z</time>
      </trkpt>
      <trkpt lat="47.31804" lon="-2.24616">
        <ele>36.400001525879</ele>
        <time>2019-08-08T09:00:05.000Z</time>
      </trkpt>
      <trkpt lat="47.31809" lon="-2.24614">
        <ele>36.400001525879</ele>
        <time>2019-08-08T09:00:06.000Z</time>
      </trkpt>
      <trkpt lat="47.31829" lon="-2.24608">
        <ele>36.400001525879</ele>
        <time>2019-08-08T09:00:10.000Z</time>
      </trkpt>
      <trkpt lat="47.31853" lon="-2.24598">
        <ele>36.400001525879</ele>
        <time>2019-08-08T09:00:15.000Z</time>
      </trkpt>
      <trkpt lat="47.31858" lon="-2.24598">
        <ele>36.400001525879</ele>
        <time>2019-08-08T09:00:16.000Z</time>
      </trkpt>
      <trkpt lat="47.31874" lon="-2.24603">
        <ele>36.400001525879</ele>
        <time>2019-08-08T09:00:19.000Z</time>
      </trkpt>
      <trkpt lat="47.3188" lon="-2.24617">
        <ele>36.400001525879</ele>
        <time>2019-08-08T09:00:22.000Z</time>
      </trkpt>
      <trkpt lat="47.31881" lon="-2.24622">
        <ele>36.400001525879</ele>
        <time>2019-08-08T09:00:23.000Z</time>
      </trkpt>
      <trkpt lat="47.31891" lon="-2.24635">
        <ele>36.400001525879</ele>
        <time>2019-08-08T09:00:27.000Z</time>
      </trkpt>
      <trkpt lat="47.319" lon="-2.24637">
        <ele>36.400001525879</ele>
        <time>2019-08-08T09:00:29.000Z</time>
      </trkpt>
      <trkpt lat="47.3191" lon="-2.24637">
        <ele>36.400001525879</ele>
        <time>2019-08-08T09:00:31.000Z</time>
      </trkpt>
      <trkpt lat="47.31936" lon="-2.24642">
        <ele>36.400001525879</ele>
        <time>2019-08-08T09:00:36.000Z</time>
      </trkpt>
      <trkpt lat="47.3194" lon="-2.24644">
        <ele>36.400001525879</ele>
        <time>2019-08-08T09:00:37.000Z</time>
      </trkpt>
      <trkpt lat="47.31964" lon="-2.24663">
        <ele>36.400001525879</ele>
        <time>2019-08-08T09:00:42.000Z</time>
      </trkpt>
      <trkpt lat="47.31979" lon="-2.24684">
        <ele>36.400001525879</ele>
        <time>2019-08-08T09:00:46.000Z</time>
      </trkpt>
      <trkpt lat="47.31982" lon="-2.24689">
        <ele>36.400001525879</ele>
        <time>2019-08-08T09:00:47.000Z</time>
      </trkpt>
      <trkpt lat="47.32" lon="-2.24728">
        <ele>36.400001525879</ele>
        <time>2019-08-08T09:00:54.000Z</time>
      </trkpt>
      <trkpt lat="47.32004" lon="-2.24729">
        <ele>36.400001525879</ele>
        <time>2019-08-08T09:00:55.000Z</time>
      </trkpt>
      <trkpt lat="47.32013" lon="-2.24725">
        <ele>36.400001525879</ele>
        <time>2019-08-08T09:00:57.000Z</time>
      </trkpt>
      <trkpt lat="47.32024" lon="-2.24721">
        <ele>36.400001525879</ele>
        <time>2019-08-08T09:00:59.000Z</time>
      </trkpt>
      <trkpt lat="47.32033" lon="-2.2473">
        <ele>36.400001525879</ele>
        <time>2019-08-08T09:01:01.000Z</time>
      </trkpt>
      <trkpt lat="47.32042" lon="-2.24751">
        <ele>36.400001525879</ele>
        <time>2019-08-08T09:01:04.000Z</time>
      </trkpt>
      <trkpt lat="47.32045" lon="-2.24757">
        <ele>36.400001525879</ele>
        <time>2019-08-08T09:01:05.000Z</time>
      </trkpt>
      <trkpt lat="47.32056" lon="-2.24777">
        <ele>36.400001525879</ele>
        <time>2019-08-08T09:01:08.000Z</time>
      </trkpt>
      <trkpt lat="47.32062" lon="-2.24792">
        <ele>36.400001525879</ele>
        <time>2019-08-08T09:01:10.000Z</time>
      </trkpt>
      <trkpt lat="47.32086" lon="-2.24841">
        <ele>36.400001525879</ele>
        <time>2019-08-08T09:01:17.000Z</time>
      </trkpt>
      <trkpt lat="47.3211" lon="-2.2489">
        <ele>36.400001525879</ele>
        <time>2019-08-08T09:01:24.000Z</time>
      </trkpt>
      <trkpt lat="47.32133" lon="-2.24938">
        <ele>36.400001525879</ele>
        <time>2019-08-08T09:01:31.000Z</time>
      </trkpt>
      <trkpt lat="47.32152" lon="-2.24979">
        <ele>36.400001525879</ele>
        <time>2019-08-08T09:01:37.000Z</time>
      </trkpt>
      <trkpt lat="47.32162" lon="-2.24999">
        <ele>36.400001525879</ele>
        <time>2019-08-08T09:01:41.000Z</time>
      </trkpt>
      <trkpt lat="47.32168" lon="-2.25013">
        <ele>36.400001525879</ele>
        <time>2019-08-08T09:01:44.000Z</time>
      </trkpt>
      <trkpt lat="47.32171" lon="-2.25018">
        <ele>36.400001525879</ele>
        <time>2019-08-08T09:01:45.000Z</time>
      </trkpt>
      <trkpt lat="47.32179" lon="-2.25037">
        <ele>36.400001525879</ele>
        <time>2019-08-08T09:01:48.000Z</time>
      </trkpt>
      <trkpt lat="47.32185" lon="-2.25049">
        <ele>36.400001525879</ele>
        <time>2019-08-08T09:01:50.000Z</time>
      </trkpt>
      <trkpt lat="47.32206" lon="-2.25095">
        <ele>36.400001525879</ele>
        <time>2019-08-08T09:01:57.000Z</time>
      </trkpt>
      <trkpt lat="47.32228" lon="-2.25142">
        <ele>36.400001525879</ele>
        <time>2019-08-08T09:02:04.000Z</time>
      </trkpt>
      <trkpt lat="47.32252" lon="-2.25192">
        <ele>36.400001525879</ele>
        <time>2019-08-08T09:02:12.000Z</time>
      </trkpt>
      <trkpt lat="47.32267" lon="-2.25223">
        <ele>36.400001525879</ele>
        <time>2019-08-08T09:02:17.000Z</time>
      </trkpt>
      <trkpt lat="47.32274" lon="-2.25235">
        <ele>36.400001525879</ele>
        <time>2019-08-08T09:02:19.000Z</time>
      </trkpt>
      <trkpt lat="47.32284" lon="-2.25254">
        <ele>36.400001525879</ele>
        <time>2019-08-08T09:02:22.000Z</time>
      </trkpt>
      <trkpt lat="47.32287" lon="-2.25261">
        <ele>36.400001525879</ele>
        <time>2019-08-08T09:02:23.000Z</time>
      </trkpt>
      <trkpt lat="47.323" lon="-2.25288">
        <ele>36.400001525879</ele>
        <time>2019-08-08T09:02:27.000Z</time>
      </trkpt>
      <trkpt lat="47.32303" lon="-2.25295">
        <ele>36.400001525879</ele>
        <time>2019-08-08T09:02:28.000Z</time>
      </trkpt>
      <trkpt lat="47.32306" lon="-2.25301">
        <ele>36.400001525879</ele>
        <time>2019-08-08T09:02:29.000Z</time>
      </trkpt>
      <trkpt lat="47.32314" lon="-2.25321">
        <ele>36.400001525879</ele>
        <time>2019-08-08T09:02:32.000Z</time>
      </trkpt>
      <trkpt lat="47.32325" lon="-2.25338">
        <ele>36.400001525879</ele>
        <time>2019-08-08T09:02:35.000Z</time>
      </trkpt>
      <trkpt lat="47.32328" lon="-2.25344">
        <ele>36.400001525879</ele>
        <time>2019-08-08T09:02:36.000Z</time>
      </trkpt>
      <trkpt lat="47.32331" lon="-2.2535">
        <ele>36.400001525879</ele>
        <time>2019-08-08T09:02:37.000Z</time>
      </trkpt>
      <trkpt lat="47.32346" lon="-2.25384">
        <ele>36.400001525879</ele>
        <time>2019-08-08T09:02:42.000Z</time>
      </trkpt>
      <trkpt lat="47.32358" lon="-2.2541">
        <ele>36.400001525879</ele>
        <time>2019-08-08T09:02:46.000Z</time>
      </trkpt>
      <trkpt lat="47.32365" lon="-2.25424">
        <ele>36.400001525879</ele>
        <time>2019-08-08T09:02:48.000Z</time>
      </trkpt>
      <trkpt lat="47.32373" lon="-2.25435">
        <ele>36.400001525879</ele>
        <time>2019-08-08T09:02:50.000Z</time>
      </trkpt>
      <trkpt lat="47.32378" lon="-2.25449">
        <ele>36.400001525879</ele>
        <time>2019-08-08T09:02:52.000Z</time>
      </trkpt>
      <trkpt lat="47.32384" lon="-2.25462">
        <ele>36.400001525879</ele>
        <time>2019-08-08T09:02:54.000Z</time>
      </trkpt>
      <trkpt lat="47.32394" lon="-2.25482">
        <ele>36.400001525879</ele>
        <time>2019-08-08T09:02:57.000Z</time>
      </trkpt>
      <trkpt lat="47.3241" lon="-2.25515">
        <ele>36.400001525879</ele>
        <time>2019-08-08T09:03:02.000Z</time>
      </trkpt>
      <trkpt lat="47.32417" lon="-2.25529">
        <ele>36.400001525879</ele>
        <time>2019-08-08T09:03:04.000Z</time>
      </trkpt>
      <trkpt lat="47.32439" lon="-2.25579">
        <ele>36.400001525879</ele>
        <time>2019-08-08T09:03:11.000Z</time>
      </trkpt>
      <trkpt lat="47.32448" lon="-2.25607">
        <ele>36.400001525879</ele>
        <time>2019-08-08T09:03:15.000Z</time>
      </trkpt>
      <trkpt lat="47.32448" lon="-2.25614">
        <ele>36.400001525879</ele>
        <time>2019-08-08T09:03:16.000Z</time>
      </trkpt>
      <trkpt lat="47.32437" lon="-2.25628">
        <ele>36.400001525879</ele>
        <time>2019-08-08T09:03:19.000Z</time>
      </trkpt>
      <trkpt lat="47.32427" lon="-2.25631">
        <ele>36.400001525879</ele>
        <time>2019-08-08T09:03:21.000Z</time>
      </trkpt>
      <trkpt lat="47.32417" lon="-2.25637">
        <ele>36.400001525879</ele>
        <time>2019-08-08T09:03:23.000Z</time>
      </trkpt>
      <trkpt lat="47.32386" lon="-2.25651">
        <ele>36.400001525879</ele>
        <time>2019-08-08T09:03:29.000Z</time>
      </trkpt>
      <trkpt lat="47.32344" lon="-2.25665">
        <ele>36.400001525879</ele>
        <time>2019-08-08T09:03:37.000Z</time>
      </trkpt>
      <trkpt lat="47.32313" lon="-2.25674">
        <ele>36.400001525879</ele>
        <time>2019-08-08T09:03:43.000Z</time>
      </trkpt>
      <trkpt lat="47.32303" lon="-2.25676">
        <ele>36.400001525879</ele>
        <time>2019-08-08T09:03:45.000Z</time>
      </trkpt>
      <trkpt lat="47.32282" lon="-2.2568">
        <ele>36.400001525879</ele>
        <time>2019-08-08T09:03:49.000Z</time>
      </trkpt>
      <trkpt lat="47.32277" lon="-2.25683">
        <ele>36.400001525879</ele>
        <time>2019-08-08T09:03:50.000Z</time>
      </trkpt>
      <trkpt lat="47.32246" lon="-2.25694">
        <ele>36.400001525879</ele>
        <time>2019-08-08T09:03:56.000Z</time>
      </trkpt>
      <trkpt lat="47.32235" lon="-2.25696">
        <ele>36.400001525879</ele>
        <time>2019-08-08T09:03:58.000Z</time>
      </trkpt>
      <trkpt lat="47.32213" lon="-2.25696">
        <ele>36.400001525879</ele>
        <time>2019-08-08T09:04:02.000Z</time>
      </trkpt>
      <trkpt lat="47.32202" lon="-2.25694">
        <ele>36.400001525879</ele>
        <time>2019-08-08T09:04:04.000Z</time>
      </trkpt>
      <trkpt lat="47.32186" lon="-2.25691">
        <ele>36.400001525879</ele>
        <time>2019-08-08T09:04:07.000Z</time>
      </trkpt>
      <trkpt lat="47.32163" lon="-2.25699">
        <ele>36.400001525879</ele>
        <time>2019-08-08T09:04:12.000Z</time>
      </trkpt>
      <trkpt lat="47.3214" lon="-2.25716">
        <ele>36.400001525879</ele>
        <time>2019-08-08T09:04:18.000Z</time>
      </trkpt>
      <trkpt lat="47.32118" lon="-2.25728">
        <ele>36.400001525879</ele>
        <time>2019-08-08T09:04:24.000Z</time>
      </trkpt>
      <trkpt lat="47.32099" lon="-2.25736">
        <ele>36.400001525879</ele>
        <time>2019-08-08T09:04:30.000Z</time>
      </trkpt>
      <trkpt lat="47.32075" lon="-2.25747">
        <ele>36.400001525879</ele>
        <time>2019-08-08T09:04:37.000Z</time>
      </trkpt>
      <trkpt lat="47.32052" lon="-2.2575">
        <ele>36.400001525879</ele>
        <time>2019-08-08T09:04:43.000Z</time>
      </trkpt>
      <trkpt lat="47.32037" lon="-2.25743">
        <ele>36.400001525879</ele>
        <time>2019-08-08T09:04:48.000Z</time>
      </trkpt>
      <trkpt lat="47.32034" lon="-2.25742">
        <ele>36.400001525879</ele>
        <time>2019-08-08T09:04:49.000Z</time>
      </trkpt>
      <trkpt lat="47.32023" lon="-2.25738">
        <ele>36.400001525879</ele>
        <time>2019-08-08T09:04:56.000Z</time>
      </trkpt>
      <trkpt lat="47.3202" lon="-2.25737">
        <ele>36.400001525879</ele>
        <time>2019-08-08T09:05:24.000Z</time>
      </trkpt>
      <trkpt lat="47.32017" lon="-2.25735">
        <ele>36.400001525879</ele>
        <time>2019-08-08T09:05:26.000Z</time>
      </trkpt>
      <trkpt lat="47.32008" lon="-2.25732">
        <ele>36.400001525879</ele>
        <time>2019-08-08T09:05:31.000Z</time>
      </trkpt>
      <trkpt lat="47.3199" lon="-2.25725">
        <ele>36.400001525879</ele>
        <time>2019-08-08T09:05:38.000Z</time>
      </trkpt>
      <trkpt lat="47.31973" lon="-2.25718">
        <ele>36.400001525879</ele>
        <time>2019-08-08T09:05:44.000Z</time>
      </trkpt>
      <trkpt lat="47.31946" lon="-2.25707">
        <ele>36.400001525879</ele>
        <time>2019-08-08T09:05:52.000Z</time>
      </trkpt>
      <trkpt lat="47.3193" lon="-2.25704">
        <ele>36.400001525879</ele>
        <time>2019-08-08T09:05:57.000Z</time>
      </trkpt>
      <trkpt lat="47.3191" lon="-2.25712">
        <ele>36.400001525879</ele>
        <time>2019-08-08T09:06:03.000Z</time>
      </trkpt>
      <trkpt lat="47.31883" lon="-2.25727">
        <ele>36.400001525879</ele>
        <time>2019-08-08T09:06:11.000Z</time>
      </trkpt>
      <trkpt lat="47.31862" lon="-2.25736">
        <ele>36.400001525879</ele>
        <time>2019-08-08T09:06:17.000Z</time>
      </trkpt>
      <trkpt lat="47.31836" lon="-2.25746">
        <ele>36.400001525879</ele>
        <time>2019-08-08T09:06:24.000Z</time>
      </trkpt>
      <trkpt lat="47.31803" lon="-2.25757">
        <ele>36.400001525879</ele>
        <time>2019-08-08T09:06:33.000Z</time>
      </trkpt>
      <trkpt lat="47.31771" lon="-2.25767">
        <ele>36.400001525879</ele>
        <time>2019-08-08T09:06:41.000Z</time>
      </trkpt>
      <trkpt lat="47.31767" lon="-2.2577">
        <ele>36.400001525879</ele>
        <time>2019-08-08T09:06:42.000Z</time>
      </trkpt>
      <trkpt lat="47.31745" lon="-2.2578">
        <ele>36.400001525879</ele>
        <time>2019-08-08T09:06:47.000Z</time>
      </trkpt>
      <trkpt lat="47.31732" lon="-2.25785">
        <ele>36.400001525879</ele>
        <time>2019-08-08T09:06:50.000Z</time>
      </trkpt>
      <trkpt lat="47.31718" lon="-2.2579">
        <ele>36.400001525879</ele>
        <time>2019-08-08T09:06:53.000Z</time>
      </trkpt>
      <trkpt lat="47.31686" lon="-2.25792">
        <ele>36.400001525879</ele>
        <time>2019-08-08T09:06:59.000Z</time>
      </trkpt>
      <trkpt lat="47.31653" lon="-2.25795">
        <ele>36.400001525879</ele>
        <time>2019-08-08T09:07:05.000Z</time>
      </trkpt>
      <trkpt lat="47.31626" lon="-2.258">
        <ele>36.400001525879</ele>
        <time>2019-08-08T09:07:10.000Z</time>
      </trkpt>
      <trkpt lat="47.31621" lon="-2.25802">
        <ele>36.400001525879</ele>
        <time>2019-08-08T09:07:11.000Z</time>
      </trkpt>
      <trkpt lat="47.31589" lon="-2.2582">
        <ele>36.400001525879</ele>
        <time>2019-08-08T09:07:18.000Z</time>
      </trkpt>
      <trkpt lat="47.31582" lon="-2.25842">
        <ele>36.400001525879</ele>
        <time>2019-08-08T09:07:22.000Z</time>
      </trkpt>
      <trkpt lat="47.31576" lon="-2.25858">
        <ele>36.400001525879</ele>
        <time>2019-08-08T09:07:27.000Z</time>
      </trkpt>
      <trkpt lat="47.31575" lon="-2.25857">
        <ele>36.400001525879</ele>
        <time>2019-08-08T09:07:30.000Z</time>
      </trkpt>
      <trkpt lat="47.31568" lon="-2.25869">
        <ele>36.400001525879</ele>
        <time>2019-08-08T09:11:04.000Z</time>
      </trkpt>
      <trkpt lat="47.31563" lon="-2.25877">
        <ele>36.400001525879</ele>
        <time>2019-08-08T09:11:08.000Z</time>
      </trkpt>
      <trkpt lat="47.31554" lon="-2.25891">
        <ele>36.400001525879</ele>
        <time>2019-08-08T09:11:14.000Z</time>
      </trkpt>
      <trkpt lat="47.31548" lon="-2.25903">
        <ele>36.400001525879</ele>
        <time>2019-08-08T09:11:19.000Z</time>
      </trkpt>
      <trkpt lat="47.31546" lon="-2.2591">
        <ele>36.400001525879</ele>
        <time>2019-08-08T09:11:24.000Z</time>
      </trkpt>
      <trkpt lat="47.31546" lon="-2.25906">
        <ele>36.400001525879</ele>
        <time>2019-08-08T09:20:14.000Z</time>
      </trkpt>
      <trkpt lat="47.31552" lon="-2.25895">
        <ele>36.400001525879</ele>
        <time>2019-08-08T09:20:19.000Z</time>
      </trkpt>
      <trkpt lat="47.31563" lon="-2.25876">
        <ele>36.400001525879</ele>
        <time>2019-08-08T09:20:26.000Z</time>
      </trkpt>
      <trkpt lat="47.31569" lon="-2.25872">
        <ele>36.400001525879</ele>
        <time>2019-08-08T09:20:32.000Z</time>
      </trkpt>
      <trkpt lat="47.31575" lon="-2.25858">
        <ele>36.400001525879</ele>
        <time>2019-08-08T09:21:46.000Z</time>
      </trkpt>
      <trkpt lat="47.31581" lon="-2.25847">
        <ele>36.400001525879</ele>
        <time>2019-08-08T09:21:50.000Z</time>
      </trkpt>
      <trkpt lat="47.31584" lon="-2.25842">
        <ele>36.400001525879</ele>
        <time>2019-08-08T09:21:51.000Z</time>
      </trkpt>
      <trkpt lat="47.316" lon="-2.25814">
        <ele>36.400001525879</ele>
        <time>2019-08-08T09:21:58.000Z</time>
      </trkpt>
      <trkpt lat="47.31604" lon="-2.25812">
        <ele>36.400001525879</ele>
        <time>2019-08-08T09:21:59.000Z</time>
      </trkpt>
      <trkpt lat="47.31618" lon="-2.25808">
        <ele>36.400001525879</ele>
        <time>2019-08-08T09:22:02.000Z</time>
      </trkpt>
      <trkpt lat="47.31639" lon="-2.25799">
        <ele>36.400001525879</ele>
        <time>2019-08-08T09:22:07.000Z</time>
      </trkpt>
      <trkpt lat="47.3167" lon="-2.25794">
        <ele>36.400001525879</ele>
        <time>2019-08-08T09:22:14.000Z</time>
      </trkpt>
      <trkpt lat="47.31679" lon="-2.25793">
        <ele>36.400001525879</ele>
        <time>2019-08-08T09:22:16.000Z</time>
      </trkpt>
      <trkpt lat="47.31689" lon="-2.25792">
        <ele>36.400001525879</ele>
        <time>2019-08-08T09:22:18.000Z</time>
      </trkpt>
      <trkpt lat="47.31699" lon="-2.25792">
        <ele>36.400001525879</ele>
        <time>2019-08-08T09:22:20.000Z</time>
      </trkpt>
      <trkpt lat="47.31708" lon="-2.25791">
        <ele>36.400001525879</ele>
        <time>2019-08-08T09:22:22.000Z</time>
      </trkpt>
      <trkpt lat="47.31728" lon="-2.25787">
        <ele>36.400001525879</ele>
        <time>2019-08-08T09:22:26.000Z</time>
      </trkpt>
      <trkpt lat="47.31761" lon="-2.25774">
        <ele>36.400001525879</ele>
        <time>2019-08-08T09:22:33.000Z</time>
      </trkpt>
      <trkpt lat="47.31771" lon="-2.2577">
        <ele>36.400001525879</ele>
        <time>2019-08-08T09:22:35.000Z</time>
      </trkpt>
      <trkpt lat="47.3179" lon="-2.25763">
        <ele>36.400001525879</ele>
        <time>2019-08-08T09:22:39.000Z</time>
      </trkpt>
      <trkpt lat="47.3181" lon="-2.25756">
        <ele>36.400001525879</ele>
        <time>2019-08-08T09:22:43.000Z</time>
      </trkpt>
      <trkpt lat="47.31821" lon="-2.25753">
        <ele>36.400001525879</ele>
        <time>2019-08-08T09:22:45.000Z</time>
      </trkpt>
      <trkpt lat="47.31849" lon="-2.25742">
        <ele>36.400001525879</ele>
        <time>2019-08-08T09:22:51.000Z</time>
      </trkpt>
      <trkpt lat="47.31856" lon="-2.2574">
        <ele>36.400001525879</ele>
        <time>2019-08-08T09:22:55.000Z</time>
      </trkpt>
      <trkpt lat="47.31869" lon="-2.25735">
        <ele>36.400001525879</ele>
        <time>2019-08-08T09:23:01.000Z</time>
      </trkpt>
      <trkpt lat="47.31884" lon="-2.25726">
        <ele>36.400001525879</ele>
        <time>2019-08-08T09:23:07.000Z</time>
      </trkpt>
      <trkpt lat="47.31903" lon="-2.25718">
        <ele>36.400001525879</ele>
        <time>2019-08-08T09:23:14.000Z</time>
      </trkpt>
      <trkpt lat="47.31924" lon="-2.25709">
        <ele>36.400001525879</ele>
        <time>2019-08-08T09:23:19.000Z</time>
      </trkpt>
      <trkpt lat="47.31934" lon="-2.25706">
        <ele>36.400001525879</ele>
        <time>2019-08-08T09:23:21.000Z</time>
      </trkpt>
      <trkpt lat="47.31949" lon="-2.25709">
        <ele>36.400001525879</ele>
        <time>2019-08-08T09:23:24.000Z</time>
      </trkpt>
      <trkpt lat="47.31969" lon="-2.25716">
        <ele>36.400001525879</ele>
        <time>2019-08-08T09:23:28.000Z</time>
      </trkpt>
      <trkpt lat="47.3198" lon="-2.25721">
        <ele>36.400001525879</ele>
        <time>2019-08-08T09:23:30.000Z</time>
      </trkpt>
      <trkpt lat="47.32014" lon="-2.25736">
        <ele>36.400001525879</ele>
        <time>2019-08-08T09:23:37.000Z</time>
      </trkpt>
      <trkpt lat="47.32034" lon="-2.25745">
        <ele>36.400001525879</ele>
        <time>2019-08-08T09:23:42.000Z</time>
      </trkpt>
      <trkpt lat="47.3205" lon="-2.2575">
        <ele>36.400001525879</ele>
        <time>2019-08-08T09:23:47.000Z</time>
      </trkpt>
      <trkpt lat="47.32068" lon="-2.25753">
        <ele>36.400001525879</ele>
        <time>2019-08-08T09:23:54.000Z</time>
      </trkpt>
      <trkpt lat="47.32077" lon="-2.2575">
        <ele>36.400001525879</ele>
        <time>2019-08-08T09:24:00.000Z</time>
      </trkpt>
      <trkpt lat="47.32077" lon="-2.2575">
        <ele>36.400001525879</ele>
        <time>2019-08-08T09:24:01.000Z</time>
      </trkpt>
      <trkpt lat="47.3208" lon="-2.2575">
        <ele>36.400001525879</ele>
        <time>2019-08-08T09:25:05.000Z</time>
      </trkpt>
      <trkpt lat="47.32081" lon="-2.2575">
        <ele>36.400001525879</ele>
        <time>2019-08-08T09:25:06.000Z</time>
      </trkpt>
      <trkpt lat="47.32083" lon="-2.25749">
        <ele>36.400001525879</ele>
        <time>2019-08-08T09:25:09.000Z</time>
      </trkpt>
      <trkpt lat="47.32084" lon="-2.25749">
        <ele>36.400001525879</ele>
        <time>2019-08-08T09:25:13.000Z</time>
      </trkpt>
      <trkpt lat="47.32086" lon="-2.25749">
        <ele>36.400001525879</ele>
        <time>2019-08-08T09:25:14.000Z</time>
      </trkpt>
      <trkpt lat="47.32088" lon="-2.25747">
        <ele>36.400001525879</ele>
        <time>2019-08-08T09:25:16.000Z</time>
      </trkpt>
      <trkpt lat="47.32091" lon="-2.2575">
        <ele>36.400001525879</ele>
        <time>2019-08-08T09:25:19.000Z</time>
      </trkpt>
      <trkpt lat="47.32094" lon="-2.25756">
        <ele>36.400001525879</ele>
        <time>2019-08-08T09:25:21.000Z</time>
      </trkpt>
      <trkpt lat="47.32096" lon="-2.25763">
        <ele>36.400001525879</ele>
        <time>2019-08-08T09:25:24.000Z</time>
      </trkpt>
      <trkpt lat="47.32101" lon="-2.25774">
        <ele>36.400001525879</ele>
        <time>2019-08-08T09:25:29.000Z</time>
      </trkpt>
      <trkpt lat="47.32104" lon="-2.25781">
        <ele>36.400001525879</ele>
        <time>2019-08-08T09:25:32.000Z</time>
      </trkpt>
      <trkpt lat="47.32107" lon="-2.25787">
        <ele>36.400001525879</ele>
        <time>2019-08-08T09:25:34.000Z</time>
      </trkpt>
      <trkpt lat="47.32111" lon="-2.25789">
        <ele>36.400001525879</ele>
        <time>2019-08-08T09:25:36.000Z</time>
      </trkpt>
      <trkpt lat="47.32117" lon="-2.25794">
        <ele>36.400001525879</ele>
        <time>2019-08-08T09:25:38.000Z</time>
      </trkpt>
      <trkpt lat="47.32136" lon="-2.25807">
        <ele>36.400001525879</ele>
        <time>2019-08-08T09:25:44.000Z</time>
      </trkpt>
      <trkpt lat="47.32161" lon="-2.25825">
        <ele>36.400001525879</ele>
        <time>2019-08-08T09:25:51.000Z</time>
      </trkpt>
      <trkpt lat="47.32165" lon="-2.25828">
        <ele>36.400001525879</ele>
        <time>2019-08-08T09:25:52.000Z</time>
      </trkpt>
      <trkpt lat="47.3218" lon="-2.25837">
        <ele>36.400001525879</ele>
        <time>2019-08-08T09:25:56.000Z</time>
      </trkpt>
      <trkpt lat="47.32187" lon="-2.25844">
        <ele>36.400001525879</ele>
        <time>2019-08-08T09:25:58.000Z</time>
      </trkpt>
      <trkpt lat="47.32191" lon="-2.25846">
        <ele>36.400001525879</ele>
        <time>2019-08-08T09:25:59.000Z</time>
      </trkpt>
      <trkpt lat="47.32207" lon="-2.25859">
        <ele>36.400001525879</ele>
        <time>2019-08-08T09:26:03.000Z</time>
      </trkpt>
      <trkpt lat="47.32223" lon="-2.25872">
        <ele>36.400001525879</ele>
        <time>2019-08-08T09:26:07.000Z</time>
      </trkpt>
      <trkpt lat="47.32232" lon="-2.25878">
        <ele>36.400001525879</ele>
        <time>2019-08-08T09:26:09.000Z</time>
      </trkpt>
      <trkpt lat="47.32237" lon="-2.2588">
        <ele>36.400001525879</ele>
        <time>2019-08-08T09:26:10.000Z</time>
      </trkpt>
      <trkpt lat="47.32246" lon="-2.25887">
        <ele>36.400001525879</ele>
        <time>2019-08-08T09:26:12.000Z</time>
      </trkpt>
      <trkpt lat="47.32255" lon="-2.25893">
        <ele>36.400001525879</ele>
        <time>2019-08-08T09:26:14.000Z</time>
      </trkpt>
      <trkpt lat="47.32264" lon="-2.259">
        <ele>36.400001525879</ele>
        <time>2019-08-08T09:26:16.000Z</time>
      </trkpt>
      <trkpt lat="47.32285" lon="-2.2592">
        <ele>36.400001525879</ele>
        <time>2019-08-08T09:26:21.000Z</time>
      </trkpt>
      <trkpt lat="47.32314" lon="-2.25946">
        <ele>36.400001525879</ele>
        <time>2019-08-08T09:26:28.000Z</time>
      </trkpt>
      <trkpt lat="47.32322" lon="-2.25953">
        <ele>36.400001525879</ele>
        <time>2019-08-08T09:26:30.000Z</time>
      </trkpt>
      <trkpt lat="47.32335" lon="-2.25963">
        <ele>36.400001525879</ele>
        <time>2019-08-08T09:26:33.000Z</time>
      </trkpt>
      <trkpt lat="47.3235" lon="-2.25979">
        <ele>36.400001525879</ele>
        <time>2019-08-08T09:26:37.000Z</time>
      </trkpt>
      <trkpt lat="47.32354" lon="-2.25983">
        <ele>36.400001525879</ele>
        <time>2019-08-08T09:26:38.000Z</time>
      </trkpt>
      <trkpt lat="47.32385" lon="-2.26013">
        <ele>36.400001525879</ele>
        <time>2019-08-08T09:26:46.000Z</time>
      </trkpt>
      <trkpt lat="47.32397" lon="-2.26024">
        <ele>36.400001525879</ele>
        <time>2019-08-08T09:26:49.000Z</time>
      </trkpt>
      <trkpt lat="47.32409" lon="-2.26037">
        <ele>36.400001525879</ele>
        <time>2019-08-08T09:26:52.000Z</time>
      </trkpt>
      <trkpt lat="47.32428" lon="-2.26051">
        <ele>36.400001525879</ele>
        <time>2019-08-08T09:26:56.000Z</time>
      </trkpt>
      <trkpt lat="47.32439" lon="-2.26056">
        <ele>36.400001525879</ele>
        <time>2019-08-08T09:26:58.000Z</time>
      </trkpt>
      <trkpt lat="47.3245" lon="-2.2606">
        <ele>36.400001525879</ele>
        <time>2019-08-08T09:27:00.000Z</time>
      </trkpt>
      <trkpt lat="47.32467" lon="-2.26057">
        <ele>36.400001525879</ele>
        <time>2019-08-08T09:27:03.000Z</time>
      </trkpt>
      <trkpt lat="47.32482" lon="-2.26044">
        <ele>36.400001525879</ele>
        <time>2019-08-08T09:27:06.000Z</time>
      </trkpt>
      <trkpt lat="47.32487" lon="-2.2604">
        <ele>36.400001525879</ele>
        <time>2019-08-08T09:27:07.000Z</time>
      </trkpt>
      <trkpt lat="47.32493" lon="-2.26037">
        <ele>36.400001525879</ele>
        <time>2019-08-08T09:27:08.000Z</time>
      </trkpt>
      <trkpt lat="47.32514" lon="-2.2602">
        <ele>36.400001525879</ele>
        <time>2019-08-08T09:27:12.000Z</time>
      </trkpt>
      <trkpt lat="47.32548" lon="-2.2599">
        <ele>36.400001525879</ele>
        <time>2019-08-08T09:27:19.000Z</time>
      </trkpt>
      <trkpt lat="47.32567" lon="-2.25975">
        <ele>36.400001525879</ele>
        <time>2019-08-08T09:27:23.000Z</time>
      </trkpt>
      <trkpt lat="47.32576" lon="-2.2597">
        <ele>36.400001525879</ele>
        <time>2019-08-08T09:27:25.000Z</time>
      </trkpt>
      <trkpt lat="47.32593" lon="-2.25967">
        <ele>36.400001525879</ele>
        <time>2019-08-08T09:27:30.000Z</time>
      </trkpt>
      <trkpt lat="47.32597" lon="-2.25973">
        <ele>36.400001525879</ele>
        <time>2019-08-08T09:27:32.000Z</time>
      </trkpt>
      <trkpt lat="47.32601" lon="-2.2598">
        <ele>36.400001525879</ele>
        <time>2019-08-08T09:27:34.000Z</time>
      </trkpt>
      <trkpt lat="47.32604" lon="-2.2599">
        <ele>36.400001525879</ele>
        <time>2019-08-08T09:27:38.000Z</time>
      </trkpt>
      <trkpt lat="47.32605" lon="-2.26004">
        <ele>36.400001525879</ele>
        <time>2019-08-08T09:27:43.000Z</time>
      </trkpt>
      <trkpt lat="47.32603" lon="-2.26005">
        <ele>36.400001525879</ele>
        <time>2019-08-08T09:27:44.000Z</time>
      </trkpt>
      <trkpt lat="47.32603" lon="-2.26005">
        <ele>36.400001525879</ele>
        <time>2019-08-08T09:27:47.000Z</time>
      </trkpt>
      <trkpt lat="47.32602" lon="-2.26009">
        <ele>36.400001525879</ele>
        <time>2019-08-08T09:30:23.000Z</time>
      </trkpt>
      <trkpt lat="47.32599" lon="-2.26018">
        <ele>36.400001525879</ele>
        <time>2019-08-08T09:30:26.000Z</time>
      </trkpt>
      <trkpt lat="47.326" lon="-2.26034">
        <ele>36.400001525879</ele>
        <time>2019-08-08T09:30:30.000Z</time>
      </trkpt>
      <trkpt lat="47.32604" lon="-2.26046">
        <ele>36.400001525879</ele>
        <time>2019-08-08T09:30:33.000Z</time>
      </trkpt>
      <trkpt lat="47.32606" lon="-2.26055">
        <ele>36.400001525879</ele>
        <time>2019-08-08T09:30:35.000Z</time>
      </trkpt>
      <trkpt lat="47.32607" lon="-2.26086">
        <ele>36.400001525879</ele>
        <time>2019-08-08T09:30:41.000Z</time>
      </trkpt>
      <trkpt lat="47.32609" lon="-2.26109">
        <ele>36.400001525879</ele>
        <time>2019-08-08T09:30:46.000Z</time>
      </trkpt>
      <trkpt lat="47.32611" lon="-2.26138">
        <ele>36.400001525879</ele>
        <time>2019-08-08T09:30:51.000Z</time>
      </trkpt>
      <trkpt lat="47.3261" lon="-2.26151">
        <ele>36.400001525879</ele>
        <time>2019-08-08T09:30:53.000Z</time>
      </trkpt>
      <trkpt lat="47.32611" lon="-2.26169">
        <ele>36.400001525879</ele>
        <time>2019-08-08T09:30:56.000Z</time>
      </trkpt>
      <trkpt lat="47.32612" lon="-2.26175">
        <ele>36.400001525879</ele>
        <time>2019-08-08T09:30:57.000Z</time>
      </trkpt>
      <trkpt lat="47.32617" lon="-2.26213">
        <ele>36.400001525879</ele>
        <time>2019-08-08T09:31:03.000Z</time>
      </trkpt>
      <trkpt lat="47.32624" lon="-2.26261">
        <ele>36.400001525879</ele>
        <time>2019-08-08T09:31:10.000Z</time>
      </trkpt>
      <trkpt lat="47.32631" lon="-2.26309">
        <ele>36.400001525879</ele>
        <time>2019-08-08T09:31:17.000Z</time>
      </trkpt>
      <trkpt lat="47.32635" lon="-2.26351">
        <ele>36.400001525879</ele>
        <time>2019-08-08T09:31:24.000Z</time>
      </trkpt>
      <trkpt lat="47.32641" lon="-2.26379">
        <ele>36.400001525879</ele>
        <time>2019-08-08T09:31:30.000Z</time>
      </trkpt>
      <trkpt lat="47.32644" lon="-2.26396">
        <ele>36.400001525879</ele>
        <time>2019-08-08T09:31:36.000Z</time>
      </trkpt>
      <trkpt lat="47.32645" lon="-2.26409">
        <ele>36.400001525879</ele>
        <time>2019-08-08T09:31:42.000Z</time>
      </trkpt>
      <trkpt lat="47.32644" lon="-2.26416">
        <ele>36.400001525879</ele>
        <time>2019-08-08T09:31:45.000Z</time>
      </trkpt>
      <trkpt lat="47.32642" lon="-2.2642">
        <ele>36.400001525879</ele>
        <time>2019-08-08T09:31:47.000Z</time>
      </trkpt>
      <trkpt lat="47.32635" lon="-2.26432">
        <ele>36.400001525879</ele>
        <time>2019-08-08T09:31:54.000Z</time>
      </trkpt>
      <trkpt lat="47.3263" lon="-2.26434">
        <ele>36.400001525879</ele>
        <time>2019-08-08T09:31:59.000Z</time>
      </trkpt>
      <trkpt lat="47.32621" lon="-2.26433">
        <ele>36.400001525879</ele>
        <time>2019-08-08T09:32:11.000Z</time>
      </trkpt>
      <trkpt lat="47.32616" lon="-2.26433">
        <ele>36.400001525879</ele>
        <time>2019-08-08T09:32:14.000Z</time>
      </trkpt>
      <trkpt lat="47.32606" lon="-2.2644">
        <ele>36.400001525879</ele>
        <time>2019-08-08T09:32:21.000Z</time>
      </trkpt>
      <trkpt lat="47.32594" lon="-2.26444">
        <ele>36.400001525879</ele>
        <time>2019-08-08T09:32:27.000Z</time>
      </trkpt>
      <trkpt lat="47.32573" lon="-2.26449">
        <ele>36.400001525879</ele>
        <time>2019-08-08T09:32:33.000Z</time>
      </trkpt>
      <trkpt lat="47.32546" lon="-2.2646">
        <ele>36.400001525879</ele>
        <time>2019-08-08T09:32:39.000Z</time>
      </trkpt>
      <trkpt lat="47.32526" lon="-2.2647">
        <ele>36.400001525879</ele>
        <time>2019-08-08T09:32:44.000Z</time>
      </trkpt>
      <trkpt lat="47.32522" lon="-2.26472">
        <ele>36.400001525879</ele>
        <time>2019-08-08T09:32:45.000Z</time>
      </trkpt>
      <trkpt lat="47.32504" lon="-2.26481">
        <ele>36.400001525879</ele>
        <time>2019-08-08T09:32:49.000Z</time>
      </trkpt>
      <trkpt lat="47.325" lon="-2.26483">
        <ele>36.400001525879</ele>
        <time>2019-08-08T09:32:50.000Z</time>
      </trkpt>
      <trkpt lat="47.32482" lon="-2.26492">
        <ele>36.400001525879</ele>
        <time>2019-08-08T09:32:54.000Z</time>
      </trkpt>
      <trkpt lat="47.32477" lon="-2.26494">
        <ele>36.400001525879</ele>
        <time>2019-08-08T09:32:55.000Z</time>
      </trkpt>
      <trkpt lat="47.32454" lon="-2.26505">
        <ele>36.400001525879</ele>
        <time>2019-08-08T09:33:00.000Z</time>
      </trkpt>
      <trkpt lat="47.32443" lon="-2.2651">
        <ele>36.400001525879</ele>
        <time>2019-08-08T09:33:02.000Z</time>
      </trkpt>
      <trkpt lat="47.32429" lon="-2.26517">
        <ele>36.400001525879</ele>
        <time>2019-08-08T09:33:05.000Z</time>
      </trkpt>
      <trkpt lat="47.32397" lon="-2.26531">
        <ele>36.400001525879</ele>
        <time>2019-08-08T09:33:12.000Z</time>
      </trkpt>
      <trkpt lat="47.3237" lon="-2.26531">
        <ele>36.400001525879</ele>
        <time>2019-08-08T09:33:17.000Z</time>
      </trkpt>
      <trkpt lat="47.32355" lon="-2.26535">
        <ele>36.400001525879</ele>
        <time>2019-08-08T09:33:20.000Z</time>
      </trkpt>
      <trkpt lat="47.32345" lon="-2.26541">
        <ele>36.400001525879</ele>
        <time>2019-08-08T09:33:22.000Z</time>
      </trkpt>
      <trkpt lat="47.32331" lon="-2.2655">
        <ele>36.400001525879</ele>
        <time>2019-08-08T09:33:25.000Z</time>
      </trkpt>
      <trkpt lat="47.32321" lon="-2.26561">
        <ele>36.400001525879</ele>
        <time>2019-08-08T09:33:27.000Z</time>
      </trkpt>
      <trkpt lat="47.32312" lon="-2.26571">
        <ele>36.799999237061</ele>
        <time>2019-08-08T09:33:29.000Z</time>
      </trkpt>
      <trkpt lat="47.32308" lon="-2.26577">
        <ele>37.200000762939</ele>
        <time>2019-08-08T09:33:30.000Z</time>
      </trkpt>
      <trkpt lat="47.32304" lon="-2.26583">
        <ele>37.599998474121</ele>
        <time>2019-08-08T09:33:31.000Z</time>
      </trkpt>
      <trkpt lat="47.323" lon="-2.26589">
        <ele>38</ele>
        <time>2019-08-08T09:33:32.000Z</time>
      </trkpt>
      <trkpt lat="47.32295" lon="-2.26594">
        <ele>38.400001525879</ele>
        <time>2019-08-08T09:33:33.000Z</time>
      </trkpt>
      <trkpt lat="47.3229" lon="-2.26599">
        <ele>38.400001525879</ele>
        <time>2019-08-08T09:33:34.000Z</time>
      </trkpt>
      <trkpt lat="47.32267" lon="-2.2661">
        <ele>38.400001525879</ele>
        <time>2019-08-08T09:33:38.000Z</time>
      </trkpt>
      <trkpt lat="47.32245" lon="-2.26611">
        <ele>38.400001525879</ele>
        <time>2019-08-08T09:33:42.000Z</time>
      </trkpt>
      <trkpt lat="47.3224" lon="-2.26611">
        <ele>38.400001525879</ele>
        <time>2019-08-08T09:33:43.000Z</time>
      </trkpt>
      <trkpt lat="47.32195" lon="-2.26611">
        <ele>38.400001525879</ele>
        <time>2019-08-08T09:33:51.000Z</time>
      </trkpt>
      <trkpt lat="47.32177" lon="-2.26611">
        <ele>38.799999237061</ele>
        <time>2019-08-08T09:33:54.000Z</time>
      </trkpt>
      <trkpt lat="47.32171" lon="-2.2661">
        <ele>39.400001525879</ele>
        <time>2019-08-08T09:33:55.000Z</time>
      </trkpt>
      <trkpt lat="47.32165" lon="-2.26609">
        <ele>39.799999237061</ele>
        <time>2019-08-08T09:33:56.000Z</time>
      </trkpt>
      <trkpt lat="47.32159" lon="-2.26608">
        <ele>40.200000762939</ele>
        <time>2019-08-08T09:33:57.000Z</time>
      </trkpt>
      <trkpt lat="47.32153" lon="-2.26607">
        <ele>40.599998474121</ele>
        <time>2019-08-08T09:33:58.000Z</time>
      </trkpt>
      <trkpt lat="47.32124" lon="-2.26596">
        <ele>40.599998474121</ele>
        <time>2019-08-08T09:34:03.000Z</time>
      </trkpt>
      <trkpt lat="47.32108" lon="-2.26588">
        <ele>40.599998474121</ele>
        <time>2019-08-08T09:34:06.000Z</time>
      </trkpt>
      <trkpt lat="47.32104" lon="-2.26586">
        <ele>40.599998474121</ele>
        <time>2019-08-08T09:34:07.000Z</time>
      </trkpt>
      <trkpt lat="47.32093" lon="-2.26583">
        <ele>40.599998474121</ele>
        <time>2019-08-08T09:34:09.000Z</time>
      </trkpt>
      <trkpt lat="47.32081" lon="-2.26584">
        <ele>40.599998474121</ele>
        <time>2019-08-08T09:34:11.000Z</time>
      </trkpt>
      <trkpt lat="47.32063" lon="-2.2659">
        <ele>40.599998474121</ele>
        <time>2019-08-08T09:34:14.000Z</time>
      </trkpt>
      <trkpt lat="47.32045" lon="-2.26599">
        <ele>40.599998474121</ele>
        <time>2019-08-08T09:34:17.000Z</time>
      </trkpt>
      <trkpt lat="47.32004" lon="-2.26624">
        <ele>40.599998474121</ele>
        <time>2019-08-08T09:34:24.000Z</time>
      </trkpt>
      <trkpt lat="47.31993" lon="-2.26633">
        <ele>40.599998474121</ele>
        <time>2019-08-08T09:34:26.000Z</time>
      </trkpt>
      <trkpt lat="47.31977" lon="-2.26644">
        <ele>40.599998474121</ele>
        <time>2019-08-08T09:34:29.000Z</time>
      </trkpt>
      <trkpt lat="47.31945" lon="-2.26668">
        <ele>41</ele>
        <time>2019-08-08T09:34:35.000Z</time>
      </trkpt>
      <trkpt lat="47.3194" lon="-2.26672">
        <ele>41.400001525879</ele>
        <time>2019-08-08T09:34:36.000Z</time>
      </trkpt>
      <trkpt lat="47.31935" lon="-2.26676">
        <ele>41.799999237061</ele>
        <time>2019-08-08T09:34:37.000Z</time>
      </trkpt>
      <trkpt lat="47.3193" lon="-2.2668">
        <ele>42.200000762939</ele>
        <time>2019-08-08T09:34:38.000Z</time>
      </trkpt>
      <trkpt lat="47.31925" lon="-2.26684">
        <ele>42.599998474121</ele>
        <time>2019-08-08T09:34:39.000Z</time>
      </trkpt>
      <trkpt lat="47.31904" lon="-2.26702">
        <ele>42.599998474121</ele>
        <time>2019-08-08T09:34:43.000Z</time>
      </trkpt>
      <trkpt lat="47.31877" lon="-2.26724">
        <ele>42.599998474121</ele>
        <time>2019-08-08T09:34:48.000Z</time>
      </trkpt>
      <trkpt lat="47.31845" lon="-2.26745">
        <ele>42.599998474121</ele>
        <time>2019-08-08T09:34:54.000Z</time>
      </trkpt>
      <trkpt lat="47.31828" lon="-2.26742">
        <ele>42.599998474121</ele>
        <time>2019-08-08T09:34:57.000Z</time>
      </trkpt>
      <trkpt lat="47.31815" lon="-2.2672">
        <ele>42.599998474121</ele>
        <time>2019-08-08T09:35:01.000Z</time>
      </trkpt>
      <trkpt lat="47.31812" lon="-2.26714">
        <ele>42.599998474121</ele>
        <time>2019-08-08T09:35:02.000Z</time>
      </trkpt>
      <trkpt lat="47.31802" lon="-2.26695">
        <ele>42.599998474121</ele>
        <time>2019-08-08T09:35:07.000Z</time>
      </trkpt>
      <trkpt lat="47.31801" lon="-2.26695">
        <ele>42.599998474121</ele>
        <time>2019-08-08T09:35:09.000Z</time>
      </trkpt>
      <trkpt lat="47.31799" lon="-2.26696">
        <ele>42.599998474121</ele>
        <time>2019-08-08T09:35:24.000Z</time>
      </trkpt>
      <trkpt lat="47.31782" lon="-2.26702">
        <ele>42.599998474121</ele>
        <time>2019-08-08T09:35:28.000Z</time>
      </trkpt>
      <trkpt lat="47.31758" lon="-2.2671">
        <ele>42.599998474121</ele>
        <time>2019-08-08T09:35:32.000Z</time>
      </trkpt>
      <trkpt lat="47.31718" lon="-2.26722">
        <ele>42.599998474121</ele>
        <time>2019-08-08T09:35:38.000Z</time>
      </trkpt>
      <trkpt lat="47.31711" lon="-2.26723">
        <ele>42.200000762939</ele>
        <time>2019-08-08T09:35:39.000Z</time>
      </trkpt>
      <trkpt lat="47.31705" lon="-2.26724">
        <ele>41.599998474121</ele>
        <time>2019-08-08T09:35:40.000Z</time>
      </trkpt>
      <trkpt lat="47.31698" lon="-2.26726">
        <ele>41.200000762939</ele>
        <time>2019-08-08T09:35:41.000Z</time>
      </trkpt>
      <trkpt lat="47.31691" lon="-2.26727">
        <ele>40.799999237061</ele>
        <time>2019-08-08T09:35:42.000Z</time>
      </trkpt>
      <trkpt lat="47.31685" lon="-2.26728">
        <ele>40.400001525879</ele>
        <time>2019-08-08T09:35:43.000Z</time>
      </trkpt>
      <trkpt lat="47.31672" lon="-2.26729">
        <ele>40.400001525879</ele>
        <time>2019-08-08T09:35:45.000Z</time>
      </trkpt>
      <trkpt lat="47.3166" lon="-2.26731">
        <ele>40.400001525879</ele>
        <time>2019-08-08T09:35:47.000Z</time>
      </trkpt>
      <trkpt lat="47.31643" lon="-2.26738">
        <ele>40.400001525879</ele>
        <time>2019-08-08T09:35:50.000Z</time>
      </trkpt>
      <trkpt lat="47.31623" lon="-2.26756">
        <ele>40.400001525879</ele>
        <time>2019-08-08T09:35:54.000Z</time>
      </trkpt>
      <trkpt lat="47.31617" lon="-2.26757">
        <ele>40.400001525879</ele>
        <time>2019-08-08T09:35:55.000Z</time>
      </trkpt>
      <trkpt lat="47.31597" lon="-2.26757">
        <ele>40.400001525879</ele>
        <time>2019-08-08T09:35:58.000Z</time>
      </trkpt>
      <trkpt lat="47.31591" lon="-2.26756">
        <ele>40.400001525879</ele>
        <time>2019-08-08T09:35:59.000Z</time>
      </trkpt>
      <trkpt lat="47.31585" lon="-2.26754">
        <ele>39.799999237061</ele>
        <time>2019-08-08T09:36:00.000Z</time>
      </trkpt>
      <trkpt lat="47.3158" lon="-2.26754">
        <ele>39.400001525879</ele>
        <time>2019-08-08T09:36:01.000Z</time>
      </trkpt>
      <trkpt lat="47.31576" lon="-2.26756">
        <ele>39</ele>
        <time>2019-08-08T09:36:02.000Z</time>
      </trkpt>
      <trkpt lat="47.31572" lon="-2.26761">
        <ele>38.599998474121</ele>
        <time>2019-08-08T09:36:03.000Z</time>
      </trkpt>
      <trkpt lat="47.31568" lon="-2.26768">
        <ele>38.200000762939</ele>
        <time>2019-08-08T09:36:04.000Z</time>
      </trkpt>
      <trkpt lat="47.31561" lon="-2.26783">
        <ele>38.200000762939</ele>
        <time>2019-08-08T09:36:06.000Z</time>
      </trkpt>
      <trkpt lat="47.31558" lon="-2.2679">
        <ele>38.200000762939</ele>
        <time>2019-08-08T09:36:07.000Z</time>
      </trkpt>
      <trkpt lat="47.31545" lon="-2.26823">
        <ele>38.200000762939</ele>
        <time>2019-08-08T09:36:12.000Z</time>
      </trkpt>
      <trkpt lat="47.31523" lon="-2.26876">
        <ele>38.200000762939</ele>
        <time>2019-08-08T09:36:20.000Z</time>
      </trkpt>
      <trkpt lat="47.31512" lon="-2.26916">
        <ele>38.200000762939</ele>
        <time>2019-08-08T09:36:26.000Z</time>
      </trkpt>
      <trkpt lat="47.31497" lon="-2.26962">
        <ele>38.200000762939</ele>
        <time>2019-08-08T09:36:33.000Z</time>
      </trkpt>
      <trkpt lat="47.31494" lon="-2.26968">
        <ele>38.200000762939</ele>
        <time>2019-08-08T09:36:34.000Z</time>
      </trkpt>
      <trkpt lat="47.31484" lon="-2.26976">
        <ele>38.200000762939</ele>
        <time>2019-08-08T09:36:36.000Z</time>
      </trkpt>
      <trkpt lat="47.31476" lon="-2.26984">
        <ele>38.200000762939</ele>
        <time>2019-08-08T09:36:38.000Z</time>
      </trkpt>
      <trkpt lat="47.31455" lon="-2.27002">
        <ele>38.200000762939</ele>
        <time>2019-08-08T09:36:42.000Z</time>
      </trkpt>
      <trkpt lat="47.31444" lon="-2.27011">
        <ele>38.599998474121</ele>
        <time>2019-08-08T09:36:44.000Z</time>
      </trkpt>
      <trkpt lat="47.31438" lon="-2.27015">
        <ele>39</ele>
        <time>2019-08-08T09:36:45.000Z</time>
      </trkpt>
      <trkpt lat="47.31433" lon="-2.27019">
        <ele>39.400001525879</ele>
        <time>2019-08-08T09:36:46.000Z</time>
      </trkpt>
      <trkpt lat="47.31428" lon="-2.27023">
        <ele>39.799999237061</ele>
        <time>2019-08-08T09:36:47.000Z</time>
      </trkpt>
      <trkpt lat="47.31422" lon="-2.27027">
        <ele>40.200000762939</ele>
        <time>2019-08-08T09:36:48.000Z</time>
      </trkpt>
      <trkpt lat="47.3139" lon="-2.27052">
        <ele>40.200000762939</ele>
        <time>2019-08-08T09:36:54.000Z</time>
      </trkpt>
      <trkpt lat="47.31373" lon="-2.27062">
        <ele>40.200000762939</ele>
        <time>2019-08-08T09:36:57.000Z</time>
      </trkpt>
      <trkpt lat="47.31356" lon="-2.27068">
        <ele>40.200000762939</ele>
        <time>2019-08-08T09:37:00.000Z</time>
      </trkpt>
      <trkpt lat="47.31329" lon="-2.27077">
        <ele>40.599998474121</ele>
        <time>2019-08-08T09:37:05.000Z</time>
      </trkpt>
      <trkpt lat="47.31323" lon="-2.27079">
        <ele>41</ele>
        <time>2019-08-08T09:37:06.000Z</time>
      </trkpt>
      <trkpt lat="47.31318" lon="-2.27081">
        <ele>41.400001525879</ele>
        <time>2019-08-08T09:37:07.000Z</time>
      </trkpt>
      <trkpt lat="47.31312" lon="-2.27083">
        <ele>41.799999237061</ele>
        <time>2019-08-08T09:37:08.000Z</time>
      </trkpt>
      <trkpt lat="47.31307" lon="-2.27085">
        <ele>42.200000762939</ele>
        <time>2019-08-08T09:37:09.000Z</time>
      </trkpt>
      <trkpt lat="47.31286" lon="-2.27096">
        <ele>42.200000762939</ele>
        <time>2019-08-08T09:37:13.000Z</time>
      </trkpt>
      <trkpt lat="47.31281" lon="-2.271">
        <ele>42.200000762939</ele>
        <time>2019-08-08T09:37:14.000Z</time>
      </trkpt>
      <trkpt lat="47.31276" lon="-2.27113">
        <ele>42.200000762939</ele>
        <time>2019-08-08T09:37:16.000Z</time>
      </trkpt>
      <trkpt lat="47.31277" lon="-2.27139">
        <ele>42.200000762939</ele>
        <time>2019-08-08T09:37:19.000Z</time>
      </trkpt>
      <trkpt lat="47.31281" lon="-2.27157">
        <ele>42.200000762939</ele>
        <time>2019-08-08T09:37:21.000Z</time>
      </trkpt>
      <trkpt lat="47.31289" lon="-2.27192">
        <ele>42.200000762939</ele>
        <time>2019-08-08T09:37:25.000Z</time>
      </trkpt>
      <trkpt lat="47.31303" lon="-2.2725">
        <ele>42.200000762939</ele>
        <time>2019-08-08T09:37:31.000Z</time>
      </trkpt>
      <trkpt lat="47.3131" lon="-2.2727">
        <ele>42.200000762939</ele>
        <time>2019-08-08T09:37:33.000Z</time>
      </trkpt>
      <trkpt lat="47.31314" lon="-2.27279">
        <ele>41.799999237061</ele>
        <time>2019-08-08T09:37:34.000Z</time>
      </trkpt>
      <trkpt lat="47.31319" lon="-2.27288">
        <ele>41.400001525879</ele>
        <time>2019-08-08T09:37:35.000Z</time>
      </trkpt>
      <trkpt lat="47.31324" lon="-2.27297">
        <ele>41</ele>
        <time>2019-08-08T09:37:36.000Z</time>
      </trkpt>
      <trkpt lat="47.3133" lon="-2.27306">
        <ele>40.400001525879</ele>
        <time>2019-08-08T09:37:37.000Z</time>
      </trkpt>
      <trkpt lat="47.31335" lon="-2.27315">
        <ele>40</ele>
        <time>2019-08-08T09:37:38.000Z</time>
      </trkpt>
      <trkpt lat="47.31364" lon="-2.27356">
        <ele>40</ele>
        <time>2019-08-08T09:37:43.000Z</time>
      </trkpt>
      <trkpt lat="47.31396" lon="-2.27397">
        <ele>40</ele>
        <time>2019-08-08T09:37:49.000Z</time>
      </trkpt>
      <trkpt lat="47.31433" lon="-2.27428">
        <ele>40</ele>
        <time>2019-08-08T09:37:55.000Z</time>
      </trkpt>
      <trkpt lat="47.31451" lon="-2.27445">
        <ele>40</ele>
        <time>2019-08-08T09:37:58.000Z</time>
      </trkpt>
      <trkpt lat="47.31463" lon="-2.27457">
        <ele>40</ele>
        <time>2019-08-08T09:38:00.000Z</time>
      </trkpt>
      <trkpt lat="47.3148" lon="-2.27484">
        <ele>40</ele>
        <time>2019-08-08T09:38:04.000Z</time>
      </trkpt>
      <trkpt lat="47.31501" lon="-2.27537">
        <ele>40</ele>
        <time>2019-08-08T09:38:10.000Z</time>
      </trkpt>
      <trkpt lat="47.31512" lon="-2.27583">
        <ele>40</ele>
        <time>2019-08-08T09:38:15.000Z</time>
      </trkpt>
      <trkpt lat="47.31513" lon="-2.27592">
        <ele>40</ele>
        <time>2019-08-08T09:38:16.000Z</time>
      </trkpt>
      <trkpt lat="47.31511" lon="-2.27618">
        <ele>40</ele>
        <time>2019-08-08T09:38:19.000Z</time>
      </trkpt>
      <trkpt lat="47.31502" lon="-2.27641">
        <ele>40</ele>
        <time>2019-08-08T09:38:22.000Z</time>
      </trkpt>
      <trkpt lat="47.31498" lon="-2.27648">
        <ele>40</ele>
        <time>2019-08-08T09:38:23.000Z</time>
      </trkpt>
      <trkpt lat="47.31484" lon="-2.27672">
        <ele>40</ele>
        <time>2019-08-08T09:38:26.000Z</time>
      </trkpt>
      <trkpt lat="47.31472" lon="-2.27685">
        <ele>40</ele>
        <time>2019-08-08T09:38:28.000Z</time>
      </trkpt>
      <trkpt lat="47.31438" lon="-2.27718">
        <ele>40</ele>
        <time>2019-08-08T09:38:33.000Z</time>
      </trkpt>
      <trkpt lat="47.31397" lon="-2.27745">
        <ele>40</ele>
        <time>2019-08-08T09:38:39.000Z</time>
      </trkpt>
      <trkpt lat="47.31357" lon="-2.2776">
        <ele>40</ele>
        <time>2019-08-08T09:38:45.000Z</time>
      </trkpt>
      <trkpt lat="47.31308" lon="-2.2777">
        <ele>40</ele>
        <time>2019-08-08T09:38:52.000Z</time>
      </trkpt>
      <trkpt lat="47.31253" lon="-2.2778">
        <ele>40</ele>
        <time>2019-08-08T09:39:00.000Z</time>
      </trkpt>
      <trkpt lat="47.31246" lon="-2.2778">
        <ele>40</ele>
        <time>2019-08-08T09:39:01.000Z</time>
      </trkpt>
      <trkpt lat="47.31239" lon="-2.2778">
        <ele>40</ele>
        <time>2019-08-08T09:39:02.000Z</time>
      </trkpt>
      <trkpt lat="47.31221" lon="-2.27771">
        <ele>40</ele>
        <time>2019-08-08T09:39:05.000Z</time>
      </trkpt>
      <trkpt lat="47.31213" lon="-2.27759">
        <ele>40</ele>
        <time>2019-08-08T09:39:07.000Z</time>
      </trkpt>
      <trkpt lat="47.31205" lon="-2.27746">
        <ele>40</ele>
        <time>2019-08-08T09:39:09.000Z</time>
      </trkpt>
      <trkpt lat="47.312" lon="-2.2774">
        <ele>40</ele>
        <time>2019-08-08T09:39:10.000Z</time>
      </trkpt>
      <trkpt lat="47.31192" lon="-2.27736">
        <ele>40</ele>
        <time>2019-08-08T09:39:12.000Z</time>
      </trkpt>
      <trkpt lat="47.31176" lon="-2.27741">
        <ele>40</ele>
        <time>2019-08-08T09:39:15.000Z</time>
      </trkpt>
      <trkpt lat="47.3117" lon="-2.27744">
        <ele>40</ele>
        <time>2019-08-08T09:39:16.000Z</time>
      </trkpt>
      <trkpt lat="47.31163" lon="-2.27746">
        <ele>40</ele>
        <time>2019-08-08T09:39:17.000Z</time>
      </trkpt>
      <trkpt lat="47.3115" lon="-2.27747">
        <ele>40</ele>
        <time>2019-08-08T09:39:19.000Z</time>
      </trkpt>
      <trkpt lat="47.31144" lon="-2.27746">
        <ele>40</ele>
        <time>2019-08-08T09:39:20.000Z</time>
      </trkpt>
      <trkpt lat="47.31137" lon="-2.27753">
        <ele>40</ele>
        <time>2019-08-08T09:39:22.000Z</time>
      </trkpt>
      <trkpt lat="47.31136" lon="-2.27776">
        <ele>40</ele>
        <time>2019-08-08T09:39:25.000Z</time>
      </trkpt>
      <trkpt lat="47.31138" lon="-2.27784">
        <ele>40</ele>
        <time>2019-08-08T09:39:26.000Z</time>
      </trkpt>
      <trkpt lat="47.3114" lon="-2.27793">
        <ele>40</ele>
        <time>2019-08-08T09:39:27.000Z</time>
      </trkpt>
      <trkpt lat="47.31146" lon="-2.2782">
        <ele>40</ele>
        <time>2019-08-08T09:39:30.000Z</time>
      </trkpt>
      <trkpt lat="47.31148" lon="-2.2784">
        <ele>40</ele>
        <time>2019-08-08T09:39:32.000Z</time>
      </trkpt>
      <trkpt lat="47.31144" lon="-2.27857">
        <ele>40</ele>
        <time>2019-08-08T09:39:34.000Z</time>
      </trkpt>
      <trkpt lat="47.31133" lon="-2.2788">
        <ele>40</ele>
        <time>2019-08-08T09:39:37.000Z</time>
      </trkpt>
      <trkpt lat="47.31129" lon="-2.27887">
        <ele>40</ele>
        <time>2019-08-08T09:39:38.000Z</time>
      </trkpt>
      <trkpt lat="47.31097" lon="-2.27938">
        <ele>40</ele>
        <time>2019-08-08T09:39:45.000Z</time>
      </trkpt>
      <trkpt lat="47.31084" lon="-2.27959">
        <ele>40</ele>
        <time>2019-08-08T09:39:48.000Z</time>
      </trkpt>
      <trkpt lat="47.31071" lon="-2.2798">
        <ele>40</ele>
        <time>2019-08-08T09:39:51.000Z</time>
      </trkpt>
      <trkpt lat="47.31041" lon="-2.28024">
        <ele>40</ele>
        <time>2019-08-08T09:39:57.000Z</time>
      </trkpt>
      <trkpt lat="47.31019" lon="-2.28046">
        <ele>40</ele>
        <time>2019-08-08T09:40:01.000Z</time>
      </trkpt>
      <trkpt lat="47.31013" lon="-2.2805">
        <ele>40</ele>
        <time>2019-08-08T09:40:02.000Z</time>
      </trkpt>
      <trkpt lat="47.30971" lon="-2.28079">
        <ele>40</ele>
        <time>2019-08-08T09:40:09.000Z</time>
      </trkpt>
      <trkpt lat="47.30944" lon="-2.28113">
        <ele>40</ele>
        <time>2019-08-08T09:40:14.000Z</time>
      </trkpt>
      <trkpt lat="47.30922" lon="-2.28145">
        <ele>39.599998474121</ele>
        <time>2019-08-08T09:40:19.000Z</time>
      </trkpt>
      <trkpt lat="47.30918" lon="-2.28151">
        <ele>39.200000762939</ele>
        <time>2019-08-08T09:40:20.000Z</time>
      </trkpt>
      <trkpt lat="47.30914" lon="-2.28157">
        <ele>38.799999237061</ele>
        <time>2019-08-08T09:40:21.000Z</time>
      </trkpt>
      <trkpt lat="47.30909" lon="-2.28164">
        <ele>38.400001525879</ele>
        <time>2019-08-08T09:40:22.000Z</time>
      </trkpt>
      <trkpt lat="47.30905" lon="-2.2817">
        <ele>37.799999237061</ele>
        <time>2019-08-08T09:40:23.000Z</time>
      </trkpt>
      <trkpt lat="47.30884" lon="-2.28203">
        <ele>37.799999237061</ele>
        <time>2019-08-08T09:40:28.000Z</time>
      </trkpt>
      <trkpt lat="47.3086" lon="-2.28233">
        <ele>37.799999237061</ele>
        <time>2019-08-08T09:40:33.000Z</time>
      </trkpt>
      <trkpt lat="47.30855" lon="-2.28238">
        <ele>37.799999237061</ele>
        <time>2019-08-08T09:40:34.000Z</time>
      </trkpt>
      <trkpt lat="47.30831" lon="-2.28248">
        <ele>37.799999237061</ele>
        <time>2019-08-08T09:40:38.000Z</time>
      </trkpt>
      <trkpt lat="47.30824" lon="-2.2825">
        <ele>37.799999237061</ele>
        <time>2019-08-08T09:40:39.000Z</time>
      </trkpt>
      <trkpt lat="47.30812" lon="-2.28251">
        <ele>37.799999237061</ele>
        <time>2019-08-08T09:40:41.000Z</time>
      </trkpt>
      <trkpt lat="47.30805" lon="-2.2825">
        <ele>37.799999237061</ele>
        <time>2019-08-08T09:40:42.000Z</time>
      </trkpt>
      <trkpt lat="47.30785" lon="-2.28245">
        <ele>37.799999237061</ele>
        <time>2019-08-08T09:40:45.000Z</time>
      </trkpt>
      <trkpt lat="47.30773" lon="-2.28238">
        <ele>37.799999237061</ele>
        <time>2019-08-08T09:40:47.000Z</time>
      </trkpt>
      <trkpt lat="47.30762" lon="-2.28228">
        <ele>37.799999237061</ele>
        <time>2019-08-08T09:40:49.000Z</time>
      </trkpt>
      <trkpt lat="47.30747" lon="-2.28208">
        <ele>37.799999237061</ele>
        <time>2019-08-08T09:40:52.000Z</time>
      </trkpt>
      <trkpt lat="47.30728" lon="-2.28178">
        <ele>37.799999237061</ele>
        <time>2019-08-08T09:40:57.000Z</time>
      </trkpt>
      <trkpt lat="47.30704" lon="-2.28152">
        <ele>37.799999237061</ele>
        <time>2019-08-08T09:41:03.000Z</time>
      </trkpt>
      <trkpt lat="47.30696" lon="-2.28143">
        <ele>37.799999237061</ele>
        <time>2019-08-08T09:41:05.000Z</time>
      </trkpt>
      <trkpt lat="47.30683" lon="-2.28129">
        <ele>37.799999237061</ele>
        <time>2019-08-08T09:41:08.000Z</time>
      </trkpt>
      <trkpt lat="47.30646" lon="-2.28089">
        <ele>37.799999237061</ele>
        <time>2019-08-08T09:41:15.000Z</time>
      </trkpt>
      <trkpt lat="47.30604" lon="-2.28047">
        <ele>37.799999237061</ele>
        <time>2019-08-08T09:41:22.000Z</time>
      </trkpt>
      <trkpt lat="47.30585" lon="-2.28036">
        <ele>37.799999237061</ele>
        <time>2019-08-08T09:41:25.000Z</time>
      </trkpt>
      <trkpt lat="47.30573" lon="-2.28033">
        <ele>37.799999237061</ele>
        <time>2019-08-08T09:41:27.000Z</time>
      </trkpt>
      <trkpt lat="47.30548" lon="-2.2802">
        <ele>37.799999237061</ele>
        <time>2019-08-08T09:41:32.000Z</time>
      </trkpt>
      <trkpt lat="47.30543" lon="-2.28013">
        <ele>37.799999237061</ele>
        <time>2019-08-08T09:41:33.000Z</time>
      </trkpt>
      <trkpt lat="47.30536" lon="-2.27999">
        <ele>37.799999237061</ele>
        <time>2019-08-08T09:41:35.000Z</time>
      </trkpt>
      <trkpt lat="47.3053" lon="-2.27984">
        <ele>37.799999237061</ele>
        <time>2019-08-08T09:41:37.000Z</time>
      </trkpt>
      <trkpt lat="47.30522" lon="-2.27956">
        <ele>37.799999237061</ele>
        <time>2019-08-08T09:41:41.000Z</time>
      </trkpt>
      <trkpt lat="47.30517" lon="-2.27935">
        <ele>37.799999237061</ele>
        <time>2019-08-08T09:41:44.000Z</time>
      </trkpt>
      <trkpt lat="47.3051" lon="-2.27927">
        <ele>37.799999237061</ele>
        <time>2019-08-08T09:41:46.000Z</time>
      </trkpt>
      <trkpt lat="47.30494" lon="-2.27925">
        <ele>37.799999237061</ele>
        <time>2019-08-08T09:41:49.000Z</time>
      </trkpt>
      <trkpt lat="47.30489" lon="-2.27924">
        <ele>37.799999237061</ele>
        <time>2019-08-08T09:41:50.000Z</time>
      </trkpt>
      <trkpt lat="47.30467" lon="-2.27916">
        <ele>37.799999237061</ele>
        <time>2019-08-08T09:41:54.000Z</time>
      </trkpt>
      <trkpt lat="47.30426" lon="-2.27898">
        <ele>37.799999237061</ele>
        <time>2019-08-08T09:42:02.000Z</time>
      </trkpt>
      <trkpt lat="47.30417" lon="-2.27895">
        <ele>37.799999237061</ele>
        <time>2019-08-08T09:42:04.000Z</time>
      </trkpt>
      <trkpt lat="47.30406" lon="-2.27896">
        <ele>37.799999237061</ele>
        <time>2019-08-08T09:42:07.000Z</time>
      </trkpt>
      <trkpt lat="47.30389" lon="-2.27898">
        <ele>37.799999237061</ele>
        <time>2019-08-08T09:42:13.000Z</time>
      </trkpt>
      <trkpt lat="47.30388" lon="-2.27899">
        <ele>37.799999237061</ele>
        <time>2019-08-08T09:42:16.000Z</time>
      </trkpt>
      <trkpt lat="47.30386" lon="-2.27901">
        <ele>37.799999237061</ele>
        <time>2019-08-08T09:42:30.000Z</time>
      </trkpt>
      <trkpt lat="47.30373" lon="-2.27901">
        <ele>37.799999237061</ele>
        <time>2019-08-08T09:42:37.000Z</time>
      </trkpt>
      <trkpt lat="47.30369" lon="-2.27902">
        <ele>37.799999237061</ele>
        <time>2019-08-08T09:42:39.000Z</time>
      </trkpt>
      <trkpt lat="47.30362" lon="-2.27904">
        <ele>37.799999237061</ele>
        <time>2019-08-08T09:42:41.000Z</time>
      </trkpt>
      <trkpt lat="47.30347" lon="-2.27906">
        <ele>38.400001525879</ele>
        <time>2019-08-08T09:42:45.000Z</time>
      </trkpt>
      <trkpt lat="47.30343" lon="-2.27906">
        <ele>38.799999237061</ele>
        <time>2019-08-08T09:42:46.000Z</time>
      </trkpt>
      <trkpt lat="47.30339" lon="-2.27907">
        <ele>39.200000762939</ele>
        <time>2019-08-08T09:42:47.000Z</time>
      </trkpt>
      <trkpt lat="47.30336" lon="-2.27908">
        <ele>39.599998474121</ele>
        <time>2019-08-08T09:42:48.000Z</time>
      </trkpt>
      <trkpt lat="47.30333" lon="-2.27907">
        <ele>40</ele>
        <time>2019-08-08T09:42:49.000Z</time>
      </trkpt>
      <trkpt lat="47.30324" lon="-2.27907">
        <ele>40</ele>
        <time>2019-08-08T09:42:51.000Z</time>
      </trkpt>
      <trkpt lat="47.30319" lon="-2.27907">
        <ele>40</ele>
        <time>2019-08-08T09:42:52.000Z</time>
      </trkpt>
      <trkpt lat="47.30285" lon="-2.27911">
        <ele>40</ele>
        <time>2019-08-08T09:42:59.000Z</time>
      </trkpt>
      <trkpt lat="47.30253" lon="-2.27912">
        <ele>40</ele>
        <time>2019-08-08T09:43:05.000Z</time>
      </trkpt>
      <trkpt lat="47.30247" lon="-2.27912">
        <ele>40</ele>
        <time>2019-08-08T09:43:06.000Z</time>
      </trkpt>
      <trkpt lat="47.30236" lon="-2.27913">
        <ele>40.400001525879</ele>
        <time>2019-08-08T09:43:08.000Z</time>
      </trkpt>
      <trkpt lat="47.30231" lon="-2.27914">
        <ele>41.200000762939</ele>
        <time>2019-08-08T09:43:09.000Z</time>
      </trkpt>
      <trkpt lat="47.30225" lon="-2.27915">
        <ele>41.799999237061</ele>
        <time>2019-08-08T09:43:10.000Z</time>
      </trkpt>
      <trkpt lat="47.30219" lon="-2.27915">
        <ele>42.200000762939</ele>
        <time>2019-08-08T09:43:11.000Z</time>
      </trkpt>
      <trkpt lat="47.30209" lon="-2.27915">
        <ele>42.200000762939</ele>
        <time>2019-08-08T09:43:13.000Z</time>
      </trkpt>
      <trkpt lat="47.30183" lon="-2.27914">
        <ele>42.200000762939</ele>
        <time>2019-08-08T09:43:19.000Z</time>
      </trkpt>
      <trkpt lat="47.30152" lon="-2.27919">
        <ele>42.200000762939</ele>
        <time>2019-08-08T09:43:26.000Z</time>
      </trkpt>
      <trkpt lat="47.30144" lon="-2.27922">
        <ele>42.599998474121</ele>
        <time>2019-08-08T09:43:28.000Z</time>
      </trkpt>
      <trkpt lat="47.30139" lon="-2.27924">
        <ele>43</ele>
        <time>2019-08-08T09:43:29.000Z</time>
      </trkpt>
      <trkpt lat="47.30135" lon="-2.27927">
        <ele>43.400001525879</ele>
        <time>2019-08-08T09:43:30.000Z</time>
      </trkpt>
      <trkpt lat="47.30131" lon="-2.2793">
        <ele>43.799999237061</ele>
        <time>2019-08-08T09:43:31.000Z</time>
      </trkpt>
      <trkpt lat="47.30127" lon="-2.27933">
        <ele>44.200000762939</ele>
        <time>2019-08-08T09:43:32.000Z</time>
      </trkpt>
      <trkpt lat="47.30097" lon="-2.27956">
        <ele>44.200000762939</ele>
        <time>2019-08-08T09:43:39.000Z</time>
      </trkpt>
      <trkpt lat="47.30067" lon="-2.27986">
        <ele>44.200000762939</ele>
        <time>2019-08-08T09:43:47.000Z</time>
      </trkpt>
      <trkpt lat="47.30042" lon="-2.28005">
        <ele>44.200000762939</ele>
        <time>2019-08-08T09:43:53.000Z</time>
      </trkpt>
      <trkpt lat="47.30016" lon="-2.28022">
        <ele>45</ele>
        <time>2019-08-08T09:43:59.000Z</time>
      </trkpt>
      <trkpt lat="47.30011" lon="-2.28025">
        <ele>45.599998474121</ele>
        <time>2019-08-08T09:44:00.000Z</time>
      </trkpt>
      <trkpt lat="47.30007" lon="-2.28027">
        <ele>46</ele>
        <time>2019-08-08T09:44:01.000Z</time>
      </trkpt>
      <trkpt lat="47.30003" lon="-2.2803">
        <ele>46.400001525879</ele>
        <time>2019-08-08T09:44:02.000Z</time>
      </trkpt>
      <trkpt lat="47.29996" lon="-2.28037">
        <ele>46.400001525879</ele>
        <time>2019-08-08T09:44:04.000Z</time>
      </trkpt>
      <trkpt lat="47.29991" lon="-2.28048">
        <ele>46.400001525879</ele>
        <time>2019-08-08T09:44:06.000Z</time>
      </trkpt>
      <trkpt lat="47.29986" lon="-2.28061">
        <ele>46.400001525879</ele>
        <time>2019-08-08T09:44:08.000Z</time>
      </trkpt>
      <trkpt lat="47.29979" lon="-2.28082">
        <ele>46.400001525879</ele>
        <time>2019-08-08T09:44:11.000Z</time>
      </trkpt>
      <trkpt lat="47.29964" lon="-2.28133">
        <ele>46.400001525879</ele>
        <time>2019-08-08T09:44:18.000Z</time>
      </trkpt>
      <trkpt lat="47.29948" lon="-2.28186">
        <ele>46.400001525879</ele>
        <time>2019-08-08T09:44:25.000Z</time>
      </trkpt>
      <trkpt lat="47.29946" lon="-2.28193">
        <ele>46.400001525879</ele>
        <time>2019-08-08T09:44:26.000Z</time>
      </trkpt>
      <trkpt lat="47.29936" lon="-2.28219">
        <ele>46.400001525879</ele>
        <time>2019-08-08T09:44:29.000Z</time>
      </trkpt>
      <trkpt lat="47.29936" lon="-2.28244">
        <ele>46.400001525879</ele>
        <time>2019-08-08T09:44:32.000Z</time>
      </trkpt>
      <trkpt lat="47.29939" lon="-2.28271">
        <ele>46.400001525879</ele>
        <time>2019-08-08T09:44:35.000Z</time>
      </trkpt>
      <trkpt lat="47.29941" lon="-2.28289">
        <ele>46.400001525879</ele>
        <time>2019-08-08T09:44:37.000Z</time>
      </trkpt>
      <trkpt lat="47.29942" lon="-2.28297">
        <ele>46.400001525879</ele>
        <time>2019-08-08T09:44:38.000Z</time>
      </trkpt>
      <trkpt lat="47.29944" lon="-2.28322">
        <ele>46.400001525879</ele>
        <time>2019-08-08T09:44:41.000Z</time>
      </trkpt>
      <trkpt lat="47.29944" lon="-2.28358">
        <ele>46.400001525879</ele>
        <time>2019-08-08T09:44:45.000Z</time>
      </trkpt>
      <trkpt lat="47.29944" lon="-2.28366">
        <ele>46.400001525879</ele>
        <time>2019-08-08T09:44:46.000Z</time>
      </trkpt>
      <trkpt lat="47.29943" lon="-2.28401">
        <ele>46.400001525879</ele>
        <time>2019-08-08T09:44:50.000Z</time>
      </trkpt>
      <trkpt lat="47.29942" lon="-2.28418">
        <ele>46.400001525879</ele>
        <time>2019-08-08T09:44:52.000Z</time>
      </trkpt>
      <trkpt lat="47.29938" lon="-2.2843">
        <ele>46.400001525879</ele>
        <time>2019-08-08T09:44:54.000Z</time>
      </trkpt>
      <trkpt lat="47.29933" lon="-2.28448">
        <ele>46.400001525879</ele>
        <time>2019-08-08T09:44:57.000Z</time>
      </trkpt>
      <trkpt lat="47.29933" lon="-2.28456">
        <ele>46.400001525879</ele>
        <time>2019-08-08T09:44:58.000Z</time>
      </trkpt>
      <trkpt lat="47.29933" lon="-2.28482">
        <ele>46.400001525879</ele>
        <time>2019-08-08T09:45:01.000Z</time>
      </trkpt>
      <trkpt lat="47.29933" lon="-2.28491">
        <ele>46.400001525879</ele>
        <time>2019-08-08T09:45:02.000Z</time>
      </trkpt>
      <trkpt lat="47.29925" lon="-2.28527">
        <ele>46.400001525879</ele>
        <time>2019-08-08T09:45:06.000Z</time>
      </trkpt>
      <trkpt lat="47.29924" lon="-2.28538">
        <ele>46.400001525879</ele>
        <time>2019-08-08T09:45:07.000Z</time>
      </trkpt>
      <trkpt lat="47.29928" lon="-2.28555">
        <ele>46.400001525879</ele>
        <time>2019-08-08T09:45:09.000Z</time>
      </trkpt>
      <trkpt lat="47.29936" lon="-2.28565">
        <ele>46.400001525879</ele>
        <time>2019-08-08T09:45:11.000Z</time>
      </trkpt>
      <trkpt lat="47.29938" lon="-2.2857">
        <ele>46.400001525879</ele>
        <time>2019-08-08T09:45:12.000Z</time>
      </trkpt>
      <trkpt lat="47.29936" lon="-2.28589">
        <ele>46.400001525879</ele>
        <time>2019-08-08T09:45:15.000Z</time>
      </trkpt>
      <trkpt lat="47.29935" lon="-2.28595">
        <ele>46.400001525879</ele>
        <time>2019-08-08T09:45:16.000Z</time>
      </trkpt>
      <trkpt lat="47.2993" lon="-2.28627">
        <ele>46.400001525879</ele>
        <time>2019-08-08T09:45:20.000Z</time>
      </trkpt>
      <trkpt lat="47.29927" lon="-2.28636">
        <ele>46.400001525879</ele>
        <time>2019-08-08T09:45:21.000Z</time>
      </trkpt>
      <trkpt lat="47.29915" lon="-2.28668">
        <ele>46.400001525879</ele>
        <time>2019-08-08T09:45:25.000Z</time>
      </trkpt>
      <trkpt lat="47.2991" lon="-2.28686">
        <ele>46.400001525879</ele>
        <time>2019-08-08T09:45:27.000Z</time>
      </trkpt>
      <trkpt lat="47.29906" lon="-2.28702">
        <ele>46.400001525879</ele>
        <time>2019-08-08T09:45:29.000Z</time>
      </trkpt>
      <trkpt lat="47.299" lon="-2.2873">
        <ele>46.400001525879</ele>
        <time>2019-08-08T09:45:32.000Z</time>
      </trkpt>
      <trkpt lat="47.29899" lon="-2.2874">
        <ele>46.400001525879</ele>
        <time>2019-08-08T09:45:33.000Z</time>
      </trkpt>
      <trkpt lat="47.29895" lon="-2.28767">
        <ele>46.400001525879</ele>
        <time>2019-08-08T09:45:36.000Z</time>
      </trkpt>
      <trkpt lat="47.29895" lon="-2.28775">
        <ele>46.400001525879</ele>
        <time>2019-08-08T09:45:37.000Z</time>
      </trkpt>
      <trkpt lat="47.29889" lon="-2.28828">
        <ele>46.400001525879</ele>
        <time>2019-08-08T09:45:43.000Z</time>
      </trkpt>
      <trkpt lat="47.29881" lon="-2.28881">
        <ele>46.400001525879</ele>
        <time>2019-08-08T09:45:49.000Z</time>
      </trkpt>
      <trkpt lat="47.29878" lon="-2.28888">
        <ele>46.400001525879</ele>
        <time>2019-08-08T09:45:50.000Z</time>
      </trkpt>
      <trkpt lat="47.29873" lon="-2.28901">
        <ele>46.400001525879</ele>
        <time>2019-08-08T09:45:52.000Z</time>
      </trkpt>
      <trkpt lat="47.29872" lon="-2.28922">
        <ele>46</ele>
        <time>2019-08-08T09:45:55.000Z</time>
      </trkpt>
      <trkpt lat="47.29872" lon="-2.2893">
        <ele>45.599998474121</ele>
        <time>2019-08-08T09:45:56.000Z</time>
      </trkpt>
      <trkpt lat="47.29872" lon="-2.28937">
        <ele>45</ele>
        <time>2019-08-08T09:45:57.000Z</time>
      </trkpt>
      <trkpt lat="47.29873" lon="-2.28941">
        <ele>44.599998474121</ele>
        <time>2019-08-08T09:45:58.000Z</time>
      </trkpt>
      <trkpt lat="47.29876" lon="-2.28944">
        <ele>44.200000762939</ele>
        <time>2019-08-08T09:45:59.000Z</time>
      </trkpt>
      <trkpt lat="47.29891" lon="-2.28947">
        <ele>44.200000762939</ele>
        <time>2019-08-08T09:46:02.000Z</time>
      </trkpt>
      <trkpt lat="47.29916" lon="-2.28951">
        <ele>44.200000762939</ele>
        <time>2019-08-08T09:46:07.000Z</time>
      </trkpt>
      <trkpt lat="47.29925" lon="-2.28965">
        <ele>44.200000762939</ele>
        <time>2019-08-08T09:46:10.000Z</time>
      </trkpt>
      <trkpt lat="47.29928" lon="-2.28971">
        <ele>44.200000762939</ele>
        <time>2019-08-08T09:46:11.000Z</time>
      </trkpt>
      <trkpt lat="47.29942" lon="-2.28994">
        <ele>44.200000762939</ele>
        <time>2019-08-08T09:46:15.000Z</time>
      </trkpt>
      <trkpt lat="47.29961" lon="-2.29029">
        <ele>44.200000762939</ele>
        <time>2019-08-08T09:46:20.000Z</time>
      </trkpt>
      <trkpt lat="47.29988" lon="-2.29072">
        <ele>43.799999237061</ele>
        <time>2019-08-08T09:46:26.000Z</time>
      </trkpt>
      <trkpt lat="47.29992" lon="-2.29079">
        <ele>43</ele>
        <time>2019-08-08T09:46:27.000Z</time>
      </trkpt>
      <trkpt lat="47.29997" lon="-2.29085">
        <ele>42.599998474121</ele>
        <time>2019-08-08T09:46:28.000Z</time>
      </trkpt>
      <trkpt lat="47.30001" lon="-2.2909">
        <ele>42.200000762939</ele>
        <time>2019-08-08T09:46:29.000Z</time>
      </trkpt>
      <trkpt lat="47.30012" lon="-2.29102">
        <ele>42.200000762939</ele>
        <time>2019-08-08T09:46:31.000Z</time>
      </trkpt>
      <trkpt lat="47.30024" lon="-2.29111">
        <ele>42.200000762939</ele>
        <time>2019-08-08T09:46:33.000Z</time>
      </trkpt>
      <trkpt lat="47.30042" lon="-2.29123">
        <ele>42.200000762939</ele>
        <time>2019-08-08T09:46:36.000Z</time>
      </trkpt>
      <trkpt lat="47.3006" lon="-2.29137">
        <ele>42.200000762939</ele>
        <time>2019-08-08T09:46:39.000Z</time>
      </trkpt>
      <trkpt lat="47.30071" lon="-2.29154">
        <ele>42.200000762939</ele>
        <time>2019-08-08T09:46:41.000Z</time>
      </trkpt>
      <trkpt lat="47.30098" lon="-2.29198">
        <ele>42.200000762939</ele>
        <time>2019-08-08T09:46:46.000Z</time>
      </trkpt>
      <trkpt lat="47.30123" lon="-2.2924">
        <ele>42.200000762939</ele>
        <time>2019-08-08T09:46:51.000Z</time>
      </trkpt>
      <trkpt lat="47.30149" lon="-2.29286">
        <ele>42.200000762939</ele>
        <time>2019-08-08T09:46:56.000Z</time>
      </trkpt>
      <trkpt lat="47.30175" lon="-2.29326">
        <ele>42.200000762939</ele>
        <time>2019-08-08T09:47:01.000Z</time>
      </trkpt>
      <trkpt lat="47.30179" lon="-2.29334">
        <ele>41.799999237061</ele>
        <time>2019-08-08T09:47:02.000Z</time>
      </trkpt>
      <trkpt lat="47.30183" lon="-2.29341">
        <ele>41.200000762939</ele>
        <time>2019-08-08T09:47:03.000Z</time>
      </trkpt>
      <trkpt lat="47.30188" lon="-2.29347">
        <ele>40.799999237061</ele>
        <time>2019-08-08T09:47:04.000Z</time>
      </trkpt>
      <trkpt lat="47.30193" lon="-2.29355">
        <ele>40.400001525879</ele>
        <time>2019-08-08T09:47:05.000Z</time>
      </trkpt>
      <trkpt lat="47.30197" lon="-2.29362">
        <ele>39.799999237061</ele>
        <time>2019-08-08T09:47:06.000Z</time>
      </trkpt>
      <trkpt lat="47.30199" lon="-2.29371">
        <ele>39.799999237061</ele>
        <time>2019-08-08T09:47:07.000Z</time>
      </trkpt>
      <trkpt lat="47.30208" lon="-2.29397">
        <ele>39.799999237061</ele>
        <time>2019-08-08T09:47:10.000Z</time>
      </trkpt>
      <trkpt lat="47.30214" lon="-2.29411">
        <ele>39.799999237061</ele>
        <time>2019-08-08T09:47:12.000Z</time>
      </trkpt>
      <trkpt lat="47.30214" lon="-2.29421">
        <ele>39.799999237061</ele>
        <time>2019-08-08T09:47:14.000Z</time>
      </trkpt>
      <trkpt lat="47.30207" lon="-2.29437">
        <ele>39.799999237061</ele>
        <time>2019-08-08T09:47:17.000Z</time>
      </trkpt>
      <trkpt lat="47.30187" lon="-2.29475">
        <ele>39.799999237061</ele>
        <time>2019-08-08T09:47:23.000Z</time>
      </trkpt>
      <trkpt lat="47.30166" lon="-2.29516">
        <ele>39.799999237061</ele>
        <time>2019-08-08T09:47:29.000Z</time>
      </trkpt>
      <trkpt lat="47.30143" lon="-2.2956">
        <ele>39.799999237061</ele>
        <time>2019-08-08T09:47:35.000Z</time>
      </trkpt>
      <trkpt lat="47.30138" lon="-2.29578">
        <ele>39.799999237061</ele>
        <time>2019-08-08T09:47:37.000Z</time>
      </trkpt>
      <trkpt lat="47.30136" lon="-2.29596">
        <ele>39.799999237061</ele>
        <time>2019-08-08T09:47:39.000Z</time>
      </trkpt>
      <trkpt lat="47.30136" lon="-2.29612">
        <ele>39.799999237061</ele>
        <time>2019-08-08T09:47:41.000Z</time>
      </trkpt>
      <trkpt lat="47.30137" lon="-2.29626">
        <ele>39.799999237061</ele>
        <time>2019-08-08T09:47:43.000Z</time>
      </trkpt>
      <trkpt lat="47.30136" lon="-2.29643">
        <ele>39.799999237061</ele>
        <time>2019-08-08T09:47:47.000Z</time>
      </trkpt>
      <trkpt lat="47.3013" lon="-2.29657">
        <ele>39.799999237061</ele>
        <time>2019-08-08T09:47:52.000Z</time>
      </trkpt>
      <trkpt lat="47.30128" lon="-2.29658">
        <ele>39.799999237061</ele>
        <time>2019-08-08T09:47:53.000Z</time>
      </trkpt>
      <trkpt lat="47.30118" lon="-2.29656">
        <ele>39.799999237061</ele>
        <time>2019-08-08T09:47:56.000Z</time>
      </trkpt>
      <trkpt lat="47.30115" lon="-2.29655">
        <ele>39.799999237061</ele>
        <time>2019-08-08T09:47:57.000Z</time>
      </trkpt>
      <trkpt lat="47.30094" lon="-2.29647">
        <ele>39.799999237061</ele>
        <time>2019-08-08T09:48:02.000Z</time>
      </trkpt>
      <trkpt lat="47.30061" lon="-2.29639">
        <ele>39.799999237061</ele>
        <time>2019-08-08T09:48:09.000Z</time>
      </trkpt>
      <trkpt lat="47.30026" lon="-2.29634">
        <ele>39.799999237061</ele>
        <time>2019-08-08T09:48:16.000Z</time>
      </trkpt>
      <trkpt lat="47.29998" lon="-2.29633">
        <ele>39.799999237061</ele>
        <time>2019-08-08T09:48:22.000Z</time>
      </trkpt>
      <trkpt lat="47.29993" lon="-2.29634">
        <ele>39.799999237061</ele>
        <time>2019-08-08T09:48:23.000Z</time>
      </trkpt>
      <trkpt lat="47.29976" lon="-2.29635">
        <ele>39.799999237061</ele>
        <time>2019-08-08T09:48:27.000Z</time>
      </trkpt>
      <trkpt lat="47.29972" lon="-2.29636">
        <ele>39.799999237061</ele>
        <time>2019-08-08T09:48:28.000Z</time>
      </trkpt>
      <trkpt lat="47.29962" lon="-2.29638">
        <ele>39.799999237061</ele>
        <time>2019-08-08T09:48:30.000Z</time>
      </trkpt>
      <trkpt lat="47.29942" lon="-2.29646">
        <ele>39.799999237061</ele>
        <time>2019-08-08T09:48:34.000Z</time>
      </trkpt>
      <trkpt lat="47.29937" lon="-2.29649">
        <ele>39.799999237061</ele>
        <time>2019-08-08T09:48:35.000Z</time>
      </trkpt>
      <trkpt lat="47.29919" lon="-2.29661">
        <ele>39.799999237061</ele>
        <time>2019-08-08T09:48:39.000Z</time>
      </trkpt>
      <trkpt lat="47.29912" lon="-2.29668">
        <ele>40.200000762939</ele>
        <time>2019-08-08T09:48:41.000Z</time>
      </trkpt>
      <trkpt lat="47.29912" lon="-2.29674">
        <ele>40.799999237061</ele>
        <time>2019-08-08T09:48:42.000Z</time>
      </trkpt>
      <trkpt lat="47.29912" lon="-2.29679">
        <ele>41.200000762939</ele>
        <time>2019-08-08T09:48:43.000Z</time>
      </trkpt>
      <trkpt lat="47.29913" lon="-2.29684">
        <ele>41.599998474121</ele>
        <time>2019-08-08T09:48:44.000Z</time>
      </trkpt>
      <trkpt lat="47.29915" lon="-2.29689">
        <ele>42</ele>
        <time>2019-08-08T09:48:45.000Z</time>
      </trkpt>
      <trkpt lat="47.29917" lon="-2.29695">
        <ele>42</ele>
        <time>2019-08-08T09:48:46.000Z</time>
      </trkpt>
      <trkpt lat="47.29919" lon="-2.29701">
        <ele>42</ele>
        <time>2019-08-08T09:48:47.000Z</time>
      </trkpt>
      <trkpt lat="47.29932" lon="-2.29736">
        <ele>42</ele>
        <time>2019-08-08T09:48:52.000Z</time>
      </trkpt>
      <trkpt lat="47.29952" lon="-2.29788">
        <ele>42</ele>
        <time>2019-08-08T09:49:00.000Z</time>
      </trkpt>
      <trkpt lat="47.29952" lon="-2.29794">
        <ele>42</ele>
        <time>2019-08-08T09:49:02.000Z</time>
      </trkpt>
      <trkpt lat="47.29951" lon="-2.29795">
        <ele>42</ele>
        <time>2019-08-08T09:49:03.000Z</time>
      </trkpt>
      <trkpt lat="47.29948" lon="-2.29798">
        <ele>42</ele>
        <time>2019-08-08T09:49:07.000Z</time>
      </trkpt>
      <trkpt lat="47.29941" lon="-2.29805">
        <ele>40</ele>
        <time>2019-08-08T09:49:39.000Z</time>
      </trkpt>
      <trkpt lat="47.2994" lon="-2.29806">
        <ele>40</ele>
        <time>2019-08-08T09:49:41.000Z</time>
      </trkpt>
      <trkpt lat="47.29936" lon="-2.2981">
        <ele>40</ele>
        <time>2019-08-08T09:49:47.000Z</time>
      </trkpt>
      <trkpt lat="47.29933" lon="-2.29809">
        <ele>40</ele>
        <time>2019-08-08T09:49:48.000Z</time>
      </trkpt>
      <trkpt lat="47.29931" lon="-2.29811">
        <ele>40</ele>
        <time>2019-08-08T09:49:50.000Z</time>
      </trkpt>
      <trkpt lat="47.29929" lon="-2.29813">
        <ele>40</ele>
        <time>2019-08-08T09:49:51.000Z</time>
      </trkpt>
      <trkpt lat="47.29917" lon="-2.29824">
        <ele>40</ele>
        <time>2019-08-08T09:49:57.000Z</time>
      </trkpt>
      <trkpt lat="47.29909" lon="-2.29841">
        <ele>40.400001525879</ele>
        <time>2019-08-08T09:50:00.000Z</time>
      </trkpt>
      <trkpt lat="47.29907" lon="-2.29849">
        <ele>40.799999237061</ele>
        <time>2019-08-08T09:50:01.000Z</time>
      </trkpt>
      <trkpt lat="47.29906" lon="-2.29858">
        <ele>41.200000762939</ele>
        <time>2019-08-08T09:50:02.000Z</time>
      </trkpt>
      <trkpt lat="47.29906" lon="-2.29866">
        <ele>41.599998474121</ele>
        <time>2019-08-08T09:50:03.000Z</time>
      </trkpt>
      <trkpt lat="47.29907" lon="-2.29875">
        <ele>42</ele>
        <time>2019-08-08T09:50:04.000Z</time>
      </trkpt>
      <trkpt lat="47.29907" lon="-2.29884">
        <ele>42</ele>
        <time>2019-08-08T09:50:05.000Z</time>
      </trkpt>
      <trkpt lat="47.29907" lon="-2.29892">
        <ele>42</ele>
        <time>2019-08-08T09:50:06.000Z</time>
      </trkpt>
      <trkpt lat="47.29908" lon="-2.2992">
        <ele>42</ele>
        <time>2019-08-08T09:50:09.000Z</time>
      </trkpt>
      <trkpt lat="47.29901" lon="-2.29934">
        <ele>42</ele>
        <time>2019-08-08T09:50:11.000Z</time>
      </trkpt>
      <trkpt lat="47.29884" lon="-2.29943">
        <ele>42</ele>
        <time>2019-08-08T09:50:14.000Z</time>
      </trkpt>
      <trkpt lat="47.29873" lon="-2.29945">
        <ele>42</ele>
        <time>2019-08-08T09:50:16.000Z</time>
      </trkpt>
      <trkpt lat="47.29857" lon="-2.29948">
        <ele>42</ele>
        <time>2019-08-08T09:50:19.000Z</time>
      </trkpt>
      <trkpt lat="47.29826" lon="-2.29954">
        <ele>42</ele>
        <time>2019-08-08T09:50:25.000Z</time>
      </trkpt>
      <trkpt lat="47.29793" lon="-2.29954">
        <ele>42</ele>
        <time>2019-08-08T09:50:31.000Z</time>
      </trkpt>
      <trkpt lat="47.29788" lon="-2.29955">
        <ele>42</ele>
        <time>2019-08-08T09:50:32.000Z</time>
      </trkpt>
      <trkpt lat="47.29779" lon="-2.29958">
        <ele>42</ele>
        <time>2019-08-08T09:50:34.000Z</time>
      </trkpt>
      <trkpt lat="47.29774" lon="-2.29961">
        <ele>42</ele>
        <time>2019-08-08T09:50:35.000Z</time>
      </trkpt>
      <trkpt lat="47.2977" lon="-2.29965">
        <ele>42</ele>
        <time>2019-08-08T09:50:36.000Z</time>
      </trkpt>
      <trkpt lat="47.29757" lon="-2.29973">
        <ele>42</ele>
        <time>2019-08-08T09:50:39.000Z</time>
      </trkpt>
      <trkpt lat="47.2974" lon="-2.29986">
        <ele>42</ele>
        <time>2019-08-08T09:50:44.000Z</time>
      </trkpt>
      <trkpt lat="47.29721" lon="-2.29998">
        <ele>42</ele>
        <time>2019-08-08T09:50:49.000Z</time>
      </trkpt>
      <trkpt lat="47.29693" lon="-2.30003">
        <ele>42</ele>
        <time>2019-08-08T09:50:54.000Z</time>
      </trkpt>
      <trkpt lat="47.29661" lon="-2.29998">
        <ele>42</ele>
        <time>2019-08-08T09:51:00.000Z</time>
      </trkpt>
      <trkpt lat="47.29648" lon="-2.29987">
        <ele>42</ele>
        <time>2019-08-08T09:51:04.000Z</time>
      </trkpt>
      <trkpt lat="47.29637" lon="-2.29989">
        <ele>42</ele>
        <time>2019-08-08T09:51:07.000Z</time>
      </trkpt>
      <trkpt lat="47.29633" lon="-2.29992">
        <ele>42</ele>
        <time>2019-08-08T09:51:08.000Z</time>
      </trkpt>
      <trkpt lat="47.29629" lon="-2.29994">
        <ele>42</ele>
        <time>2019-08-08T09:51:09.000Z</time>
      </trkpt>
      <trkpt lat="47.29612" lon="-2.30002">
        <ele>42</ele>
        <time>2019-08-08T09:51:12.000Z</time>
      </trkpt>
      <trkpt lat="47.29606" lon="-2.30003">
        <ele>42</ele>
        <time>2019-08-08T09:51:13.000Z</time>
      </trkpt>
      <trkpt lat="47.29584" lon="-2.3001">
        <ele>42</ele>
        <time>2019-08-08T09:51:17.000Z</time>
      </trkpt>
      <trkpt lat="47.29551" lon="-2.30021">
        <ele>42</ele>
        <time>2019-08-08T09:51:23.000Z</time>
      </trkpt>
      <trkpt lat="47.29532" lon="-2.30029">
        <ele>42</ele>
        <time>2019-08-08T09:51:27.000Z</time>
      </trkpt>
      <trkpt lat="47.29523" lon="-2.3003">
        <ele>42</ele>
        <time>2019-08-08T09:51:29.000Z</time>
      </trkpt>
      <trkpt lat="47.29518" lon="-2.30029">
        <ele>42</ele>
        <time>2019-08-08T09:51:30.000Z</time>
      </trkpt>
      <trkpt lat="47.29506" lon="-2.30025">
        <ele>42</ele>
        <time>2019-08-08T09:51:33.000Z</time>
      </trkpt>
      <trkpt lat="47.29494" lon="-2.30026">
        <ele>42</ele>
        <time>2019-08-08T09:51:36.000Z</time>
      </trkpt>
      <trkpt lat="47.29485" lon="-2.30028">
        <ele>42</ele>
        <time>2019-08-08T09:51:38.000Z</time>
      </trkpt>
      <trkpt lat="47.29454" lon="-2.30028">
        <ele>42</ele>
        <time>2019-08-08T09:51:44.000Z</time>
      </trkpt>
      <trkpt lat="47.29419" lon="-2.30031">
        <ele>42</ele>
        <time>2019-08-08T09:51:51.000Z</time>
      </trkpt>
      <trkpt lat="47.29397" lon="-2.30027">
        <ele>42</ele>
        <time>2019-08-08T09:51:56.000Z</time>
      </trkpt>
      <trkpt lat="47.29374" lon="-2.30019">
        <ele>42</ele>
        <time>2019-08-08T09:52:02.000Z</time>
      </trkpt>
      <trkpt lat="47.2935" lon="-2.30007">
        <ele>42</ele>
        <time>2019-08-08T09:52:09.000Z</time>
      </trkpt>
      <trkpt lat="47.29345" lon="-2.30009">
        <ele>42.799999237061</ele>
        <time>2019-08-08T09:52:12.000Z</time>
      </trkpt>
      <trkpt lat="47.29345" lon="-2.30014">
        <ele>43.200000762939</ele>
        <time>2019-08-08T09:52:13.000Z</time>
      </trkpt>
      <trkpt lat="47.29344" lon="-2.3002">
        <ele>43.599998474121</ele>
        <time>2019-08-08T09:52:14.000Z</time>
      </trkpt>
      <trkpt lat="47.29344" lon="-2.30026">
        <ele>44</ele>
        <time>2019-08-08T09:52:15.000Z</time>
      </trkpt>
      <trkpt lat="47.29343" lon="-2.30032">
        <ele>44</ele>
        <time>2019-08-08T09:52:16.000Z</time>
      </trkpt>
      <trkpt lat="47.29342" lon="-2.30045">
        <ele>44</ele>
        <time>2019-08-08T09:52:18.000Z</time>
      </trkpt>
      <trkpt lat="47.29337" lon="-2.301">
        <ele>44</ele>
        <time>2019-08-08T09:52:25.000Z</time>
      </trkpt>
      <trkpt lat="47.29333" lon="-2.30115">
        <ele>44</ele>
        <time>2019-08-08T09:52:27.000Z</time>
      </trkpt>
      <trkpt lat="47.29328" lon="-2.30128">
        <ele>44</ele>
        <time>2019-08-08T09:52:29.000Z</time>
      </trkpt>
      <trkpt lat="47.29326" lon="-2.30134">
        <ele>44</ele>
        <time>2019-08-08T09:52:30.000Z</time>
      </trkpt>
      <trkpt lat="47.2932" lon="-2.3014">
        <ele>44</ele>
        <time>2019-08-08T09:52:32.000Z</time>
      </trkpt>
      <trkpt lat="47.29315" lon="-2.30139">
        <ele>44</ele>
        <time>2019-08-08T09:52:33.000Z</time>
      </trkpt>
      <trkpt lat="47.29283" lon="-2.30139">
        <ele>44</ele>
        <time>2019-08-08T09:52:40.000Z</time>
      </trkpt>
      <trkpt lat="47.29268" lon="-2.30138">
        <ele>44</ele>
        <time>2019-08-08T09:52:44.000Z</time>
      </trkpt>
      <trkpt lat="47.29266" lon="-2.30142">
        <ele>44</ele>
        <time>2019-08-08T09:52:45.000Z</time>
      </trkpt>
      <trkpt lat="47.2926" lon="-2.30143">
        <ele>44</ele>
        <time>2019-08-08T09:52:47.000Z</time>
      </trkpt>
      <trkpt lat="47.29241" lon="-2.30142">
        <ele>44</ele>
        <time>2019-08-08T09:52:53.000Z</time>
      </trkpt>
      <trkpt lat="47.29233" lon="-2.30145">
        <ele>44</ele>
        <time>2019-08-08T09:52:55.000Z</time>
      </trkpt>
      <trkpt lat="47.29222" lon="-2.30153">
        <ele>44</ele>
        <time>2019-08-08T09:52:58.000Z</time>
      </trkpt>
      <trkpt lat="47.29218" lon="-2.30155">
        <ele>44</ele>
        <time>2019-08-08T09:52:59.000Z</time>
      </trkpt>
      <trkpt lat="47.29191" lon="-2.3017">
        <ele>44</ele>
        <time>2019-08-08T09:53:05.000Z</time>
      </trkpt>
      <trkpt lat="47.29185" lon="-2.30173">
        <ele>44</ele>
        <time>2019-08-08T09:53:06.000Z</time>
      </trkpt>
      <trkpt lat="47.29165" lon="-2.30183">
        <ele>44</ele>
        <time>2019-08-08T09:53:10.000Z</time>
      </trkpt>
      <trkpt lat="47.29155" lon="-2.30188">
        <ele>44.599998474121</ele>
        <time>2019-08-08T09:53:12.000Z</time>
      </trkpt>
      <trkpt lat="47.29149" lon="-2.30191">
        <ele>45</ele>
        <time>2019-08-08T09:53:13.000Z</time>
      </trkpt>
      <trkpt lat="47.29144" lon="-2.30194">
        <ele>45.400001525879</ele>
        <time>2019-08-08T09:53:14.000Z</time>
      </trkpt>
      <trkpt lat="47.29138" lon="-2.30197">
        <ele>46</ele>
        <time>2019-08-08T09:53:15.000Z</time>
      </trkpt>
      <trkpt lat="47.29133" lon="-2.302">
        <ele>46.400001525879</ele>
        <time>2019-08-08T09:53:16.000Z</time>
      </trkpt>
      <trkpt lat="47.29128" lon="-2.30203">
        <ele>46.400001525879</ele>
        <time>2019-08-08T09:53:17.000Z</time>
      </trkpt>
      <trkpt lat="47.2909" lon="-2.30222">
        <ele>46.400001525879</ele>
        <time>2019-08-08T09:53:24.000Z</time>
      </trkpt>
      <trkpt lat="47.29063" lon="-2.30235">
        <ele>46.400001525879</ele>
        <time>2019-08-08T09:53:29.000Z</time>
      </trkpt>
      <trkpt lat="47.29048" lon="-2.30241">
        <ele>46.400001525879</ele>
        <time>2019-08-08T09:53:32.000Z</time>
      </trkpt>
      <trkpt lat="47.29011" lon="-2.30253">
        <ele>46.400001525879</ele>
        <time>2019-08-08T09:53:39.000Z</time>
      </trkpt>
      <trkpt lat="47.28982" lon="-2.30257">
        <ele>46.400001525879</ele>
        <time>2019-08-08T09:53:45.000Z</time>
      </trkpt>
      <trkpt lat="47.28978" lon="-2.30258">
        <ele>46.400001525879</ele>
        <time>2019-08-08T09:53:46.000Z</time>
      </trkpt>
      <trkpt lat="47.28971" lon="-2.30274">
        <ele>46.400001525879</ele>
        <time>2019-08-08T09:53:49.000Z</time>
      </trkpt>
      <trkpt lat="47.28971" lon="-2.30282">
        <ele>46.400001525879</ele>
        <time>2019-08-08T09:53:50.000Z</time>
      </trkpt>
      <trkpt lat="47.28971" lon="-2.30289">
        <ele>46.400001525879</ele>
        <time>2019-08-08T09:53:51.000Z</time>
      </trkpt>
      <trkpt lat="47.28973" lon="-2.30311">
        <ele>46.400001525879</ele>
        <time>2019-08-08T09:53:54.000Z</time>
      </trkpt>
      <trkpt lat="47.28975" lon="-2.30364">
        <ele>46.400001525879</ele>
        <time>2019-08-08T09:54:01.000Z</time>
      </trkpt>
      <trkpt lat="47.28977" lon="-2.30386">
        <ele>46.400001525879</ele>
        <time>2019-08-08T09:54:04.000Z</time>
      </trkpt>
      <trkpt lat="47.28976" lon="-2.30409">
        <ele>46.400001525879</ele>
        <time>2019-08-08T09:54:07.000Z</time>
      </trkpt>
      <trkpt lat="47.28976" lon="-2.30438">
        <ele>46.400001525879</ele>
        <time>2019-08-08T09:54:11.000Z</time>
      </trkpt>
      <trkpt lat="47.28977" lon="-2.30445">
        <ele>46.400001525879</ele>
        <time>2019-08-08T09:54:12.000Z</time>
      </trkpt>
      <trkpt lat="47.28981" lon="-2.30467">
        <ele>47.200000762939</ele>
        <time>2019-08-08T09:54:15.000Z</time>
      </trkpt>
      <trkpt lat="47.28983" lon="-2.30475">
        <ele>47.799999237061</ele>
        <time>2019-08-08T09:54:16.000Z</time>
      </trkpt>
      <trkpt lat="47.28985" lon="-2.30481">
        <ele>48.200000762939</ele>
        <time>2019-08-08T09:54:17.000Z</time>
      </trkpt>
      <trkpt lat="47.28987" lon="-2.30489">
        <ele>48.599998474121</ele>
        <time>2019-08-08T09:54:18.000Z</time>
      </trkpt>
      <trkpt lat="47.28997" lon="-2.30531">
        <ele>48.599998474121</ele>
        <time>2019-08-08T09:54:24.000Z</time>
      </trkpt>
      <trkpt lat="47.29003" lon="-2.30556">
        <ele>48.599998474121</ele>
        <time>2019-08-08T09:54:27.000Z</time>
      </trkpt>
      <trkpt lat="47.29007" lon="-2.30582">
        <ele>48.599998474121</ele>
        <time>2019-08-08T09:54:30.000Z</time>
      </trkpt>
      <trkpt lat="47.29008" lon="-2.30591">
        <ele>48.599998474121</ele>
        <time>2019-08-08T09:54:31.000Z</time>
      </trkpt>
      <trkpt lat="47.29008" lon="-2.30613">
        <ele>48.599998474121</ele>
        <time>2019-08-08T09:54:34.000Z</time>
      </trkpt>
      <trkpt lat="47.29007" lon="-2.30621">
        <ele>48.200000762939</ele>
        <time>2019-08-08T09:54:35.000Z</time>
      </trkpt>
      <trkpt lat="47.29005" lon="-2.30628">
        <ele>47.799999237061</ele>
        <time>2019-08-08T09:54:36.000Z</time>
      </trkpt>
      <trkpt lat="47.29004" lon="-2.30636">
        <ele>47.200000762939</ele>
        <time>2019-08-08T09:54:37.000Z</time>
      </trkpt>
      <trkpt lat="47.29004" lon="-2.30644">
        <ele>46.799999237061</ele>
        <time>2019-08-08T09:54:38.000Z</time>
      </trkpt>
      <trkpt lat="47.29004" lon="-2.30651">
        <ele>46.400001525879</ele>
        <time>2019-08-08T09:54:39.000Z</time>
      </trkpt>
      <trkpt lat="47.29006" lon="-2.30701">
        <ele>46.400001525879</ele>
        <time>2019-08-08T09:54:45.000Z</time>
      </trkpt>
      <trkpt lat="47.29006" lon="-2.3071">
        <ele>46.400001525879</ele>
        <time>2019-08-08T09:54:46.000Z</time>
      </trkpt>
      <trkpt lat="47.29006" lon="-2.30736">
        <ele>46.400001525879</ele>
        <time>2019-08-08T09:54:49.000Z</time>
      </trkpt>
      <trkpt lat="47.29006" lon="-2.30744">
        <ele>46.400001525879</ele>
        <time>2019-08-08T09:54:50.000Z</time>
      </trkpt>
      <trkpt lat="47.29005" lon="-2.30753">
        <ele>46.400001525879</ele>
        <time>2019-08-08T09:54:51.000Z</time>
      </trkpt>
      <trkpt lat="47.29007" lon="-2.3077">
        <ele>46.400001525879</ele>
        <time>2019-08-08T09:54:53.000Z</time>
      </trkpt>
      <trkpt lat="47.29008" lon="-2.30778">
        <ele>46.400001525879</ele>
        <time>2019-08-08T09:54:54.000Z</time>
      </trkpt>
      <trkpt lat="47.2902" lon="-2.30837">
        <ele>46.799999237061</ele>
        <time>2019-08-08T09:55:01.000Z</time>
      </trkpt>
      <trkpt lat="47.29021" lon="-2.30846">
        <ele>47.200000762939</ele>
        <time>2019-08-08T09:55:02.000Z</time>
      </trkpt>
      <trkpt lat="47.29022" lon="-2.30855">
        <ele>47.599998474121</ele>
        <time>2019-08-08T09:55:03.000Z</time>
      </trkpt>
      <trkpt lat="47.29023" lon="-2.30864">
        <ele>48</ele>
        <time>2019-08-08T09:55:04.000Z</time>
      </trkpt>
      <trkpt lat="47.29024" lon="-2.30873">
        <ele>48.599998474121</ele>
        <time>2019-08-08T09:55:05.000Z</time>
      </trkpt>
      <trkpt lat="47.29025" lon="-2.3089">
        <ele>48.599998474121</ele>
        <time>2019-08-08T09:55:07.000Z</time>
      </trkpt>
      <trkpt lat="47.29027" lon="-2.30938">
        <ele>49</ele>
        <time>2019-08-08T09:55:13.000Z</time>
      </trkpt>
      <trkpt lat="47.29027" lon="-2.30946">
        <ele>49.400001525879</ele>
        <time>2019-08-08T09:55:14.000Z</time>
      </trkpt>
      <trkpt lat="47.29028" lon="-2.30953">
        <ele>49.799999237061</ele>
        <time>2019-08-08T09:55:15.000Z</time>
      </trkpt>
      <trkpt lat="47.29028" lon="-2.30962">
        <ele>50.200000762939</ele>
        <time>2019-08-08T09:55:16.000Z</time>
      </trkpt>
      <trkpt lat="47.29028" lon="-2.3097">
        <ele>50.799999237061</ele>
        <time>2019-08-08T09:55:17.000Z</time>
      </trkpt>
      <trkpt lat="47.29028" lon="-2.30986">
        <ele>50.799999237061</ele>
        <time>2019-08-08T09:55:19.000Z</time>
      </trkpt>
      <trkpt lat="47.29028" lon="-2.31019">
        <ele>51.200000762939</ele>
        <time>2019-08-08T09:55:23.000Z</time>
      </trkpt>
      <trkpt lat="47.29029" lon="-2.31027">
        <ele>51.599998474121</ele>
        <time>2019-08-08T09:55:24.000Z</time>
      </trkpt>
      <trkpt lat="47.29028" lon="-2.31035">
        <ele>52</ele>
        <time>2019-08-08T09:55:25.000Z</time>
      </trkpt>
      <trkpt lat="47.29028" lon="-2.31043">
        <ele>52.400001525879</ele>
        <time>2019-08-08T09:55:26.000Z</time>
      </trkpt>
      <trkpt lat="47.29028" lon="-2.31051">
        <ele>52.799999237061</ele>
        <time>2019-08-08T09:55:27.000Z</time>
      </trkpt>
      <trkpt lat="47.29029" lon="-2.31083">
        <ele>52.799999237061</ele>
        <time>2019-08-08T09:55:31.000Z</time>
      </trkpt>
      <trkpt lat="47.2903" lon="-2.31091">
        <ele>52.799999237061</ele>
        <time>2019-08-08T09:55:32.000Z</time>
      </trkpt>
      <trkpt lat="47.29031" lon="-2.31099">
        <ele>53.200000762939</ele>
        <time>2019-08-08T09:55:33.000Z</time>
      </trkpt>
      <trkpt lat="47.29032" lon="-2.31107">
        <ele>53.799999237061</ele>
        <time>2019-08-08T09:55:34.000Z</time>
      </trkpt>
      <trkpt lat="47.29032" lon="-2.31114">
        <ele>54.200000762939</ele>
        <time>2019-08-08T09:55:35.000Z</time>
      </trkpt>
      <trkpt lat="47.29033" lon="-2.31122">
        <ele>54.599998474121</ele>
        <time>2019-08-08T09:55:36.000Z</time>
      </trkpt>
      <trkpt lat="47.29034" lon="-2.3113">
        <ele>55</ele>
        <time>2019-08-08T09:55:37.000Z</time>
      </trkpt>
      <trkpt lat="47.29036" lon="-2.31161">
        <ele>55</ele>
        <time>2019-08-08T09:55:41.000Z</time>
      </trkpt>
      <trkpt lat="47.29039" lon="-2.31186">
        <ele>55.400001525879</ele>
        <time>2019-08-08T09:55:44.000Z</time>
      </trkpt>
      <trkpt lat="47.2904" lon="-2.31194">
        <ele>55.799999237061</ele>
        <time>2019-08-08T09:55:45.000Z</time>
      </trkpt>
      <trkpt lat="47.29041" lon="-2.31202">
        <ele>56.400001525879</ele>
        <time>2019-08-08T09:55:46.000Z</time>
      </trkpt>
      <trkpt lat="47.29041" lon="-2.3121">
        <ele>56.799999237061</ele>
        <time>2019-08-08T09:55:47.000Z</time>
      </trkpt>
      <trkpt lat="47.29041" lon="-2.31218">
        <ele>57.200000762939</ele>
        <time>2019-08-08T09:55:48.000Z</time>
      </trkpt>
      <trkpt lat="47.29032" lon="-2.3125">
        <ele>57.200000762939</ele>
        <time>2019-08-08T09:55:52.000Z</time>
      </trkpt>
      <trkpt lat="47.29013" lon="-2.31291">
        <ele>57.200000762939</ele>
        <time>2019-08-08T09:55:58.000Z</time>
      </trkpt>
      <trkpt lat="47.28995" lon="-2.31332">
        <ele>57.200000762939</ele>
        <time>2019-08-08T09:56:04.000Z</time>
      </trkpt>
      <trkpt lat="47.28985" lon="-2.3135">
        <ele>57.599998474121</ele>
        <time>2019-08-08T09:56:07.000Z</time>
      </trkpt>
      <trkpt lat="47.28981" lon="-2.31356">
        <ele>58</ele>
        <time>2019-08-08T09:56:08.000Z</time>
      </trkpt>
      <trkpt lat="47.28977" lon="-2.31362">
        <ele>58.400001525879</ele>
        <time>2019-08-08T09:56:09.000Z</time>
      </trkpt>
      <trkpt lat="47.28972" lon="-2.31367">
        <ele>58.799999237061</ele>
        <time>2019-08-08T09:56:10.000Z</time>
      </trkpt>
      <trkpt lat="47.28967" lon="-2.31372">
        <ele>59.400001525879</ele>
        <time>2019-08-08T09:56:11.000Z</time>
      </trkpt>
      <trkpt lat="47.28952" lon="-2.31386">
        <ele>59.400001525879</ele>
        <time>2019-08-08T09:56:14.000Z</time>
      </trkpt>
      <trkpt lat="47.2894" lon="-2.31392">
        <ele>59.400001525879</ele>
        <time>2019-08-08T09:56:16.000Z</time>
      </trkpt>
      <trkpt lat="47.28928" lon="-2.31394">
        <ele>59.400001525879</ele>
        <time>2019-08-08T09:56:18.000Z</time>
      </trkpt>
      <trkpt lat="47.28922" lon="-2.31394">
        <ele>59.400001525879</ele>
        <time>2019-08-08T09:56:19.000Z</time>
      </trkpt>
      <trkpt lat="47.28916" lon="-2.31394">
        <ele>59.400001525879</ele>
        <time>2019-08-08T09:56:20.000Z</time>
      </trkpt>
      <trkpt lat="47.28876" lon="-2.31397">
        <ele>59.400001525879</ele>
        <time>2019-08-08T09:56:27.000Z</time>
      </trkpt>
      <trkpt lat="47.28842" lon="-2.31412">
        <ele>59.400001525879</ele>
        <time>2019-08-08T09:56:33.000Z</time>
      </trkpt>
      <trkpt lat="47.28799" lon="-2.31439">
        <ele>59.400001525879</ele>
        <time>2019-08-08T09:56:41.000Z</time>
      </trkpt>
      <trkpt lat="47.28784" lon="-2.3145">
        <ele>59.799999237061</ele>
        <time>2019-08-08T09:56:44.000Z</time>
      </trkpt>
      <trkpt lat="47.28779" lon="-2.31453">
        <ele>60.200000762939</ele>
        <time>2019-08-08T09:56:45.000Z</time>
      </trkpt>
      <trkpt lat="47.28774" lon="-2.31457">
        <ele>60.599998474121</ele>
        <time>2019-08-08T09:56:46.000Z</time>
      </trkpt>
      <trkpt lat="47.28768" lon="-2.3146">
        <ele>61</ele>
        <time>2019-08-08T09:56:47.000Z</time>
      </trkpt>
      <trkpt lat="47.28763" lon="-2.31463">
        <ele>61.599998474121</ele>
        <time>2019-08-08T09:56:48.000Z</time>
      </trkpt>
      <trkpt lat="47.2873" lon="-2.31482">
        <ele>61.599998474121</ele>
        <time>2019-08-08T09:56:54.000Z</time>
      </trkpt>
      <trkpt lat="47.28696" lon="-2.31496">
        <ele>61.599998474121</ele>
        <time>2019-08-08T09:57:00.000Z</time>
      </trkpt>
      <trkpt lat="47.28675" lon="-2.31487">
        <ele>61.599998474121</ele>
        <time>2019-08-08T09:57:04.000Z</time>
      </trkpt>
      <trkpt lat="47.28667" lon="-2.3147">
        <ele>61.599998474121</ele>
        <time>2019-08-08T09:57:07.000Z</time>
      </trkpt>
      <trkpt lat="47.28662" lon="-2.31459">
        <ele>61.599998474121</ele>
        <time>2019-08-08T09:57:09.000Z</time>
      </trkpt>
      <trkpt lat="47.28655" lon="-2.31456">
        <ele>61.599998474121</ele>
        <time>2019-08-08T09:57:11.000Z</time>
      </trkpt>
      <trkpt lat="47.28647" lon="-2.31459">
        <ele>61.599998474121</ele>
        <time>2019-08-08T09:57:13.000Z</time>
      </trkpt>
      <trkpt lat="47.28636" lon="-2.31466">
        <ele>61.599998474121</ele>
        <time>2019-08-08T09:57:16.000Z</time>
      </trkpt>
      <trkpt lat="47.28616" lon="-2.31478">
        <ele>61.599998474121</ele>
        <time>2019-08-08T09:57:22.000Z</time>
      </trkpt>
      <trkpt lat="47.28609" lon="-2.31482">
        <ele>61.599998474121</ele>
        <time>2019-08-08T09:57:27.000Z</time>
      </trkpt>
      <trkpt lat="47.28604" lon="-2.31483">
        <ele>61.599998474121</ele>
        <time>2019-08-08T09:58:49.000Z</time>
      </trkpt>
      <trkpt lat="47.28597" lon="-2.31487">
        <ele>61.599998474121</ele>
        <time>2019-08-08T09:58:52.000Z</time>
      </trkpt>
      <trkpt lat="47.28579" lon="-2.31494">
        <ele>61.599998474121</ele>
        <time>2019-08-08T09:58:56.000Z</time>
      </trkpt>
      <trkpt lat="47.28542" lon="-2.31503">
        <ele>61.599998474121</ele>
        <time>2019-08-08T09:59:03.000Z</time>
      </trkpt>
      <trkpt lat="47.28489" lon="-2.31512">
        <ele>61.599998474121</ele>
        <time>2019-08-08T09:59:12.000Z</time>
      </trkpt>
      <trkpt lat="47.28466" lon="-2.31518">
        <ele>61.599998474121</ele>
        <time>2019-08-08T09:59:16.000Z</time>
      </trkpt>
      <trkpt lat="47.2846" lon="-2.31521">
        <ele>61.200000762939</ele>
        <time>2019-08-08T09:59:17.000Z</time>
      </trkpt>
      <trkpt lat="47.28455" lon="-2.31524">
        <ele>60.799999237061</ele>
        <time>2019-08-08T09:59:18.000Z</time>
      </trkpt>
      <trkpt lat="47.2845" lon="-2.31527">
        <ele>60.200000762939</ele>
        <time>2019-08-08T09:59:19.000Z</time>
      </trkpt>
      <trkpt lat="47.28445" lon="-2.31531">
        <ele>59.799999237061</ele>
        <time>2019-08-08T09:59:20.000Z</time>
      </trkpt>
      <trkpt lat="47.2844" lon="-2.31536">
        <ele>59.400001525879</ele>
        <time>2019-08-08T09:59:21.000Z</time>
      </trkpt>
      <trkpt lat="47.28421" lon="-2.31555">
        <ele>59.400001525879</ele>
        <time>2019-08-08T09:59:25.000Z</time>
      </trkpt>
      <trkpt lat="47.28392" lon="-2.31569">
        <ele>59.400001525879</ele>
        <time>2019-08-08T09:59:30.000Z</time>
      </trkpt>
      <trkpt lat="47.28349" lon="-2.31585">
        <ele>59.400001525879</ele>
        <time>2019-08-08T09:59:38.000Z</time>
      </trkpt>
      <trkpt lat="47.2833" lon="-2.31593">
        <ele>59.400001525879</ele>
        <time>2019-08-08T09:59:43.000Z</time>
      </trkpt>
      <trkpt lat="47.28316" lon="-2.31595">
        <ele>59.400001525879</ele>
        <time>2019-08-08T09:59:48.000Z</time>
      </trkpt>
      <trkpt lat="47.28293" lon="-2.31593">
        <ele>59.400001525879</ele>
        <time>2019-08-08T09:59:53.000Z</time>
      </trkpt>
      <trkpt lat="47.28265" lon="-2.31603">
        <ele>59.400001525879</ele>
        <time>2019-08-08T09:59:58.000Z</time>
      </trkpt>
      <trkpt lat="47.28224" lon="-2.31616">
        <ele>59.400001525879</ele>
        <time>2019-08-08T10:00:04.000Z</time>
      </trkpt>
      <trkpt lat="47.28173" lon="-2.31626">
        <ele>59.400001525879</ele>
        <time>2019-08-08T10:00:12.000Z</time>
      </trkpt>
      <trkpt lat="47.28139" lon="-2.31629">
        <ele>59</ele>
        <time>2019-08-08T10:00:17.000Z</time>
      </trkpt>
      <trkpt lat="47.28132" lon="-2.31629">
        <ele>58.599998474121</ele>
        <time>2019-08-08T10:00:18.000Z</time>
      </trkpt>
      <trkpt lat="47.28125" lon="-2.31629">
        <ele>58.200000762939</ele>
        <time>2019-08-08T10:00:19.000Z</time>
      </trkpt>
      <trkpt lat="47.28118" lon="-2.3163">
        <ele>57.799999237061</ele>
        <time>2019-08-08T10:00:20.000Z</time>
      </trkpt>
      <trkpt lat="47.28111" lon="-2.3163">
        <ele>57.400001525879</ele>
        <time>2019-08-08T10:00:21.000Z</time>
      </trkpt>
      <trkpt lat="47.28085" lon="-2.31629">
        <ele>57.400001525879</ele>
        <time>2019-08-08T10:00:25.000Z</time>
      </trkpt>
      <trkpt lat="47.28045" lon="-2.31635">
        <ele>57.400001525879</ele>
        <time>2019-08-08T10:00:31.000Z</time>
      </trkpt>
      <trkpt lat="47.2803" lon="-2.3164">
        <ele>57</ele>
        <time>2019-08-08T10:00:33.000Z</time>
      </trkpt>
      <trkpt lat="47.28023" lon="-2.31642">
        <ele>56.599998474121</ele>
        <time>2019-08-08T10:00:34.000Z</time>
      </trkpt>
      <trkpt lat="47.28017" lon="-2.31645">
        <ele>56.200000762939</ele>
        <time>2019-08-08T10:00:35.000Z</time>
      </trkpt>
      <trkpt lat="47.28011" lon="-2.31648">
        <ele>55.799999237061</ele>
        <time>2019-08-08T10:00:36.000Z</time>
      </trkpt>
      <trkpt lat="47.28005" lon="-2.31651">
        <ele>55.400001525879</ele>
        <time>2019-08-08T10:00:37.000Z</time>
      </trkpt>
      <trkpt lat="47.27994" lon="-2.31656">
        <ele>55.400001525879</ele>
        <time>2019-08-08T10:00:39.000Z</time>
      </trkpt>
      <trkpt lat="47.27969" lon="-2.3167">
        <ele>55.400001525879</ele>
        <time>2019-08-08T10:00:44.000Z</time>
      </trkpt>
      <trkpt lat="47.2794" lon="-2.31693">
        <ele>55.400001525879</ele>
        <time>2019-08-08T10:00:50.000Z</time>
      </trkpt>
      <trkpt lat="47.27936" lon="-2.31697">
        <ele>55.799999237061</ele>
        <time>2019-08-08T10:00:51.000Z</time>
      </trkpt>
      <trkpt lat="47.27931" lon="-2.31702">
        <ele>56.200000762939</ele>
        <time>2019-08-08T10:00:52.000Z</time>
      </trkpt>
      <trkpt lat="47.27926" lon="-2.31706">
        <ele>56.599998474121</ele>
        <time>2019-08-08T10:00:53.000Z</time>
      </trkpt>
      <trkpt lat="47.27921" lon="-2.3171">
        <ele>57</ele>
        <time>2019-08-08T10:00:54.000Z</time>
      </trkpt>
      <trkpt lat="47.27916" lon="-2.31714">
        <ele>57.400001525879</ele>
        <time>2019-08-08T10:00:55.000Z</time>
      </trkpt>
      <trkpt lat="47.27889" lon="-2.31734">
        <ele>57.400001525879</ele>
        <time>2019-08-08T10:01:00.000Z</time>
      </trkpt>
      <trkpt lat="47.27879" lon="-2.31743">
        <ele>57.400001525879</ele>
        <time>2019-08-08T10:01:02.000Z</time>
      </trkpt>
      <trkpt lat="47.27875" lon="-2.31749">
        <ele>57.400001525879</ele>
        <time>2019-08-08T10:01:03.000Z</time>
      </trkpt>
      <trkpt lat="47.27871" lon="-2.31766">
        <ele>57.400001525879</ele>
        <time>2019-08-08T10:01:05.000Z</time>
      </trkpt>
      <trkpt lat="47.27874" lon="-2.31799">
        <ele>57.400001525879</ele>
        <time>2019-08-08T10:01:09.000Z</time>
      </trkpt>
      <trkpt lat="47.27882" lon="-2.31863">
        <ele>57.400001525879</ele>
        <time>2019-08-08T10:01:17.000Z</time>
      </trkpt>
      <trkpt lat="47.27895" lon="-2.31887">
        <ele>57.400001525879</ele>
        <time>2019-08-08T10:01:21.000Z</time>
      </trkpt>
      <trkpt lat="47.27906" lon="-2.31896">
        <ele>57.400001525879</ele>
        <time>2019-08-08T10:01:23.000Z</time>
      </trkpt>
      <trkpt lat="47.27928" lon="-2.31911">
        <ele>57.400001525879</ele>
        <time>2019-08-08T10:01:27.000Z</time>
      </trkpt>
      <trkpt lat="47.27934" lon="-2.31914">
        <ele>57.799999237061</ele>
        <time>2019-08-08T10:01:28.000Z</time>
      </trkpt>
      <trkpt lat="47.2794" lon="-2.31918">
        <ele>58.200000762939</ele>
        <time>2019-08-08T10:01:29.000Z</time>
      </trkpt>
      <trkpt lat="47.27947" lon="-2.31922">
        <ele>58.599998474121</ele>
        <time>2019-08-08T10:01:30.000Z</time>
      </trkpt>
      <trkpt lat="47.27952" lon="-2.31926">
        <ele>59</ele>
        <time>2019-08-08T10:01:31.000Z</time>
      </trkpt>
      <trkpt lat="47.27958" lon="-2.31931">
        <ele>59.400001525879</ele>
        <time>2019-08-08T10:01:32.000Z</time>
      </trkpt>
      <trkpt lat="47.27964" lon="-2.31937">
        <ele>59.400001525879</ele>
        <time>2019-08-08T10:01:33.000Z</time>
      </trkpt>
      <trkpt lat="47.27999" lon="-2.31976">
        <ele>59.400001525879</ele>
        <time>2019-08-08T10:01:40.000Z</time>
      </trkpt>
      <trkpt lat="47.28026" lon="-2.32011">
        <ele>59.400001525879</ele>
        <time>2019-08-08T10:01:46.000Z</time>
      </trkpt>
      <trkpt lat="47.28047" lon="-2.32059">
        <ele>59.400001525879</ele>
        <time>2019-08-08T10:01:52.000Z</time>
      </trkpt>
      <trkpt lat="47.28075" lon="-2.32122">
        <ele>59</ele>
        <time>2019-08-08T10:01:59.000Z</time>
      </trkpt>
      <trkpt lat="47.28078" lon="-2.3213">
        <ele>58.599998474121</ele>
        <time>2019-08-08T10:02:00.000Z</time>
      </trkpt>
      <trkpt lat="47.28081" lon="-2.32138">
        <ele>58.200000762939</ele>
        <time>2019-08-08T10:02:01.000Z</time>
      </trkpt>
      <trkpt lat="47.28081" lon="-2.32146">
        <ele>57.799999237061</ele>
        <time>2019-08-08T10:02:02.000Z</time>
      </trkpt>
      <trkpt lat="47.28079" lon="-2.32155">
        <ele>57.400001525879</ele>
        <time>2019-08-08T10:02:03.000Z</time>
      </trkpt>
      <trkpt lat="47.28071" lon="-2.3217">
        <ele>57.400001525879</ele>
        <time>2019-08-08T10:02:05.000Z</time>
      </trkpt>
      <trkpt lat="47.28067" lon="-2.32177">
        <ele>57.400001525879</ele>
        <time>2019-08-08T10:02:06.000Z</time>
      </trkpt>
      <trkpt lat="47.28047" lon="-2.32211">
        <ele>57.400001525879</ele>
        <time>2019-08-08T10:02:11.000Z</time>
      </trkpt>
      <trkpt lat="47.28025" lon="-2.32247">
        <ele>57.400001525879</ele>
        <time>2019-08-08T10:02:17.000Z</time>
      </trkpt>
      <trkpt lat="47.28001" lon="-2.32285">
        <ele>57.400001525879</ele>
        <time>2019-08-08T10:02:23.000Z</time>
      </trkpt>
      <trkpt lat="47.27971" lon="-2.32328">
        <ele>57.400001525879</ele>
        <time>2019-08-08T10:02:30.000Z</time>
      </trkpt>
      <trkpt lat="47.27968" lon="-2.32335">
        <ele>57.400001525879</ele>
        <time>2019-08-08T10:02:31.000Z</time>
      </trkpt>
      <trkpt lat="47.27965" lon="-2.32341">
        <ele>57</ele>
        <time>2019-08-08T10:02:32.000Z</time>
      </trkpt>
      <trkpt lat="47.27962" lon="-2.32347">
        <ele>56.599998474121</ele>
        <time>2019-08-08T10:02:33.000Z</time>
      </trkpt>
      <trkpt lat="47.2796" lon="-2.32352">
        <ele>56.200000762939</ele>
        <time>2019-08-08T10:02:34.000Z</time>
      </trkpt>
      <trkpt lat="47.27959" lon="-2.32357">
        <ele>55.799999237061</ele>
        <time>2019-08-08T10:02:35.000Z</time>
      </trkpt>
      <trkpt lat="47.27958" lon="-2.32362">
        <ele>55.400001525879</ele>
        <time>2019-08-08T10:02:36.000Z</time>
      </trkpt>
      <trkpt lat="47.27958" lon="-2.32374">
        <ele>55.400001525879</ele>
        <time>2019-08-08T10:02:38.000Z</time>
      </trkpt>
      <trkpt lat="47.27951" lon="-2.32397">
        <ele>55.400001525879</ele>
        <time>2019-08-08T10:02:42.000Z</time>
      </trkpt>
      <trkpt lat="47.27941" lon="-2.324">
        <ele>55.400001525879</ele>
        <time>2019-08-08T10:02:45.000Z</time>
      </trkpt>
      <trkpt lat="47.27923" lon="-2.32397">
        <ele>55.400001525879</ele>
        <time>2019-08-08T10:02:51.000Z</time>
      </trkpt>
      <trkpt lat="47.27912" lon="-2.32391">
        <ele>55.400001525879</ele>
        <time>2019-08-08T10:02:57.000Z</time>
      </trkpt>
      <trkpt lat="47.27905" lon="-2.32397">
        <ele>55.400001525879</ele>
        <time>2019-08-08T10:03:01.000Z</time>
      </trkpt>
      <trkpt lat="47.27894" lon="-2.32412">
        <ele>55.400001525879</ele>
        <time>2019-08-08T10:03:06.000Z</time>
      </trkpt>
      <trkpt lat="47.27879" lon="-2.32437">
        <ele>55.400001525879</ele>
        <time>2019-08-08T10:03:11.000Z</time>
      </trkpt>
      <trkpt lat="47.27876" lon="-2.32441">
        <ele>55.400001525879</ele>
        <time>2019-08-08T10:03:12.000Z</time>
      </trkpt>
      <trkpt lat="47.27859" lon="-2.32463">
        <ele>55.400001525879</ele>
        <time>2019-08-08T10:03:16.000Z</time>
      </trkpt>
      <trkpt lat="47.27855" lon="-2.32469">
        <ele>55.400001525879</ele>
        <time>2019-08-08T10:03:17.000Z</time>
      </trkpt>
      <trkpt lat="47.27844" lon="-2.32486">
        <ele>55.400001525879</ele>
        <time>2019-08-08T10:03:20.000Z</time>
      </trkpt>
      <trkpt lat="47.27841" lon="-2.32491">
        <ele>55.400001525879</ele>
        <time>2019-08-08T10:03:21.000Z</time>
      </trkpt>
      <trkpt lat="47.27828" lon="-2.32513">
        <ele>55.400001525879</ele>
        <time>2019-08-08T10:03:26.000Z</time>
      </trkpt>
      <trkpt lat="47.27813" lon="-2.32536">
        <ele>55.400001525879</ele>
        <time>2019-08-08T10:03:31.000Z</time>
      </trkpt>
      <trkpt lat="47.27793" lon="-2.3256">
        <ele>55.400001525879</ele>
        <time>2019-08-08T10:03:35.000Z</time>
      </trkpt>
      <trkpt lat="47.27789" lon="-2.32566">
        <ele>55.400001525879</ele>
        <time>2019-08-08T10:03:36.000Z</time>
      </trkpt>
      <trkpt lat="47.27766" lon="-2.32605">
        <ele>55.400001525879</ele>
        <time>2019-08-08T10:03:42.000Z</time>
      </trkpt>
      <trkpt lat="47.27755" lon="-2.32624">
        <ele>55.400001525879</ele>
        <time>2019-08-08T10:03:45.000Z</time>
      </trkpt>
      <trkpt lat="47.27751" lon="-2.32632">
        <ele>55</ele>
        <time>2019-08-08T10:03:46.000Z</time>
      </trkpt>
      <trkpt lat="47.27748" lon="-2.3264">
        <ele>54.400001525879</ele>
        <time>2019-08-08T10:03:47.000Z</time>
      </trkpt>
      <trkpt lat="47.27746" lon="-2.32649">
        <ele>54</ele>
        <time>2019-08-08T10:03:48.000Z</time>
      </trkpt>
      <trkpt lat="47.27742" lon="-2.32657">
        <ele>53.599998474121</ele>
        <time>2019-08-08T10:03:49.000Z</time>
      </trkpt>
      <trkpt lat="47.27738" lon="-2.32666">
        <ele>53</ele>
        <time>2019-08-08T10:03:50.000Z</time>
      </trkpt>
      <trkpt lat="47.27734" lon="-2.32674">
        <ele>52.400001525879</ele>
        <time>2019-08-08T10:03:51.000Z</time>
      </trkpt>
      <trkpt lat="47.27729" lon="-2.32681">
        <ele>51.599998474121</ele>
        <time>2019-08-08T10:03:52.000Z</time>
      </trkpt>
      <trkpt lat="47.27724" lon="-2.32687">
        <ele>50.799999237061</ele>
        <time>2019-08-08T10:03:53.000Z</time>
      </trkpt>
      <trkpt lat="47.2772" lon="-2.32692">
        <ele>50</ele>
        <time>2019-08-08T10:03:54.000Z</time>
      </trkpt>
      <trkpt lat="47.27716" lon="-2.32696">
        <ele>49.200000762939</ele>
        <time>2019-08-08T10:03:55.000Z</time>
      </trkpt>
      <trkpt lat="47.27714" lon="-2.32701">
        <ele>48.400001525879</ele>
        <time>2019-08-08T10:03:56.000Z</time>
      </trkpt>
      <trkpt lat="47.27712" lon="-2.32705">
        <ele>47.599998474121</ele>
        <time>2019-08-08T10:03:57.000Z</time>
      </trkpt>
      <trkpt lat="47.27709" lon="-2.32708">
        <ele>46.599998474121</ele>
        <time>2019-08-08T10:03:58.000Z</time>
      </trkpt>
      <trkpt lat="47.27706" lon="-2.32712">
        <ele>45.799999237061</ele>
        <time>2019-08-08T10:03:59.000Z</time>
      </trkpt>
      <trkpt lat="47.27703" lon="-2.32717">
        <ele>45.799999237061</ele>
        <time>2019-08-08T10:04:00.000Z</time>
      </trkpt>
      <trkpt lat="47.277" lon="-2.3272">
        <ele>45.799999237061</ele>
        <time>2019-08-08T10:04:01.000Z</time>
      </trkpt>
      <trkpt lat="47.27679" lon="-2.3273">
        <ele>45.799999237061</ele>
        <time>2019-08-08T10:04:05.000Z</time>
      </trkpt>
      <trkpt lat="47.27658" lon="-2.32724">
        <ele>45.799999237061</ele>
        <time>2019-08-08T10:04:09.000Z</time>
      </trkpt>
      <trkpt lat="47.2763" lon="-2.32709">
        <ele>45.799999237061</ele>
        <time>2019-08-08T10:04:15.000Z</time>
      </trkpt>
      <trkpt lat="47.27616" lon="-2.32695">
        <ele>45.799999237061</ele>
        <time>2019-08-08T10:04:19.000Z</time>
      </trkpt>
      <trkpt lat="47.27605" lon="-2.32702">
        <ele>45.799999237061</ele>
        <time>2019-08-08T10:04:22.000Z</time>
      </trkpt>
      <trkpt lat="47.27599" lon="-2.32714">
        <ele>45.799999237061</ele>
        <time>2019-08-08T10:04:24.000Z</time>
      </trkpt>
      <trkpt lat="47.27596" lon="-2.3272">
        <ele>45.799999237061</ele>
        <time>2019-08-08T10:04:25.000Z</time>
      </trkpt>
      <trkpt lat="47.27591" lon="-2.32729">
        <ele>45.799999237061</ele>
        <time>2019-08-08T10:04:28.000Z</time>
      </trkpt>
      <trkpt lat="47.27588" lon="-2.32736">
        <ele>45.799999237061</ele>
        <time>2019-08-08T10:04:33.000Z</time>
      </trkpt>
      <trkpt lat="47.27588" lon="-2.32745">
        <ele>45.799999237061</ele>
        <time>2019-08-08T10:04:40.000Z</time>
      </trkpt>
      <trkpt lat="47.27588" lon="-2.32748">
        <ele>46.200000762939</ele>
        <time>2019-08-08T10:04:42.000Z</time>
      </trkpt>
      <trkpt lat="47.27588" lon="-2.3275">
        <ele>46.799999237061</ele>
        <time>2019-08-08T10:04:43.000Z</time>
      </trkpt>
      <trkpt lat="47.27587" lon="-2.32753">
        <ele>47.200000762939</ele>
        <time>2019-08-08T10:04:44.000Z</time>
      </trkpt>
      <trkpt lat="47.27586" lon="-2.32756">
        <ele>47.599998474121</ele>
        <time>2019-08-08T10:04:45.000Z</time>
      </trkpt>
      <trkpt lat="47.27586" lon="-2.3276">
        <ele>48</ele>
        <time>2019-08-08T10:04:46.000Z</time>
      </trkpt>
      <trkpt lat="47.27584" lon="-2.32779">
        <ele>48</ele>
        <time>2019-08-08T10:04:50.000Z</time>
      </trkpt>
      <trkpt lat="47.27582" lon="-2.32784">
        <ele>48</ele>
        <time>2019-08-08T10:04:51.000Z</time>
      </trkpt>
      <trkpt lat="47.27581" lon="-2.32789">
        <ele>48.400001525879</ele>
        <time>2019-08-08T10:04:52.000Z</time>
      </trkpt>
      <trkpt lat="47.27579" lon="-2.32792">
        <ele>48.799999237061</ele>
        <time>2019-08-08T10:04:53.000Z</time>
      </trkpt>
      <trkpt lat="47.27577" lon="-2.32796">
        <ele>49.200000762939</ele>
        <time>2019-08-08T10:04:54.000Z</time>
      </trkpt>
      <trkpt lat="47.27576" lon="-2.32799">
        <ele>49.599998474121</ele>
        <time>2019-08-08T10:04:55.000Z</time>
      </trkpt>
      <trkpt lat="47.27573" lon="-2.32804">
        <ele>50</ele>
        <time>2019-08-08T10:04:56.000Z</time>
      </trkpt>
      <trkpt lat="47.27568" lon="-2.32817">
        <ele>50</ele>
        <time>2019-08-08T10:04:59.000Z</time>
      </trkpt>
      <trkpt lat="47.27569" lon="-2.3282">
        <ele>50</ele>
        <time>2019-08-08T10:05:00.000Z</time>
      </trkpt>
      <trkpt lat="47.2757" lon="-2.32825">
        <ele>50</ele>
        <time>2019-08-08T10:05:02.000Z</time>
      </trkpt>
      <trkpt lat="47.27567" lon="-2.32831">
        <ele>50.400001525879</ele>
        <time>2019-08-08T10:05:04.000Z</time>
      </trkpt>
      <trkpt lat="47.27565" lon="-2.32833">
        <ele>50.799999237061</ele>
        <time>2019-08-08T10:05:05.000Z</time>
      </trkpt>
      <trkpt lat="47.27561" lon="-2.32836">
        <ele>51.200000762939</ele>
        <time>2019-08-08T10:05:06.000Z</time>
      </trkpt>
      <trkpt lat="47.27558" lon="-2.32838">
        <ele>51.799999237061</ele>
        <time>2019-08-08T10:05:07.000Z</time>
      </trkpt>
      <trkpt lat="47.27554" lon="-2.3284">
        <ele>52.200000762939</ele>
        <time>2019-08-08T10:05:08.000Z</time>
      </trkpt>
      <trkpt lat="47.27542" lon="-2.3285">
        <ele>52.200000762939</ele>
        <time>2019-08-08T10:05:11.000Z</time>
      </trkpt>
      <trkpt lat="47.27535" lon="-2.32857">
        <ele>52.200000762939</ele>
        <time>2019-08-08T10:05:13.000Z</time>
      </trkpt>
      <trkpt lat="47.27524" lon="-2.32872">
        <ele>52.200000762939</ele>
        <time>2019-08-08T10:05:16.000Z</time>
      </trkpt>
      <trkpt lat="47.2751" lon="-2.32902">
        <ele>52.200000762939</ele>
        <time>2019-08-08T10:05:21.000Z</time>
      </trkpt>
      <trkpt lat="47.27498" lon="-2.3294">
        <ele>52.599998474121</ele>
        <time>2019-08-08T10:05:27.000Z</time>
      </trkpt>
      <trkpt lat="47.27496" lon="-2.32946">
        <ele>53</ele>
        <time>2019-08-08T10:05:28.000Z</time>
      </trkpt>
      <trkpt lat="47.27493" lon="-2.32952">
        <ele>53.400001525879</ele>
        <time>2019-08-08T10:05:29.000Z</time>
      </trkpt>
      <trkpt lat="47.27491" lon="-2.32957">
        <ele>53.799999237061</ele>
        <time>2019-08-08T10:05:30.000Z</time>
      </trkpt>
      <trkpt lat="47.27488" lon="-2.32962">
        <ele>54.200000762939</ele>
        <time>2019-08-08T10:05:31.000Z</time>
      </trkpt>
      <trkpt lat="47.27482" lon="-2.32979">
        <ele>54.200000762939</ele>
        <time>2019-08-08T10:05:34.000Z</time>
      </trkpt>
      <trkpt lat="47.2748" lon="-2.32985">
        <ele>54.200000762939</ele>
        <time>2019-08-08T10:05:35.000Z</time>
      </trkpt>
      <trkpt lat="47.27476" lon="-2.32997">
        <ele>54.599998474121</ele>
        <time>2019-08-08T10:05:37.000Z</time>
      </trkpt>
      <trkpt lat="47.27474" lon="-2.33003">
        <ele>55</ele>
        <time>2019-08-08T10:05:38.000Z</time>
      </trkpt>
      <trkpt lat="47.27471" lon="-2.33009">
        <ele>55.400001525879</ele>
        <time>2019-08-08T10:05:39.000Z</time>
      </trkpt>
      <trkpt lat="47.27469" lon="-2.33015">
        <ele>55.799999237061</ele>
        <time>2019-08-08T10:05:40.000Z</time>
      </trkpt>
      <trkpt lat="47.27467" lon="-2.33021">
        <ele>56.400001525879</ele>
        <time>2019-08-08T10:05:41.000Z</time>
      </trkpt>
      <trkpt lat="47.27463" lon="-2.33039">
        <ele>56.400001525879</ele>
        <time>2019-08-08T10:05:44.000Z</time>
      </trkpt>
      <trkpt lat="47.27462" lon="-2.33064">
        <ele>56.799999237061</ele>
        <time>2019-08-08T10:05:48.000Z</time>
      </trkpt>
      <trkpt lat="47.27461" lon="-2.3307">
        <ele>57.200000762939</ele>
        <time>2019-08-08T10:05:49.000Z</time>
      </trkpt>
      <trkpt lat="47.2746" lon="-2.33076">
        <ele>57.599998474121</ele>
        <time>2019-08-08T10:05:50.000Z</time>
      </trkpt>
      <trkpt lat="47.27457" lon="-2.33081">
        <ele>58</ele>
        <time>2019-08-08T10:05:51.000Z</time>
      </trkpt>
      <trkpt lat="47.27454" lon="-2.33086">
        <ele>58.400001525879</ele>
        <time>2019-08-08T10:05:52.000Z</time>
      </trkpt>
      <trkpt lat="47.27445" lon="-2.33109">
        <ele>58.400001525879</ele>
        <time>2019-08-08T10:05:56.000Z</time>
      </trkpt>
      <trkpt lat="47.27444" lon="-2.33116">
        <ele>58.400001525879</ele>
        <time>2019-08-08T10:05:57.000Z</time>
      </trkpt>
      <trkpt lat="47.27437" lon="-2.3315">
        <ele>58.799999237061</ele>
        <time>2019-08-08T10:06:02.000Z</time>
      </trkpt>
      <trkpt lat="47.27436" lon="-2.33157">
        <ele>59.200000762939</ele>
        <time>2019-08-08T10:06:03.000Z</time>
      </trkpt>
      <trkpt lat="47.27435" lon="-2.33163">
        <ele>59.599998474121</ele>
        <time>2019-08-08T10:06:04.000Z</time>
      </trkpt>
      <trkpt lat="47.27435" lon="-2.3317">
        <ele>60</ele>
        <time>2019-08-08T10:06:05.000Z</time>
      </trkpt>
      <trkpt lat="47.27433" lon="-2.33177">
        <ele>60.400001525879</ele>
        <time>2019-08-08T10:06:06.000Z</time>
      </trkpt>
      <trkpt lat="47.27427" lon="-2.33206">
        <ele>60.400001525879</ele>
        <time>2019-08-08T10:06:10.000Z</time>
      </trkpt>
      <trkpt lat="47.27423" lon="-2.33218">
        <ele>60.400001525879</ele>
        <time>2019-08-08T10:06:12.000Z</time>
      </trkpt>
      <trkpt lat="47.27416" lon="-2.33232">
        <ele>60.400001525879</ele>
        <time>2019-08-08T10:06:15.000Z</time>
      </trkpt>
      <trkpt lat="47.27413" lon="-2.33234">
        <ele>60.400001525879</ele>
        <time>2019-08-08T10:06:16.000Z</time>
      </trkpt>
      <trkpt lat="47.27406" lon="-2.33235">
        <ele>60.400001525879</ele>
        <time>2019-08-08T10:06:18.000Z</time>
      </trkpt>
      <trkpt lat="47.2739" lon="-2.33223">
        <ele>60.400001525879</ele>
        <time>2019-08-08T10:06:22.000Z</time>
      </trkpt>
      <trkpt lat="47.27387" lon="-2.33219">
        <ele>60.400001525879</ele>
        <time>2019-08-08T10:06:23.000Z</time>
      </trkpt>
      <trkpt lat="47.27358" lon="-2.33189">
        <ele>60.400001525879</ele>
        <time>2019-08-08T10:06:31.000Z</time>
      </trkpt>
      <trkpt lat="47.27332" lon="-2.33167">
        <ele>60</ele>
        <time>2019-08-08T10:06:37.000Z</time>
      </trkpt>
      <trkpt lat="47.27329" lon="-2.33162">
        <ele>59.599998474121</ele>
        <time>2019-08-08T10:06:38.000Z</time>
      </trkpt>
      <trkpt lat="47.27325" lon="-2.33158">
        <ele>59.200000762939</ele>
        <time>2019-08-08T10:06:39.000Z</time>
      </trkpt>
      <trkpt lat="47.27321" lon="-2.33154">
        <ele>58.799999237061</ele>
        <time>2019-08-08T10:06:40.000Z</time>
      </trkpt>
      <trkpt lat="47.27317" lon="-2.3315">
        <ele>58.400001525879</ele>
        <time>2019-08-08T10:06:41.000Z</time>
      </trkpt>
      <trkpt lat="47.27311" lon="-2.3314">
        <ele>58.400001525879</ele>
        <time>2019-08-08T10:06:43.000Z</time>
      </trkpt>
      <trkpt lat="47.27306" lon="-2.33128">
        <ele>58.400001525879</ele>
        <time>2019-08-08T10:06:45.000Z</time>
      </trkpt>
      <trkpt lat="47.27301" lon="-2.33116">
        <ele>58.400001525879</ele>
        <time>2019-08-08T10:06:47.000Z</time>
      </trkpt>
      <trkpt lat="47.27293" lon="-2.33101">
        <ele>58.400001525879</ele>
        <time>2019-08-08T10:06:50.000Z</time>
      </trkpt>
      <trkpt lat="47.2727" lon="-2.33071">
        <ele>58.400001525879</ele>
        <time>2019-08-08T10:06:57.000Z</time>
      </trkpt>
      <trkpt lat="47.27264" lon="-2.3306">
        <ele>58.400001525879</ele>
        <time>2019-08-08T10:06:59.000Z</time>
      </trkpt>
      <trkpt lat="47.2725" lon="-2.33037">
        <ele>58.400001525879</ele>
        <time>2019-08-08T10:07:03.000Z</time>
      </trkpt>
      <trkpt lat="47.27234" lon="-2.33011">
        <ele>57.799999237061</ele>
        <time>2019-08-08T10:07:07.000Z</time>
      </trkpt>
      <trkpt lat="47.2723" lon="-2.33004">
        <ele>57.400001525879</ele>
        <time>2019-08-08T10:07:08.000Z</time>
      </trkpt>
      <trkpt lat="47.27226" lon="-2.32997">
        <ele>57</ele>
        <time>2019-08-08T10:07:09.000Z</time>
      </trkpt>
      <trkpt lat="47.27222" lon="-2.32991">
        <ele>56.599998474121</ele>
        <time>2019-08-08T10:07:10.000Z</time>
      </trkpt>
      <trkpt lat="47.27217" lon="-2.32985">
        <ele>56.200000762939</ele>
        <time>2019-08-08T10:07:11.000Z</time>
      </trkpt>
      <trkpt lat="47.27207" lon="-2.32982">
        <ele>55.799999237061</ele>
        <time>2019-08-08T10:07:13.000Z</time>
      </trkpt>
      <trkpt lat="47.27201" lon="-2.32985">
        <ele>55.400001525879</ele>
        <time>2019-08-08T10:07:14.000Z</time>
      </trkpt>
      <trkpt lat="47.27196" lon="-2.32989">
        <ele>55</ele>
        <time>2019-08-08T10:07:15.000Z</time>
      </trkpt>
      <trkpt lat="47.2719" lon="-2.32992">
        <ele>54.599998474121</ele>
        <time>2019-08-08T10:07:16.000Z</time>
      </trkpt>
      <trkpt lat="47.27185" lon="-2.32996">
        <ele>54.200000762939</ele>
        <time>2019-08-08T10:07:17.000Z</time>
      </trkpt>
      <trkpt lat="47.27148" lon="-2.33025">
        <ele>54.200000762939</ele>
        <time>2019-08-08T10:07:24.000Z</time>
      </trkpt>
      <trkpt lat="47.27121" lon="-2.33047">
        <ele>54.200000762939</ele>
        <time>2019-08-08T10:07:29.000Z</time>
      </trkpt>
      <trkpt lat="47.27115" lon="-2.33051">
        <ele>54.200000762939</ele>
        <time>2019-08-08T10:07:30.000Z</time>
      </trkpt>
      <trkpt lat="47.27077" lon="-2.33084">
        <ele>54.200000762939</ele>
        <time>2019-08-08T10:07:37.000Z</time>
      </trkpt>
      <trkpt lat="47.27052" lon="-2.33111">
        <ele>54.200000762939</ele>
        <time>2019-08-08T10:07:42.000Z</time>
      </trkpt>
      <trkpt lat="47.27021" lon="-2.33144">
        <ele>54.200000762939</ele>
        <time>2019-08-08T10:07:48.000Z</time>
      </trkpt>
      <trkpt lat="47.27017" lon="-2.33148">
        <ele>54.200000762939</ele>
        <time>2019-08-08T10:07:49.000Z</time>
      </trkpt>
      <trkpt lat="47.26999" lon="-2.33166">
        <ele>54.200000762939</ele>
        <time>2019-08-08T10:07:53.000Z</time>
      </trkpt>
      <trkpt lat="47.26994" lon="-2.3317">
        <ele>54.200000762939</ele>
        <time>2019-08-08T10:07:54.000Z</time>
      </trkpt>
      <trkpt lat="47.26976" lon="-2.33188">
        <ele>54.200000762939</ele>
        <time>2019-08-08T10:07:58.000Z</time>
      </trkpt>
      <trkpt lat="47.26971" lon="-2.33193">
        <ele>54.599998474121</ele>
        <time>2019-08-08T10:07:59.000Z</time>
      </trkpt>
      <trkpt lat="47.26967" lon="-2.33197">
        <ele>55</ele>
        <time>2019-08-08T10:08:00.000Z</time>
      </trkpt>
      <trkpt lat="47.26963" lon="-2.33202">
        <ele>55.400001525879</ele>
        <time>2019-08-08T10:08:01.000Z</time>
      </trkpt>
      <trkpt lat="47.26958" lon="-2.33205">
        <ele>55.799999237061</ele>
        <time>2019-08-08T10:08:02.000Z</time>
      </trkpt>
      <trkpt lat="47.26953" lon="-2.33208">
        <ele>56.200000762939</ele>
        <time>2019-08-08T10:08:03.000Z</time>
      </trkpt>
      <trkpt lat="47.26931" lon="-2.33223">
        <ele>56.200000762939</ele>
        <time>2019-08-08T10:08:08.000Z</time>
      </trkpt>
      <trkpt lat="47.26926" lon="-2.33235">
        <ele>56.200000762939</ele>
        <time>2019-08-08T10:08:10.000Z</time>
      </trkpt>
      <trkpt lat="47.2693" lon="-2.33255">
        <ele>56.200000762939</ele>
        <time>2019-08-08T10:08:13.000Z</time>
      </trkpt>
      <trkpt lat="47.26932" lon="-2.33262">
        <ele>56.200000762939</ele>
        <time>2019-08-08T10:08:14.000Z</time>
      </trkpt>
      <trkpt lat="47.26947" lon="-2.33303">
        <ele>56.200000762939</ele>
        <time>2019-08-08T10:08:20.000Z</time>
      </trkpt>
      <trkpt lat="47.2696" lon="-2.33345">
        <ele>56.200000762939</ele>
        <time>2019-08-08T10:08:27.000Z</time>
      </trkpt>
      <trkpt lat="47.26972" lon="-2.3337">
        <ele>56.200000762939</ele>
        <time>2019-08-08T10:08:33.000Z</time>
      </trkpt>
      <trkpt lat="47.26972" lon="-2.33376">
        <ele>56.200000762939</ele>
        <time>2019-08-08T10:08:35.000Z</time>
      </trkpt>
      <trkpt lat="47.2697" lon="-2.33377">
        <ele>56.200000762939</ele>
        <time>2019-08-08T10:08:36.000Z</time>
      </trkpt>
      <trkpt lat="47.26958" lon="-2.33382">
        <ele>56.200000762939</ele>
        <time>2019-08-08T10:08:40.000Z</time>
      </trkpt>
      <trkpt lat="47.26955" lon="-2.33383">
        <ele>55.799999237061</ele>
        <time>2019-08-08T10:08:41.000Z</time>
      </trkpt>
      <trkpt lat="47.26951" lon="-2.33385">
        <ele>55.400001525879</ele>
        <time>2019-08-08T10:08:42.000Z</time>
      </trkpt>
      <trkpt lat="47.26948" lon="-2.33386">
        <ele>55</ele>
        <time>2019-08-08T10:08:43.000Z</time>
      </trkpt>
      <trkpt lat="47.26944" lon="-2.33387">
        <ele>54.599998474121</ele>
        <time>2019-08-08T10:08:44.000Z</time>
      </trkpt>
      <trkpt lat="47.2694" lon="-2.33389">
        <ele>54.200000762939</ele>
        <time>2019-08-08T10:08:45.000Z</time>
      </trkpt>
      <trkpt lat="47.2693" lon="-2.33393">
        <ele>54.200000762939</ele>
        <time>2019-08-08T10:08:47.000Z</time>
      </trkpt>
      <trkpt lat="47.26901" lon="-2.33409">
        <ele>54.200000762939</ele>
        <time>2019-08-08T10:08:53.000Z</time>
      </trkpt>
      <trkpt lat="47.26896" lon="-2.33411">
        <ele>53.799999237061</ele>
        <time>2019-08-08T10:08:54.000Z</time>
      </trkpt>
      <trkpt lat="47.26891" lon="-2.33414">
        <ele>53.400001525879</ele>
        <time>2019-08-08T10:08:55.000Z</time>
      </trkpt>
      <trkpt lat="47.26888" lon="-2.33416">
        <ele>53</ele>
        <time>2019-08-08T10:08:56.000Z</time>
      </trkpt>
      <trkpt lat="47.26885" lon="-2.33417">
        <ele>52.599998474121</ele>
        <time>2019-08-08T10:08:57.000Z</time>
      </trkpt>
      <trkpt lat="47.26883" lon="-2.33419">
        <ele>52.200000762939</ele>
        <time>2019-08-08T10:08:58.000Z</time>
      </trkpt>
      <trkpt lat="47.26881" lon="-2.33422">
        <ele>51.799999237061</ele>
        <time>2019-08-08T10:08:59.000Z</time>
      </trkpt>
      <trkpt lat="47.2688" lon="-2.33426">
        <ele>51.200000762939</ele>
        <time>2019-08-08T10:09:00.000Z</time>
      </trkpt>
      <trkpt lat="47.26879" lon="-2.33431">
        <ele>50.799999237061</ele>
        <time>2019-08-08T10:09:01.000Z</time>
      </trkpt>
      <trkpt lat="47.26878" lon="-2.33438">
        <ele>50.400001525879</ele>
        <time>2019-08-08T10:09:02.000Z</time>
      </trkpt>
      <trkpt lat="47.26877" lon="-2.33446">
        <ele>50</ele>
        <time>2019-08-08T10:09:03.000Z</time>
      </trkpt>
      <trkpt lat="47.26878" lon="-2.33455">
        <ele>50</ele>
        <time>2019-08-08T10:09:04.000Z</time>
      </trkpt>
      <trkpt lat="47.2688" lon="-2.33465">
        <ele>49.200000762939</ele>
        <time>2019-08-08T10:09:05.000Z</time>
      </trkpt>
      <trkpt lat="47.26883" lon="-2.33476">
        <ele>48.799999237061</ele>
        <time>2019-08-08T10:09:06.000Z</time>
      </trkpt>
      <trkpt lat="47.26885" lon="-2.33487">
        <ele>48.200000762939</ele>
        <time>2019-08-08T10:09:07.000Z</time>
      </trkpt>
      <trkpt lat="47.26887" lon="-2.33497">
        <ele>47.799999237061</ele>
        <time>2019-08-08T10:09:08.000Z</time>
      </trkpt>
      <trkpt lat="47.26888" lon="-2.33506">
        <ele>47.400001525879</ele>
        <time>2019-08-08T10:09:09.000Z</time>
      </trkpt>
      <trkpt lat="47.26889" lon="-2.33515">
        <ele>46.799999237061</ele>
        <time>2019-08-08T10:09:10.000Z</time>
      </trkpt>
      <trkpt lat="47.26889" lon="-2.33523">
        <ele>46.200000762939</ele>
        <time>2019-08-08T10:09:11.000Z</time>
      </trkpt>
      <trkpt lat="47.26888" lon="-2.33529">
        <ele>45.599998474121</ele>
        <time>2019-08-08T10:09:12.000Z</time>
      </trkpt>
      <trkpt lat="47.26884" lon="-2.33535">
        <ele>44.799999237061</ele>
        <time>2019-08-08T10:09:13.000Z</time>
      </trkpt>
      <trkpt lat="47.26878" lon="-2.33539">
        <ele>44</ele>
        <time>2019-08-08T10:09:14.000Z</time>
      </trkpt>
      <trkpt lat="47.26872" lon="-2.3354">
        <ele>43.400001525879</ele>
        <time>2019-08-08T10:09:15.000Z</time>
      </trkpt>
      <trkpt lat="47.26866" lon="-2.33542">
        <ele>42.599998474121</ele>
        <time>2019-08-08T10:09:16.000Z</time>
      </trkpt>
      <trkpt lat="47.26848" lon="-2.33546">
        <ele>42.200000762939</ele>
        <time>2019-08-08T10:09:19.000Z</time>
      </trkpt>
      <trkpt lat="47.26842" lon="-2.33549">
        <ele>41.599998474121</ele>
        <time>2019-08-08T10:09:20.000Z</time>
      </trkpt>
      <trkpt lat="47.26836" lon="-2.33552">
        <ele>41.200000762939</ele>
        <time>2019-08-08T10:09:21.000Z</time>
      </trkpt>
      <trkpt lat="47.26829" lon="-2.33554">
        <ele>40.799999237061</ele>
        <time>2019-08-08T10:09:22.000Z</time>
      </trkpt>
      <trkpt lat="47.26823" lon="-2.33557">
        <ele>40.400001525879</ele>
        <time>2019-08-08T10:09:23.000Z</time>
      </trkpt>
      <trkpt lat="47.26817" lon="-2.3356">
        <ele>40.400001525879</ele>
        <time>2019-08-08T10:09:24.000Z</time>
      </trkpt>
      <trkpt lat="47.26811" lon="-2.33562">
        <ele>40.400001525879</ele>
        <time>2019-08-08T10:09:25.000Z</time>
      </trkpt>
      <trkpt lat="47.26788" lon="-2.33568">
        <ele>40.400001525879</ele>
        <time>2019-08-08T10:09:29.000Z</time>
      </trkpt>
      <trkpt lat="47.26777" lon="-2.33568">
        <ele>40.400001525879</ele>
        <time>2019-08-08T10:09:32.000Z</time>
      </trkpt>
      <trkpt lat="47.26776" lon="-2.33565">
        <ele>40.400001525879</ele>
        <time>2019-08-08T10:09:33.000Z</time>
      </trkpt>
      <trkpt lat="47.26771" lon="-2.33542">
        <ele>40.400001525879</ele>
        <time>2019-08-08T10:09:37.000Z</time>
      </trkpt>
      <trkpt lat="47.26768" lon="-2.33527">
        <ele>40.400001525879</ele>
        <time>2019-08-08T10:09:39.000Z</time>
      </trkpt>
      <trkpt lat="47.26763" lon="-2.33495">
        <ele>40.400001525879</ele>
        <time>2019-08-08T10:09:43.000Z</time>
      </trkpt>
      <trkpt lat="47.26757" lon="-2.33462">
        <ele>40</ele>
        <time>2019-08-08T10:09:47.000Z</time>
      </trkpt>
      <trkpt lat="47.26755" lon="-2.33453">
        <ele>39.599998474121</ele>
        <time>2019-08-08T10:09:48.000Z</time>
      </trkpt>
      <trkpt lat="47.26754" lon="-2.33445">
        <ele>39.200000762939</ele>
        <time>2019-08-08T10:09:49.000Z</time>
      </trkpt>
      <trkpt lat="47.26753" lon="-2.33437">
        <ele>38.799999237061</ele>
        <time>2019-08-08T10:09:50.000Z</time>
      </trkpt>
      <trkpt lat="47.26752" lon="-2.33428">
        <ele>38.400001525879</ele>
        <time>2019-08-08T10:09:51.000Z</time>
      </trkpt>
      <trkpt lat="47.26747" lon="-2.33384">
        <ele>38.400001525879</ele>
        <time>2019-08-08T10:09:56.000Z</time>
      </trkpt>
      <trkpt lat="47.26745" lon="-2.33345">
        <ele>38.400001525879</ele>
        <time>2019-08-08T10:10:01.000Z</time>
      </trkpt>
      <trkpt lat="47.26741" lon="-2.33334">
        <ele>38.400001525879</ele>
        <time>2019-08-08T10:10:04.000Z</time>
      </trkpt>
      <trkpt lat="47.26738" lon="-2.33332">
        <ele>38.400001525879</ele>
        <time>2019-08-08T10:10:05.000Z</time>
      </trkpt>
      <trkpt lat="47.26723" lon="-2.33324">
        <ele>38.400001525879</ele>
        <time>2019-08-08T10:10:10.000Z</time>
      </trkpt>
      <trkpt lat="47.26714" lon="-2.3331">
        <ele>38.400001525879</ele>
        <time>2019-08-08T10:10:14.000Z</time>
      </trkpt>
      <trkpt lat="47.26711" lon="-2.33299">
        <ele>38.400001525879</ele>
        <time>2019-08-08T10:10:16.000Z</time>
      </trkpt>
      <trkpt lat="47.26708" lon="-2.33284">
        <ele>38.400001525879</ele>
        <time>2019-08-08T10:10:18.000Z</time>
      </trkpt>
      <trkpt lat="47.26704" lon="-2.33264">
        <ele>38.400001525879</ele>
        <time>2019-08-08T10:10:21.000Z</time>
      </trkpt>
      <trkpt lat="47.26702" lon="-2.33247">
        <ele>38.400001525879</ele>
        <time>2019-08-08T10:10:24.000Z</time>
      </trkpt>
      <trkpt lat="47.26701" lon="-2.33242">
        <ele>38.400001525879</ele>
        <time>2019-08-08T10:10:25.000Z</time>
      </trkpt>
      <trkpt lat="47.26697" lon="-2.33226">
        <ele>38.400001525879</ele>
        <time>2019-08-08T10:10:29.000Z</time>
      </trkpt>
      <trkpt lat="47.26694" lon="-2.33203">
        <ele>38.400001525879</ele>
        <time>2019-08-08T10:10:34.000Z</time>
      </trkpt>
      <trkpt lat="47.26689" lon="-2.33183">
        <ele>38.400001525879</ele>
        <time>2019-08-08T10:10:39.000Z</time>
      </trkpt>
      <trkpt lat="47.26684" lon="-2.33173">
        <ele>38.400001525879</ele>
        <time>2019-08-08T10:10:44.000Z</time>
      </trkpt>
      <trkpt lat="47.26674" lon="-2.33165">
        <ele>38.400001525879</ele>
        <time>2019-08-08T10:10:51.000Z</time>
      </trkpt>
      <trkpt lat="47.26669" lon="-2.33168">
        <ele>38.400001525879</ele>
        <time>2019-08-08T10:10:53.000Z</time>
      </trkpt>
      <trkpt lat="47.26663" lon="-2.33173">
        <ele>38.400001525879</ele>
        <time>2019-08-08T10:10:55.000Z</time>
      </trkpt>
      <trkpt lat="47.26642" lon="-2.33193">
        <ele>38.400001525879</ele>
        <time>2019-08-08T10:11:00.000Z</time>
      </trkpt>
      <trkpt lat="47.26614" lon="-2.33222">
        <ele>38.400001525879</ele>
        <time>2019-08-08T10:11:06.000Z</time>
      </trkpt>
      <trkpt lat="47.26586" lon="-2.33251">
        <ele>38.400001525879</ele>
        <time>2019-08-08T10:11:12.000Z</time>
      </trkpt>
      <trkpt lat="47.2656" lon="-2.33277">
        <ele>38.400001525879</ele>
        <time>2019-08-08T10:11:18.000Z</time>
      </trkpt>
      <trkpt lat="47.26545" lon="-2.33293">
        <ele>38.400001525879</ele>
        <time>2019-08-08T10:11:23.000Z</time>
      </trkpt>
      <trkpt lat="47.26535" lon="-2.33302">
        <ele>38.400001525879</ele>
        <time>2019-08-08T10:11:27.000Z</time>
      </trkpt>
      <trkpt lat="47.26533" lon="-2.33301">
        <ele>38.400001525879</ele>
        <time>2019-08-08T10:11:28.000Z</time>
      </trkpt>
      <trkpt lat="47.26529" lon="-2.33295">
        <ele>38.400001525879</ele>
        <time>2019-08-08T10:11:31.000Z</time>
      </trkpt>
      <trkpt lat="47.26528" lon="-2.33292">
        <ele>38.400001525879</ele>
        <time>2019-08-08T10:11:32.000Z</time>
      </trkpt>
      <trkpt lat="47.26523" lon="-2.33284">
        <ele>38.400001525879</ele>
        <time>2019-08-08T10:11:35.000Z</time>
      </trkpt>
      <trkpt lat="47.26521" lon="-2.33285">
        <ele>38.400001525879</ele>
        <time>2019-08-08T10:11:36.000Z</time>
      </trkpt>
      <trkpt lat="47.26506" lon="-2.33282">
        <ele>38.400001525879</ele>
        <time>2019-08-08T10:11:40.000Z</time>
      </trkpt>
      <trkpt lat="47.26502" lon="-2.33279">
        <ele>38.400001525879</ele>
        <time>2019-08-08T10:11:41.000Z</time>
      </trkpt>
      <trkpt lat="47.26499" lon="-2.33278">
        <ele>38.400001525879</ele>
        <time>2019-08-08T10:11:42.000Z</time>
      </trkpt>
      <trkpt lat="47.2649" lon="-2.33278">
        <ele>38.400001525879</ele>
        <time>2019-08-08T10:11:44.000Z</time>
      </trkpt>
      <trkpt lat="47.2648" lon="-2.33275">
        <ele>38.400001525879</ele>
        <time>2019-08-08T10:11:46.000Z</time>
      </trkpt>
      <trkpt lat="47.26469" lon="-2.33272">
        <ele>38.400001525879</ele>
        <time>2019-08-08T10:11:49.000Z</time>
      </trkpt>
      <trkpt lat="47.26429" lon="-2.33267">
        <ele>38.400001525879</ele>
        <time>2019-08-08T10:11:56.000Z</time>
      </trkpt>
      <trkpt lat="47.26388" lon="-2.33259">
        <ele>38.400001525879</ele>
        <time>2019-08-08T10:12:03.000Z</time>
      </trkpt>
      <trkpt lat="47.26375" lon="-2.33236">
        <ele>38.400001525879</ele>
        <time>2019-08-08T10:12:07.000Z</time>
      </trkpt>
      <trkpt lat="47.26371" lon="-2.33204">
        <ele>38.400001525879</ele>
        <time>2019-08-08T10:12:11.000Z</time>
      </trkpt>
      <trkpt lat="47.26369" lon="-2.33133">
        <ele>38.400001525879</ele>
        <time>2019-08-08T10:12:19.000Z</time>
      </trkpt>
      <trkpt lat="47.26368" lon="-2.3307">
        <ele>38</ele>
        <time>2019-08-08T10:12:26.000Z</time>
      </trkpt>
      <trkpt lat="47.26368" lon="-2.33061">
        <ele>37.599998474121</ele>
        <time>2019-08-08T10:12:27.000Z</time>
      </trkpt>
      <trkpt lat="47.26368" lon="-2.33053">
        <ele>37.200000762939</ele>
        <time>2019-08-08T10:12:28.000Z</time>
      </trkpt>
      <trkpt lat="47.26367" lon="-2.33044">
        <ele>36.799999237061</ele>
        <time>2019-08-08T10:12:29.000Z</time>
      </trkpt>
      <trkpt lat="47.26367" lon="-2.33034">
        <ele>36.200000762939</ele>
        <time>2019-08-08T10:12:30.000Z</time>
      </trkpt>
      <trkpt lat="47.26365" lon="-2.32999">
        <ele>36.200000762939</ele>
        <time>2019-08-08T10:12:34.000Z</time>
      </trkpt>
      <trkpt lat="47.26364" lon="-2.3299">
        <ele>36.200000762939</ele>
        <time>2019-08-08T10:12:35.000Z</time>
      </trkpt>
      <trkpt lat="47.26357" lon="-2.32975">
        <ele>36.200000762939</ele>
        <time>2019-08-08T10:12:37.000Z</time>
      </trkpt>
      <trkpt lat="47.26345" lon="-2.32955">
        <ele>36.200000762939</ele>
        <time>2019-08-08T10:12:40.000Z</time>
      </trkpt>
      <trkpt lat="47.26336" lon="-2.32931">
        <ele>36.200000762939</ele>
        <time>2019-08-08T10:12:43.000Z</time>
      </trkpt>
      <trkpt lat="47.26329" lon="-2.32907">
        <ele>36.200000762939</ele>
        <time>2019-08-08T10:12:46.000Z</time>
      </trkpt>
      <trkpt lat="47.26315" lon="-2.32869">
        <ele>36.200000762939</ele>
        <time>2019-08-08T10:12:51.000Z</time>
      </trkpt>
      <trkpt lat="47.26306" lon="-2.32858">
        <ele>36.200000762939</ele>
        <time>2019-08-08T10:12:53.000Z</time>
      </trkpt>
      <trkpt lat="47.26294" lon="-2.32853">
        <ele>36.200000762939</ele>
        <time>2019-08-08T10:12:55.000Z</time>
      </trkpt>
      <trkpt lat="47.2629" lon="-2.32849">
        <ele>36.200000762939</ele>
        <time>2019-08-08T10:12:56.000Z</time>
      </trkpt>
      <trkpt lat="47.26287" lon="-2.32842">
        <ele>36.200000762939</ele>
        <time>2019-08-08T10:12:57.000Z</time>
      </trkpt>
      <trkpt lat="47.26283" lon="-2.32817">
        <ele>36.200000762939</ele>
        <time>2019-08-08T10:13:00.000Z</time>
      </trkpt>
      <trkpt lat="47.26279" lon="-2.32799">
        <ele>36.200000762939</ele>
        <time>2019-08-08T10:13:02.000Z</time>
      </trkpt>
      <trkpt lat="47.2627" lon="-2.32775">
        <ele>36.200000762939</ele>
        <time>2019-08-08T10:13:05.000Z</time>
      </trkpt>
      <trkpt lat="47.26258" lon="-2.32755">
        <ele>36.799999237061</ele>
        <time>2019-08-08T10:13:08.000Z</time>
      </trkpt>
      <trkpt lat="47.26254" lon="-2.32749">
        <ele>37.200000762939</ele>
        <time>2019-08-08T10:13:09.000Z</time>
      </trkpt>
      <trkpt lat="47.2625" lon="-2.32744">
        <ele>37.799999237061</ele>
        <time>2019-08-08T10:13:10.000Z</time>
      </trkpt>
      <trkpt lat="47.26246" lon="-2.32738">
        <ele>38.200000762939</ele>
        <time>2019-08-08T10:13:11.000Z</time>
      </trkpt>
      <trkpt lat="47.26242" lon="-2.32733">
        <ele>38.799999237061</ele>
        <time>2019-08-08T10:13:12.000Z</time>
      </trkpt>
      <trkpt lat="47.26226" lon="-2.3271">
        <ele>38.799999237061</ele>
        <time>2019-08-08T10:13:16.000Z</time>
      </trkpt>
      <trkpt lat="47.26199" lon="-2.32681">
        <ele>38.799999237061</ele>
        <time>2019-08-08T10:13:22.000Z</time>
      </trkpt>
      <trkpt lat="47.26194" lon="-2.32675">
        <ele>38.799999237061</ele>
        <time>2019-08-08T10:13:23.000Z</time>
      </trkpt>
      <trkpt lat="47.26169" lon="-2.32654">
        <ele>38.799999237061</ele>
        <time>2019-08-08T10:13:28.000Z</time>
      </trkpt>
      <trkpt lat="47.26163" lon="-2.32651">
        <ele>38.799999237061</ele>
        <time>2019-08-08T10:13:29.000Z</time>
      </trkpt>
      <trkpt lat="47.26128" lon="-2.32639">
        <ele>38.799999237061</ele>
        <time>2019-08-08T10:13:35.000Z</time>
      </trkpt>
      <trkpt lat="47.26095" lon="-2.32638">
        <ele>38.799999237061</ele>
        <time>2019-08-08T10:13:41.000Z</time>
      </trkpt>
      <trkpt lat="47.26058" lon="-2.32644">
        <ele>38.799999237061</ele>
        <time>2019-08-08T10:13:47.000Z</time>
      </trkpt>
      <trkpt lat="47.26015" lon="-2.32652">
        <ele>38.799999237061</ele>
        <time>2019-08-08T10:13:54.000Z</time>
      </trkpt>
      <trkpt lat="47.2598" lon="-2.32655">
        <ele>38.799999237061</ele>
        <time>2019-08-08T10:14:00.000Z</time>
      </trkpt>
      <trkpt lat="47.25974" lon="-2.32654">
        <ele>38.799999237061</ele>
        <time>2019-08-08T10:14:01.000Z</time>
      </trkpt>
      <trkpt lat="47.25968" lon="-2.32654">
        <ele>38.799999237061</ele>
        <time>2019-08-08T10:14:02.000Z</time>
      </trkpt>
      <trkpt lat="47.25951" lon="-2.32653">
        <ele>38.799999237061</ele>
        <time>2019-08-08T10:14:05.000Z</time>
      </trkpt>
      <trkpt lat="47.25936" lon="-2.32638">
        <ele>38.799999237061</ele>
        <time>2019-08-08T10:14:08.000Z</time>
      </trkpt>
      <trkpt lat="47.25932" lon="-2.32631">
        <ele>38.799999237061</ele>
        <time>2019-08-08T10:14:09.000Z</time>
      </trkpt>
      <trkpt lat="47.25901" lon="-2.32592">
        <ele>38.799999237061</ele>
        <time>2019-08-08T10:14:16.000Z</time>
      </trkpt>
      <trkpt lat="47.25892" lon="-2.32582">
        <ele>38.799999237061</ele>
        <time>2019-08-08T10:14:18.000Z</time>
      </trkpt>
      <trkpt lat="47.25877" lon="-2.32569">
        <ele>38.799999237061</ele>
        <time>2019-08-08T10:14:21.000Z</time>
      </trkpt>
      <trkpt lat="47.25868" lon="-2.32558">
        <ele>38.799999237061</ele>
        <time>2019-08-08T10:14:23.000Z</time>
      </trkpt>
      <trkpt lat="47.25851" lon="-2.32535">
        <ele>38.799999237061</ele>
        <time>2019-08-08T10:14:27.000Z</time>
      </trkpt>
      <trkpt lat="47.25823" lon="-2.32495">
        <ele>38.799999237061</ele>
        <time>2019-08-08T10:14:34.000Z</time>
      </trkpt>
      <trkpt lat="47.25819" lon="-2.3249">
        <ele>38.799999237061</ele>
        <time>2019-08-08T10:14:35.000Z</time>
      </trkpt>
      <trkpt lat="47.25808" lon="-2.32482">
        <ele>38.799999237061</ele>
        <time>2019-08-08T10:14:38.000Z</time>
      </trkpt>
      <trkpt lat="47.25795" lon="-2.32481">
        <ele>38.799999237061</ele>
        <time>2019-08-08T10:14:42.000Z</time>
      </trkpt>
      <trkpt lat="47.25794" lon="-2.32481">
        <ele>38.799999237061</ele>
        <time>2019-08-08T10:14:43.000Z</time>
      </trkpt>
      <trkpt lat="47.2578" lon="-2.32482">
        <ele>38.799999237061</ele>
        <time>2019-08-08T10:14:48.000Z</time>
      </trkpt>
      <trkpt lat="47.25776" lon="-2.32467">
        <ele>38.799999237061</ele>
        <time>2019-08-08T10:14:51.000Z</time>
      </trkpt>
      <trkpt lat="47.25772" lon="-2.32455">
        <ele>38.799999237061</ele>
        <time>2019-08-08T10:14:53.000Z</time>
      </trkpt>
      <trkpt lat="47.25768" lon="-2.32443">
        <ele>38.799999237061</ele>
        <time>2019-08-08T10:14:55.000Z</time>
      </trkpt>
      <trkpt lat="47.25765" lon="-2.32437">
        <ele>38.799999237061</ele>
        <time>2019-08-08T10:14:56.000Z</time>
      </trkpt>
      <trkpt lat="47.2575" lon="-2.3243">
        <ele>38.799999237061</ele>
        <time>2019-08-08T10:14:59.000Z</time>
      </trkpt>
      <trkpt lat="47.25745" lon="-2.32429">
        <ele>38.799999237061</ele>
        <time>2019-08-08T10:15:00.000Z</time>
      </trkpt>
      <trkpt lat="47.25722" lon="-2.32427">
        <ele>38.799999237061</ele>
        <time>2019-08-08T10:15:04.000Z</time>
      </trkpt>
      <trkpt lat="47.25689" lon="-2.32424">
        <ele>38.799999237061</ele>
        <time>2019-08-08T10:15:10.000Z</time>
      </trkpt>
      <trkpt lat="47.25664" lon="-2.3242">
        <ele>38.799999237061</ele>
        <time>2019-08-08T10:15:15.000Z</time>
      </trkpt>
      <trkpt lat="47.25655" lon="-2.32417">
        <ele>38.799999237061</ele>
        <time>2019-08-08T10:15:17.000Z</time>
      </trkpt>
      <trkpt lat="47.2565" lon="-2.32404">
        <ele>38.799999237061</ele>
        <time>2019-08-08T10:15:19.000Z</time>
      </trkpt>
      <trkpt lat="47.25653" lon="-2.32389">
        <ele>38.799999237061</ele>
        <time>2019-08-08T10:15:21.000Z</time>
      </trkpt>
      <trkpt lat="47.25653" lon="-2.32382">
        <ele>38.799999237061</ele>
        <time>2019-08-08T10:15:22.000Z</time>
      </trkpt>
      <trkpt lat="47.25651" lon="-2.32329">
        <ele>39.200000762939</ele>
        <time>2019-08-08T10:15:29.000Z</time>
      </trkpt>
      <trkpt lat="47.25651" lon="-2.32322">
        <ele>39.599998474121</ele>
        <time>2019-08-08T10:15:30.000Z</time>
      </trkpt>
      <trkpt lat="47.2565" lon="-2.32315">
        <ele>40</ele>
        <time>2019-08-08T10:15:31.000Z</time>
      </trkpt>
      <trkpt lat="47.25649" lon="-2.32308">
        <ele>40.400001525879</ele>
        <time>2019-08-08T10:15:32.000Z</time>
      </trkpt>
      <trkpt lat="47.25649" lon="-2.32301">
        <ele>41</ele>
        <time>2019-08-08T10:15:33.000Z</time>
      </trkpt>
      <trkpt lat="47.25649" lon="-2.32294">
        <ele>41.400001525879</ele>
        <time>2019-08-08T10:15:34.000Z</time>
      </trkpt>
      <trkpt lat="47.25649" lon="-2.32287">
        <ele>41.799999237061</ele>
        <time>2019-08-08T10:15:35.000Z</time>
      </trkpt>
      <trkpt lat="47.25648" lon="-2.3228">
        <ele>42.200000762939</ele>
        <time>2019-08-08T10:15:36.000Z</time>
      </trkpt>
      <trkpt lat="47.25648" lon="-2.32274">
        <ele>42.799999237061</ele>
        <time>2019-08-08T10:15:37.000Z</time>
      </trkpt>
      <trkpt lat="47.25648" lon="-2.32267">
        <ele>43.200000762939</ele>
        <time>2019-08-08T10:15:38.000Z</time>
      </trkpt>
      <trkpt lat="47.25646" lon="-2.32242">
        <ele>43.599998474121</ele>
        <time>2019-08-08T10:15:42.000Z</time>
      </trkpt>
      <trkpt lat="47.25645" lon="-2.32236">
        <ele>44</ele>
        <time>2019-08-08T10:15:43.000Z</time>
      </trkpt>
      <trkpt lat="47.25645" lon="-2.3223">
        <ele>44.400001525879</ele>
        <time>2019-08-08T10:15:44.000Z</time>
      </trkpt>
      <trkpt lat="47.25645" lon="-2.32224">
        <ele>44.799999237061</ele>
        <time>2019-08-08T10:15:45.000Z</time>
      </trkpt>
      <trkpt lat="47.25644" lon="-2.32218">
        <ele>45.200000762939</ele>
        <time>2019-08-08T10:15:46.000Z</time>
      </trkpt>
      <trkpt lat="47.2564" lon="-2.32194">
        <ele>45.200000762939</ele>
        <time>2019-08-08T10:15:50.000Z</time>
      </trkpt>
      <trkpt lat="47.25638" lon="-2.32188">
        <ele>45.799999237061</ele>
        <time>2019-08-08T10:15:51.000Z</time>
      </trkpt>
      <trkpt lat="47.25637" lon="-2.32182">
        <ele>46.200000762939</ele>
        <time>2019-08-08T10:15:52.000Z</time>
      </trkpt>
      <trkpt lat="47.25635" lon="-2.32176">
        <ele>46.599998474121</ele>
        <time>2019-08-08T10:15:53.000Z</time>
      </trkpt>
      <trkpt lat="47.25633" lon="-2.32169">
        <ele>47</ele>
        <time>2019-08-08T10:15:54.000Z</time>
      </trkpt>
      <trkpt lat="47.25631" lon="-2.32163">
        <ele>47.599998474121</ele>
        <time>2019-08-08T10:15:55.000Z</time>
      </trkpt>
      <trkpt lat="47.25627" lon="-2.3215">
        <ele>47.599998474121</ele>
        <time>2019-08-08T10:15:57.000Z</time>
      </trkpt>
      <trkpt lat="47.25616" lon="-2.32118">
        <ele>47.599998474121</ele>
        <time>2019-08-08T10:16:02.000Z</time>
      </trkpt>
      <trkpt lat="47.25612" lon="-2.32106">
        <ele>47.599998474121</ele>
        <time>2019-08-08T10:16:04.000Z</time>
      </trkpt>
      <trkpt lat="47.25598" lon="-2.32068">
        <ele>47.599998474121</ele>
        <time>2019-08-08T10:16:10.000Z</time>
      </trkpt>
      <trkpt lat="47.25583" lon="-2.3203">
        <ele>48</ele>
        <time>2019-08-08T10:16:16.000Z</time>
      </trkpt>
      <trkpt lat="47.25581" lon="-2.32024">
        <ele>48.400001525879</ele>
        <time>2019-08-08T10:16:17.000Z</time>
      </trkpt>
      <trkpt lat="47.25578" lon="-2.32018">
        <ele>48.799999237061</ele>
        <time>2019-08-08T10:16:18.000Z</time>
      </trkpt>
      <trkpt lat="47.25576" lon="-2.32011">
        <ele>49.200000762939</ele>
        <time>2019-08-08T10:16:19.000Z</time>
      </trkpt>
      <trkpt lat="47.25574" lon="-2.32005">
        <ele>49.599998474121</ele>
        <time>2019-08-08T10:16:20.000Z</time>
      </trkpt>
      <trkpt lat="47.25572" lon="-2.31998">
        <ele>49.599998474121</ele>
        <time>2019-08-08T10:16:21.000Z</time>
      </trkpt>
      <trkpt lat="47.25567" lon="-2.31971">
        <ele>49.599998474121</ele>
        <time>2019-08-08T10:16:25.000Z</time>
      </trkpt>
      <trkpt lat="47.25562" lon="-2.31938">
        <ele>49.599998474121</ele>
        <time>2019-08-08T10:16:30.000Z</time>
      </trkpt>
      <trkpt lat="47.25562" lon="-2.31925">
        <ele>49.599998474121</ele>
        <time>2019-08-08T10:16:32.000Z</time>
      </trkpt>
      <trkpt lat="47.25554" lon="-2.31916">
        <ele>49.599998474121</ele>
        <time>2019-08-08T10:16:35.000Z</time>
      </trkpt>
      <trkpt lat="47.25547" lon="-2.31919">
        <ele>49.599998474121</ele>
        <time>2019-08-08T10:16:37.000Z</time>
      </trkpt>
      <trkpt lat="47.25542" lon="-2.31917">
        <ele>49.599998474121</ele>
        <time>2019-08-08T10:16:39.000Z</time>
      </trkpt>
      <trkpt lat="47.25531" lon="-2.319">
        <ele>49.599998474121</ele>
        <time>2019-08-08T10:16:43.000Z</time>
      </trkpt>
      <trkpt lat="47.25524" lon="-2.31871">
        <ele>49.599998474121</ele>
        <time>2019-08-08T10:16:48.000Z</time>
      </trkpt>
      <trkpt lat="47.25516" lon="-2.31844">
        <ele>49.599998474121</ele>
        <time>2019-08-08T10:16:54.000Z</time>
      </trkpt>
      <trkpt lat="47.25514" lon="-2.31841">
        <ele>50</ele>
        <time>2019-08-08T10:16:55.000Z</time>
      </trkpt>
      <trkpt lat="47.25514" lon="-2.3184">
        <ele>50.400001525879</ele>
        <time>2019-08-08T10:16:56.000Z</time>
      </trkpt>
      <trkpt lat="47.25514" lon="-2.3184">
        <ele>50.799999237061</ele>
        <time>2019-08-08T10:16:57.000Z</time>
      </trkpt>
      <trkpt lat="47.25514" lon="-2.3184">
        <ele>51.200000762939</ele>
        <time>2019-08-08T10:16:58.000Z</time>
      </trkpt>
      <trkpt lat="47.25516" lon="-2.31828">
        <ele>51.599998474121</ele>
        <time>2019-08-08T10:28:24.000Z</time>
      </trkpt>
      <trkpt lat="47.2552" lon="-2.31823">
        <ele>51.599998474121</ele>
        <time>2019-08-08T10:28:27.000Z</time>
      </trkpt>
      <trkpt lat="47.25522" lon="-2.31818">
        <ele>51.599998474121</ele>
        <time>2019-08-08T10:28:30.000Z</time>
      </trkpt>
      <trkpt lat="47.25525" lon="-2.31816">
        <ele>51.599998474121</ele>
        <time>2019-08-08T10:28:32.000Z</time>
      </trkpt>
      <trkpt lat="47.25526" lon="-2.31814">
        <ele>51.599998474121</ele>
        <time>2019-08-08T10:28:33.000Z</time>
      </trkpt>
      <trkpt lat="47.25539" lon="-2.31804">
        <ele>51.599998474121</ele>
        <time>2019-08-08T10:28:39.000Z</time>
      </trkpt>
      <trkpt lat="47.25558" lon="-2.31797">
        <ele>51.599998474121</ele>
        <time>2019-08-08T10:28:44.000Z</time>
      </trkpt>
      <trkpt lat="47.25566" lon="-2.31781">
        <ele>51.599998474121</ele>
        <time>2019-08-08T10:28:48.000Z</time>
      </trkpt>
      <trkpt lat="47.25571" lon="-2.31773">
        <ele>50.799999237061</ele>
        <time>2019-08-08T10:28:50.000Z</time>
      </trkpt>
      <trkpt lat="47.25574" lon="-2.31768">
        <ele>50.400001525879</ele>
        <time>2019-08-08T10:28:51.000Z</time>
      </trkpt>
      <trkpt lat="47.25578" lon="-2.31764">
        <ele>50</ele>
        <time>2019-08-08T10:28:52.000Z</time>
      </trkpt>
      <trkpt lat="47.25582" lon="-2.31759">
        <ele>49.599998474121</ele>
        <time>2019-08-08T10:28:53.000Z</time>
      </trkpt>
      <trkpt lat="47.25586" lon="-2.31753">
        <ele>49.599998474121</ele>
        <time>2019-08-08T10:28:54.000Z</time>
      </trkpt>
      <trkpt lat="47.25591" lon="-2.31738">
        <ele>49.599998474121</ele>
        <time>2019-08-08T10:28:56.000Z</time>
      </trkpt>
      <trkpt lat="47.25593" lon="-2.31732">
        <ele>49.599998474121</ele>
        <time>2019-08-08T10:28:57.000Z</time>
      </trkpt>
      <trkpt lat="47.25598" lon="-2.3172">
        <ele>49.599998474121</ele>
        <time>2019-08-08T10:28:59.000Z</time>
      </trkpt>
      <trkpt lat="47.2561" lon="-2.31709">
        <ele>49.599998474121</ele>
        <time>2019-08-08T10:29:02.000Z</time>
      </trkpt>
      <trkpt lat="47.25626" lon="-2.31707">
        <ele>49.599998474121</ele>
        <time>2019-08-08T10:29:05.000Z</time>
      </trkpt>
      <trkpt lat="47.25632" lon="-2.31706">
        <ele>49.599998474121</ele>
        <time>2019-08-08T10:29:06.000Z</time>
      </trkpt>
      <trkpt lat="47.25643" lon="-2.31699">
        <ele>49.200000762939</ele>
        <time>2019-08-08T10:29:08.000Z</time>
      </trkpt>
      <trkpt lat="47.25648" lon="-2.31693">
        <ele>48.799999237061</ele>
        <time>2019-08-08T10:29:09.000Z</time>
      </trkpt>
      <trkpt lat="47.25653" lon="-2.31685">
        <ele>48.400001525879</ele>
        <time>2019-08-08T10:29:10.000Z</time>
      </trkpt>
      <trkpt lat="47.25656" lon="-2.31676">
        <ele>48</ele>
        <time>2019-08-08T10:29:11.000Z</time>
      </trkpt>
      <trkpt lat="47.25658" lon="-2.31667">
        <ele>47.400001525879</ele>
        <time>2019-08-08T10:29:12.000Z</time>
      </trkpt>
      <trkpt lat="47.25661" lon="-2.31662">
        <ele>47.400001525879</ele>
        <time>2019-08-08T10:29:13.000Z</time>
      </trkpt>
      <trkpt lat="47.25672" lon="-2.31663">
        <ele>47.400001525879</ele>
        <time>2019-08-08T10:29:15.000Z</time>
      </trkpt>
      <trkpt lat="47.25683" lon="-2.31672">
        <ele>47</ele>
        <time>2019-08-08T10:29:17.000Z</time>
      </trkpt>
      <trkpt lat="47.25688" lon="-2.31675">
        <ele>46.599998474121</ele>
        <time>2019-08-08T10:29:18.000Z</time>
      </trkpt>
      <trkpt lat="47.25695" lon="-2.31677">
        <ele>46.200000762939</ele>
        <time>2019-08-08T10:29:19.000Z</time>
      </trkpt>
      <trkpt lat="47.257" lon="-2.3168">
        <ele>45.799999237061</ele>
        <time>2019-08-08T10:29:20.000Z</time>
      </trkpt>
      <trkpt lat="47.25707" lon="-2.31684">
        <ele>45.400001525879</ele>
        <time>2019-08-08T10:29:21.000Z</time>
      </trkpt>
      <trkpt lat="47.25715" lon="-2.31692">
        <ele>45.400001525879</ele>
        <time>2019-08-08T10:29:23.000Z</time>
      </trkpt>
      <trkpt lat="47.25719" lon="-2.31693">
        <ele>45</ele>
        <time>2019-08-08T10:29:24.000Z</time>
      </trkpt>
      <trkpt lat="47.25722" lon="-2.31695">
        <ele>44.599998474121</ele>
        <time>2019-08-08T10:29:25.000Z</time>
      </trkpt>
      <trkpt lat="47.25726" lon="-2.31698">
        <ele>44.200000762939</ele>
        <time>2019-08-08T10:29:26.000Z</time>
      </trkpt>
      <trkpt lat="47.2573" lon="-2.31698">
        <ele>43.799999237061</ele>
        <time>2019-08-08T10:29:27.000Z</time>
      </trkpt>
      <trkpt lat="47.25735" lon="-2.31696">
        <ele>43.400001525879</ele>
        <time>2019-08-08T10:29:28.000Z</time>
      </trkpt>
      <trkpt lat="47.25744" lon="-2.31688">
        <ele>43.400001525879</ele>
        <time>2019-08-08T10:29:30.000Z</time>
      </trkpt>
      <trkpt lat="47.2577" lon="-2.31665">
        <ele>43.400001525879</ele>
        <time>2019-08-08T10:29:37.000Z</time>
      </trkpt>
      <trkpt lat="47.25786" lon="-2.31651">
        <ele>43.400001525879</ele>
        <time>2019-08-08T10:29:41.000Z</time>
      </trkpt>
      <trkpt lat="47.25797" lon="-2.31642">
        <ele>43.400001525879</ele>
        <time>2019-08-08T10:29:44.000Z</time>
      </trkpt>
      <trkpt lat="47.25812" lon="-2.31629">
        <ele>43.400001525879</ele>
        <time>2019-08-08T10:29:48.000Z</time>
      </trkpt>
      <trkpt lat="47.25824" lon="-2.3162">
        <ele>43.400001525879</ele>
        <time>2019-08-08T10:29:51.000Z</time>
      </trkpt>
      <trkpt lat="47.2584" lon="-2.31608">
        <ele>43.400001525879</ele>
        <time>2019-08-08T10:29:55.000Z</time>
      </trkpt>
      <trkpt lat="47.25852" lon="-2.31597">
        <ele>43.400001525879</ele>
        <time>2019-08-08T10:29:58.000Z</time>
      </trkpt>
      <trkpt lat="47.25861" lon="-2.31588">
        <ele>43.400001525879</ele>
        <time>2019-08-08T10:30:00.000Z</time>
      </trkpt>
      <trkpt lat="47.25877" lon="-2.31573">
        <ele>43.400001525879</ele>
        <time>2019-08-08T10:30:03.000Z</time>
      </trkpt>
      <trkpt lat="47.25895" lon="-2.31542">
        <ele>43.400001525879</ele>
        <time>2019-08-08T10:30:07.000Z</time>
      </trkpt>
      <trkpt lat="47.25897" lon="-2.31533">
        <ele>43.400001525879</ele>
        <time>2019-08-08T10:30:08.000Z</time>
      </trkpt>
      <trkpt lat="47.25903" lon="-2.31518">
        <ele>43.400001525879</ele>
        <time>2019-08-08T10:30:10.000Z</time>
      </trkpt>
      <trkpt lat="47.25913" lon="-2.31515">
        <ele>43.400001525879</ele>
        <time>2019-08-08T10:30:12.000Z</time>
      </trkpt>
      <trkpt lat="47.25923" lon="-2.3152">
        <ele>43.400001525879</ele>
        <time>2019-08-08T10:30:14.000Z</time>
      </trkpt>
      <trkpt lat="47.25928" lon="-2.31524">
        <ele>43.400001525879</ele>
        <time>2019-08-08T10:30:15.000Z</time>
      </trkpt>
      <trkpt lat="47.25931" lon="-2.31528">
        <ele>43.400001525879</ele>
        <time>2019-08-08T10:30:16.000Z</time>
      </trkpt>
      <trkpt lat="47.25939" lon="-2.31548">
        <ele>43.400001525879</ele>
        <time>2019-08-08T10:30:19.000Z</time>
      </trkpt>
      <trkpt lat="47.25941" lon="-2.31554">
        <ele>43.400001525879</ele>
        <time>2019-08-08T10:30:20.000Z</time>
      </trkpt>
      <trkpt lat="47.2595" lon="-2.31578">
        <ele>43.400001525879</ele>
        <time>2019-08-08T10:30:24.000Z</time>
      </trkpt>
      <trkpt lat="47.25956" lon="-2.31588">
        <ele>43.400001525879</ele>
        <time>2019-08-08T10:30:26.000Z</time>
      </trkpt>
      <trkpt lat="47.25983" lon="-2.31625">
        <ele>43.400001525879</ele>
        <time>2019-08-08T10:30:34.000Z</time>
      </trkpt>
      <trkpt lat="47.26" lon="-2.31652">
        <ele>43</ele>
        <time>2019-08-08T10:30:39.000Z</time>
      </trkpt>
      <trkpt lat="47.26003" lon="-2.31656">
        <ele>42.599998474121</ele>
        <time>2019-08-08T10:30:40.000Z</time>
      </trkpt>
      <trkpt lat="47.26007" lon="-2.3166">
        <ele>42</ele>
        <time>2019-08-08T10:30:41.000Z</time>
      </trkpt>
      <trkpt lat="47.2601" lon="-2.31661">
        <ele>41.599998474121</ele>
        <time>2019-08-08T10:30:42.000Z</time>
      </trkpt>
      <trkpt lat="47.26014" lon="-2.3166">
        <ele>41.200000762939</ele>
        <time>2019-08-08T10:30:43.000Z</time>
      </trkpt>
      <trkpt lat="47.26018" lon="-2.31657">
        <ele>41.200000762939</ele>
        <time>2019-08-08T10:30:44.000Z</time>
      </trkpt>
      <trkpt lat="47.26022" lon="-2.31652">
        <ele>41.200000762939</ele>
        <time>2019-08-08T10:30:45.000Z</time>
      </trkpt>
      <trkpt lat="47.26044" lon="-2.31625">
        <ele>41.200000762939</ele>
        <time>2019-08-08T10:30:50.000Z</time>
      </trkpt>
      <trkpt lat="47.26065" lon="-2.31599">
        <ele>40.799999237061</ele>
        <time>2019-08-08T10:30:55.000Z</time>
      </trkpt>
      <trkpt lat="47.26069" lon="-2.31595">
        <ele>40.400001525879</ele>
        <time>2019-08-08T10:30:56.000Z</time>
      </trkpt>
      <trkpt lat="47.26073" lon="-2.3159">
        <ele>40</ele>
        <time>2019-08-08T10:30:57.000Z</time>
      </trkpt>
      <trkpt lat="47.26077" lon="-2.31585">
        <ele>39.400001525879</ele>
        <time>2019-08-08T10:30:58.000Z</time>
      </trkpt>
      <trkpt lat="47.26081" lon="-2.31582">
        <ele>39</ele>
        <time>2019-08-08T10:30:59.000Z</time>
      </trkpt>
      <trkpt lat="47.26091" lon="-2.31586">
        <ele>39</ele>
        <time>2019-08-08T10:31:01.000Z</time>
      </trkpt>
      <trkpt lat="47.26106" lon="-2.3161">
        <ele>39</ele>
        <time>2019-08-08T10:31:05.000Z</time>
      </trkpt>
      <trkpt lat="47.2612" lon="-2.31618">
        <ele>39</ele>
        <time>2019-08-08T10:31:08.000Z</time>
      </trkpt>
      <trkpt lat="47.26131" lon="-2.31615">
        <ele>39</ele>
        <time>2019-08-08T10:31:10.000Z</time>
      </trkpt>
      <trkpt lat="47.26146" lon="-2.31611">
        <ele>39</ele>
        <time>2019-08-08T10:31:13.000Z</time>
      </trkpt>
      <trkpt lat="47.26181" lon="-2.31598">
        <ele>39</ele>
        <time>2019-08-08T10:31:20.000Z</time>
      </trkpt>
      <trkpt lat="47.2619" lon="-2.31594">
        <ele>39</ele>
        <time>2019-08-08T10:31:22.000Z</time>
      </trkpt>
      <trkpt lat="47.26205" lon="-2.31591">
        <ele>39</ele>
        <time>2019-08-08T10:31:25.000Z</time>
      </trkpt>
      <trkpt lat="47.2621" lon="-2.3159">
        <ele>39</ele>
        <time>2019-08-08T10:31:26.000Z</time>
      </trkpt>
      <trkpt lat="47.26215" lon="-2.3159">
        <ele>39</ele>
        <time>2019-08-08T10:31:27.000Z</time>
      </trkpt>
      <trkpt lat="47.26228" lon="-2.31594">
        <ele>39</ele>
        <time>2019-08-08T10:31:30.000Z</time>
      </trkpt>
      <trkpt lat="47.26233" lon="-2.31596">
        <ele>39</ele>
        <time>2019-08-08T10:31:31.000Z</time>
      </trkpt>
      <trkpt lat="47.26237" lon="-2.31598">
        <ele>39</ele>
        <time>2019-08-08T10:31:32.000Z</time>
      </trkpt>
      <trkpt lat="47.26251" lon="-2.31614">
        <ele>39</ele>
        <time>2019-08-08T10:31:36.000Z</time>
      </trkpt>
      <trkpt lat="47.26257" lon="-2.31623">
        <ele>39</ele>
        <time>2019-08-08T10:31:38.000Z</time>
      </trkpt>
      <trkpt lat="47.26267" lon="-2.31645">
        <ele>39</ele>
        <time>2019-08-08T10:31:42.000Z</time>
      </trkpt>
      <trkpt lat="47.26273" lon="-2.31657">
        <ele>39</ele>
        <time>2019-08-08T10:31:44.000Z</time>
      </trkpt>
      <trkpt lat="47.26281" lon="-2.31674">
        <ele>39</ele>
        <time>2019-08-08T10:31:47.000Z</time>
      </trkpt>
      <trkpt lat="47.26283" lon="-2.3168">
        <ele>39</ele>
        <time>2019-08-08T10:31:48.000Z</time>
      </trkpt>
      <trkpt lat="47.26295" lon="-2.31703">
        <ele>39</ele>
        <time>2019-08-08T10:31:52.000Z</time>
      </trkpt>
      <trkpt lat="47.26299" lon="-2.31707">
        <ele>39</ele>
        <time>2019-08-08T10:31:53.000Z</time>
      </trkpt>
      <trkpt lat="47.2631" lon="-2.31709">
        <ele>39</ele>
        <time>2019-08-08T10:31:56.000Z</time>
      </trkpt>
      <trkpt lat="47.2633" lon="-2.31697">
        <ele>39</ele>
        <time>2019-08-08T10:32:02.000Z</time>
      </trkpt>
      <trkpt lat="47.26334" lon="-2.31688">
        <ele>39</ele>
        <time>2019-08-08T10:32:04.000Z</time>
      </trkpt>
      <trkpt lat="47.2634" lon="-2.31685">
        <ele>39</ele>
        <time>2019-08-08T10:32:06.000Z</time>
      </trkpt>
      <trkpt lat="47.26346" lon="-2.31681">
        <ele>39</ele>
        <time>2019-08-08T10:32:08.000Z</time>
      </trkpt>
      <trkpt lat="47.26356" lon="-2.31675">
        <ele>39.400001525879</ele>
        <time>2019-08-08T10:32:11.000Z</time>
      </trkpt>
      <trkpt lat="47.26359" lon="-2.31674">
        <ele>39.799999237061</ele>
        <time>2019-08-08T10:32:12.000Z</time>
      </trkpt>
      <trkpt lat="47.26363" lon="-2.31672">
        <ele>40.200000762939</ele>
        <time>2019-08-08T10:32:13.000Z</time>
      </trkpt>
      <trkpt lat="47.26366" lon="-2.31671">
        <ele>40.599998474121</ele>
        <time>2019-08-08T10:32:14.000Z</time>
      </trkpt>
      <trkpt lat="47.26369" lon="-2.31669">
        <ele>41</ele>
        <time>2019-08-08T10:32:15.000Z</time>
      </trkpt>
      <trkpt lat="47.26373" lon="-2.31668">
        <ele>41</ele>
        <time>2019-08-08T10:32:16.000Z</time>
      </trkpt>
      <trkpt lat="47.26393" lon="-2.31659">
        <ele>41</ele>
        <time>2019-08-08T10:32:22.000Z</time>
      </trkpt>
      <trkpt lat="47.26407" lon="-2.31652">
        <ele>41</ele>
        <time>2019-08-08T10:32:27.000Z</time>
      </trkpt>
      <trkpt lat="47.26409" lon="-2.31649">
        <ele>41</ele>
        <time>2019-08-08T10:32:28.000Z</time>
      </trkpt>
      <trkpt lat="47.26409" lon="-2.31641">
        <ele>41</ele>
        <time>2019-08-08T10:32:30.000Z</time>
      </trkpt>
      <trkpt lat="47.26408" lon="-2.31609">
        <ele>41</ele>
        <time>2019-08-08T10:32:37.000Z</time>
      </trkpt>
      <trkpt lat="47.26408" lon="-2.31587">
        <ele>41</ele>
        <time>2019-08-08T10:32:42.000Z</time>
      </trkpt>
      <trkpt lat="47.26408" lon="-2.31566">
        <ele>41</ele>
        <time>2019-08-08T10:32:47.000Z</time>
      </trkpt>
      <trkpt lat="47.26412" lon="-2.31552">
        <ele>41</ele>
        <time>2019-08-08T10:32:51.000Z</time>
      </trkpt>
      <trkpt lat="47.26414" lon="-2.31552">
        <ele>41</ele>
        <time>2019-08-08T10:32:52.000Z</time>
      </trkpt>
      <trkpt lat="47.26416" lon="-2.31553">
        <ele>41.400001525879</ele>
        <time>2019-08-08T10:32:54.000Z</time>
      </trkpt>
      <trkpt lat="47.26417" lon="-2.31553">
        <ele>41.799999237061</ele>
        <time>2019-08-08T10:32:55.000Z</time>
      </trkpt>
    </trkseg>
  </trk>
</gpx>